<?xml version="1.0" encoding="UTF-8" standalone="no" ?>
<gpx xmlns="http://www.topografix.com/GPX/1/1" xmlns:xsi="http://www.w3.org/2001/XMLSchema-instance" xsi:schemaLocation="http://www.topografix.com/GPX/1/1 http://www.topografix.com/GPX/1/1/gpx.xsd" version="1.1" creator="VisuGPX - https://www.visugpx.com">
  <metadata>
    <name>VTT esterel 1er novembre 2012</name>
    <desc><![CDATA[VTT esterel 1er novembre 2012]]></desc>
  </metadata>
  <trk>
    <name><![CDATA[VTT esterel 1er novembre 2012_1]]></name>
    <trkseg>
      <trkpt lat="43.52657" lon="6.83885">
        <ele>237</ele>
        <time>2012-11-01T09:22:53Z</time>
      </trkpt>
      <trkpt lat="43.52653" lon="6.83845">
        <ele>237</ele>
        <time>2012-11-01T09:23:02Z</time>
      </trkpt>
      <trkpt lat="43.52652" lon="6.8384">
        <ele>237</ele>
        <time>2012-11-01T09:23:03Z</time>
      </trkpt>
      <trkpt lat="43.5265" lon="6.83835">
        <ele>237</ele>
        <time>2012-11-01T09:23:03Z</time>
      </trkpt>
      <trkpt lat="43.52649" lon="6.8383">
        <ele>237</ele>
        <time>2012-11-01T09:23:04Z</time>
      </trkpt>
      <trkpt lat="43.52647" lon="6.83825">
        <ele>236</ele>
        <time>2012-11-01T09:23:06Z</time>
      </trkpt>
      <trkpt lat="43.52646" lon="6.83819">
        <ele>236</ele>
        <time>2012-11-01T09:23:07Z</time>
      </trkpt>
      <trkpt lat="43.52644" lon="6.83814">
        <ele>235</ele>
        <time>2012-11-01T09:23:07Z</time>
      </trkpt>
      <trkpt lat="43.52642" lon="6.83809">
        <ele>235</ele>
        <time>2012-11-01T09:23:09Z</time>
      </trkpt>
      <trkpt lat="43.5264" lon="6.83804">
        <ele>235</ele>
        <time>2012-11-01T09:23:10Z</time>
      </trkpt>
      <trkpt lat="43.52638" lon="6.83799">
        <ele>234</ele>
        <time>2012-11-01T09:23:11Z</time>
      </trkpt>
      <trkpt lat="43.52636" lon="6.83793">
        <ele>234</ele>
        <time>2012-11-01T09:23:11Z</time>
      </trkpt>
      <trkpt lat="43.52635" lon="6.83788">
        <ele>234</ele>
        <time>2012-11-01T09:23:13Z</time>
      </trkpt>
      <trkpt lat="43.52634" lon="6.83784">
        <ele>234</ele>
        <time>2012-11-01T09:23:14Z</time>
      </trkpt>
      <trkpt lat="43.52633" lon="6.83779">
        <ele>234</ele>
        <time>2012-11-01T09:23:15Z</time>
      </trkpt>
      <trkpt lat="43.52632" lon="6.83775">
        <ele>234</ele>
        <time>2012-11-01T09:23:15Z</time>
      </trkpt>
      <trkpt lat="43.52632" lon="6.83771">
        <ele>234</ele>
        <time>2012-11-01T09:23:17Z</time>
      </trkpt>
      <trkpt lat="43.52632" lon="6.83766">
        <ele>234</ele>
        <time>2012-11-01T09:23:18Z</time>
      </trkpt>
      <trkpt lat="43.52633" lon="6.83761">
        <ele>234</ele>
        <time>2012-11-01T09:23:19Z</time>
      </trkpt>
      <trkpt lat="43.52636" lon="6.83757">
        <ele>234</ele>
        <time>2012-11-01T09:23:19Z</time>
      </trkpt>
      <trkpt lat="43.52639" lon="6.83753">
        <ele>234</ele>
        <time>2012-11-01T09:23:21Z</time>
      </trkpt>
      <trkpt lat="43.52642" lon="6.83747">
        <ele>234</ele>
        <time>2012-11-01T09:23:21Z</time>
      </trkpt>
      <trkpt lat="43.52644" lon="6.83742">
        <ele>234</ele>
        <time>2012-11-01T09:23:23Z</time>
      </trkpt>
      <trkpt lat="43.52646" lon="6.83736">
        <ele>234</ele>
        <time>2012-11-01T09:23:23Z</time>
      </trkpt>
      <trkpt lat="43.52648" lon="6.8373">
        <ele>234</ele>
        <time>2012-11-01T09:23:25Z</time>
      </trkpt>
      <trkpt lat="43.52649" lon="6.83724">
        <ele>234</ele>
        <time>2012-11-01T09:23:26Z</time>
      </trkpt>
      <trkpt lat="43.5265" lon="6.83718">
        <ele>234</ele>
        <time>2012-11-01T09:23:26Z</time>
      </trkpt>
      <trkpt lat="43.52652" lon="6.83712">
        <ele>234</ele>
        <time>2012-11-01T09:23:27Z</time>
      </trkpt>
      <trkpt lat="43.52653" lon="6.83706">
        <ele>234</ele>
        <time>2012-11-01T09:23:29Z</time>
      </trkpt>
      <trkpt lat="43.52655" lon="6.837">
        <ele>234</ele>
        <time>2012-11-01T09:23:30Z</time>
      </trkpt>
      <trkpt lat="43.52657" lon="6.83693">
        <ele>234</ele>
        <time>2012-11-01T09:23:31Z</time>
      </trkpt>
      <trkpt lat="43.52659" lon="6.83686">
        <ele>234</ele>
        <time>2012-11-01T09:23:31Z</time>
      </trkpt>
      <trkpt lat="43.52661" lon="6.8368">
        <ele>234</ele>
        <time>2012-11-01T09:23:32Z</time>
      </trkpt>
      <trkpt lat="43.52662" lon="6.83673">
        <ele>234</ele>
        <time>2012-11-01T09:23:34Z</time>
      </trkpt>
      <trkpt lat="43.52663" lon="6.83666">
        <ele>234</ele>
        <time>2012-11-01T09:23:35Z</time>
      </trkpt>
      <trkpt lat="43.52664" lon="6.8366">
        <ele>234</ele>
        <time>2012-11-01T09:23:35Z</time>
      </trkpt>
      <trkpt lat="43.52664" lon="6.83653">
        <ele>234</ele>
        <time>2012-11-01T09:23:36Z</time>
      </trkpt>
      <trkpt lat="43.52663" lon="6.83647">
        <ele>234</ele>
        <time>2012-11-01T09:23:37Z</time>
      </trkpt>
      <trkpt lat="43.52662" lon="6.83641">
        <ele>234</ele>
        <time>2012-11-01T09:23:39Z</time>
      </trkpt>
      <trkpt lat="43.5266" lon="6.83636">
        <ele>234</ele>
        <time>2012-11-01T09:23:39Z</time>
      </trkpt>
      <trkpt lat="43.52657" lon="6.83631">
        <ele>234</ele>
        <time>2012-11-01T09:23:41Z</time>
      </trkpt>
      <trkpt lat="43.52654" lon="6.83627">
        <ele>234</ele>
        <time>2012-11-01T09:23:41Z</time>
      </trkpt>
      <trkpt lat="43.52651" lon="6.83623">
        <ele>234</ele>
        <time>2012-11-01T09:23:43Z</time>
      </trkpt>
      <trkpt lat="43.52647" lon="6.8362">
        <ele>234</ele>
        <time>2012-11-01T09:23:43Z</time>
      </trkpt>
      <trkpt lat="43.52643" lon="6.83617">
        <ele>234</ele>
        <time>2012-11-01T09:23:45Z</time>
      </trkpt>
      <trkpt lat="43.52639" lon="6.83614">
        <ele>234</ele>
        <time>2012-11-01T09:23:46Z</time>
      </trkpt>
      <trkpt lat="43.52635" lon="6.83611">
        <ele>234</ele>
        <time>2012-11-01T09:23:47Z</time>
      </trkpt>
      <trkpt lat="43.52631" lon="6.83608">
        <ele>234</ele>
        <time>2012-11-01T09:23:47Z</time>
      </trkpt>
      <trkpt lat="43.52628" lon="6.83605">
        <ele>234</ele>
        <time>2012-11-01T09:23:49Z</time>
      </trkpt>
      <trkpt lat="43.52624" lon="6.83602">
        <ele>234</ele>
        <time>2012-11-01T09:23:50Z</time>
      </trkpt>
      <trkpt lat="43.5262" lon="6.83598">
        <ele>234</ele>
        <time>2012-11-01T09:23:51Z</time>
      </trkpt>
      <trkpt lat="43.52617" lon="6.83595">
        <ele>234</ele>
        <time>2012-11-01T09:23:52Z</time>
      </trkpt>
      <trkpt lat="43.52613" lon="6.83592">
        <ele>234</ele>
        <time>2012-11-01T09:23:53Z</time>
      </trkpt>
      <trkpt lat="43.5261" lon="6.83588">
        <ele>235</ele>
        <time>2012-11-01T09:23:54Z</time>
      </trkpt>
      <trkpt lat="43.52607" lon="6.83584">
        <ele>235</ele>
        <time>2012-11-01T09:23:55Z</time>
      </trkpt>
      <trkpt lat="43.52603" lon="6.8358">
        <ele>235</ele>
        <time>2012-11-01T09:23:55Z</time>
      </trkpt>
      <trkpt lat="43.526" lon="6.83576">
        <ele>235</ele>
        <time>2012-11-01T09:23:57Z</time>
      </trkpt>
      <trkpt lat="43.52597" lon="6.83573">
        <ele>235</ele>
        <time>2012-11-01T09:23:58Z</time>
      </trkpt>
      <trkpt lat="43.52595" lon="6.83569">
        <ele>236</ele>
        <time>2012-11-01T09:23:59Z</time>
      </trkpt>
      <trkpt lat="43.52593" lon="6.83566">
        <ele>236</ele>
        <time>2012-11-01T09:24:00Z</time>
      </trkpt>
      <trkpt lat="43.52591" lon="6.83563">
        <ele>236</ele>
        <time>2012-11-01T09:24:00Z</time>
      </trkpt>
      <trkpt lat="43.52589" lon="6.83559">
        <ele>236</ele>
        <time>2012-11-01T09:24:01Z</time>
      </trkpt>
      <trkpt lat="43.52586" lon="6.83556">
        <ele>236</ele>
        <time>2012-11-01T09:24:03Z</time>
      </trkpt>
      <trkpt lat="43.52583" lon="6.83552">
        <ele>236</ele>
        <time>2012-11-01T09:24:04Z</time>
      </trkpt>
      <trkpt lat="43.52581" lon="6.83548">
        <ele>236</ele>
        <time>2012-11-01T09:24:05Z</time>
      </trkpt>
      <trkpt lat="43.52579" lon="6.83544">
        <ele>236</ele>
        <time>2012-11-01T09:24:05Z</time>
      </trkpt>
      <trkpt lat="43.52576" lon="6.8354">
        <ele>236</ele>
        <time>2012-11-01T09:24:07Z</time>
      </trkpt>
      <trkpt lat="43.52574" lon="6.83536">
        <ele>236</ele>
        <time>2012-11-01T09:24:08Z</time>
      </trkpt>
      <trkpt lat="43.52571" lon="6.83532">
        <ele>236</ele>
        <time>2012-11-01T09:24:09Z</time>
      </trkpt>
      <trkpt lat="43.52568" lon="6.83528">
        <ele>236</ele>
        <time>2012-11-01T09:24:09Z</time>
      </trkpt>
      <trkpt lat="43.52565" lon="6.83524">
        <ele>237</ele>
        <time>2012-11-01T09:24:11Z</time>
      </trkpt>
      <trkpt lat="43.52563" lon="6.8352">
        <ele>237</ele>
        <time>2012-11-01T09:24:12Z</time>
      </trkpt>
      <trkpt lat="43.52562" lon="6.83515">
        <ele>237</ele>
        <time>2012-11-01T09:24:13Z</time>
      </trkpt>
      <trkpt lat="43.5256" lon="6.83511">
        <ele>237</ele>
        <time>2012-11-01T09:24:14Z</time>
      </trkpt>
      <trkpt lat="43.52559" lon="6.83506">
        <ele>237</ele>
        <time>2012-11-01T09:24:14Z</time>
      </trkpt>
      <trkpt lat="43.52558" lon="6.83501">
        <ele>237</ele>
        <time>2012-11-01T09:24:16Z</time>
      </trkpt>
      <trkpt lat="43.52558" lon="6.83496">
        <ele>237</ele>
        <time>2012-11-01T09:24:17Z</time>
      </trkpt>
      <trkpt lat="43.52558" lon="6.8349">
        <ele>237</ele>
        <time>2012-11-01T09:24:17Z</time>
      </trkpt>
      <trkpt lat="43.52558" lon="6.83486">
        <ele>237</ele>
        <time>2012-11-01T09:24:18Z</time>
      </trkpt>
      <trkpt lat="43.52558" lon="6.83481">
        <ele>237</ele>
        <time>2012-11-01T09:24:19Z</time>
      </trkpt>
      <trkpt lat="43.52558" lon="6.83475">
        <ele>237</ele>
        <time>2012-11-01T09:24:21Z</time>
      </trkpt>
      <trkpt lat="43.52558" lon="6.8347">
        <ele>237</ele>
        <time>2012-11-01T09:24:22Z</time>
      </trkpt>
      <trkpt lat="43.52558" lon="6.83465">
        <ele>237</ele>
        <time>2012-11-01T09:24:23Z</time>
      </trkpt>
      <trkpt lat="43.52558" lon="6.8346">
        <ele>237</ele>
        <time>2012-11-01T09:24:24Z</time>
      </trkpt>
      <trkpt lat="43.52558" lon="6.83454">
        <ele>237</ele>
        <time>2012-11-01T09:24:24Z</time>
      </trkpt>
      <trkpt lat="43.52558" lon="6.83449">
        <ele>237</ele>
        <time>2012-11-01T09:24:26Z</time>
      </trkpt>
      <trkpt lat="43.52558" lon="6.83444">
        <ele>237</ele>
        <time>2012-11-01T09:24:27Z</time>
      </trkpt>
      <trkpt lat="43.52557" lon="6.83439">
        <ele>237</ele>
        <time>2012-11-01T09:24:27Z</time>
      </trkpt>
      <trkpt lat="43.52558" lon="6.83434">
        <ele>237</ele>
        <time>2012-11-01T09:24:29Z</time>
      </trkpt>
      <trkpt lat="43.52557" lon="6.83429">
        <ele>237</ele>
        <time>2012-11-01T09:24:30Z</time>
      </trkpt>
      <trkpt lat="43.52558" lon="6.83424">
        <ele>237</ele>
        <time>2012-11-01T09:24:31Z</time>
      </trkpt>
      <trkpt lat="43.52558" lon="6.83419">
        <ele>237</ele>
        <time>2012-11-01T09:24:32Z</time>
      </trkpt>
      <trkpt lat="43.52557" lon="6.83414">
        <ele>238</ele>
        <time>2012-11-01T09:24:33Z</time>
      </trkpt>
      <trkpt lat="43.52556" lon="6.83408">
        <ele>239</ele>
        <time>2012-11-01T09:24:34Z</time>
      </trkpt>
      <trkpt lat="43.52556" lon="6.83403">
        <ele>240</ele>
        <time>2012-11-01T09:24:35Z</time>
      </trkpt>
      <trkpt lat="43.52555" lon="6.83397">
        <ele>241</ele>
        <time>2012-11-01T09:24:35Z</time>
      </trkpt>
      <trkpt lat="43.52555" lon="6.83392">
        <ele>241</ele>
        <time>2012-11-01T09:24:37Z</time>
      </trkpt>
      <trkpt lat="43.52554" lon="6.83386">
        <ele>241</ele>
        <time>2012-11-01T09:24:38Z</time>
      </trkpt>
      <trkpt lat="43.52554" lon="6.8338">
        <ele>241</ele>
        <time>2012-11-01T09:24:39Z</time>
      </trkpt>
      <trkpt lat="43.52554" lon="6.83374">
        <ele>241</ele>
        <time>2012-11-01T09:24:39Z</time>
      </trkpt>
      <trkpt lat="43.52555" lon="6.83368">
        <ele>242</ele>
        <time>2012-11-01T09:24:40Z</time>
      </trkpt>
      <trkpt lat="43.52555" lon="6.83363">
        <ele>242</ele>
        <time>2012-11-01T09:24:42Z</time>
      </trkpt>
      <trkpt lat="43.52557" lon="6.83357">
        <ele>243</ele>
        <time>2012-11-01T09:24:42Z</time>
      </trkpt>
      <trkpt lat="43.52558" lon="6.83351">
        <ele>244</ele>
        <time>2012-11-01T09:24:44Z</time>
      </trkpt>
      <trkpt lat="43.52559" lon="6.83346">
        <ele>244</ele>
        <time>2012-11-01T09:24:45Z</time>
      </trkpt>
      <trkpt lat="43.5256" lon="6.8334">
        <ele>245</ele>
        <time>2012-11-01T09:24:46Z</time>
      </trkpt>
      <trkpt lat="43.52562" lon="6.83334">
        <ele>245</ele>
        <time>2012-11-01T09:24:47Z</time>
      </trkpt>
      <trkpt lat="43.52563" lon="6.83328">
        <ele>245</ele>
        <time>2012-11-01T09:24:48Z</time>
      </trkpt>
      <trkpt lat="43.52564" lon="6.83323">
        <ele>246</ele>
        <time>2012-11-01T09:24:49Z</time>
      </trkpt>
      <trkpt lat="43.52565" lon="6.83318">
        <ele>246</ele>
        <time>2012-11-01T09:24:50Z</time>
      </trkpt>
      <trkpt lat="43.52567" lon="6.83313">
        <ele>247</ele>
        <time>2012-11-01T09:24:51Z</time>
      </trkpt>
      <trkpt lat="43.52569" lon="6.83308">
        <ele>247</ele>
        <time>2012-11-01T09:24:52Z</time>
      </trkpt>
      <trkpt lat="43.5257" lon="6.83303">
        <ele>247</ele>
        <time>2012-11-01T09:24:53Z</time>
      </trkpt>
      <trkpt lat="43.52573" lon="6.83299">
        <ele>247</ele>
        <time>2012-11-01T09:24:54Z</time>
      </trkpt>
      <trkpt lat="43.52575" lon="6.83294">
        <ele>247</ele>
        <time>2012-11-01T09:24:55Z</time>
      </trkpt>
      <trkpt lat="43.52578" lon="6.8329">
        <ele>247</ele>
        <time>2012-11-01T09:24:56Z</time>
      </trkpt>
      <trkpt lat="43.52582" lon="6.83287">
        <ele>247</ele>
        <time>2012-11-01T09:24:57Z</time>
      </trkpt>
      <trkpt lat="43.52586" lon="6.83283">
        <ele>247</ele>
        <time>2012-11-01T09:24:57Z</time>
      </trkpt>
      <trkpt lat="43.52589" lon="6.8328">
        <ele>247</ele>
        <time>2012-11-01T09:24:59Z</time>
      </trkpt>
      <trkpt lat="43.52593" lon="6.83277">
        <ele>247</ele>
        <time>2012-11-01T09:25:00Z</time>
      </trkpt>
      <trkpt lat="43.52596" lon="6.83273">
        <ele>247</ele>
        <time>2012-11-01T09:25:00Z</time>
      </trkpt>
      <trkpt lat="43.52599" lon="6.8327">
        <ele>247</ele>
        <time>2012-11-01T09:25:02Z</time>
      </trkpt>
      <trkpt lat="43.52603" lon="6.83266">
        <ele>248</ele>
        <time>2012-11-01T09:25:03Z</time>
      </trkpt>
      <trkpt lat="43.52606" lon="6.83262">
        <ele>248</ele>
        <time>2012-11-01T09:25:04Z</time>
      </trkpt>
      <trkpt lat="43.52608" lon="6.83257">
        <ele>248</ele>
        <time>2012-11-01T09:25:05Z</time>
      </trkpt>
      <trkpt lat="43.52611" lon="6.83253">
        <ele>248</ele>
        <time>2012-11-01T09:25:06Z</time>
      </trkpt>
      <trkpt lat="43.52614" lon="6.83249">
        <ele>248</ele>
        <time>2012-11-01T09:25:06Z</time>
      </trkpt>
      <trkpt lat="43.52617" lon="6.83245">
        <ele>248</ele>
        <time>2012-11-01T09:25:08Z</time>
      </trkpt>
      <trkpt lat="43.52621" lon="6.83242">
        <ele>248</ele>
        <time>2012-11-01T09:25:08Z</time>
      </trkpt>
      <trkpt lat="43.52625" lon="6.8324">
        <ele>248</ele>
        <time>2012-11-01T09:25:10Z</time>
      </trkpt>
      <trkpt lat="43.52629" lon="6.83239">
        <ele>248</ele>
        <time>2012-11-01T09:25:11Z</time>
      </trkpt>
      <trkpt lat="43.52634" lon="6.83239">
        <ele>248</ele>
        <time>2012-11-01T09:25:12Z</time>
      </trkpt>
      <trkpt lat="43.52638" lon="6.8324">
        <ele>248</ele>
        <time>2012-11-01T09:25:13Z</time>
      </trkpt>
      <trkpt lat="43.52642" lon="6.83241">
        <ele>248</ele>
        <time>2012-11-01T09:25:14Z</time>
      </trkpt>
      <trkpt lat="43.52646" lon="6.83242">
        <ele>248</ele>
        <time>2012-11-01T09:25:15Z</time>
      </trkpt>
      <trkpt lat="43.5265" lon="6.83244">
        <ele>248</ele>
        <time>2012-11-01T09:25:15Z</time>
      </trkpt>
      <trkpt lat="43.52655" lon="6.83244">
        <ele>248</ele>
        <time>2012-11-01T09:25:16Z</time>
      </trkpt>
      <trkpt lat="43.52659" lon="6.83245">
        <ele>248</ele>
        <time>2012-11-01T09:25:17Z</time>
      </trkpt>
      <trkpt lat="43.52663" lon="6.83247">
        <ele>248</ele>
        <time>2012-11-01T09:25:19Z</time>
      </trkpt>
      <trkpt lat="43.52668" lon="6.83248">
        <ele>248</ele>
        <time>2012-11-01T09:25:20Z</time>
      </trkpt>
      <trkpt lat="43.52672" lon="6.83249">
        <ele>248</ele>
        <time>2012-11-01T09:25:20Z</time>
      </trkpt>
      <trkpt lat="43.52676" lon="6.83251">
        <ele>248</ele>
        <time>2012-11-01T09:25:22Z</time>
      </trkpt>
      <trkpt lat="43.5268" lon="6.83252">
        <ele>248</ele>
        <time>2012-11-01T09:25:23Z</time>
      </trkpt>
      <trkpt lat="43.52684" lon="6.83253">
        <ele>248</ele>
        <time>2012-11-01T09:25:24Z</time>
      </trkpt>
      <trkpt lat="43.52689" lon="6.83254">
        <ele>248</ele>
        <time>2012-11-01T09:25:25Z</time>
      </trkpt>
      <trkpt lat="43.52692" lon="6.83254">
        <ele>248</ele>
        <time>2012-11-01T09:25:25Z</time>
      </trkpt>
      <trkpt lat="43.52696" lon="6.83254">
        <ele>248</ele>
        <time>2012-11-01T09:25:27Z</time>
      </trkpt>
      <trkpt lat="43.527" lon="6.83253">
        <ele>248</ele>
        <time>2012-11-01T09:25:28Z</time>
      </trkpt>
      <trkpt lat="43.52704" lon="6.83253">
        <ele>248</ele>
        <time>2012-11-01T09:25:29Z</time>
      </trkpt>
      <trkpt lat="43.52709" lon="6.83251">
        <ele>248</ele>
        <time>2012-11-01T09:25:29Z</time>
      </trkpt>
      <trkpt lat="43.52713" lon="6.8325">
        <ele>248</ele>
        <time>2012-11-01T09:25:31Z</time>
      </trkpt>
      <trkpt lat="43.52717" lon="6.83248">
        <ele>248</ele>
        <time>2012-11-01T09:25:31Z</time>
      </trkpt>
      <trkpt lat="43.52721" lon="6.83247">
        <ele>248</ele>
        <time>2012-11-01T09:25:32Z</time>
      </trkpt>
      <trkpt lat="43.52725" lon="6.83245">
        <ele>248</ele>
        <time>2012-11-01T09:25:34Z</time>
      </trkpt>
      <trkpt lat="43.52729" lon="6.83244">
        <ele>248</ele>
        <time>2012-11-01T09:25:35Z</time>
      </trkpt>
      <trkpt lat="43.52734" lon="6.83242">
        <ele>247</ele>
        <time>2012-11-01T09:25:36Z</time>
      </trkpt>
      <trkpt lat="43.52738" lon="6.8324">
        <ele>246</ele>
        <time>2012-11-01T09:25:36Z</time>
      </trkpt>
      <trkpt lat="43.52742" lon="6.83238">
        <ele>245</ele>
        <time>2012-11-01T09:25:37Z</time>
      </trkpt>
      <trkpt lat="43.52747" lon="6.83236">
        <ele>245</ele>
        <time>2012-11-01T09:25:38Z</time>
      </trkpt>
      <trkpt lat="43.52751" lon="6.83234">
        <ele>244</ele>
        <time>2012-11-01T09:25:40Z</time>
      </trkpt>
      <trkpt lat="43.52755" lon="6.83232">
        <ele>244</ele>
        <time>2012-11-01T09:25:40Z</time>
      </trkpt>
      <trkpt lat="43.5276" lon="6.83229">
        <ele>244</ele>
        <time>2012-11-01T09:25:41Z</time>
      </trkpt>
      <trkpt lat="43.52764" lon="6.83227">
        <ele>244</ele>
        <time>2012-11-01T09:25:42Z</time>
      </trkpt>
      <trkpt lat="43.52768" lon="6.83226">
        <ele>244</ele>
        <time>2012-11-01T09:25:44Z</time>
      </trkpt>
      <trkpt lat="43.52772" lon="6.83225">
        <ele>244</ele>
        <time>2012-11-01T09:25:44Z</time>
      </trkpt>
      <trkpt lat="43.52776" lon="6.83224">
        <ele>244</ele>
        <time>2012-11-01T09:25:46Z</time>
      </trkpt>
      <trkpt lat="43.52781" lon="6.83224">
        <ele>244</ele>
        <time>2012-11-01T09:25:47Z</time>
      </trkpt>
      <trkpt lat="43.52785" lon="6.83224">
        <ele>244</ele>
        <time>2012-11-01T09:25:48Z</time>
      </trkpt>
      <trkpt lat="43.52789" lon="6.83225">
        <ele>244</ele>
        <time>2012-11-01T09:25:48Z</time>
      </trkpt>
      <trkpt lat="43.52793" lon="6.83227">
        <ele>244</ele>
        <time>2012-11-01T09:25:50Z</time>
      </trkpt>
      <trkpt lat="43.52797" lon="6.83228">
        <ele>244</ele>
        <time>2012-11-01T09:25:50Z</time>
      </trkpt>
      <trkpt lat="43.52801" lon="6.83229">
        <ele>244</ele>
        <time>2012-11-01T09:25:51Z</time>
      </trkpt>
      <trkpt lat="43.52805" lon="6.83231">
        <ele>244</ele>
        <time>2012-11-01T09:25:52Z</time>
      </trkpt>
      <trkpt lat="43.52809" lon="6.83233">
        <ele>245</ele>
        <time>2012-11-01T09:25:53Z</time>
      </trkpt>
      <trkpt lat="43.52813" lon="6.83236">
        <ele>245</ele>
        <time>2012-11-01T09:25:55Z</time>
      </trkpt>
      <trkpt lat="43.52817" lon="6.83238">
        <ele>245</ele>
        <time>2012-11-01T09:25:56Z</time>
      </trkpt>
      <trkpt lat="43.5282" lon="6.83241">
        <ele>245</ele>
        <time>2012-11-01T09:25:57Z</time>
      </trkpt>
      <trkpt lat="43.52824" lon="6.83244">
        <ele>245</ele>
        <time>2012-11-01T09:25:57Z</time>
      </trkpt>
      <trkpt lat="43.52827" lon="6.83246">
        <ele>246</ele>
        <time>2012-11-01T09:25:59Z</time>
      </trkpt>
      <trkpt lat="43.52832" lon="6.83247">
        <ele>246</ele>
        <time>2012-11-01T09:26:00Z</time>
      </trkpt>
      <trkpt lat="43.52835" lon="6.83247">
        <ele>247</ele>
        <time>2012-11-01T09:26:00Z</time>
      </trkpt>
      <trkpt lat="43.52839" lon="6.83246">
        <ele>247</ele>
        <time>2012-11-01T09:26:01Z</time>
      </trkpt>
      <trkpt lat="43.52843" lon="6.83241">
        <ele>247</ele>
        <time>2012-11-01T09:26:03Z</time>
      </trkpt>
      <trkpt lat="43.52846" lon="6.83235">
        <ele>247</ele>
        <time>2012-11-01T09:26:03Z</time>
      </trkpt>
      <trkpt lat="43.52849" lon="6.8323">
        <ele>247</ele>
        <time>2012-11-01T09:26:04Z</time>
      </trkpt>
      <trkpt lat="43.52851" lon="6.83224">
        <ele>247</ele>
        <time>2012-11-01T09:26:05Z</time>
      </trkpt>
      <trkpt lat="43.52854" lon="6.83217">
        <ele>247</ele>
        <time>2012-11-01T09:26:07Z</time>
      </trkpt>
      <trkpt lat="43.52856" lon="6.8321">
        <ele>247</ele>
        <time>2012-11-01T09:26:08Z</time>
      </trkpt>
      <trkpt lat="43.52857" lon="6.83204">
        <ele>247</ele>
        <time>2012-11-01T09:26:08Z</time>
      </trkpt>
      <trkpt lat="43.52859" lon="6.83197">
        <ele>247</ele>
        <time>2012-11-01T09:26:09Z</time>
      </trkpt>
      <trkpt lat="43.5286" lon="6.83191">
        <ele>247</ele>
        <time>2012-11-01T09:26:10Z</time>
      </trkpt>
      <trkpt lat="43.52862" lon="6.83184">
        <ele>247</ele>
        <time>2012-11-01T09:26:12Z</time>
      </trkpt>
      <trkpt lat="43.52864" lon="6.83178">
        <ele>247</ele>
        <time>2012-11-01T09:26:12Z</time>
      </trkpt>
      <trkpt lat="43.52866" lon="6.83173">
        <ele>247</ele>
        <time>2012-11-01T09:26:13Z</time>
      </trkpt>
      <trkpt lat="43.52868" lon="6.83167">
        <ele>247</ele>
        <time>2012-11-01T09:26:15Z</time>
      </trkpt>
      <trkpt lat="43.5287" lon="6.83162">
        <ele>247</ele>
        <time>2012-11-01T09:26:16Z</time>
      </trkpt>
      <trkpt lat="43.52871" lon="6.83156">
        <ele>247</ele>
        <time>2012-11-01T09:26:16Z</time>
      </trkpt>
      <trkpt lat="43.52872" lon="6.83151">
        <ele>247</ele>
        <time>2012-11-01T09:26:18Z</time>
      </trkpt>
      <trkpt lat="43.52872" lon="6.83145">
        <ele>248</ele>
        <time>2012-11-01T09:26:18Z</time>
      </trkpt>
      <trkpt lat="43.52872" lon="6.8314">
        <ele>249</ele>
        <time>2012-11-01T09:26:19Z</time>
      </trkpt>
      <trkpt lat="43.52871" lon="6.83135">
        <ele>249</ele>
        <time>2012-11-01T09:26:21Z</time>
      </trkpt>
      <trkpt lat="43.52869" lon="6.83129">
        <ele>250</ele>
        <time>2012-11-01T09:26:22Z</time>
      </trkpt>
      <trkpt lat="43.52869" lon="6.83123">
        <ele>251</ele>
        <time>2012-11-01T09:26:23Z</time>
      </trkpt>
      <trkpt lat="43.52867" lon="6.83118">
        <ele>251</ele>
        <time>2012-11-01T09:26:24Z</time>
      </trkpt>
      <trkpt lat="43.52866" lon="6.83113">
        <ele>252</ele>
        <time>2012-11-01T09:26:25Z</time>
      </trkpt>
      <trkpt lat="43.52865" lon="6.83108">
        <ele>252</ele>
        <time>2012-11-01T09:26:25Z</time>
      </trkpt>
      <trkpt lat="43.52863" lon="6.83103">
        <ele>252</ele>
        <time>2012-11-01T09:26:27Z</time>
      </trkpt>
      <trkpt lat="43.52862" lon="6.83098">
        <ele>252</ele>
        <time>2012-11-01T09:26:27Z</time>
      </trkpt>
      <trkpt lat="43.52862" lon="6.83092">
        <ele>252</ele>
        <time>2012-11-01T09:26:29Z</time>
      </trkpt>
      <trkpt lat="43.52862" lon="6.83086">
        <ele>252</ele>
        <time>2012-11-01T09:26:29Z</time>
      </trkpt>
      <trkpt lat="43.52863" lon="6.8308">
        <ele>252</ele>
        <time>2012-11-01T09:26:31Z</time>
      </trkpt>
      <trkpt lat="43.52864" lon="6.83075">
        <ele>253</ele>
        <time>2012-11-01T09:26:32Z</time>
      </trkpt>
      <trkpt lat="43.52867" lon="6.8307">
        <ele>254</ele>
        <time>2012-11-01T09:26:33Z</time>
      </trkpt>
      <trkpt lat="43.5287" lon="6.83067">
        <ele>255</ele>
        <time>2012-11-01T09:26:34Z</time>
      </trkpt>
      <trkpt lat="43.52873" lon="6.83064">
        <ele>256</ele>
        <time>2012-11-01T09:26:35Z</time>
      </trkpt>
      <trkpt lat="43.52877" lon="6.83061">
        <ele>256</ele>
        <time>2012-11-01T09:26:36Z</time>
      </trkpt>
      <trkpt lat="43.5288" lon="6.83059">
        <ele>257</ele>
        <time>2012-11-01T09:26:37Z</time>
      </trkpt>
      <trkpt lat="43.52884" lon="6.83057">
        <ele>257</ele>
        <time>2012-11-01T09:26:37Z</time>
      </trkpt>
      <trkpt lat="43.52888" lon="6.83056">
        <ele>258</ele>
        <time>2012-11-01T09:26:39Z</time>
      </trkpt>
      <trkpt lat="43.52892" lon="6.83054">
        <ele>258</ele>
        <time>2012-11-01T09:26:40Z</time>
      </trkpt>
      <trkpt lat="43.52896" lon="6.83052">
        <ele>258</ele>
        <time>2012-11-01T09:26:41Z</time>
      </trkpt>
      <trkpt lat="43.529" lon="6.8305">
        <ele>258</ele>
        <time>2012-11-01T09:26:41Z</time>
      </trkpt>
      <trkpt lat="43.52905" lon="6.83048">
        <ele>258</ele>
        <time>2012-11-01T09:26:43Z</time>
      </trkpt>
      <trkpt lat="43.52909" lon="6.83046">
        <ele>258</ele>
        <time>2012-11-01T09:26:44Z</time>
      </trkpt>
      <trkpt lat="43.52914" lon="6.83043">
        <ele>258</ele>
        <time>2012-11-01T09:26:44Z</time>
      </trkpt>
      <trkpt lat="43.52918" lon="6.83041">
        <ele>258</ele>
        <time>2012-11-01T09:26:45Z</time>
      </trkpt>
      <trkpt lat="43.52922" lon="6.83039">
        <ele>258</ele>
        <time>2012-11-01T09:26:46Z</time>
      </trkpt>
      <trkpt lat="43.52926" lon="6.83036">
        <ele>258</ele>
        <time>2012-11-01T09:26:47Z</time>
      </trkpt>
      <trkpt lat="43.5293" lon="6.83033">
        <ele>258</ele>
        <time>2012-11-01T09:26:48Z</time>
      </trkpt>
      <trkpt lat="43.52934" lon="6.83029">
        <ele>258</ele>
        <time>2012-11-01T09:26:49Z</time>
      </trkpt>
      <trkpt lat="43.52937" lon="6.83026">
        <ele>258</ele>
        <time>2012-11-01T09:26:51Z</time>
      </trkpt>
      <trkpt lat="43.52941" lon="6.83021">
        <ele>258</ele>
        <time>2012-11-01T09:26:52Z</time>
      </trkpt>
      <trkpt lat="43.52944" lon="6.83016">
        <ele>258</ele>
        <time>2012-11-01T09:26:52Z</time>
      </trkpt>
      <trkpt lat="43.52946" lon="6.83011">
        <ele>258</ele>
        <time>2012-11-01T09:26:53Z</time>
      </trkpt>
      <trkpt lat="43.52948" lon="6.83006">
        <ele>258</ele>
        <time>2012-11-01T09:26:54Z</time>
      </trkpt>
      <trkpt lat="43.52949" lon="6.83">
        <ele>258</ele>
        <time>2012-11-01T09:26:56Z</time>
      </trkpt>
      <trkpt lat="43.5295" lon="6.82993">
        <ele>258</ele>
        <time>2012-11-01T09:26:56Z</time>
      </trkpt>
      <trkpt lat="43.5295" lon="6.82986">
        <ele>258</ele>
        <time>2012-11-01T09:26:57Z</time>
      </trkpt>
      <trkpt lat="43.52949" lon="6.8298">
        <ele>258</ele>
        <time>2012-11-01T09:26:59Z</time>
      </trkpt>
      <trkpt lat="43.52948" lon="6.82974">
        <ele>258</ele>
        <time>2012-11-01T09:26:59Z</time>
      </trkpt>
      <trkpt lat="43.52946" lon="6.82968">
        <ele>258</ele>
        <time>2012-11-01T09:27:00Z</time>
      </trkpt>
      <trkpt lat="43.52944" lon="6.82963">
        <ele>258</ele>
        <time>2012-11-01T09:27:01Z</time>
      </trkpt>
      <trkpt lat="43.52942" lon="6.82957">
        <ele>258</ele>
        <time>2012-11-01T09:27:03Z</time>
      </trkpt>
      <trkpt lat="43.52939" lon="6.82953">
        <ele>258</ele>
        <time>2012-11-01T09:27:04Z</time>
      </trkpt>
      <trkpt lat="43.52937" lon="6.82948">
        <ele>258</ele>
        <time>2012-11-01T09:27:04Z</time>
      </trkpt>
      <trkpt lat="43.52934" lon="6.82944">
        <ele>258</ele>
        <time>2012-11-01T09:27:05Z</time>
      </trkpt>
      <trkpt lat="43.52931" lon="6.82939">
        <ele>258</ele>
        <time>2012-11-01T09:27:06Z</time>
      </trkpt>
      <trkpt lat="43.52929" lon="6.82934">
        <ele>259</ele>
        <time>2012-11-01T09:27:08Z</time>
      </trkpt>
      <trkpt lat="43.52926" lon="6.82929">
        <ele>259</ele>
        <time>2012-11-01T09:27:09Z</time>
      </trkpt>
      <trkpt lat="43.52924" lon="6.82924">
        <ele>259</ele>
        <time>2012-11-01T09:27:10Z</time>
      </trkpt>
      <trkpt lat="43.52922" lon="6.82919">
        <ele>260</ele>
        <time>2012-11-01T09:27:11Z</time>
      </trkpt>
      <trkpt lat="43.5292" lon="6.82913">
        <ele>260</ele>
        <time>2012-11-01T09:27:12Z</time>
      </trkpt>
      <trkpt lat="43.52918" lon="6.82909">
        <ele>260</ele>
        <time>2012-11-01T09:27:13Z</time>
      </trkpt>
      <trkpt lat="43.52916" lon="6.82904">
        <ele>260</ele>
        <time>2012-11-01T09:27:14Z</time>
      </trkpt>
      <trkpt lat="43.52914" lon="6.82899">
        <ele>260</ele>
        <time>2012-11-01T09:27:14Z</time>
      </trkpt>
      <trkpt lat="43.52913" lon="6.82895">
        <ele>260</ele>
        <time>2012-11-01T09:27:16Z</time>
      </trkpt>
      <trkpt lat="43.52911" lon="6.8289">
        <ele>260</ele>
        <time>2012-11-01T09:27:17Z</time>
      </trkpt>
      <trkpt lat="43.52909" lon="6.82885">
        <ele>260</ele>
        <time>2012-11-01T09:27:18Z</time>
      </trkpt>
      <trkpt lat="43.52908" lon="6.8288">
        <ele>260</ele>
        <time>2012-11-01T09:27:19Z</time>
      </trkpt>
      <trkpt lat="43.52907" lon="6.82875">
        <ele>260</ele>
        <time>2012-11-01T09:27:20Z</time>
      </trkpt>
      <trkpt lat="43.52905" lon="6.8287">
        <ele>260</ele>
        <time>2012-11-01T09:27:21Z</time>
      </trkpt>
      <trkpt lat="43.52904" lon="6.82866">
        <ele>260</ele>
        <time>2012-11-01T09:27:22Z</time>
      </trkpt>
      <trkpt lat="43.52903" lon="6.82861">
        <ele>260</ele>
        <time>2012-11-01T09:27:23Z</time>
      </trkpt>
      <trkpt lat="43.52902" lon="6.82857">
        <ele>260</ele>
        <time>2012-11-01T09:27:23Z</time>
      </trkpt>
      <trkpt lat="43.529" lon="6.82852">
        <ele>260</ele>
        <time>2012-11-01T09:27:24Z</time>
      </trkpt>
      <trkpt lat="43.529" lon="6.82847">
        <ele>260</ele>
        <time>2012-11-01T09:27:26Z</time>
      </trkpt>
      <trkpt lat="43.52898" lon="6.82842">
        <ele>260</ele>
        <time>2012-11-01T09:27:27Z</time>
      </trkpt>
      <trkpt lat="43.52897" lon="6.82838">
        <ele>260</ele>
        <time>2012-11-01T09:27:28Z</time>
      </trkpt>
      <trkpt lat="43.52895" lon="6.82833">
        <ele>260</ele>
        <time>2012-11-01T09:27:28Z</time>
      </trkpt>
      <trkpt lat="43.52893" lon="6.82829">
        <ele>260</ele>
        <time>2012-11-01T09:27:30Z</time>
      </trkpt>
      <trkpt lat="43.52892" lon="6.82823">
        <ele>260</ele>
        <time>2012-11-01T09:27:31Z</time>
      </trkpt>
      <trkpt lat="43.52891" lon="6.82818">
        <ele>260</ele>
        <time>2012-11-01T09:27:32Z</time>
      </trkpt>
      <trkpt lat="43.5289" lon="6.82812">
        <ele>260</ele>
        <time>2012-11-01T09:27:33Z</time>
      </trkpt>
      <trkpt lat="43.52889" lon="6.82806">
        <ele>260</ele>
        <time>2012-11-01T09:27:34Z</time>
      </trkpt>
      <trkpt lat="43.52889" lon="6.82801">
        <ele>260</ele>
        <time>2012-11-01T09:27:35Z</time>
      </trkpt>
      <trkpt lat="43.52889" lon="6.82796">
        <ele>260</ele>
        <time>2012-11-01T09:27:36Z</time>
      </trkpt>
      <trkpt lat="43.52889" lon="6.82791">
        <ele>260</ele>
        <time>2012-11-01T09:27:37Z</time>
      </trkpt>
      <trkpt lat="43.52889" lon="6.82786">
        <ele>260</ele>
        <time>2012-11-01T09:27:38Z</time>
      </trkpt>
      <trkpt lat="43.52889" lon="6.8278">
        <ele>260</ele>
        <time>2012-11-01T09:27:39Z</time>
      </trkpt>
      <trkpt lat="43.52889" lon="6.82776">
        <ele>260</ele>
        <time>2012-11-01T09:27:40Z</time>
      </trkpt>
      <trkpt lat="43.52889" lon="6.82771">
        <ele>260</ele>
        <time>2012-11-01T09:27:40Z</time>
      </trkpt>
      <trkpt lat="43.52889" lon="6.82766">
        <ele>260</ele>
        <time>2012-11-01T09:27:42Z</time>
      </trkpt>
      <trkpt lat="43.5289" lon="6.82761">
        <ele>260</ele>
        <time>2012-11-01T09:27:43Z</time>
      </trkpt>
      <trkpt lat="43.5289" lon="6.82756">
        <ele>260</ele>
        <time>2012-11-01T09:27:44Z</time>
      </trkpt>
      <trkpt lat="43.5289" lon="6.82751">
        <ele>260</ele>
        <time>2012-11-01T09:27:45Z</time>
      </trkpt>
      <trkpt lat="43.5289" lon="6.82746">
        <ele>259</ele>
        <time>2012-11-01T09:27:46Z</time>
      </trkpt>
      <trkpt lat="43.5289" lon="6.82741">
        <ele>259</ele>
        <time>2012-11-01T09:27:47Z</time>
      </trkpt>
      <trkpt lat="43.52891" lon="6.82736">
        <ele>258</ele>
        <time>2012-11-01T09:27:48Z</time>
      </trkpt>
      <trkpt lat="43.52891" lon="6.8273">
        <ele>258</ele>
        <time>2012-11-01T09:27:49Z</time>
      </trkpt>
      <trkpt lat="43.52892" lon="6.82725">
        <ele>258</ele>
        <time>2012-11-01T09:27:49Z</time>
      </trkpt>
      <trkpt lat="43.52893" lon="6.82719">
        <ele>258</ele>
        <time>2012-11-01T09:27:51Z</time>
      </trkpt>
      <trkpt lat="43.52894" lon="6.82714">
        <ele>258</ele>
        <time>2012-11-01T09:27:52Z</time>
      </trkpt>
      <trkpt lat="43.52896" lon="6.82708">
        <ele>258</ele>
        <time>2012-11-01T09:27:52Z</time>
      </trkpt>
      <trkpt lat="43.52897" lon="6.82703">
        <ele>258</ele>
        <time>2012-11-01T09:27:54Z</time>
      </trkpt>
      <trkpt lat="43.52899" lon="6.82697">
        <ele>259</ele>
        <time>2012-11-01T09:27:55Z</time>
      </trkpt>
      <trkpt lat="43.529" lon="6.82691">
        <ele>260</ele>
        <time>2012-11-01T09:27:56Z</time>
      </trkpt>
      <trkpt lat="43.52901" lon="6.82687">
        <ele>261</ele>
        <time>2012-11-01T09:27:57Z</time>
      </trkpt>
      <trkpt lat="43.52903" lon="6.82681">
        <ele>262</ele>
        <time>2012-11-01T09:27:57Z</time>
      </trkpt>
      <trkpt lat="43.52904" lon="6.82676">
        <ele>263</ele>
        <time>2012-11-01T09:27:59Z</time>
      </trkpt>
      <trkpt lat="43.52905" lon="6.8267">
        <ele>264</ele>
        <time>2012-11-01T09:28:00Z</time>
      </trkpt>
      <trkpt lat="43.52906" lon="6.82665">
        <ele>265</ele>
        <time>2012-11-01T09:28:01Z</time>
      </trkpt>
      <trkpt lat="43.52907" lon="6.8266">
        <ele>266</ele>
        <time>2012-11-01T09:28:02Z</time>
      </trkpt>
      <trkpt lat="43.52908" lon="6.82654">
        <ele>267</ele>
        <time>2012-11-01T09:28:03Z</time>
      </trkpt>
      <trkpt lat="43.52908" lon="6.82649">
        <ele>267</ele>
        <time>2012-11-01T09:28:04Z</time>
      </trkpt>
      <trkpt lat="43.52909" lon="6.82643">
        <ele>267</ele>
        <time>2012-11-01T09:28:05Z</time>
      </trkpt>
      <trkpt lat="43.5291" lon="6.82637">
        <ele>267</ele>
        <time>2012-11-01T09:28:06Z</time>
      </trkpt>
      <trkpt lat="43.52911" lon="6.82631">
        <ele>268</ele>
        <time>2012-11-01T09:28:07Z</time>
      </trkpt>
      <trkpt lat="43.52912" lon="6.82625">
        <ele>269</ele>
        <time>2012-11-01T09:28:08Z</time>
      </trkpt>
      <trkpt lat="43.52913" lon="6.82619">
        <ele>270</ele>
        <time>2012-11-01T09:28:09Z</time>
      </trkpt>
      <trkpt lat="43.52914" lon="6.82614">
        <ele>271</ele>
        <time>2012-11-01T09:28:10Z</time>
      </trkpt>
      <trkpt lat="43.52914" lon="6.82608">
        <ele>272</ele>
        <time>2012-11-01T09:28:11Z</time>
      </trkpt>
      <trkpt lat="43.52915" lon="6.82602">
        <ele>272</ele>
        <time>2012-11-01T09:28:12Z</time>
      </trkpt>
      <trkpt lat="43.52916" lon="6.82596">
        <ele>272</ele>
        <time>2012-11-01T09:28:13Z</time>
      </trkpt>
      <trkpt lat="43.52916" lon="6.8259">
        <ele>272</ele>
        <time>2012-11-01T09:28:13Z</time>
      </trkpt>
      <trkpt lat="43.52917" lon="6.82585">
        <ele>272</ele>
        <time>2012-11-01T09:28:15Z</time>
      </trkpt>
      <trkpt lat="43.52917" lon="6.82579">
        <ele>272</ele>
        <time>2012-11-01T09:28:16Z</time>
      </trkpt>
      <trkpt lat="43.52917" lon="6.82574">
        <ele>272</ele>
        <time>2012-11-01T09:28:17Z</time>
      </trkpt>
      <trkpt lat="43.52917" lon="6.82568">
        <ele>272</ele>
        <time>2012-11-01T09:28:18Z</time>
      </trkpt>
      <trkpt lat="43.52918" lon="6.82563">
        <ele>272</ele>
        <time>2012-11-01T09:28:19Z</time>
      </trkpt>
      <trkpt lat="43.52918" lon="6.82558">
        <ele>272</ele>
        <time>2012-11-01T09:28:20Z</time>
      </trkpt>
      <trkpt lat="43.52918" lon="6.82554">
        <ele>272</ele>
        <time>2012-11-01T09:28:20Z</time>
      </trkpt>
      <trkpt lat="43.52918" lon="6.82549">
        <ele>272</ele>
        <time>2012-11-01T09:28:21Z</time>
      </trkpt>
      <trkpt lat="43.52919" lon="6.82544">
        <ele>272</ele>
        <time>2012-11-01T09:28:23Z</time>
      </trkpt>
      <trkpt lat="43.52919" lon="6.82539">
        <ele>272</ele>
        <time>2012-11-01T09:28:24Z</time>
      </trkpt>
      <trkpt lat="43.52919" lon="6.82535">
        <ele>272</ele>
        <time>2012-11-01T09:28:25Z</time>
      </trkpt>
      <trkpt lat="43.52919" lon="6.8253">
        <ele>272</ele>
        <time>2012-11-01T09:28:26Z</time>
      </trkpt>
      <trkpt lat="43.52919" lon="6.82526">
        <ele>272</ele>
        <time>2012-11-01T09:28:27Z</time>
      </trkpt>
      <trkpt lat="43.52919" lon="6.82522">
        <ele>272</ele>
        <time>2012-11-01T09:28:28Z</time>
      </trkpt>
      <trkpt lat="43.52919" lon="6.82517">
        <ele>272</ele>
        <time>2012-11-01T09:28:29Z</time>
      </trkpt>
      <trkpt lat="43.52919" lon="6.82513">
        <ele>272</ele>
        <time>2012-11-01T09:28:30Z</time>
      </trkpt>
      <trkpt lat="43.52918" lon="6.82508">
        <ele>272</ele>
        <time>2012-11-01T09:28:31Z</time>
      </trkpt>
      <trkpt lat="43.52917" lon="6.82503">
        <ele>272</ele>
        <time>2012-11-01T09:28:32Z</time>
      </trkpt>
      <trkpt lat="43.52917" lon="6.82498">
        <ele>272</ele>
        <time>2012-11-01T09:28:33Z</time>
      </trkpt>
      <trkpt lat="43.52917" lon="6.82494">
        <ele>272</ele>
        <time>2012-11-01T09:28:34Z</time>
      </trkpt>
      <trkpt lat="43.52917" lon="6.8249">
        <ele>272</ele>
        <time>2012-11-01T09:28:35Z</time>
      </trkpt>
      <trkpt lat="43.52917" lon="6.82485">
        <ele>272</ele>
        <time>2012-11-01T09:28:36Z</time>
      </trkpt>
      <trkpt lat="43.52916" lon="6.82481">
        <ele>272</ele>
        <time>2012-11-01T09:28:37Z</time>
      </trkpt>
      <trkpt lat="43.52916" lon="6.82477">
        <ele>272</ele>
        <time>2012-11-01T09:28:38Z</time>
      </trkpt>
      <trkpt lat="43.52916" lon="6.82473">
        <ele>273</ele>
        <time>2012-11-01T09:28:39Z</time>
      </trkpt>
      <trkpt lat="43.52916" lon="6.82469">
        <ele>274</ele>
        <time>2012-11-01T09:28:40Z</time>
      </trkpt>
      <trkpt lat="43.52915" lon="6.82464">
        <ele>275</ele>
        <time>2012-11-01T09:28:41Z</time>
      </trkpt>
      <trkpt lat="43.52914" lon="6.82459">
        <ele>276</ele>
        <time>2012-11-01T09:28:42Z</time>
      </trkpt>
      <trkpt lat="43.52913" lon="6.82455">
        <ele>277</ele>
        <time>2012-11-01T09:28:43Z</time>
      </trkpt>
      <trkpt lat="43.52913" lon="6.82451">
        <ele>278</ele>
        <time>2012-11-01T09:28:44Z</time>
      </trkpt>
      <trkpt lat="43.52912" lon="6.82447">
        <ele>278</ele>
        <time>2012-11-01T09:28:45Z</time>
      </trkpt>
      <trkpt lat="43.52912" lon="6.82443">
        <ele>278</ele>
        <time>2012-11-01T09:28:46Z</time>
      </trkpt>
      <trkpt lat="43.52911" lon="6.82439">
        <ele>278</ele>
        <time>2012-11-01T09:28:47Z</time>
      </trkpt>
      <trkpt lat="43.52911" lon="6.82435">
        <ele>278</ele>
        <time>2012-11-01T09:28:48Z</time>
      </trkpt>
      <trkpt lat="43.5291" lon="6.8243">
        <ele>279</ele>
        <time>2012-11-01T09:28:49Z</time>
      </trkpt>
      <trkpt lat="43.5291" lon="6.82425">
        <ele>279</ele>
        <time>2012-11-01T09:28:50Z</time>
      </trkpt>
      <trkpt lat="43.52909" lon="6.82421">
        <ele>279</ele>
        <time>2012-11-01T09:28:51Z</time>
      </trkpt>
      <trkpt lat="43.52909" lon="6.82417">
        <ele>279</ele>
        <time>2012-11-01T09:28:52Z</time>
      </trkpt>
      <trkpt lat="43.52909" lon="6.82413">
        <ele>279</ele>
        <time>2012-11-01T09:28:53Z</time>
      </trkpt>
      <trkpt lat="43.52908" lon="6.82409">
        <ele>279</ele>
        <time>2012-11-01T09:28:53Z</time>
      </trkpt>
      <trkpt lat="43.52908" lon="6.82405">
        <ele>279</ele>
        <time>2012-11-01T09:28:55Z</time>
      </trkpt>
      <trkpt lat="43.52908" lon="6.824">
        <ele>279</ele>
        <time>2012-11-01T09:28:56Z</time>
      </trkpt>
      <trkpt lat="43.52908" lon="6.82396">
        <ele>279</ele>
        <time>2012-11-01T09:28:57Z</time>
      </trkpt>
      <trkpt lat="43.52908" lon="6.82392">
        <ele>279</ele>
        <time>2012-11-01T09:28:58Z</time>
      </trkpt>
      <trkpt lat="43.52907" lon="6.82387">
        <ele>279</ele>
        <time>2012-11-01T09:28:59Z</time>
      </trkpt>
      <trkpt lat="43.52908" lon="6.82382">
        <ele>279</ele>
        <time>2012-11-01T09:29:00Z</time>
      </trkpt>
      <trkpt lat="43.52908" lon="6.82377">
        <ele>279</ele>
        <time>2012-11-01T09:29:01Z</time>
      </trkpt>
      <trkpt lat="43.52908" lon="6.82373">
        <ele>279</ele>
        <time>2012-11-01T09:29:01Z</time>
      </trkpt>
      <trkpt lat="43.52909" lon="6.82369">
        <ele>279</ele>
        <time>2012-11-01T09:29:03Z</time>
      </trkpt>
      <trkpt lat="43.5291" lon="6.82365">
        <ele>279</ele>
        <time>2012-11-01T09:29:03Z</time>
      </trkpt>
      <trkpt lat="43.52911" lon="6.82361">
        <ele>279</ele>
        <time>2012-11-01T09:29:05Z</time>
      </trkpt>
      <trkpt lat="43.52911" lon="6.82356">
        <ele>279</ele>
        <time>2012-11-01T09:29:06Z</time>
      </trkpt>
      <trkpt lat="43.52913" lon="6.82352">
        <ele>279</ele>
        <time>2012-11-01T09:29:06Z</time>
      </trkpt>
      <trkpt lat="43.52914" lon="6.82348">
        <ele>279</ele>
        <time>2012-11-01T09:29:07Z</time>
      </trkpt>
      <trkpt lat="43.52915" lon="6.82344">
        <ele>279</ele>
        <time>2012-11-01T09:29:09Z</time>
      </trkpt>
      <trkpt lat="43.52916" lon="6.8234">
        <ele>279</ele>
        <time>2012-11-01T09:29:10Z</time>
      </trkpt>
      <trkpt lat="43.52917" lon="6.82337">
        <ele>279</ele>
        <time>2012-11-01T09:29:11Z</time>
      </trkpt>
      <trkpt lat="43.52918" lon="6.82333">
        <ele>279</ele>
        <time>2012-11-01T09:29:12Z</time>
      </trkpt>
      <trkpt lat="43.52919" lon="6.8233">
        <ele>279</ele>
        <time>2012-11-01T09:29:12Z</time>
      </trkpt>
      <trkpt lat="43.52921" lon="6.82326">
        <ele>279</ele>
        <time>2012-11-01T09:29:14Z</time>
      </trkpt>
      <trkpt lat="43.52922" lon="6.82323">
        <ele>280</ele>
        <time>2012-11-01T09:29:15Z</time>
      </trkpt>
      <trkpt lat="43.52923" lon="6.82318">
        <ele>281</ele>
        <time>2012-11-01T09:29:16Z</time>
      </trkpt>
      <trkpt lat="43.52924" lon="6.82314">
        <ele>282</ele>
        <time>2012-11-01T09:29:17Z</time>
      </trkpt>
      <trkpt lat="43.52925" lon="6.82311">
        <ele>283</ele>
        <time>2012-11-01T09:29:18Z</time>
      </trkpt>
      <trkpt lat="43.52926" lon="6.82307">
        <ele>284</ele>
        <time>2012-11-01T09:29:18Z</time>
      </trkpt>
      <trkpt lat="43.52927" lon="6.82303">
        <ele>284</ele>
        <time>2012-11-01T09:29:20Z</time>
      </trkpt>
      <trkpt lat="43.52927" lon="6.82298">
        <ele>284</ele>
        <time>2012-11-01T09:29:21Z</time>
      </trkpt>
      <trkpt lat="43.52927" lon="6.82294">
        <ele>284</ele>
        <time>2012-11-01T09:29:22Z</time>
      </trkpt>
      <trkpt lat="43.52929" lon="6.8229">
        <ele>284</ele>
        <time>2012-11-01T09:29:23Z</time>
      </trkpt>
      <trkpt lat="43.52929" lon="6.82286">
        <ele>284</ele>
        <time>2012-11-01T09:29:24Z</time>
      </trkpt>
      <trkpt lat="43.5293" lon="6.82281">
        <ele>284</ele>
        <time>2012-11-01T09:29:25Z</time>
      </trkpt>
      <trkpt lat="43.5293" lon="6.82276">
        <ele>284</ele>
        <time>2012-11-01T09:29:26Z</time>
      </trkpt>
      <trkpt lat="43.52931" lon="6.82272">
        <ele>284</ele>
        <time>2012-11-01T09:29:27Z</time>
      </trkpt>
      <trkpt lat="43.52932" lon="6.82268">
        <ele>284</ele>
        <time>2012-11-01T09:29:28Z</time>
      </trkpt>
      <trkpt lat="43.52932" lon="6.82264">
        <ele>284</ele>
        <time>2012-11-01T09:29:29Z</time>
      </trkpt>
      <trkpt lat="43.52933" lon="6.8226">
        <ele>284</ele>
        <time>2012-11-01T09:29:30Z</time>
      </trkpt>
      <trkpt lat="43.52933" lon="6.82255">
        <ele>284</ele>
        <time>2012-11-01T09:29:31Z</time>
      </trkpt>
      <trkpt lat="43.52933" lon="6.82251">
        <ele>284</ele>
        <time>2012-11-01T09:29:32Z</time>
      </trkpt>
      <trkpt lat="43.52934" lon="6.82246">
        <ele>284</ele>
        <time>2012-11-01T09:29:32Z</time>
      </trkpt>
      <trkpt lat="43.52934" lon="6.82242">
        <ele>284</ele>
        <time>2012-11-01T09:29:34Z</time>
      </trkpt>
      <trkpt lat="43.52934" lon="6.82237">
        <ele>285</ele>
        <time>2012-11-01T09:29:35Z</time>
      </trkpt>
      <trkpt lat="43.52934" lon="6.82233">
        <ele>286</ele>
        <time>2012-11-01T09:29:36Z</time>
      </trkpt>
      <trkpt lat="43.52933" lon="6.82228">
        <ele>287</ele>
        <time>2012-11-01T09:29:36Z</time>
      </trkpt>
      <trkpt lat="43.52932" lon="6.82223">
        <ele>287</ele>
        <time>2012-11-01T09:29:38Z</time>
      </trkpt>
      <trkpt lat="43.52932" lon="6.82218">
        <ele>288</ele>
        <time>2012-11-01T09:29:39Z</time>
      </trkpt>
      <trkpt lat="43.52931" lon="6.82213">
        <ele>288</ele>
        <time>2012-11-01T09:29:40Z</time>
      </trkpt>
      <trkpt lat="43.52931" lon="6.82208">
        <ele>289</ele>
        <time>2012-11-01T09:29:41Z</time>
      </trkpt>
      <trkpt lat="43.5293" lon="6.82203">
        <ele>289</ele>
        <time>2012-11-01T09:29:42Z</time>
      </trkpt>
      <trkpt lat="43.5293" lon="6.82198">
        <ele>290</ele>
        <time>2012-11-01T09:29:43Z</time>
      </trkpt>
      <trkpt lat="43.52929" lon="6.82192">
        <ele>290</ele>
        <time>2012-11-01T09:29:44Z</time>
      </trkpt>
      <trkpt lat="43.52928" lon="6.82187">
        <ele>290</ele>
        <time>2012-11-01T09:29:45Z</time>
      </trkpt>
      <trkpt lat="43.52928" lon="6.82182">
        <ele>291</ele>
        <time>2012-11-01T09:29:46Z</time>
      </trkpt>
      <trkpt lat="43.52927" lon="6.82177">
        <ele>291</ele>
        <time>2012-11-01T09:29:47Z</time>
      </trkpt>
      <trkpt lat="43.52927" lon="6.82171">
        <ele>292</ele>
        <time>2012-11-01T09:29:48Z</time>
      </trkpt>
      <trkpt lat="43.52927" lon="6.82166">
        <ele>293</ele>
        <time>2012-11-01T09:29:49Z</time>
      </trkpt>
      <trkpt lat="43.52927" lon="6.82161">
        <ele>293</ele>
        <time>2012-11-01T09:29:50Z</time>
      </trkpt>
      <trkpt lat="43.52927" lon="6.82156">
        <ele>294</ele>
        <time>2012-11-01T09:29:51Z</time>
      </trkpt>
      <trkpt lat="43.52928" lon="6.82151">
        <ele>294</ele>
        <time>2012-11-01T09:29:52Z</time>
      </trkpt>
      <trkpt lat="43.52929" lon="6.82146">
        <ele>295</ele>
        <time>2012-11-01T09:29:53Z</time>
      </trkpt>
      <trkpt lat="43.52931" lon="6.82141">
        <ele>295</ele>
        <time>2012-11-01T09:29:54Z</time>
      </trkpt>
      <trkpt lat="43.52932" lon="6.82135">
        <ele>296</ele>
        <time>2012-11-01T09:29:55Z</time>
      </trkpt>
      <trkpt lat="43.52934" lon="6.8213">
        <ele>297</ele>
        <time>2012-11-01T09:29:56Z</time>
      </trkpt>
      <trkpt lat="43.52936" lon="6.82125">
        <ele>297</ele>
        <time>2012-11-01T09:29:57Z</time>
      </trkpt>
      <trkpt lat="43.52939" lon="6.82121">
        <ele>297</ele>
        <time>2012-11-01T09:29:58Z</time>
      </trkpt>
      <trkpt lat="43.52941" lon="6.82116">
        <ele>297</ele>
        <time>2012-11-01T09:29:59Z</time>
      </trkpt>
      <trkpt lat="43.52944" lon="6.82112">
        <ele>297</ele>
        <time>2012-11-01T09:30:00Z</time>
      </trkpt>
      <trkpt lat="43.52947" lon="6.82109">
        <ele>297</ele>
        <time>2012-11-01T09:30:01Z</time>
      </trkpt>
      <trkpt lat="43.5295" lon="6.82106">
        <ele>297</ele>
        <time>2012-11-01T09:30:02Z</time>
      </trkpt>
      <trkpt lat="43.52953" lon="6.82101">
        <ele>297</ele>
        <time>2012-11-01T09:30:03Z</time>
      </trkpt>
      <trkpt lat="43.52954" lon="6.82097">
        <ele>297</ele>
        <time>2012-11-01T09:30:04Z</time>
      </trkpt>
      <trkpt lat="43.52954" lon="6.82091">
        <ele>297</ele>
        <time>2012-11-01T09:30:05Z</time>
      </trkpt>
      <trkpt lat="43.52953" lon="6.82086">
        <ele>298</ele>
        <time>2012-11-01T09:30:06Z</time>
      </trkpt>
      <trkpt lat="43.5295" lon="6.82082">
        <ele>298</ele>
        <time>2012-11-01T09:30:07Z</time>
      </trkpt>
      <trkpt lat="43.52946" lon="6.82078">
        <ele>298</ele>
        <time>2012-11-01T09:30:08Z</time>
      </trkpt>
      <trkpt lat="43.52942" lon="6.82073">
        <ele>298</ele>
        <time>2012-11-01T09:30:09Z</time>
      </trkpt>
      <trkpt lat="43.52938" lon="6.82068">
        <ele>298</ele>
        <time>2012-11-01T09:30:09Z</time>
      </trkpt>
      <trkpt lat="43.52935" lon="6.82063">
        <ele>298</ele>
        <time>2012-11-01T09:30:11Z</time>
      </trkpt>
      <trkpt lat="43.52932" lon="6.82057">
        <ele>298</ele>
        <time>2012-11-01T09:30:12Z</time>
      </trkpt>
      <trkpt lat="43.52928" lon="6.82051">
        <ele>298</ele>
        <time>2012-11-01T09:30:13Z</time>
      </trkpt>
      <trkpt lat="43.52926" lon="6.82045">
        <ele>298</ele>
        <time>2012-11-01T09:30:14Z</time>
      </trkpt>
      <trkpt lat="43.52923" lon="6.82039">
        <ele>298</ele>
        <time>2012-11-01T09:30:15Z</time>
      </trkpt>
      <trkpt lat="43.52921" lon="6.82033">
        <ele>298</ele>
        <time>2012-11-01T09:30:16Z</time>
      </trkpt>
      <trkpt lat="43.52919" lon="6.82027">
        <ele>298</ele>
        <time>2012-11-01T09:30:17Z</time>
      </trkpt>
      <trkpt lat="43.52918" lon="6.82022">
        <ele>298</ele>
        <time>2012-11-01T09:30:18Z</time>
      </trkpt>
      <trkpt lat="43.52916" lon="6.82016">
        <ele>298</ele>
        <time>2012-11-01T09:30:19Z</time>
      </trkpt>
      <trkpt lat="43.52915" lon="6.82011">
        <ele>297</ele>
        <time>2012-11-01T09:30:20Z</time>
      </trkpt>
      <trkpt lat="43.52914" lon="6.82005">
        <ele>297</ele>
        <time>2012-11-01T09:30:21Z</time>
      </trkpt>
      <trkpt lat="43.52913" lon="6.81999">
        <ele>297</ele>
        <time>2012-11-01T09:30:22Z</time>
      </trkpt>
      <trkpt lat="43.52912" lon="6.81994">
        <ele>297</ele>
        <time>2012-11-01T09:30:23Z</time>
      </trkpt>
      <trkpt lat="43.52911" lon="6.81988">
        <ele>297</ele>
        <time>2012-11-01T09:30:23Z</time>
      </trkpt>
      <trkpt lat="43.52911" lon="6.81982">
        <ele>297</ele>
        <time>2012-11-01T09:30:25Z</time>
      </trkpt>
      <trkpt lat="43.52912" lon="6.81976">
        <ele>297</ele>
        <time>2012-11-01T09:30:26Z</time>
      </trkpt>
      <trkpt lat="43.52912" lon="6.81971">
        <ele>297</ele>
        <time>2012-11-01T09:30:27Z</time>
      </trkpt>
      <trkpt lat="43.52913" lon="6.81965">
        <ele>297</ele>
        <time>2012-11-01T09:30:28Z</time>
      </trkpt>
      <trkpt lat="43.52913" lon="6.8196">
        <ele>297</ele>
        <time>2012-11-01T09:30:29Z</time>
      </trkpt>
      <trkpt lat="43.52913" lon="6.81955">
        <ele>297</ele>
        <time>2012-11-01T09:30:30Z</time>
      </trkpt>
      <trkpt lat="43.52914" lon="6.8195">
        <ele>297</ele>
        <time>2012-11-01T09:30:31Z</time>
      </trkpt>
      <trkpt lat="43.52914" lon="6.81946">
        <ele>297</ele>
        <time>2012-11-01T09:30:32Z</time>
      </trkpt>
      <trkpt lat="43.52914" lon="6.81941">
        <ele>297</ele>
        <time>2012-11-01T09:30:33Z</time>
      </trkpt>
      <trkpt lat="43.52914" lon="6.81936">
        <ele>297</ele>
        <time>2012-11-01T09:30:34Z</time>
      </trkpt>
      <trkpt lat="43.52914" lon="6.81931">
        <ele>297</ele>
        <time>2012-11-01T09:30:35Z</time>
      </trkpt>
      <trkpt lat="43.52914" lon="6.81926">
        <ele>297</ele>
        <time>2012-11-01T09:30:36Z</time>
      </trkpt>
      <trkpt lat="43.52914" lon="6.81922">
        <ele>297</ele>
        <time>2012-11-01T09:30:37Z</time>
      </trkpt>
      <trkpt lat="43.52914" lon="6.81917">
        <ele>297</ele>
        <time>2012-11-01T09:30:38Z</time>
      </trkpt>
      <trkpt lat="43.52913" lon="6.81913">
        <ele>297</ele>
        <time>2012-11-01T09:30:39Z</time>
      </trkpt>
      <trkpt lat="43.52912" lon="6.81908">
        <ele>297</ele>
        <time>2012-11-01T09:30:39Z</time>
      </trkpt>
      <trkpt lat="43.52911" lon="6.81903">
        <ele>297</ele>
        <time>2012-11-01T09:30:41Z</time>
      </trkpt>
      <trkpt lat="43.5291" lon="6.81898">
        <ele>297</ele>
        <time>2012-11-01T09:30:42Z</time>
      </trkpt>
      <trkpt lat="43.52909" lon="6.81894">
        <ele>297</ele>
        <time>2012-11-01T09:30:43Z</time>
      </trkpt>
      <trkpt lat="43.52907" lon="6.81889">
        <ele>297</ele>
        <time>2012-11-01T09:30:44Z</time>
      </trkpt>
      <trkpt lat="43.52906" lon="6.81884">
        <ele>297</ele>
        <time>2012-11-01T09:30:45Z</time>
      </trkpt>
      <trkpt lat="43.52904" lon="6.8188">
        <ele>297</ele>
        <time>2012-11-01T09:30:46Z</time>
      </trkpt>
      <trkpt lat="43.52902" lon="6.81875">
        <ele>297</ele>
        <time>2012-11-01T09:30:47Z</time>
      </trkpt>
      <trkpt lat="43.529" lon="6.81871">
        <ele>297</ele>
        <time>2012-11-01T09:30:48Z</time>
      </trkpt>
      <trkpt lat="43.52897" lon="6.81866">
        <ele>297</ele>
        <time>2012-11-01T09:30:49Z</time>
      </trkpt>
      <trkpt lat="43.52895" lon="6.81861">
        <ele>297</ele>
        <time>2012-11-01T09:30:50Z</time>
      </trkpt>
      <trkpt lat="43.52893" lon="6.81857">
        <ele>297</ele>
        <time>2012-11-01T09:30:51Z</time>
      </trkpt>
      <trkpt lat="43.52891" lon="6.81852">
        <ele>297</ele>
        <time>2012-11-01T09:30:52Z</time>
      </trkpt>
      <trkpt lat="43.52889" lon="6.81847">
        <ele>297</ele>
        <time>2012-11-01T09:30:52Z</time>
      </trkpt>
      <trkpt lat="43.52887" lon="6.81842">
        <ele>297</ele>
        <time>2012-11-01T09:30:54Z</time>
      </trkpt>
      <trkpt lat="43.52884" lon="6.81838">
        <ele>297</ele>
        <time>2012-11-01T09:30:54Z</time>
      </trkpt>
      <trkpt lat="43.52882" lon="6.81833">
        <ele>297</ele>
        <time>2012-11-01T09:30:56Z</time>
      </trkpt>
      <trkpt lat="43.52879" lon="6.81829">
        <ele>297</ele>
        <time>2012-11-01T09:30:57Z</time>
      </trkpt>
      <trkpt lat="43.52875" lon="6.81825">
        <ele>297</ele>
        <time>2012-11-01T09:30:58Z</time>
      </trkpt>
      <trkpt lat="43.52872" lon="6.81821">
        <ele>297</ele>
        <time>2012-11-01T09:30:59Z</time>
      </trkpt>
      <trkpt lat="43.52869" lon="6.81818">
        <ele>298</ele>
        <time>2012-11-01T09:31:00Z</time>
      </trkpt>
      <trkpt lat="43.52865" lon="6.81815">
        <ele>298</ele>
        <time>2012-11-01T09:31:01Z</time>
      </trkpt>
      <trkpt lat="43.52861" lon="6.81812">
        <ele>298</ele>
        <time>2012-11-01T09:31:02Z</time>
      </trkpt>
      <trkpt lat="43.52857" lon="6.81809">
        <ele>299</ele>
        <time>2012-11-01T09:31:03Z</time>
      </trkpt>
      <trkpt lat="43.52853" lon="6.81807">
        <ele>299</ele>
        <time>2012-11-01T09:31:04Z</time>
      </trkpt>
      <trkpt lat="43.52848" lon="6.81805">
        <ele>299</ele>
        <time>2012-11-01T09:31:05Z</time>
      </trkpt>
      <trkpt lat="43.52844" lon="6.81803">
        <ele>300</ele>
        <time>2012-11-01T09:31:06Z</time>
      </trkpt>
      <trkpt lat="43.52839" lon="6.81802">
        <ele>300</ele>
        <time>2012-11-01T09:31:07Z</time>
      </trkpt>
      <trkpt lat="43.52834" lon="6.81801">
        <ele>301</ele>
        <time>2012-11-01T09:31:08Z</time>
      </trkpt>
      <trkpt lat="43.52828" lon="6.81801">
        <ele>301</ele>
        <time>2012-11-01T09:31:09Z</time>
      </trkpt>
      <trkpt lat="43.52823" lon="6.81801">
        <ele>302</ele>
        <time>2012-11-01T09:31:10Z</time>
      </trkpt>
      <trkpt lat="43.52818" lon="6.81801">
        <ele>302</ele>
        <time>2012-11-01T09:31:10Z</time>
      </trkpt>
      <trkpt lat="43.52813" lon="6.81802">
        <ele>302</ele>
        <time>2012-11-01T09:31:12Z</time>
      </trkpt>
      <trkpt lat="43.52808" lon="6.81803">
        <ele>302</ele>
        <time>2012-11-01T09:31:13Z</time>
      </trkpt>
      <trkpt lat="43.52803" lon="6.81804">
        <ele>302</ele>
        <time>2012-11-01T09:31:14Z</time>
      </trkpt>
      <trkpt lat="43.52798" lon="6.81805">
        <ele>303</ele>
        <time>2012-11-01T09:31:15Z</time>
      </trkpt>
      <trkpt lat="43.52794" lon="6.81805">
        <ele>303</ele>
        <time>2012-11-01T09:31:15Z</time>
      </trkpt>
      <trkpt lat="43.52788" lon="6.81805">
        <ele>303</ele>
        <time>2012-11-01T09:31:17Z</time>
      </trkpt>
      <trkpt lat="43.52783" lon="6.81802">
        <ele>303</ele>
        <time>2012-11-01T09:31:17Z</time>
      </trkpt>
      <trkpt lat="43.52778" lon="6.818">
        <ele>303</ele>
        <time>2012-11-01T09:31:19Z</time>
      </trkpt>
      <trkpt lat="43.52773" lon="6.81796">
        <ele>303</ele>
        <time>2012-11-01T09:31:19Z</time>
      </trkpt>
      <trkpt lat="43.52768" lon="6.81793">
        <ele>304</ele>
        <time>2012-11-01T09:31:21Z</time>
      </trkpt>
      <trkpt lat="43.52763" lon="6.81789">
        <ele>304</ele>
        <time>2012-11-01T09:31:22Z</time>
      </trkpt>
      <trkpt lat="43.52759" lon="6.81785">
        <ele>304</ele>
        <time>2012-11-01T09:31:22Z</time>
      </trkpt>
      <trkpt lat="43.52755" lon="6.81781">
        <ele>304</ele>
        <time>2012-11-01T09:31:24Z</time>
      </trkpt>
      <trkpt lat="43.52751" lon="6.81777">
        <ele>304</ele>
        <time>2012-11-01T09:31:25Z</time>
      </trkpt>
      <trkpt lat="43.52747" lon="6.81772">
        <ele>304</ele>
        <time>2012-11-01T09:31:26Z</time>
      </trkpt>
      <trkpt lat="43.52744" lon="6.81766">
        <ele>304</ele>
        <time>2012-11-01T09:31:27Z</time>
      </trkpt>
      <trkpt lat="43.5274" lon="6.81761">
        <ele>304</ele>
        <time>2012-11-01T09:31:27Z</time>
      </trkpt>
      <trkpt lat="43.52738" lon="6.81754">
        <ele>304</ele>
        <time>2012-11-01T09:31:29Z</time>
      </trkpt>
      <trkpt lat="43.52736" lon="6.81748">
        <ele>304</ele>
        <time>2012-11-01T09:31:30Z</time>
      </trkpt>
      <trkpt lat="43.52733" lon="6.81742">
        <ele>304</ele>
        <time>2012-11-01T09:31:31Z</time>
      </trkpt>
      <trkpt lat="43.52731" lon="6.81735">
        <ele>304</ele>
        <time>2012-11-01T09:31:32Z</time>
      </trkpt>
      <trkpt lat="43.52729" lon="6.81729">
        <ele>304</ele>
        <time>2012-11-01T09:31:33Z</time>
      </trkpt>
      <trkpt lat="43.52726" lon="6.81723">
        <ele>303</ele>
        <time>2012-11-01T09:31:34Z</time>
      </trkpt>
      <trkpt lat="43.52723" lon="6.81717">
        <ele>303</ele>
        <time>2012-11-01T09:31:35Z</time>
      </trkpt>
      <trkpt lat="43.52721" lon="6.81711">
        <ele>303</ele>
        <time>2012-11-01T09:31:36Z</time>
      </trkpt>
      <trkpt lat="43.52719" lon="6.81706">
        <ele>303</ele>
        <time>2012-11-01T09:31:36Z</time>
      </trkpt>
      <trkpt lat="43.52717" lon="6.817">
        <ele>303</ele>
        <time>2012-11-01T09:31:38Z</time>
      </trkpt>
      <trkpt lat="43.52715" lon="6.81694">
        <ele>303</ele>
        <time>2012-11-01T09:31:39Z</time>
      </trkpt>
      <trkpt lat="43.52713" lon="6.81689">
        <ele>303</ele>
        <time>2012-11-01T09:31:40Z</time>
      </trkpt>
      <trkpt lat="43.5271" lon="6.81683">
        <ele>303</ele>
        <time>2012-11-01T09:31:41Z</time>
      </trkpt>
      <trkpt lat="43.52707" lon="6.81678">
        <ele>303</ele>
        <time>2012-11-01T09:31:41Z</time>
      </trkpt>
      <trkpt lat="43.52704" lon="6.81673">
        <ele>303</ele>
        <time>2012-11-01T09:31:43Z</time>
      </trkpt>
      <trkpt lat="43.527" lon="6.81669">
        <ele>303</ele>
        <time>2012-11-01T09:31:44Z</time>
      </trkpt>
      <trkpt lat="43.52697" lon="6.81664">
        <ele>303</ele>
        <time>2012-11-01T09:31:45Z</time>
      </trkpt>
      <trkpt lat="43.52693" lon="6.8166">
        <ele>302</ele>
        <time>2012-11-01T09:31:45Z</time>
      </trkpt>
      <trkpt lat="43.52689" lon="6.81656">
        <ele>302</ele>
        <time>2012-11-01T09:31:47Z</time>
      </trkpt>
      <trkpt lat="43.52686" lon="6.81651">
        <ele>302</ele>
        <time>2012-11-01T09:31:48Z</time>
      </trkpt>
      <trkpt lat="43.52681" lon="6.81647">
        <ele>302</ele>
        <time>2012-11-01T09:31:49Z</time>
      </trkpt>
      <trkpt lat="43.52678" lon="6.81642">
        <ele>302</ele>
        <time>2012-11-01T09:31:50Z</time>
      </trkpt>
      <trkpt lat="43.52674" lon="6.81638">
        <ele>302</ele>
        <time>2012-11-01T09:31:51Z</time>
      </trkpt>
      <trkpt lat="43.5267" lon="6.81634">
        <ele>302</ele>
        <time>2012-11-01T09:31:52Z</time>
      </trkpt>
      <trkpt lat="43.52666" lon="6.8163">
        <ele>302</ele>
        <time>2012-11-01T09:31:53Z</time>
      </trkpt>
      <trkpt lat="43.52663" lon="6.81626">
        <ele>302</ele>
        <time>2012-11-01T09:31:54Z</time>
      </trkpt>
      <trkpt lat="43.52659" lon="6.81622">
        <ele>302</ele>
        <time>2012-11-01T09:31:55Z</time>
      </trkpt>
      <trkpt lat="43.52656" lon="6.81618">
        <ele>302</ele>
        <time>2012-11-01T09:31:56Z</time>
      </trkpt>
      <trkpt lat="43.52652" lon="6.81614">
        <ele>302</ele>
        <time>2012-11-01T09:31:56Z</time>
      </trkpt>
      <trkpt lat="43.52648" lon="6.81611">
        <ele>302</ele>
        <time>2012-11-01T09:31:58Z</time>
      </trkpt>
      <trkpt lat="43.52644" lon="6.81607">
        <ele>302</ele>
        <time>2012-11-01T09:31:59Z</time>
      </trkpt>
      <trkpt lat="43.52641" lon="6.81603">
        <ele>302</ele>
        <time>2012-11-01T09:32:00Z</time>
      </trkpt>
      <trkpt lat="43.52637" lon="6.816">
        <ele>302</ele>
        <time>2012-11-01T09:32:01Z</time>
      </trkpt>
      <trkpt lat="43.52633" lon="6.81596">
        <ele>302</ele>
        <time>2012-11-01T09:32:01Z</time>
      </trkpt>
      <trkpt lat="43.52629" lon="6.81592">
        <ele>302</ele>
        <time>2012-11-01T09:32:03Z</time>
      </trkpt>
      <trkpt lat="43.52626" lon="6.81589">
        <ele>302</ele>
        <time>2012-11-01T09:32:04Z</time>
      </trkpt>
      <trkpt lat="43.52622" lon="6.81585">
        <ele>302</ele>
        <time>2012-11-01T09:32:05Z</time>
      </trkpt>
      <trkpt lat="43.52619" lon="6.81581">
        <ele>302</ele>
        <time>2012-11-01T09:32:06Z</time>
      </trkpt>
      <trkpt lat="43.52615" lon="6.81577">
        <ele>302</ele>
        <time>2012-11-01T09:32:07Z</time>
      </trkpt>
      <trkpt lat="43.52613" lon="6.81573">
        <ele>302</ele>
        <time>2012-11-01T09:32:08Z</time>
      </trkpt>
      <trkpt lat="43.5261" lon="6.81568">
        <ele>302</ele>
        <time>2012-11-01T09:32:09Z</time>
      </trkpt>
      <trkpt lat="43.52608" lon="6.81564">
        <ele>302</ele>
        <time>2012-11-01T09:32:10Z</time>
      </trkpt>
      <trkpt lat="43.52606" lon="6.81559">
        <ele>302</ele>
        <time>2012-11-01T09:32:11Z</time>
      </trkpt>
      <trkpt lat="43.52604" lon="6.81554">
        <ele>302</ele>
        <time>2012-11-01T09:32:12Z</time>
      </trkpt>
      <trkpt lat="43.52603" lon="6.81548">
        <ele>302</ele>
        <time>2012-11-01T09:32:13Z</time>
      </trkpt>
      <trkpt lat="43.52602" lon="6.81543">
        <ele>303</ele>
        <time>2012-11-01T09:32:14Z</time>
      </trkpt>
      <trkpt lat="43.52601" lon="6.81537">
        <ele>303</ele>
        <time>2012-11-01T09:32:15Z</time>
      </trkpt>
      <trkpt lat="43.52601" lon="6.81531">
        <ele>304</ele>
        <time>2012-11-01T09:32:16Z</time>
      </trkpt>
      <trkpt lat="43.52601" lon="6.81526">
        <ele>305</ele>
        <time>2012-11-01T09:32:17Z</time>
      </trkpt>
      <trkpt lat="43.52601" lon="6.8152">
        <ele>306</ele>
        <time>2012-11-01T09:32:17Z</time>
      </trkpt>
      <trkpt lat="43.52601" lon="6.81513">
        <ele>307</ele>
        <time>2012-11-01T09:32:19Z</time>
      </trkpt>
      <trkpt lat="43.526" lon="6.81507">
        <ele>308</ele>
        <time>2012-11-01T09:32:20Z</time>
      </trkpt>
      <trkpt lat="43.52601" lon="6.815">
        <ele>309</ele>
        <time>2012-11-01T09:32:21Z</time>
      </trkpt>
      <trkpt lat="43.52601" lon="6.81494">
        <ele>309</ele>
        <time>2012-11-01T09:32:22Z</time>
      </trkpt>
      <trkpt lat="43.52601" lon="6.81488">
        <ele>309</ele>
        <time>2012-11-01T09:32:23Z</time>
      </trkpt>
      <trkpt lat="43.52601" lon="6.81482">
        <ele>309</ele>
        <time>2012-11-01T09:32:24Z</time>
      </trkpt>
      <trkpt lat="43.52601" lon="6.81475">
        <ele>309</ele>
        <time>2012-11-01T09:32:25Z</time>
      </trkpt>
      <trkpt lat="43.526" lon="6.81469">
        <ele>309</ele>
        <time>2012-11-01T09:32:25Z</time>
      </trkpt>
      <trkpt lat="43.52599" lon="6.81463">
        <ele>309</ele>
        <time>2012-11-01T09:32:27Z</time>
      </trkpt>
      <trkpt lat="43.52598" lon="6.81457">
        <ele>309</ele>
        <time>2012-11-01T09:32:28Z</time>
      </trkpt>
      <trkpt lat="43.52597" lon="6.81452">
        <ele>309</ele>
        <time>2012-11-01T09:32:28Z</time>
      </trkpt>
      <trkpt lat="43.52595" lon="6.81446">
        <ele>309</ele>
        <time>2012-11-01T09:32:29Z</time>
      </trkpt>
      <trkpt lat="43.52592" lon="6.8144">
        <ele>309</ele>
        <time>2012-11-01T09:32:31Z</time>
      </trkpt>
      <trkpt lat="43.5259" lon="6.81435">
        <ele>309</ele>
        <time>2012-11-01T09:32:32Z</time>
      </trkpt>
      <trkpt lat="43.52587" lon="6.81431">
        <ele>309</ele>
        <time>2012-11-01T09:32:33Z</time>
      </trkpt>
      <trkpt lat="43.52583" lon="6.81427">
        <ele>309</ele>
        <time>2012-11-01T09:32:33Z</time>
      </trkpt>
      <trkpt lat="43.5258" lon="6.81423">
        <ele>310</ele>
        <time>2012-11-01T09:32:35Z</time>
      </trkpt>
      <trkpt lat="43.52576" lon="6.8142">
        <ele>311</ele>
        <time>2012-11-01T09:32:36Z</time>
      </trkpt>
      <trkpt lat="43.52573" lon="6.81416">
        <ele>312</ele>
        <time>2012-11-01T09:32:37Z</time>
      </trkpt>
      <trkpt lat="43.52569" lon="6.81413">
        <ele>313</ele>
        <time>2012-11-01T09:32:37Z</time>
      </trkpt>
      <trkpt lat="43.52566" lon="6.8141">
        <ele>314</ele>
        <time>2012-11-01T09:32:39Z</time>
      </trkpt>
      <trkpt lat="43.52562" lon="6.81407">
        <ele>315</ele>
        <time>2012-11-01T09:32:40Z</time>
      </trkpt>
      <trkpt lat="43.52558" lon="6.81403">
        <ele>316</ele>
        <time>2012-11-01T09:32:41Z</time>
      </trkpt>
      <trkpt lat="43.52554" lon="6.814">
        <ele>317</ele>
        <time>2012-11-01T09:32:41Z</time>
      </trkpt>
      <trkpt lat="43.5255" lon="6.81396">
        <ele>318</ele>
        <time>2012-11-01T09:32:42Z</time>
      </trkpt>
      <trkpt lat="43.52546" lon="6.81392">
        <ele>319</ele>
        <time>2012-11-01T09:32:43Z</time>
      </trkpt>
      <trkpt lat="43.52542" lon="6.81389">
        <ele>320</ele>
        <time>2012-11-01T09:32:45Z</time>
      </trkpt>
      <trkpt lat="43.52537" lon="6.81385">
        <ele>320</ele>
        <time>2012-11-01T09:32:45Z</time>
      </trkpt>
      <trkpt lat="43.52533" lon="6.81381">
        <ele>320</ele>
        <time>2012-11-01T09:32:47Z</time>
      </trkpt>
      <trkpt lat="43.52528" lon="6.81377">
        <ele>320</ele>
        <time>2012-11-01T09:32:48Z</time>
      </trkpt>
      <trkpt lat="43.52523" lon="6.81374">
        <ele>320</ele>
        <time>2012-11-01T09:32:49Z</time>
      </trkpt>
      <trkpt lat="43.52519" lon="6.8137">
        <ele>320</ele>
        <time>2012-11-01T09:32:50Z</time>
      </trkpt>
      <trkpt lat="43.52514" lon="6.81368">
        <ele>320</ele>
        <time>2012-11-01T09:32:51Z</time>
      </trkpt>
      <trkpt lat="43.52509" lon="6.81365">
        <ele>320</ele>
        <time>2012-11-01T09:32:52Z</time>
      </trkpt>
      <trkpt lat="43.52504" lon="6.81362">
        <ele>320</ele>
        <time>2012-11-01T09:32:52Z</time>
      </trkpt>
      <trkpt lat="43.525" lon="6.81359">
        <ele>320</ele>
        <time>2012-11-01T09:32:54Z</time>
      </trkpt>
      <trkpt lat="43.52494" lon="6.81356">
        <ele>319</ele>
        <time>2012-11-01T09:32:54Z</time>
      </trkpt>
      <trkpt lat="43.52489" lon="6.81355">
        <ele>318</ele>
        <time>2012-11-01T09:32:55Z</time>
      </trkpt>
      <trkpt lat="43.52484" lon="6.81353">
        <ele>318</ele>
        <time>2012-11-01T09:32:56Z</time>
      </trkpt>
      <trkpt lat="43.52479" lon="6.81352">
        <ele>318</ele>
        <time>2012-11-01T09:32:57Z</time>
      </trkpt>
      <trkpt lat="43.52474" lon="6.81351">
        <ele>318</ele>
        <time>2012-11-01T09:32:59Z</time>
      </trkpt>
      <trkpt lat="43.52469" lon="6.81349">
        <ele>317</ele>
        <time>2012-11-01T09:33:00Z</time>
      </trkpt>
      <trkpt lat="43.52464" lon="6.81347">
        <ele>317</ele>
        <time>2012-11-01T09:33:01Z</time>
      </trkpt>
      <trkpt lat="43.52459" lon="6.81344">
        <ele>317</ele>
        <time>2012-11-01T09:33:02Z</time>
      </trkpt>
      <trkpt lat="43.52456" lon="6.8134">
        <ele>317</ele>
        <time>2012-11-01T09:33:03Z</time>
      </trkpt>
      <trkpt lat="43.52452" lon="6.81334">
        <ele>317</ele>
        <time>2012-11-01T09:33:04Z</time>
      </trkpt>
      <trkpt lat="43.52449" lon="6.81329">
        <ele>317</ele>
        <time>2012-11-01T09:33:05Z</time>
      </trkpt>
      <trkpt lat="43.52447" lon="6.81323">
        <ele>317</ele>
        <time>2012-11-01T09:33:06Z</time>
      </trkpt>
      <trkpt lat="43.52444" lon="6.81317">
        <ele>317</ele>
        <time>2012-11-01T09:33:07Z</time>
      </trkpt>
      <trkpt lat="43.52441" lon="6.81311">
        <ele>317</ele>
        <time>2012-11-01T09:33:08Z</time>
      </trkpt>
      <trkpt lat="43.52438" lon="6.81305">
        <ele>317</ele>
        <time>2012-11-01T09:33:08Z</time>
      </trkpt>
      <trkpt lat="43.52436" lon="6.81299">
        <ele>317</ele>
        <time>2012-11-01T09:33:10Z</time>
      </trkpt>
      <trkpt lat="43.52433" lon="6.81293">
        <ele>317</ele>
        <time>2012-11-01T09:33:11Z</time>
      </trkpt>
      <trkpt lat="43.52429" lon="6.81288">
        <ele>317</ele>
        <time>2012-11-01T09:33:12Z</time>
      </trkpt>
      <trkpt lat="43.52425" lon="6.81283">
        <ele>317</ele>
        <time>2012-11-01T09:33:13Z</time>
      </trkpt>
      <trkpt lat="43.52422" lon="6.81278">
        <ele>317</ele>
        <time>2012-11-01T09:33:14Z</time>
      </trkpt>
      <trkpt lat="43.52417" lon="6.81274">
        <ele>317</ele>
        <time>2012-11-01T09:33:15Z</time>
      </trkpt>
      <trkpt lat="43.52414" lon="6.8127">
        <ele>317</ele>
        <time>2012-11-01T09:33:16Z</time>
      </trkpt>
      <trkpt lat="43.52409" lon="6.81265">
        <ele>317</ele>
        <time>2012-11-01T09:33:17Z</time>
      </trkpt>
      <trkpt lat="43.52405" lon="6.81261">
        <ele>316</ele>
        <time>2012-11-01T09:33:17Z</time>
      </trkpt>
      <trkpt lat="43.52401" lon="6.81257">
        <ele>316</ele>
        <time>2012-11-01T09:33:19Z</time>
      </trkpt>
      <trkpt lat="43.52397" lon="6.81252">
        <ele>316</ele>
        <time>2012-11-01T09:33:20Z</time>
      </trkpt>
      <trkpt lat="43.52392" lon="6.81249">
        <ele>316</ele>
        <time>2012-11-01T09:33:21Z</time>
      </trkpt>
      <trkpt lat="43.52388" lon="6.81245">
        <ele>316</ele>
        <time>2012-11-01T09:33:21Z</time>
      </trkpt>
      <trkpt lat="43.52383" lon="6.81241">
        <ele>316</ele>
        <time>2012-11-01T09:33:23Z</time>
      </trkpt>
      <trkpt lat="43.52379" lon="6.81237">
        <ele>316</ele>
        <time>2012-11-01T09:33:24Z</time>
      </trkpt>
      <trkpt lat="43.52375" lon="6.81234">
        <ele>316</ele>
        <time>2012-11-01T09:33:25Z</time>
      </trkpt>
      <trkpt lat="43.5237" lon="6.8123">
        <ele>316</ele>
        <time>2012-11-01T09:33:26Z</time>
      </trkpt>
      <trkpt lat="43.52366" lon="6.81226">
        <ele>316</ele>
        <time>2012-11-01T09:33:27Z</time>
      </trkpt>
      <trkpt lat="43.52361" lon="6.81223">
        <ele>316</ele>
        <time>2012-11-01T09:33:28Z</time>
      </trkpt>
      <trkpt lat="43.52356" lon="6.81219">
        <ele>316</ele>
        <time>2012-11-01T09:33:29Z</time>
      </trkpt>
      <trkpt lat="43.52351" lon="6.81215">
        <ele>316</ele>
        <time>2012-11-01T09:33:30Z</time>
      </trkpt>
      <trkpt lat="43.52347" lon="6.81212">
        <ele>316</ele>
        <time>2012-11-01T09:33:31Z</time>
      </trkpt>
      <trkpt lat="43.52342" lon="6.81208">
        <ele>316</ele>
        <time>2012-11-01T09:33:31Z</time>
      </trkpt>
      <trkpt lat="43.52337" lon="6.81204">
        <ele>316</ele>
        <time>2012-11-01T09:33:33Z</time>
      </trkpt>
      <trkpt lat="43.52333" lon="6.812">
        <ele>316</ele>
        <time>2012-11-01T09:33:34Z</time>
      </trkpt>
      <trkpt lat="43.52329" lon="6.81195">
        <ele>316</ele>
        <time>2012-11-01T09:33:34Z</time>
      </trkpt>
      <trkpt lat="43.52325" lon="6.8119">
        <ele>316</ele>
        <time>2012-11-01T09:33:36Z</time>
      </trkpt>
      <trkpt lat="43.52321" lon="6.81186">
        <ele>316</ele>
        <time>2012-11-01T09:33:37Z</time>
      </trkpt>
      <trkpt lat="43.52317" lon="6.81181">
        <ele>316</ele>
        <time>2012-11-01T09:33:38Z</time>
      </trkpt>
      <trkpt lat="43.52314" lon="6.81177">
        <ele>316</ele>
        <time>2012-11-01T09:33:39Z</time>
      </trkpt>
      <trkpt lat="43.5231" lon="6.81172">
        <ele>316</ele>
        <time>2012-11-01T09:33:40Z</time>
      </trkpt>
      <trkpt lat="43.52307" lon="6.81167">
        <ele>316</ele>
        <time>2012-11-01T09:33:41Z</time>
      </trkpt>
      <trkpt lat="43.52304" lon="6.81162">
        <ele>316</ele>
        <time>2012-11-01T09:33:42Z</time>
      </trkpt>
      <trkpt lat="43.523" lon="6.81157">
        <ele>316</ele>
        <time>2012-11-01T09:33:43Z</time>
      </trkpt>
      <trkpt lat="43.52297" lon="6.81153">
        <ele>316</ele>
        <time>2012-11-01T09:33:43Z</time>
      </trkpt>
      <trkpt lat="43.52293" lon="6.81149">
        <ele>316</ele>
        <time>2012-11-01T09:33:45Z</time>
      </trkpt>
      <trkpt lat="43.5229" lon="6.81144">
        <ele>316</ele>
        <time>2012-11-01T09:33:45Z</time>
      </trkpt>
      <trkpt lat="43.52287" lon="6.81139">
        <ele>316</ele>
        <time>2012-11-01T09:33:47Z</time>
      </trkpt>
      <trkpt lat="43.52284" lon="6.81134">
        <ele>316</ele>
        <time>2012-11-01T09:33:48Z</time>
      </trkpt>
      <trkpt lat="43.52281" lon="6.81129">
        <ele>316</ele>
        <time>2012-11-01T09:33:48Z</time>
      </trkpt>
      <trkpt lat="43.52278" lon="6.81124">
        <ele>316</ele>
        <time>2012-11-01T09:33:49Z</time>
      </trkpt>
      <trkpt lat="43.52274" lon="6.81119">
        <ele>316</ele>
        <time>2012-11-01T09:33:51Z</time>
      </trkpt>
      <trkpt lat="43.5227" lon="6.81115">
        <ele>316</ele>
        <time>2012-11-01T09:33:52Z</time>
      </trkpt>
      <trkpt lat="43.52266" lon="6.81111">
        <ele>316</ele>
        <time>2012-11-01T09:33:53Z</time>
      </trkpt>
      <trkpt lat="43.52262" lon="6.81107">
        <ele>316</ele>
        <time>2012-11-01T09:33:54Z</time>
      </trkpt>
      <trkpt lat="43.52257" lon="6.81104">
        <ele>316</ele>
        <time>2012-11-01T09:33:55Z</time>
      </trkpt>
      <trkpt lat="43.52252" lon="6.81101">
        <ele>316</ele>
        <time>2012-11-01T09:33:56Z</time>
      </trkpt>
      <trkpt lat="43.52247" lon="6.81098">
        <ele>316</ele>
        <time>2012-11-01T09:33:57Z</time>
      </trkpt>
      <trkpt lat="43.52242" lon="6.81096">
        <ele>316</ele>
        <time>2012-11-01T09:33:57Z</time>
      </trkpt>
      <trkpt lat="43.52236" lon="6.81093">
        <ele>316</ele>
        <time>2012-11-01T09:33:59Z</time>
      </trkpt>
      <trkpt lat="43.52231" lon="6.81091">
        <ele>316</ele>
        <time>2012-11-01T09:34:00Z</time>
      </trkpt>
      <trkpt lat="43.52225" lon="6.81089">
        <ele>315</ele>
        <time>2012-11-01T09:34:01Z</time>
      </trkpt>
      <trkpt lat="43.52219" lon="6.81087">
        <ele>314</ele>
        <time>2012-11-01T09:34:02Z</time>
      </trkpt>
      <trkpt lat="43.52213" lon="6.81085">
        <ele>313</ele>
        <time>2012-11-01T09:34:03Z</time>
      </trkpt>
      <trkpt lat="43.52208" lon="6.81083">
        <ele>313</ele>
        <time>2012-11-01T09:34:04Z</time>
      </trkpt>
      <trkpt lat="43.52202" lon="6.81081">
        <ele>313</ele>
        <time>2012-11-01T09:34:05Z</time>
      </trkpt>
      <trkpt lat="43.52196" lon="6.81079">
        <ele>313</ele>
        <time>2012-11-01T09:34:06Z</time>
      </trkpt>
      <trkpt lat="43.5219" lon="6.81077">
        <ele>313</ele>
        <time>2012-11-01T09:34:07Z</time>
      </trkpt>
      <trkpt lat="43.52185" lon="6.81075">
        <ele>313</ele>
        <time>2012-11-01T09:34:08Z</time>
      </trkpt>
      <trkpt lat="43.52179" lon="6.81073">
        <ele>314</ele>
        <time>2012-11-01T09:34:09Z</time>
      </trkpt>
      <trkpt lat="43.52174" lon="6.8107">
        <ele>315</ele>
        <time>2012-11-01T09:34:09Z</time>
      </trkpt>
      <trkpt lat="43.52169" lon="6.81068">
        <ele>316</ele>
        <time>2012-11-01T09:34:11Z</time>
      </trkpt>
      <trkpt lat="43.52164" lon="6.81065">
        <ele>317</ele>
        <time>2012-11-01T09:34:12Z</time>
      </trkpt>
      <trkpt lat="43.52159" lon="6.81062">
        <ele>317</ele>
        <time>2012-11-01T09:34:13Z</time>
      </trkpt>
      <trkpt lat="43.52154" lon="6.81059">
        <ele>318</ele>
        <time>2012-11-01T09:34:14Z</time>
      </trkpt>
      <trkpt lat="43.5215" lon="6.81055">
        <ele>318</ele>
        <time>2012-11-01T09:34:15Z</time>
      </trkpt>
      <trkpt lat="43.52145" lon="6.81051">
        <ele>318</ele>
        <time>2012-11-01T09:34:16Z</time>
      </trkpt>
      <trkpt lat="43.52141" lon="6.81048">
        <ele>318</ele>
        <time>2012-11-01T09:34:17Z</time>
      </trkpt>
      <trkpt lat="43.52136" lon="6.81045">
        <ele>318</ele>
        <time>2012-11-01T09:34:17Z</time>
      </trkpt>
      <trkpt lat="43.52132" lon="6.81043">
        <ele>318</ele>
        <time>2012-11-01T09:34:19Z</time>
      </trkpt>
      <trkpt lat="43.52128" lon="6.81039">
        <ele>318</ele>
        <time>2012-11-01T09:34:20Z</time>
      </trkpt>
      <trkpt lat="43.52123" lon="6.81036">
        <ele>318</ele>
        <time>2012-11-01T09:34:21Z</time>
      </trkpt>
      <trkpt lat="43.52119" lon="6.81035">
        <ele>318</ele>
        <time>2012-11-01T09:34:21Z</time>
      </trkpt>
      <trkpt lat="43.52114" lon="6.81034">
        <ele>318</ele>
        <time>2012-11-01T09:34:23Z</time>
      </trkpt>
      <trkpt lat="43.52109" lon="6.81033">
        <ele>318</ele>
        <time>2012-11-01T09:34:24Z</time>
      </trkpt>
      <trkpt lat="43.52104" lon="6.81033">
        <ele>318</ele>
        <time>2012-11-01T09:34:24Z</time>
      </trkpt>
      <trkpt lat="43.521" lon="6.81034">
        <ele>318</ele>
        <time>2012-11-01T09:34:26Z</time>
      </trkpt>
      <trkpt lat="43.52095" lon="6.81036">
        <ele>317</ele>
        <time>2012-11-01T09:34:27Z</time>
      </trkpt>
      <trkpt lat="43.5209" lon="6.81039">
        <ele>316</ele>
        <time>2012-11-01T09:34:28Z</time>
      </trkpt>
      <trkpt lat="43.52086" lon="6.81044">
        <ele>315</ele>
        <time>2012-11-01T09:34:29Z</time>
      </trkpt>
      <trkpt lat="43.52081" lon="6.81048">
        <ele>314</ele>
        <time>2012-11-01T09:34:30Z</time>
      </trkpt>
      <trkpt lat="43.52076" lon="6.81053">
        <ele>313</ele>
        <time>2012-11-01T09:34:31Z</time>
      </trkpt>
      <trkpt lat="43.52071" lon="6.81059">
        <ele>312</ele>
        <time>2012-11-01T09:34:32Z</time>
      </trkpt>
      <trkpt lat="43.52065" lon="6.81064">
        <ele>311</ele>
        <time>2012-11-01T09:34:33Z</time>
      </trkpt>
      <trkpt lat="43.5206" lon="6.8107">
        <ele>310</ele>
        <time>2012-11-01T09:34:34Z</time>
      </trkpt>
      <trkpt lat="43.52055" lon="6.81075">
        <ele>309</ele>
        <time>2012-11-01T09:34:35Z</time>
      </trkpt>
      <trkpt lat="43.5205" lon="6.8108">
        <ele>308</ele>
        <time>2012-11-01T09:34:36Z</time>
      </trkpt>
      <trkpt lat="43.52045" lon="6.81085">
        <ele>307</ele>
        <time>2012-11-01T09:34:37Z</time>
      </trkpt>
      <trkpt lat="43.5204" lon="6.8109">
        <ele>306</ele>
        <time>2012-11-01T09:34:38Z</time>
      </trkpt>
      <trkpt lat="43.52034" lon="6.81096">
        <ele>305</ele>
        <time>2012-11-01T09:34:39Z</time>
      </trkpt>
      <trkpt lat="43.52029" lon="6.81102">
        <ele>304</ele>
        <time>2012-11-01T09:34:40Z</time>
      </trkpt>
      <trkpt lat="43.52024" lon="6.81108">
        <ele>303</ele>
        <time>2012-11-01T09:34:40Z</time>
      </trkpt>
      <trkpt lat="43.52019" lon="6.81113">
        <ele>302</ele>
        <time>2012-11-01T09:34:42Z</time>
      </trkpt>
      <trkpt lat="43.52015" lon="6.81119">
        <ele>301</ele>
        <time>2012-11-01T09:34:43Z</time>
      </trkpt>
      <trkpt lat="43.52011" lon="6.81125">
        <ele>301</ele>
        <time>2012-11-01T09:34:44Z</time>
      </trkpt>
      <trkpt lat="43.52007" lon="6.81131">
        <ele>301</ele>
        <time>2012-11-01T09:34:45Z</time>
      </trkpt>
      <trkpt lat="43.52002" lon="6.81138">
        <ele>301</ele>
        <time>2012-11-01T09:34:45Z</time>
      </trkpt>
      <trkpt lat="43.51998" lon="6.81144">
        <ele>301</ele>
        <time>2012-11-01T09:34:47Z</time>
      </trkpt>
      <trkpt lat="43.51994" lon="6.8115">
        <ele>301</ele>
        <time>2012-11-01T09:34:48Z</time>
      </trkpt>
      <trkpt lat="43.5199" lon="6.81155">
        <ele>301</ele>
        <time>2012-11-01T09:34:49Z</time>
      </trkpt>
      <trkpt lat="43.51985" lon="6.81161">
        <ele>301</ele>
        <time>2012-11-01T09:34:49Z</time>
      </trkpt>
      <trkpt lat="43.5198" lon="6.81167">
        <ele>301</ele>
        <time>2012-11-01T09:34:51Z</time>
      </trkpt>
      <trkpt lat="43.51975" lon="6.81171">
        <ele>301</ele>
        <time>2012-11-01T09:34:52Z</time>
      </trkpt>
      <trkpt lat="43.5197" lon="6.81175">
        <ele>301</ele>
        <time>2012-11-01T09:34:53Z</time>
      </trkpt>
      <trkpt lat="43.51964" lon="6.81179">
        <ele>301</ele>
        <time>2012-11-01T09:34:53Z</time>
      </trkpt>
      <trkpt lat="43.51958" lon="6.81181">
        <ele>301</ele>
        <time>2012-11-01T09:34:55Z</time>
      </trkpt>
      <trkpt lat="43.51953" lon="6.81182">
        <ele>301</ele>
        <time>2012-11-01T09:34:56Z</time>
      </trkpt>
      <trkpt lat="43.51947" lon="6.81183">
        <ele>301</ele>
        <time>2012-11-01T09:34:57Z</time>
      </trkpt>
      <trkpt lat="43.51941" lon="6.81184">
        <ele>301</ele>
        <time>2012-11-01T09:34:58Z</time>
      </trkpt>
      <trkpt lat="43.51935" lon="6.81184">
        <ele>301</ele>
        <time>2012-11-01T09:34:59Z</time>
      </trkpt>
      <trkpt lat="43.51929" lon="6.81185">
        <ele>301</ele>
        <time>2012-11-01T09:35:00Z</time>
      </trkpt>
      <trkpt lat="43.51923" lon="6.81185">
        <ele>301</ele>
        <time>2012-11-01T09:35:01Z</time>
      </trkpt>
      <trkpt lat="43.51917" lon="6.81186">
        <ele>301</ele>
        <time>2012-11-01T09:35:02Z</time>
      </trkpt>
      <trkpt lat="43.51911" lon="6.81187">
        <ele>301</ele>
        <time>2012-11-01T09:35:03Z</time>
      </trkpt>
      <trkpt lat="43.51904" lon="6.81189">
        <ele>302</ele>
        <time>2012-11-01T09:35:03Z</time>
      </trkpt>
      <trkpt lat="43.51898" lon="6.8119">
        <ele>303</ele>
        <time>2012-11-01T09:35:05Z</time>
      </trkpt>
      <trkpt lat="43.51891" lon="6.81192">
        <ele>304</ele>
        <time>2012-11-01T09:35:06Z</time>
      </trkpt>
      <trkpt lat="43.51884" lon="6.81194">
        <ele>304</ele>
        <time>2012-11-01T09:35:06Z</time>
      </trkpt>
      <trkpt lat="43.51878" lon="6.81195">
        <ele>305</ele>
        <time>2012-11-01T09:35:07Z</time>
      </trkpt>
      <trkpt lat="43.51871" lon="6.81196">
        <ele>306</ele>
        <time>2012-11-01T09:35:09Z</time>
      </trkpt>
      <trkpt lat="43.51864" lon="6.81198">
        <ele>306</ele>
        <time>2012-11-01T09:35:10Z</time>
      </trkpt>
      <trkpt lat="43.51857" lon="6.812">
        <ele>306</ele>
        <time>2012-11-01T09:35:11Z</time>
      </trkpt>
      <trkpt lat="43.51849" lon="6.81201">
        <ele>306</ele>
        <time>2012-11-01T09:35:12Z</time>
      </trkpt>
      <trkpt lat="43.51842" lon="6.81201">
        <ele>306</ele>
        <time>2012-11-01T09:35:13Z</time>
      </trkpt>
      <trkpt lat="43.51836" lon="6.812">
        <ele>306</ele>
        <time>2012-11-01T09:35:14Z</time>
      </trkpt>
      <trkpt lat="43.51829" lon="6.81199">
        <ele>306</ele>
        <time>2012-11-01T09:35:15Z</time>
      </trkpt>
      <trkpt lat="43.51822" lon="6.81199">
        <ele>306</ele>
        <time>2012-11-01T09:35:16Z</time>
      </trkpt>
      <trkpt lat="43.51815" lon="6.81197">
        <ele>306</ele>
        <time>2012-11-01T09:35:17Z</time>
      </trkpt>
      <trkpt lat="43.51809" lon="6.81195">
        <ele>306</ele>
        <time>2012-11-01T09:35:17Z</time>
      </trkpt>
      <trkpt lat="43.51802" lon="6.81192">
        <ele>306</ele>
        <time>2012-11-01T09:35:19Z</time>
      </trkpt>
      <trkpt lat="43.51796" lon="6.81188">
        <ele>306</ele>
        <time>2012-11-01T09:35:20Z</time>
      </trkpt>
      <trkpt lat="43.51791" lon="6.81184">
        <ele>307</ele>
        <time>2012-11-01T09:35:21Z</time>
      </trkpt>
      <trkpt lat="43.51785" lon="6.81181">
        <ele>308</ele>
        <time>2012-11-01T09:35:22Z</time>
      </trkpt>
      <trkpt lat="43.51779" lon="6.81178">
        <ele>308</ele>
        <time>2012-11-01T09:35:23Z</time>
      </trkpt>
      <trkpt lat="43.51773" lon="6.81174">
        <ele>309</ele>
        <time>2012-11-01T09:35:24Z</time>
      </trkpt>
      <trkpt lat="43.51768" lon="6.8117">
        <ele>310</ele>
        <time>2012-11-01T09:35:25Z</time>
      </trkpt>
      <trkpt lat="43.51763" lon="6.81167">
        <ele>310</ele>
        <time>2012-11-01T09:35:26Z</time>
      </trkpt>
      <trkpt lat="43.51758" lon="6.81163">
        <ele>311</ele>
        <time>2012-11-01T09:35:27Z</time>
      </trkpt>
      <trkpt lat="43.51753" lon="6.81159">
        <ele>312</ele>
        <time>2012-11-01T09:35:28Z</time>
      </trkpt>
      <trkpt lat="43.51748" lon="6.81156">
        <ele>313</ele>
        <time>2012-11-01T09:35:28Z</time>
      </trkpt>
      <trkpt lat="43.51743" lon="6.81153">
        <ele>314</ele>
        <time>2012-11-01T09:35:30Z</time>
      </trkpt>
      <trkpt lat="43.51738" lon="6.8115">
        <ele>314</ele>
        <time>2012-11-01T09:35:30Z</time>
      </trkpt>
      <trkpt lat="43.51733" lon="6.81147">
        <ele>315</ele>
        <time>2012-11-01T09:35:32Z</time>
      </trkpt>
      <trkpt lat="43.51728" lon="6.81145">
        <ele>315</ele>
        <time>2012-11-01T09:35:33Z</time>
      </trkpt>
      <trkpt lat="43.51723" lon="6.81144">
        <ele>315</ele>
        <time>2012-11-01T09:35:34Z</time>
      </trkpt>
      <trkpt lat="43.51717" lon="6.81143">
        <ele>315</ele>
        <time>2012-11-01T09:35:35Z</time>
      </trkpt>
      <trkpt lat="43.51712" lon="6.81143">
        <ele>315</ele>
        <time>2012-11-01T09:35:36Z</time>
      </trkpt>
      <trkpt lat="43.51706" lon="6.81143">
        <ele>315</ele>
        <time>2012-11-01T09:35:37Z</time>
      </trkpt>
      <trkpt lat="43.51701" lon="6.81145">
        <ele>315</ele>
        <time>2012-11-01T09:35:38Z</time>
      </trkpt>
      <trkpt lat="43.51696" lon="6.81147">
        <ele>315</ele>
        <time>2012-11-01T09:35:39Z</time>
      </trkpt>
      <trkpt lat="43.51691" lon="6.8115">
        <ele>315</ele>
        <time>2012-11-01T09:35:40Z</time>
      </trkpt>
      <trkpt lat="43.51686" lon="6.81153">
        <ele>315</ele>
        <time>2012-11-01T09:35:40Z</time>
      </trkpt>
      <trkpt lat="43.51682" lon="6.81156">
        <ele>315</ele>
        <time>2012-11-01T09:35:42Z</time>
      </trkpt>
      <trkpt lat="43.51677" lon="6.81159">
        <ele>315</ele>
        <time>2012-11-01T09:35:43Z</time>
      </trkpt>
      <trkpt lat="43.51672" lon="6.81162">
        <ele>315</ele>
        <time>2012-11-01T09:35:44Z</time>
      </trkpt>
      <trkpt lat="43.51668" lon="6.81165">
        <ele>314</ele>
        <time>2012-11-01T09:35:45Z</time>
      </trkpt>
      <trkpt lat="43.51664" lon="6.81166">
        <ele>313</ele>
        <time>2012-11-01T09:35:45Z</time>
      </trkpt>
      <trkpt lat="43.5166" lon="6.81168">
        <ele>313</ele>
        <time>2012-11-01T09:35:47Z</time>
      </trkpt>
      <trkpt lat="43.51652" lon="6.81172">
        <ele>313</ele>
        <time>2012-11-01T09:35:49Z</time>
      </trkpt>
      <trkpt lat="43.51648" lon="6.81175">
        <ele>312</ele>
        <time>2012-11-01T09:35:50Z</time>
      </trkpt>
      <trkpt lat="43.51644" lon="6.81178">
        <ele>312</ele>
        <time>2012-11-01T09:35:51Z</time>
      </trkpt>
      <trkpt lat="43.5164" lon="6.81179">
        <ele>312</ele>
        <time>2012-11-01T09:35:52Z</time>
      </trkpt>
      <trkpt lat="43.51636" lon="6.81181">
        <ele>311</ele>
        <time>2012-11-01T09:35:53Z</time>
      </trkpt>
      <trkpt lat="43.51632" lon="6.81182">
        <ele>310</ele>
        <time>2012-11-01T09:35:53Z</time>
      </trkpt>
      <trkpt lat="43.51627" lon="6.81183">
        <ele>310</ele>
        <time>2012-11-01T09:35:55Z</time>
      </trkpt>
      <trkpt lat="43.51623" lon="6.81183">
        <ele>309</ele>
        <time>2012-11-01T09:35:56Z</time>
      </trkpt>
      <trkpt lat="43.51619" lon="6.81183">
        <ele>309</ele>
        <time>2012-11-01T09:35:57Z</time>
      </trkpt>
      <trkpt lat="43.51614" lon="6.81182">
        <ele>309</ele>
        <time>2012-11-01T09:35:57Z</time>
      </trkpt>
      <trkpt lat="43.51611" lon="6.81181">
        <ele>309</ele>
        <time>2012-11-01T09:35:59Z</time>
      </trkpt>
      <trkpt lat="43.51605" lon="6.81182">
        <ele>309</ele>
        <time>2012-11-01T09:36:00Z</time>
      </trkpt>
      <trkpt lat="43.51601" lon="6.81181">
        <ele>309</ele>
        <time>2012-11-01T09:36:01Z</time>
      </trkpt>
      <trkpt lat="43.51596" lon="6.81182">
        <ele>309</ele>
        <time>2012-11-01T09:36:02Z</time>
      </trkpt>
      <trkpt lat="43.51591" lon="6.81182">
        <ele>309</ele>
        <time>2012-11-01T09:36:03Z</time>
      </trkpt>
      <trkpt lat="43.51587" lon="6.81181">
        <ele>309</ele>
        <time>2012-11-01T09:36:04Z</time>
      </trkpt>
      <trkpt lat="43.51582" lon="6.81181">
        <ele>309</ele>
        <time>2012-11-01T09:36:05Z</time>
      </trkpt>
      <trkpt lat="43.51578" lon="6.8118">
        <ele>309</ele>
        <time>2012-11-01T09:36:06Z</time>
      </trkpt>
      <trkpt lat="43.51574" lon="6.8118">
        <ele>309</ele>
        <time>2012-11-01T09:36:07Z</time>
      </trkpt>
      <trkpt lat="43.5157" lon="6.81179">
        <ele>309</ele>
        <time>2012-11-01T09:36:07Z</time>
      </trkpt>
      <trkpt lat="43.51566" lon="6.81179">
        <ele>309</ele>
        <time>2012-11-01T09:36:09Z</time>
      </trkpt>
      <trkpt lat="43.51563" lon="6.81178">
        <ele>309</ele>
        <time>2012-11-01T09:36:09Z</time>
      </trkpt>
      <trkpt lat="43.51559" lon="6.81177">
        <ele>310</ele>
        <time>2012-11-01T09:36:11Z</time>
      </trkpt>
      <trkpt lat="43.51555" lon="6.81178">
        <ele>311</ele>
        <time>2012-11-01T09:36:12Z</time>
      </trkpt>
      <trkpt lat="43.51551" lon="6.81178">
        <ele>312</ele>
        <time>2012-11-01T09:36:13Z</time>
      </trkpt>
      <trkpt lat="43.51546" lon="6.81179">
        <ele>313</ele>
        <time>2012-11-01T09:36:14Z</time>
      </trkpt>
      <trkpt lat="43.51542" lon="6.81179">
        <ele>314</ele>
        <time>2012-11-01T09:36:14Z</time>
      </trkpt>
      <trkpt lat="43.51538" lon="6.8118">
        <ele>315</ele>
        <time>2012-11-01T09:36:16Z</time>
      </trkpt>
      <trkpt lat="43.51534" lon="6.8118">
        <ele>316</ele>
        <time>2012-11-01T09:36:16Z</time>
      </trkpt>
      <trkpt lat="43.5153" lon="6.81179">
        <ele>317</ele>
        <time>2012-11-01T09:36:18Z</time>
      </trkpt>
      <trkpt lat="43.51527" lon="6.81178">
        <ele>317</ele>
        <time>2012-11-01T09:36:19Z</time>
      </trkpt>
      <trkpt lat="43.51523" lon="6.81178">
        <ele>317</ele>
        <time>2012-11-01T09:36:20Z</time>
      </trkpt>
      <trkpt lat="43.51519" lon="6.81177">
        <ele>317</ele>
        <time>2012-11-01T09:36:21Z</time>
      </trkpt>
      <trkpt lat="43.51514" lon="6.81176">
        <ele>317</ele>
        <time>2012-11-01T09:36:21Z</time>
      </trkpt>
      <trkpt lat="43.51511" lon="6.81176">
        <ele>318</ele>
        <time>2012-11-01T09:36:23Z</time>
      </trkpt>
      <trkpt lat="43.51507" lon="6.81175">
        <ele>318</ele>
        <time>2012-11-01T09:36:24Z</time>
      </trkpt>
      <trkpt lat="43.51503" lon="6.81174">
        <ele>319</ele>
        <time>2012-11-01T09:36:25Z</time>
      </trkpt>
      <trkpt lat="43.51499" lon="6.81173">
        <ele>319</ele>
        <time>2012-11-01T09:36:26Z</time>
      </trkpt>
      <trkpt lat="43.51495" lon="6.81172">
        <ele>320</ele>
        <time>2012-11-01T09:36:27Z</time>
      </trkpt>
      <trkpt lat="43.51491" lon="6.81171">
        <ele>321</ele>
        <time>2012-11-01T09:36:28Z</time>
      </trkpt>
      <trkpt lat="43.51486" lon="6.81169">
        <ele>321</ele>
        <time>2012-11-01T09:36:29Z</time>
      </trkpt>
      <trkpt lat="43.51481" lon="6.81169">
        <ele>321</ele>
        <time>2012-11-01T09:36:30Z</time>
      </trkpt>
      <trkpt lat="43.51477" lon="6.81167">
        <ele>321</ele>
        <time>2012-11-01T09:36:31Z</time>
      </trkpt>
      <trkpt lat="43.51473" lon="6.81165">
        <ele>321</ele>
        <time>2012-11-01T09:36:32Z</time>
      </trkpt>
      <trkpt lat="43.51468" lon="6.81165">
        <ele>322</ele>
        <time>2012-11-01T09:36:33Z</time>
      </trkpt>
      <trkpt lat="43.51463" lon="6.81163">
        <ele>322</ele>
        <time>2012-11-01T09:36:34Z</time>
      </trkpt>
      <trkpt lat="43.51459" lon="6.81161">
        <ele>322</ele>
        <time>2012-11-01T09:36:35Z</time>
      </trkpt>
      <trkpt lat="43.51454" lon="6.8116">
        <ele>322</ele>
        <time>2012-11-01T09:36:35Z</time>
      </trkpt>
      <trkpt lat="43.51449" lon="6.81159">
        <ele>322</ele>
        <time>2012-11-01T09:36:37Z</time>
      </trkpt>
      <trkpt lat="43.51444" lon="6.81158">
        <ele>322</ele>
        <time>2012-11-01T09:36:38Z</time>
      </trkpt>
      <trkpt lat="43.51439" lon="6.81157">
        <ele>322</ele>
        <time>2012-11-01T09:36:39Z</time>
      </trkpt>
      <trkpt lat="43.51434" lon="6.81155">
        <ele>322</ele>
        <time>2012-11-01T09:36:40Z</time>
      </trkpt>
      <trkpt lat="43.51429" lon="6.81154">
        <ele>323</ele>
        <time>2012-11-01T09:36:40Z</time>
      </trkpt>
      <trkpt lat="43.51424" lon="6.81153">
        <ele>323</ele>
        <time>2012-11-01T09:36:41Z</time>
      </trkpt>
      <trkpt lat="43.51419" lon="6.81152">
        <ele>324</ele>
        <time>2012-11-01T09:36:43Z</time>
      </trkpt>
      <trkpt lat="43.51413" lon="6.81152">
        <ele>324</ele>
        <time>2012-11-01T09:36:44Z</time>
      </trkpt>
      <trkpt lat="43.51408" lon="6.81151">
        <ele>325</ele>
        <time>2012-11-01T09:36:45Z</time>
      </trkpt>
      <trkpt lat="43.51403" lon="6.8115">
        <ele>325</ele>
        <time>2012-11-01T09:36:46Z</time>
      </trkpt>
      <trkpt lat="43.51397" lon="6.81149">
        <ele>325</ele>
        <time>2012-11-01T09:36:47Z</time>
      </trkpt>
      <trkpt lat="43.51392" lon="6.81148">
        <ele>325</ele>
        <time>2012-11-01T09:36:48Z</time>
      </trkpt>
      <trkpt lat="43.51386" lon="6.81149">
        <ele>325</ele>
        <time>2012-11-01T09:36:49Z</time>
      </trkpt>
      <trkpt lat="43.51382" lon="6.81149">
        <ele>325</ele>
        <time>2012-11-01T09:36:50Z</time>
      </trkpt>
      <trkpt lat="43.51376" lon="6.8115">
        <ele>325</ele>
        <time>2012-11-01T09:36:51Z</time>
      </trkpt>
      <trkpt lat="43.51371" lon="6.81151">
        <ele>325</ele>
        <time>2012-11-01T09:36:52Z</time>
      </trkpt>
      <trkpt lat="43.51365" lon="6.81153">
        <ele>325</ele>
        <time>2012-11-01T09:36:52Z</time>
      </trkpt>
      <trkpt lat="43.5136" lon="6.81156">
        <ele>325</ele>
        <time>2012-11-01T09:36:53Z</time>
      </trkpt>
      <trkpt lat="43.51355" lon="6.81159">
        <ele>325</ele>
        <time>2012-11-01T09:36:55Z</time>
      </trkpt>
      <trkpt lat="43.51351" lon="6.81163">
        <ele>325</ele>
        <time>2012-11-01T09:36:56Z</time>
      </trkpt>
      <trkpt lat="43.51347" lon="6.81166">
        <ele>324</ele>
        <time>2012-11-01T09:36:57Z</time>
      </trkpt>
      <trkpt lat="43.51343" lon="6.8117">
        <ele>323</ele>
        <time>2012-11-01T09:36:58Z</time>
      </trkpt>
      <trkpt lat="43.51339" lon="6.81174">
        <ele>322</ele>
        <time>2012-11-01T09:36:59Z</time>
      </trkpt>
      <trkpt lat="43.51336" lon="6.81178">
        <ele>321</ele>
        <time>2012-11-01T09:37:00Z</time>
      </trkpt>
      <trkpt lat="43.51331" lon="6.81181">
        <ele>320</ele>
        <time>2012-11-01T09:37:01Z</time>
      </trkpt>
      <trkpt lat="43.51327" lon="6.81184">
        <ele>319</ele>
        <time>2012-11-01T09:37:02Z</time>
      </trkpt>
      <trkpt lat="43.51324" lon="6.81187">
        <ele>318</ele>
        <time>2012-11-01T09:37:03Z</time>
      </trkpt>
      <trkpt lat="43.51321" lon="6.8119">
        <ele>317</ele>
        <time>2012-11-01T09:37:04Z</time>
      </trkpt>
      <trkpt lat="43.51318" lon="6.81191">
        <ele>316</ele>
        <time>2012-11-01T09:37:05Z</time>
      </trkpt>
      <trkpt lat="43.51315" lon="6.81191">
        <ele>316</ele>
        <time>2012-11-01T09:37:05Z</time>
      </trkpt>
      <trkpt lat="43.51311" lon="6.8119">
        <ele>316</ele>
        <time>2012-11-01T09:37:06Z</time>
      </trkpt>
      <trkpt lat="43.51309" lon="6.81187">
        <ele>316</ele>
        <time>2012-11-01T09:37:07Z</time>
      </trkpt>
      <trkpt lat="43.51307" lon="6.81183">
        <ele>316</ele>
        <time>2012-11-01T09:37:09Z</time>
      </trkpt>
      <trkpt lat="43.51305" lon="6.81178">
        <ele>316</ele>
        <time>2012-11-01T09:37:09Z</time>
      </trkpt>
      <trkpt lat="43.51304" lon="6.81173">
        <ele>316</ele>
        <time>2012-11-01T09:37:10Z</time>
      </trkpt>
      <trkpt lat="43.51302" lon="6.81167">
        <ele>316</ele>
        <time>2012-11-01T09:37:12Z</time>
      </trkpt>
      <trkpt lat="43.51301" lon="6.8116">
        <ele>316</ele>
        <time>2012-11-01T09:37:13Z</time>
      </trkpt>
      <trkpt lat="43.51299" lon="6.81154">
        <ele>316</ele>
        <time>2012-11-01T09:37:14Z</time>
      </trkpt>
      <trkpt lat="43.51297" lon="6.81148">
        <ele>316</ele>
        <time>2012-11-01T09:37:15Z</time>
      </trkpt>
      <trkpt lat="43.51296" lon="6.81142">
        <ele>315</ele>
        <time>2012-11-01T09:37:16Z</time>
      </trkpt>
      <trkpt lat="43.51294" lon="6.81136">
        <ele>315</ele>
        <time>2012-11-01T09:37:17Z</time>
      </trkpt>
      <trkpt lat="43.51294" lon="6.8113">
        <ele>315</ele>
        <time>2012-11-01T09:37:17Z</time>
      </trkpt>
      <trkpt lat="43.51293" lon="6.81124">
        <ele>315</ele>
        <time>2012-11-01T09:37:19Z</time>
      </trkpt>
      <trkpt lat="43.51292" lon="6.81118">
        <ele>315</ele>
        <time>2012-11-01T09:37:20Z</time>
      </trkpt>
      <trkpt lat="43.51292" lon="6.81113">
        <ele>315</ele>
        <time>2012-11-01T09:37:20Z</time>
      </trkpt>
      <trkpt lat="43.51292" lon="6.81106">
        <ele>315</ele>
        <time>2012-11-01T09:37:21Z</time>
      </trkpt>
      <trkpt lat="43.51292" lon="6.81099">
        <ele>315</ele>
        <time>2012-11-01T09:37:23Z</time>
      </trkpt>
      <trkpt lat="43.51292" lon="6.81091">
        <ele>315</ele>
        <time>2012-11-01T09:37:24Z</time>
      </trkpt>
      <trkpt lat="43.51292" lon="6.81082">
        <ele>315</ele>
        <time>2012-11-01T09:37:25Z</time>
      </trkpt>
      <trkpt lat="43.51292" lon="6.81074">
        <ele>315</ele>
        <time>2012-11-01T09:37:26Z</time>
      </trkpt>
      <trkpt lat="43.51292" lon="6.81066">
        <ele>316</ele>
        <time>2012-11-01T09:37:27Z</time>
      </trkpt>
      <trkpt lat="43.51292" lon="6.81058">
        <ele>316</ele>
        <time>2012-11-01T09:37:28Z</time>
      </trkpt>
      <trkpt lat="43.51292" lon="6.8105">
        <ele>316</ele>
        <time>2012-11-01T09:37:29Z</time>
      </trkpt>
      <trkpt lat="43.51291" lon="6.81043">
        <ele>316</ele>
        <time>2012-11-01T09:37:29Z</time>
      </trkpt>
      <trkpt lat="43.51291" lon="6.81035">
        <ele>316</ele>
        <time>2012-11-01T09:37:30Z</time>
      </trkpt>
      <trkpt lat="43.51291" lon="6.81028">
        <ele>316</ele>
        <time>2012-11-01T09:37:31Z</time>
      </trkpt>
      <trkpt lat="43.5129" lon="6.8102">
        <ele>316</ele>
        <time>2012-11-01T09:37:33Z</time>
      </trkpt>
      <trkpt lat="43.51289" lon="6.81012">
        <ele>316</ele>
        <time>2012-11-01T09:37:34Z</time>
      </trkpt>
      <trkpt lat="43.51289" lon="6.81005">
        <ele>316</ele>
        <time>2012-11-01T09:37:35Z</time>
      </trkpt>
      <trkpt lat="43.51289" lon="6.80998">
        <ele>316</ele>
        <time>2012-11-01T09:37:36Z</time>
      </trkpt>
      <trkpt lat="43.51288" lon="6.80991">
        <ele>315</ele>
        <time>2012-11-01T09:37:37Z</time>
      </trkpt>
      <trkpt lat="43.51288" lon="6.80984">
        <ele>315</ele>
        <time>2012-11-01T09:37:38Z</time>
      </trkpt>
      <trkpt lat="43.51287" lon="6.80978">
        <ele>315</ele>
        <time>2012-11-01T09:37:38Z</time>
      </trkpt>
      <trkpt lat="43.51287" lon="6.80971">
        <ele>315</ele>
        <time>2012-11-01T09:37:39Z</time>
      </trkpt>
      <trkpt lat="43.51287" lon="6.80965">
        <ele>315</ele>
        <time>2012-11-01T09:37:41Z</time>
      </trkpt>
      <trkpt lat="43.51287" lon="6.80959">
        <ele>315</ele>
        <time>2012-11-01T09:37:42Z</time>
      </trkpt>
      <trkpt lat="43.51288" lon="6.80953">
        <ele>315</ele>
        <time>2012-11-01T09:37:42Z</time>
      </trkpt>
      <trkpt lat="43.51289" lon="6.80946">
        <ele>314</ele>
        <time>2012-11-01T09:37:43Z</time>
      </trkpt>
      <trkpt lat="43.51291" lon="6.80939">
        <ele>314</ele>
        <time>2012-11-01T09:37:45Z</time>
      </trkpt>
      <trkpt lat="43.51292" lon="6.80931">
        <ele>314</ele>
        <time>2012-11-01T09:37:45Z</time>
      </trkpt>
      <trkpt lat="43.51294" lon="6.80923">
        <ele>314</ele>
        <time>2012-11-01T09:37:46Z</time>
      </trkpt>
      <trkpt lat="43.51295" lon="6.80915">
        <ele>314</ele>
        <time>2012-11-01T09:37:48Z</time>
      </trkpt>
      <trkpt lat="43.51296" lon="6.80906">
        <ele>314</ele>
        <time>2012-11-01T09:37:49Z</time>
      </trkpt>
      <trkpt lat="43.51297" lon="6.80897">
        <ele>314</ele>
        <time>2012-11-01T09:37:50Z</time>
      </trkpt>
      <trkpt lat="43.51298" lon="6.80888">
        <ele>314</ele>
        <time>2012-11-01T09:37:51Z</time>
      </trkpt>
      <trkpt lat="43.51299" lon="6.80879">
        <ele>314</ele>
        <time>2012-11-01T09:37:51Z</time>
      </trkpt>
      <trkpt lat="43.513" lon="6.8087">
        <ele>314</ele>
        <time>2012-11-01T09:37:53Z</time>
      </trkpt>
      <trkpt lat="43.513" lon="6.80862">
        <ele>314</ele>
        <time>2012-11-01T09:37:53Z</time>
      </trkpt>
      <trkpt lat="43.513" lon="6.80854">
        <ele>314</ele>
        <time>2012-11-01T09:37:54Z</time>
      </trkpt>
      <trkpt lat="43.51299" lon="6.80846">
        <ele>314</ele>
        <time>2012-11-01T09:37:55Z</time>
      </trkpt>
      <trkpt lat="43.51297" lon="6.80838">
        <ele>314</ele>
        <time>2012-11-01T09:37:57Z</time>
      </trkpt>
      <trkpt lat="43.51296" lon="6.8083">
        <ele>314</ele>
        <time>2012-11-01T09:37:58Z</time>
      </trkpt>
      <trkpt lat="43.51295" lon="6.80822">
        <ele>314</ele>
        <time>2012-11-01T09:37:58Z</time>
      </trkpt>
      <trkpt lat="43.51293" lon="6.80814">
        <ele>313</ele>
        <time>2012-11-01T09:37:59Z</time>
      </trkpt>
      <trkpt lat="43.51292" lon="6.80806">
        <ele>313</ele>
        <time>2012-11-01T09:38:01Z</time>
      </trkpt>
      <trkpt lat="43.51291" lon="6.80798">
        <ele>312</ele>
        <time>2012-11-01T09:38:02Z</time>
      </trkpt>
      <trkpt lat="43.5129" lon="6.80789">
        <ele>312</ele>
        <time>2012-11-01T09:38:02Z</time>
      </trkpt>
      <trkpt lat="43.5129" lon="6.80781">
        <ele>311</ele>
        <time>2012-11-01T09:38:04Z</time>
      </trkpt>
      <trkpt lat="43.51291" lon="6.80773">
        <ele>311</ele>
        <time>2012-11-01T09:38:05Z</time>
      </trkpt>
      <trkpt lat="43.51292" lon="6.80764">
        <ele>310</ele>
        <time>2012-11-01T09:38:06Z</time>
      </trkpt>
      <trkpt lat="43.51293" lon="6.80757">
        <ele>310</ele>
        <time>2012-11-01T09:38:06Z</time>
      </trkpt>
      <trkpt lat="43.51295" lon="6.80749">
        <ele>309</ele>
        <time>2012-11-01T09:38:07Z</time>
      </trkpt>
      <trkpt lat="43.51298" lon="6.8074">
        <ele>309</ele>
        <time>2012-11-01T09:38:09Z</time>
      </trkpt>
      <trkpt lat="43.513" lon="6.80733">
        <ele>309</ele>
        <time>2012-11-01T09:38:09Z</time>
      </trkpt>
      <trkpt lat="43.51303" lon="6.80725">
        <ele>309</ele>
        <time>2012-11-01T09:38:10Z</time>
      </trkpt>
      <trkpt lat="43.51306" lon="6.80717">
        <ele>309</ele>
        <time>2012-11-01T09:38:12Z</time>
      </trkpt>
      <trkpt lat="43.51309" lon="6.8071">
        <ele>309</ele>
        <time>2012-11-01T09:38:13Z</time>
      </trkpt>
      <trkpt lat="43.51312" lon="6.80703">
        <ele>309</ele>
        <time>2012-11-01T09:38:14Z</time>
      </trkpt>
      <trkpt lat="43.51315" lon="6.80697">
        <ele>309</ele>
        <time>2012-11-01T09:38:14Z</time>
      </trkpt>
      <trkpt lat="43.51318" lon="6.8069">
        <ele>309</ele>
        <time>2012-11-01T09:38:15Z</time>
      </trkpt>
      <trkpt lat="43.51322" lon="6.80684">
        <ele>309</ele>
        <time>2012-11-01T09:38:17Z</time>
      </trkpt>
      <trkpt lat="43.51326" lon="6.80678">
        <ele>308</ele>
        <time>2012-11-01T09:38:17Z</time>
      </trkpt>
      <trkpt lat="43.5133" lon="6.80673">
        <ele>308</ele>
        <time>2012-11-01T09:38:18Z</time>
      </trkpt>
      <trkpt lat="43.51334" lon="6.80668">
        <ele>308</ele>
        <time>2012-11-01T09:38:19Z</time>
      </trkpt>
      <trkpt lat="43.51339" lon="6.80663">
        <ele>308</ele>
        <time>2012-11-01T09:38:21Z</time>
      </trkpt>
      <trkpt lat="43.51343" lon="6.80658">
        <ele>308</ele>
        <time>2012-11-01T09:38:21Z</time>
      </trkpt>
      <trkpt lat="43.51347" lon="6.80652">
        <ele>308</ele>
        <time>2012-11-01T09:38:22Z</time>
      </trkpt>
      <trkpt lat="43.51351" lon="6.80646">
        <ele>308</ele>
        <time>2012-11-01T09:38:24Z</time>
      </trkpt>
      <trkpt lat="43.51355" lon="6.8064">
        <ele>308</ele>
        <time>2012-11-01T09:38:25Z</time>
      </trkpt>
      <trkpt lat="43.5136" lon="6.80633">
        <ele>308</ele>
        <time>2012-11-01T09:38:25Z</time>
      </trkpt>
      <trkpt lat="43.51364" lon="6.80626">
        <ele>308</ele>
        <time>2012-11-01T09:38:26Z</time>
      </trkpt>
      <trkpt lat="43.51369" lon="6.8062">
        <ele>308</ele>
        <time>2012-11-01T09:38:28Z</time>
      </trkpt>
      <trkpt lat="43.51374" lon="6.80614">
        <ele>308</ele>
        <time>2012-11-01T09:38:29Z</time>
      </trkpt>
      <trkpt lat="43.51379" lon="6.80609">
        <ele>308</ele>
        <time>2012-11-01T09:38:29Z</time>
      </trkpt>
      <trkpt lat="43.51384" lon="6.80604">
        <ele>307</ele>
        <time>2012-11-01T09:38:30Z</time>
      </trkpt>
      <trkpt lat="43.51389" lon="6.806">
        <ele>306</ele>
        <time>2012-11-01T09:38:31Z</time>
      </trkpt>
      <trkpt lat="43.51395" lon="6.80596">
        <ele>306</ele>
        <time>2012-11-01T09:38:32Z</time>
      </trkpt>
      <trkpt lat="43.514" lon="6.80592">
        <ele>306</ele>
        <time>2012-11-01T09:38:34Z</time>
      </trkpt>
      <trkpt lat="43.51405" lon="6.80588">
        <ele>306</ele>
        <time>2012-11-01T09:38:34Z</time>
      </trkpt>
      <trkpt lat="43.5141" lon="6.80585">
        <ele>306</ele>
        <time>2012-11-01T09:38:35Z</time>
      </trkpt>
      <trkpt lat="43.51415" lon="6.80583">
        <ele>306</ele>
        <time>2012-11-01T09:38:37Z</time>
      </trkpt>
      <trkpt lat="43.5142" lon="6.80581">
        <ele>306</ele>
        <time>2012-11-01T09:38:37Z</time>
      </trkpt>
      <trkpt lat="43.51425" lon="6.80579">
        <ele>306</ele>
        <time>2012-11-01T09:38:38Z</time>
      </trkpt>
      <trkpt lat="43.51431" lon="6.80577">
        <ele>306</ele>
        <time>2012-11-01T09:38:40Z</time>
      </trkpt>
      <trkpt lat="43.51436" lon="6.80576">
        <ele>306</ele>
        <time>2012-11-01T09:38:41Z</time>
      </trkpt>
      <trkpt lat="43.51441" lon="6.80575">
        <ele>306</ele>
        <time>2012-11-01T09:38:41Z</time>
      </trkpt>
      <trkpt lat="43.51447" lon="6.80574">
        <ele>305</ele>
        <time>2012-11-01T09:38:42Z</time>
      </trkpt>
      <trkpt lat="43.51452" lon="6.80573">
        <ele>304</ele>
        <time>2012-11-01T09:38:44Z</time>
      </trkpt>
      <trkpt lat="43.51458" lon="6.80571">
        <ele>303</ele>
        <time>2012-11-01T09:38:44Z</time>
      </trkpt>
      <trkpt lat="43.51464" lon="6.80569">
        <ele>303</ele>
        <time>2012-11-01T09:38:46Z</time>
      </trkpt>
      <trkpt lat="43.51471" lon="6.80567">
        <ele>302</ele>
        <time>2012-11-01T09:38:46Z</time>
      </trkpt>
      <trkpt lat="43.51477" lon="6.80566">
        <ele>302</ele>
        <time>2012-11-01T09:38:48Z</time>
      </trkpt>
      <trkpt lat="43.51482" lon="6.80563">
        <ele>302</ele>
        <time>2012-11-01T09:38:49Z</time>
      </trkpt>
      <trkpt lat="43.51488" lon="6.80561">
        <ele>301</ele>
        <time>2012-11-01T09:38:50Z</time>
      </trkpt>
      <trkpt lat="43.51493" lon="6.8056">
        <ele>301</ele>
        <time>2012-11-01T09:38:50Z</time>
      </trkpt>
      <trkpt lat="43.51498" lon="6.80559">
        <ele>300</ele>
        <time>2012-11-01T09:38:52Z</time>
      </trkpt>
      <trkpt lat="43.51503" lon="6.80559">
        <ele>299</ele>
        <time>2012-11-01T09:38:53Z</time>
      </trkpt>
      <trkpt lat="43.51508" lon="6.80559">
        <ele>299</ele>
        <time>2012-11-01T09:38:53Z</time>
      </trkpt>
      <trkpt lat="43.51513" lon="6.80559">
        <ele>299</ele>
        <time>2012-11-01T09:38:54Z</time>
      </trkpt>
      <trkpt lat="43.51518" lon="6.8056">
        <ele>298</ele>
        <time>2012-11-01T09:38:55Z</time>
      </trkpt>
      <trkpt lat="43.51524" lon="6.80561">
        <ele>298</ele>
        <time>2012-11-01T09:38:56Z</time>
      </trkpt>
      <trkpt lat="43.51529" lon="6.80562">
        <ele>298</ele>
        <time>2012-11-01T09:38:58Z</time>
      </trkpt>
      <trkpt lat="43.51536" lon="6.80563">
        <ele>297</ele>
        <time>2012-11-01T09:38:59Z</time>
      </trkpt>
      <trkpt lat="43.51543" lon="6.80563">
        <ele>297</ele>
        <time>2012-11-01T09:39:00Z</time>
      </trkpt>
      <trkpt lat="43.5155" lon="6.80563">
        <ele>297</ele>
        <time>2012-11-01T09:39:01Z</time>
      </trkpt>
      <trkpt lat="43.51557" lon="6.80562">
        <ele>297</ele>
        <time>2012-11-01T09:39:01Z</time>
      </trkpt>
      <trkpt lat="43.51564" lon="6.80559">
        <ele>296</ele>
        <time>2012-11-01T09:39:02Z</time>
      </trkpt>
      <trkpt lat="43.5157" lon="6.80555">
        <ele>296</ele>
        <time>2012-11-01T09:39:04Z</time>
      </trkpt>
      <trkpt lat="43.51576" lon="6.80551">
        <ele>296</ele>
        <time>2012-11-01T09:39:05Z</time>
      </trkpt>
      <trkpt lat="43.51582" lon="6.80546">
        <ele>295</ele>
        <time>2012-11-01T09:39:05Z</time>
      </trkpt>
      <trkpt lat="43.51586" lon="6.8054">
        <ele>295</ele>
        <time>2012-11-01T09:39:06Z</time>
      </trkpt>
      <trkpt lat="43.51589" lon="6.80533">
        <ele>295</ele>
        <time>2012-11-01T09:39:08Z</time>
      </trkpt>
      <trkpt lat="43.51592" lon="6.80525">
        <ele>295</ele>
        <time>2012-11-01T09:39:09Z</time>
      </trkpt>
      <trkpt lat="43.51594" lon="6.80517">
        <ele>295</ele>
        <time>2012-11-01T09:39:10Z</time>
      </trkpt>
      <trkpt lat="43.51597" lon="6.80509">
        <ele>295</ele>
        <time>2012-11-01T09:39:10Z</time>
      </trkpt>
      <trkpt lat="43.516" lon="6.80502">
        <ele>295</ele>
        <time>2012-11-01T09:39:12Z</time>
      </trkpt>
      <trkpt lat="43.51603" lon="6.80494">
        <ele>295</ele>
        <time>2012-11-01T09:39:13Z</time>
      </trkpt>
      <trkpt lat="43.51606" lon="6.80486">
        <ele>295</ele>
        <time>2012-11-01T09:39:14Z</time>
      </trkpt>
      <trkpt lat="43.5161" lon="6.80479">
        <ele>295</ele>
        <time>2012-11-01T09:39:14Z</time>
      </trkpt>
      <trkpt lat="43.51613" lon="6.80471">
        <ele>295</ele>
        <time>2012-11-01T09:39:16Z</time>
      </trkpt>
      <trkpt lat="43.51617" lon="6.80464">
        <ele>295</ele>
        <time>2012-11-01T09:39:17Z</time>
      </trkpt>
      <trkpt lat="43.5162" lon="6.80456">
        <ele>295</ele>
        <time>2012-11-01T09:39:18Z</time>
      </trkpt>
      <trkpt lat="43.51624" lon="6.80449">
        <ele>295</ele>
        <time>2012-11-01T09:39:18Z</time>
      </trkpt>
      <trkpt lat="43.51627" lon="6.80443">
        <ele>295</ele>
        <time>2012-11-01T09:39:20Z</time>
      </trkpt>
      <trkpt lat="43.51631" lon="6.80437">
        <ele>296</ele>
        <time>2012-11-01T09:39:21Z</time>
      </trkpt>
      <trkpt lat="43.51636" lon="6.80431">
        <ele>296</ele>
        <time>2012-11-01T09:39:22Z</time>
      </trkpt>
      <trkpt lat="43.5164" lon="6.80425">
        <ele>296</ele>
        <time>2012-11-01T09:39:22Z</time>
      </trkpt>
      <trkpt lat="43.51645" lon="6.8042">
        <ele>296</ele>
        <time>2012-11-01T09:39:23Z</time>
      </trkpt>
      <trkpt lat="43.5165" lon="6.80415">
        <ele>296</ele>
        <time>2012-11-01T09:39:25Z</time>
      </trkpt>
      <trkpt lat="43.51656" lon="6.80412">
        <ele>296</ele>
        <time>2012-11-01T09:39:26Z</time>
      </trkpt>
      <trkpt lat="43.51662" lon="6.80409">
        <ele>296</ele>
        <time>2012-11-01T09:39:26Z</time>
      </trkpt>
      <trkpt lat="43.51667" lon="6.80407">
        <ele>296</ele>
        <time>2012-11-01T09:39:28Z</time>
      </trkpt>
      <trkpt lat="43.51672" lon="6.80405">
        <ele>296</ele>
        <time>2012-11-01T09:39:29Z</time>
      </trkpt>
      <trkpt lat="43.51677" lon="6.80401">
        <ele>296</ele>
        <time>2012-11-01T09:39:30Z</time>
      </trkpt>
      <trkpt lat="43.51682" lon="6.80396">
        <ele>296</ele>
        <time>2012-11-01T09:39:30Z</time>
      </trkpt>
      <trkpt lat="43.51687" lon="6.8039">
        <ele>296</ele>
        <time>2012-11-01T09:39:32Z</time>
      </trkpt>
      <trkpt lat="43.51691" lon="6.80384">
        <ele>296</ele>
        <time>2012-11-01T09:39:33Z</time>
      </trkpt>
      <trkpt lat="43.51696" lon="6.80377">
        <ele>296</ele>
        <time>2012-11-01T09:39:34Z</time>
      </trkpt>
      <trkpt lat="43.51701" lon="6.8037">
        <ele>296</ele>
        <time>2012-11-01T09:39:35Z</time>
      </trkpt>
      <trkpt lat="43.51705" lon="6.80361">
        <ele>296</ele>
        <time>2012-11-01T09:39:36Z</time>
      </trkpt>
      <trkpt lat="43.51708" lon="6.80353">
        <ele>296</ele>
        <time>2012-11-01T09:39:37Z</time>
      </trkpt>
      <trkpt lat="43.51712" lon="6.80345">
        <ele>296</ele>
        <time>2012-11-01T09:39:38Z</time>
      </trkpt>
      <trkpt lat="43.51716" lon="6.80339">
        <ele>296</ele>
        <time>2012-11-01T09:39:39Z</time>
      </trkpt>
      <trkpt lat="43.51722" lon="6.80336">
        <ele>296</ele>
        <time>2012-11-01T09:39:40Z</time>
      </trkpt>
      <trkpt lat="43.51728" lon="6.80337">
        <ele>296</ele>
        <time>2012-11-01T09:39:41Z</time>
      </trkpt>
      <trkpt lat="43.51734" lon="6.80342">
        <ele>296</ele>
        <time>2012-11-01T09:39:42Z</time>
      </trkpt>
      <trkpt lat="43.5174" lon="6.80345">
        <ele>296</ele>
        <time>2012-11-01T09:39:42Z</time>
      </trkpt>
      <trkpt lat="43.51746" lon="6.80347">
        <ele>295</ele>
        <time>2012-11-01T09:39:44Z</time>
      </trkpt>
      <trkpt lat="43.51751" lon="6.80347">
        <ele>294</ele>
        <time>2012-11-01T09:39:45Z</time>
      </trkpt>
      <trkpt lat="43.51756" lon="6.80342">
        <ele>293</ele>
        <time>2012-11-01T09:39:46Z</time>
      </trkpt>
      <trkpt lat="43.51759" lon="6.80334">
        <ele>292</ele>
        <time>2012-11-01T09:39:47Z</time>
      </trkpt>
      <trkpt lat="43.51759" lon="6.80324">
        <ele>291</ele>
        <time>2012-11-01T09:39:48Z</time>
      </trkpt>
      <trkpt lat="43.5176" lon="6.80314">
        <ele>290</ele>
        <time>2012-11-01T09:39:49Z</time>
      </trkpt>
      <trkpt lat="43.51761" lon="6.80304">
        <ele>289</ele>
        <time>2012-11-01T09:39:49Z</time>
      </trkpt>
      <trkpt lat="43.51763" lon="6.80294">
        <ele>289</ele>
        <time>2012-11-01T09:39:51Z</time>
      </trkpt>
      <trkpt lat="43.51766" lon="6.80284">
        <ele>289</ele>
        <time>2012-11-01T09:39:52Z</time>
      </trkpt>
      <trkpt lat="43.51768" lon="6.80274">
        <ele>289</ele>
        <time>2012-11-01T09:39:53Z</time>
      </trkpt>
      <trkpt lat="43.5177" lon="6.80264">
        <ele>289</ele>
        <time>2012-11-01T09:39:54Z</time>
      </trkpt>
      <trkpt lat="43.51772" lon="6.80255">
        <ele>289</ele>
        <time>2012-11-01T09:39:55Z</time>
      </trkpt>
      <trkpt lat="43.51773" lon="6.80245">
        <ele>289</ele>
        <time>2012-11-01T09:39:56Z</time>
      </trkpt>
      <trkpt lat="43.51774" lon="6.80236">
        <ele>289</ele>
        <time>2012-11-01T09:39:56Z</time>
      </trkpt>
      <trkpt lat="43.51775" lon="6.80227">
        <ele>289</ele>
        <time>2012-11-01T09:39:57Z</time>
      </trkpt>
      <trkpt lat="43.51775" lon="6.80218">
        <ele>289</ele>
        <time>2012-11-01T09:39:58Z</time>
      </trkpt>
      <trkpt lat="43.51775" lon="6.80209">
        <ele>289</ele>
        <time>2012-11-01T09:40:00Z</time>
      </trkpt>
      <trkpt lat="43.51776" lon="6.802">
        <ele>288</ele>
        <time>2012-11-01T09:40:00Z</time>
      </trkpt>
      <trkpt lat="43.51777" lon="6.80191">
        <ele>288</ele>
        <time>2012-11-01T09:40:02Z</time>
      </trkpt>
      <trkpt lat="43.51778" lon="6.80182">
        <ele>287</ele>
        <time>2012-11-01T09:40:03Z</time>
      </trkpt>
      <trkpt lat="43.5178" lon="6.80173">
        <ele>286</ele>
        <time>2012-11-01T09:40:04Z</time>
      </trkpt>
      <trkpt lat="43.51782" lon="6.80164">
        <ele>285</ele>
        <time>2012-11-01T09:40:04Z</time>
      </trkpt>
      <trkpt lat="43.51785" lon="6.80155">
        <ele>284</ele>
        <time>2012-11-01T09:40:06Z</time>
      </trkpt>
      <trkpt lat="43.51788" lon="6.80146">
        <ele>283</ele>
        <time>2012-11-01T09:40:06Z</time>
      </trkpt>
      <trkpt lat="43.51791" lon="6.80137">
        <ele>282</ele>
        <time>2012-11-01T09:40:08Z</time>
      </trkpt>
      <trkpt lat="43.51795" lon="6.80128">
        <ele>282</ele>
        <time>2012-11-01T09:40:08Z</time>
      </trkpt>
      <trkpt lat="43.51799" lon="6.80121">
        <ele>282</ele>
        <time>2012-11-01T09:40:10Z</time>
      </trkpt>
      <trkpt lat="43.51804" lon="6.80113">
        <ele>282</ele>
        <time>2012-11-01T09:40:10Z</time>
      </trkpt>
      <trkpt lat="43.51809" lon="6.80106">
        <ele>281</ele>
        <time>2012-11-01T09:40:12Z</time>
      </trkpt>
      <trkpt lat="43.51813" lon="6.80098">
        <ele>281</ele>
        <time>2012-11-01T09:40:13Z</time>
      </trkpt>
      <trkpt lat="43.51818" lon="6.8009">
        <ele>280</ele>
        <time>2012-11-01T09:40:14Z</time>
      </trkpt>
      <trkpt lat="43.51823" lon="6.80083">
        <ele>280</ele>
        <time>2012-11-01T09:40:14Z</time>
      </trkpt>
      <trkpt lat="43.51827" lon="6.80075">
        <ele>279</ele>
        <time>2012-11-01T09:40:15Z</time>
      </trkpt>
      <trkpt lat="43.51832" lon="6.80067">
        <ele>278</ele>
        <time>2012-11-01T09:40:17Z</time>
      </trkpt>
      <trkpt lat="43.51836" lon="6.80059">
        <ele>277</ele>
        <time>2012-11-01T09:40:18Z</time>
      </trkpt>
      <trkpt lat="43.51841" lon="6.80051">
        <ele>276</ele>
        <time>2012-11-01T09:40:18Z</time>
      </trkpt>
      <trkpt lat="43.51846" lon="6.80045">
        <ele>275</ele>
        <time>2012-11-01T09:40:20Z</time>
      </trkpt>
      <trkpt lat="43.51851" lon="6.80038">
        <ele>275</ele>
        <time>2012-11-01T09:40:21Z</time>
      </trkpt>
      <trkpt lat="43.51857" lon="6.80032">
        <ele>275</ele>
        <time>2012-11-01T09:40:22Z</time>
      </trkpt>
      <trkpt lat="43.51863" lon="6.80027">
        <ele>275</ele>
        <time>2012-11-01T09:40:23Z</time>
      </trkpt>
      <trkpt lat="43.5187" lon="6.80023">
        <ele>274</ele>
        <time>2012-11-01T09:40:24Z</time>
      </trkpt>
      <trkpt lat="43.51876" lon="6.80019">
        <ele>274</ele>
        <time>2012-11-01T09:40:25Z</time>
      </trkpt>
      <trkpt lat="43.51882" lon="6.80017">
        <ele>274</ele>
        <time>2012-11-01T09:40:26Z</time>
      </trkpt>
      <trkpt lat="43.51888" lon="6.80014">
        <ele>273</ele>
        <time>2012-11-01T09:40:26Z</time>
      </trkpt>
      <trkpt lat="43.51894" lon="6.8001">
        <ele>272</ele>
        <time>2012-11-01T09:40:27Z</time>
      </trkpt>
      <trkpt lat="43.51898" lon="6.80005">
        <ele>272</ele>
        <time>2012-11-01T09:40:28Z</time>
      </trkpt>
      <trkpt lat="43.51902" lon="6.79998">
        <ele>271</ele>
        <time>2012-11-01T09:40:30Z</time>
      </trkpt>
      <trkpt lat="43.51904" lon="6.7999">
        <ele>271</ele>
        <time>2012-11-01T09:40:30Z</time>
      </trkpt>
      <trkpt lat="43.51906" lon="6.79982">
        <ele>271</ele>
        <time>2012-11-01T09:40:32Z</time>
      </trkpt>
      <trkpt lat="43.51909" lon="6.79974">
        <ele>271</ele>
        <time>2012-11-01T09:40:33Z</time>
      </trkpt>
      <trkpt lat="43.51912" lon="6.79967">
        <ele>271</ele>
        <time>2012-11-01T09:40:34Z</time>
      </trkpt>
      <trkpt lat="43.51916" lon="6.7996">
        <ele>271</ele>
        <time>2012-11-01T09:40:34Z</time>
      </trkpt>
      <trkpt lat="43.51921" lon="6.79954">
        <ele>271</ele>
        <time>2012-11-01T09:40:36Z</time>
      </trkpt>
      <trkpt lat="43.51925" lon="6.79947">
        <ele>271</ele>
        <time>2012-11-01T09:40:37Z</time>
      </trkpt>
      <trkpt lat="43.51929" lon="6.7994">
        <ele>271</ele>
        <time>2012-11-01T09:40:38Z</time>
      </trkpt>
      <trkpt lat="43.51932" lon="6.79931">
        <ele>271</ele>
        <time>2012-11-01T09:40:39Z</time>
      </trkpt>
      <trkpt lat="43.51935" lon="6.79922">
        <ele>271</ele>
        <time>2012-11-01T09:40:39Z</time>
      </trkpt>
      <trkpt lat="43.51936" lon="6.79913">
        <ele>271</ele>
        <time>2012-11-01T09:40:41Z</time>
      </trkpt>
      <trkpt lat="43.51937" lon="6.79903">
        <ele>271</ele>
        <time>2012-11-01T09:40:42Z</time>
      </trkpt>
      <trkpt lat="43.51938" lon="6.79891">
        <ele>271</ele>
        <time>2012-11-01T09:40:43Z</time>
      </trkpt>
      <trkpt lat="43.51939" lon="6.7988">
        <ele>271</ele>
        <time>2012-11-01T09:40:43Z</time>
      </trkpt>
      <trkpt lat="43.51939" lon="6.79869">
        <ele>271</ele>
        <time>2012-11-01T09:40:45Z</time>
      </trkpt>
      <trkpt lat="43.51939" lon="6.79857">
        <ele>271</ele>
        <time>2012-11-01T09:40:45Z</time>
      </trkpt>
      <trkpt lat="43.51938" lon="6.79846">
        <ele>271</ele>
        <time>2012-11-01T09:40:46Z</time>
      </trkpt>
      <trkpt lat="43.51937" lon="6.79835">
        <ele>271</ele>
        <time>2012-11-01T09:40:48Z</time>
      </trkpt>
      <trkpt lat="43.51935" lon="6.79824">
        <ele>271</ele>
        <time>2012-11-01T09:40:49Z</time>
      </trkpt>
      <trkpt lat="43.51931" lon="6.79815">
        <ele>271</ele>
        <time>2012-11-01T09:40:50Z</time>
      </trkpt>
      <trkpt lat="43.51928" lon="6.79807">
        <ele>271</ele>
        <time>2012-11-01T09:40:50Z</time>
      </trkpt>
      <trkpt lat="43.51924" lon="6.79798">
        <ele>270</ele>
        <time>2012-11-01T09:40:52Z</time>
      </trkpt>
      <trkpt lat="43.51923" lon="6.79788">
        <ele>269</ele>
        <time>2012-11-01T09:40:53Z</time>
      </trkpt>
      <trkpt lat="43.51922" lon="6.79779">
        <ele>268</ele>
        <time>2012-11-01T09:40:54Z</time>
      </trkpt>
      <trkpt lat="43.51925" lon="6.79771">
        <ele>267</ele>
        <time>2012-11-01T09:40:54Z</time>
      </trkpt>
      <trkpt lat="43.5193" lon="6.79764">
        <ele>266</ele>
        <time>2012-11-01T09:40:56Z</time>
      </trkpt>
      <trkpt lat="43.51936" lon="6.79758">
        <ele>266</ele>
        <time>2012-11-01T09:40:57Z</time>
      </trkpt>
      <trkpt lat="43.51942" lon="6.79753">
        <ele>265</ele>
        <time>2012-11-01T09:40:58Z</time>
      </trkpt>
      <trkpt lat="43.51947" lon="6.79747">
        <ele>264</ele>
        <time>2012-11-01T09:40:58Z</time>
      </trkpt>
      <trkpt lat="43.51953" lon="6.79741">
        <ele>263</ele>
        <time>2012-11-01T09:41:00Z</time>
      </trkpt>
      <trkpt lat="43.51958" lon="6.79736">
        <ele>262</ele>
        <time>2012-11-01T09:41:01Z</time>
      </trkpt>
      <trkpt lat="43.51964" lon="6.79732">
        <ele>261</ele>
        <time>2012-11-01T09:41:02Z</time>
      </trkpt>
      <trkpt lat="43.5197" lon="6.7973">
        <ele>260</ele>
        <time>2012-11-01T09:41:03Z</time>
      </trkpt>
      <trkpt lat="43.51976" lon="6.79729">
        <ele>259</ele>
        <time>2012-11-01T09:41:04Z</time>
      </trkpt>
      <trkpt lat="43.51981" lon="6.79731">
        <ele>258</ele>
        <time>2012-11-01T09:41:05Z</time>
      </trkpt>
      <trkpt lat="43.51985" lon="6.79737">
        <ele>257</ele>
        <time>2012-11-01T09:41:05Z</time>
      </trkpt>
      <trkpt lat="43.51989" lon="6.79741">
        <ele>256</ele>
        <time>2012-11-01T09:41:06Z</time>
      </trkpt>
      <trkpt lat="43.51994" lon="6.79744">
        <ele>255</ele>
        <time>2012-11-01T09:41:08Z</time>
      </trkpt>
      <trkpt lat="43.51999" lon="6.79745">
        <ele>254</ele>
        <time>2012-11-01T09:41:09Z</time>
      </trkpt>
      <trkpt lat="43.52005" lon="6.79745">
        <ele>254</ele>
        <time>2012-11-01T09:41:09Z</time>
      </trkpt>
      <trkpt lat="43.5201" lon="6.79743">
        <ele>254</ele>
        <time>2012-11-01T09:41:10Z</time>
      </trkpt>
      <trkpt lat="43.52014" lon="6.7974">
        <ele>254</ele>
        <time>2012-11-01T09:41:12Z</time>
      </trkpt>
      <trkpt lat="43.52018" lon="6.79734">
        <ele>254</ele>
        <time>2012-11-01T09:41:13Z</time>
      </trkpt>
      <trkpt lat="43.52022" lon="6.79729">
        <ele>254</ele>
        <time>2012-11-01T09:41:14Z</time>
      </trkpt>
      <trkpt lat="43.52026" lon="6.79725">
        <ele>254</ele>
        <time>2012-11-01T09:41:15Z</time>
      </trkpt>
      <trkpt lat="43.52031" lon="6.79723">
        <ele>254</ele>
        <time>2012-11-01T09:41:16Z</time>
      </trkpt>
      <trkpt lat="43.52037" lon="6.79725">
        <ele>254</ele>
        <time>2012-11-01T09:41:17Z</time>
      </trkpt>
      <trkpt lat="43.52042" lon="6.79727">
        <ele>254</ele>
        <time>2012-11-01T09:41:18Z</time>
      </trkpt>
      <trkpt lat="43.52048" lon="6.79728">
        <ele>254</ele>
        <time>2012-11-01T09:41:18Z</time>
      </trkpt>
      <trkpt lat="43.52053" lon="6.79727">
        <ele>254</ele>
        <time>2012-11-01T09:41:20Z</time>
      </trkpt>
      <trkpt lat="43.52059" lon="6.79725">
        <ele>254</ele>
        <time>2012-11-01T09:41:21Z</time>
      </trkpt>
      <trkpt lat="43.52065" lon="6.79726">
        <ele>254</ele>
        <time>2012-11-01T09:41:22Z</time>
      </trkpt>
      <trkpt lat="43.52071" lon="6.7973">
        <ele>253</ele>
        <time>2012-11-01T09:41:22Z</time>
      </trkpt>
      <trkpt lat="43.52075" lon="6.79735">
        <ele>253</ele>
        <time>2012-11-01T09:41:23Z</time>
      </trkpt>
      <trkpt lat="43.52079" lon="6.79741">
        <ele>253</ele>
        <time>2012-11-01T09:41:25Z</time>
      </trkpt>
      <trkpt lat="43.52083" lon="6.79747">
        <ele>252</ele>
        <time>2012-11-01T09:41:26Z</time>
      </trkpt>
      <trkpt lat="43.52088" lon="6.79751">
        <ele>252</ele>
        <time>2012-11-01T09:41:26Z</time>
      </trkpt>
      <trkpt lat="43.52094" lon="6.79754">
        <ele>252</ele>
        <time>2012-11-01T09:41:28Z</time>
      </trkpt>
      <trkpt lat="43.52099" lon="6.79755">
        <ele>252</ele>
        <time>2012-11-01T09:41:29Z</time>
      </trkpt>
      <trkpt lat="43.52105" lon="6.79756">
        <ele>251</ele>
        <time>2012-11-01T09:41:29Z</time>
      </trkpt>
      <trkpt lat="43.52111" lon="6.79755">
        <ele>251</ele>
        <time>2012-11-01T09:41:30Z</time>
      </trkpt>
      <trkpt lat="43.52117" lon="6.79754">
        <ele>251</ele>
        <time>2012-11-01T09:41:32Z</time>
      </trkpt>
      <trkpt lat="43.52122" lon="6.7975">
        <ele>250</ele>
        <time>2012-11-01T09:41:32Z</time>
      </trkpt>
      <trkpt lat="43.52127" lon="6.79746">
        <ele>249</ele>
        <time>2012-11-01T09:41:34Z</time>
      </trkpt>
      <trkpt lat="43.52132" lon="6.7974">
        <ele>249</ele>
        <time>2012-11-01T09:41:34Z</time>
      </trkpt>
      <trkpt lat="43.52137" lon="6.79735">
        <ele>249</ele>
        <time>2012-11-01T09:41:35Z</time>
      </trkpt>
      <trkpt lat="43.5214" lon="6.79728">
        <ele>248</ele>
        <time>2012-11-01T09:41:37Z</time>
      </trkpt>
      <trkpt lat="43.52145" lon="6.79722">
        <ele>247</ele>
        <time>2012-11-01T09:41:38Z</time>
      </trkpt>
      <trkpt lat="43.52149" lon="6.79715">
        <ele>247</ele>
        <time>2012-11-01T09:41:38Z</time>
      </trkpt>
      <trkpt lat="43.52153" lon="6.79709">
        <ele>247</ele>
        <time>2012-11-01T09:41:40Z</time>
      </trkpt>
      <trkpt lat="43.52158" lon="6.79704">
        <ele>247</ele>
        <time>2012-11-01T09:41:41Z</time>
      </trkpt>
      <trkpt lat="43.52163" lon="6.79699">
        <ele>247</ele>
        <time>2012-11-01T09:41:42Z</time>
      </trkpt>
      <trkpt lat="43.52169" lon="6.79695">
        <ele>247</ele>
        <time>2012-11-01T09:41:42Z</time>
      </trkpt>
      <trkpt lat="43.52176" lon="6.79693">
        <ele>247</ele>
        <time>2012-11-01T09:41:43Z</time>
      </trkpt>
      <trkpt lat="43.52182" lon="6.79694">
        <ele>247</ele>
        <time>2012-11-01T09:41:45Z</time>
      </trkpt>
      <trkpt lat="43.52187" lon="6.79695">
        <ele>247</ele>
        <time>2012-11-01T09:41:46Z</time>
      </trkpt>
      <trkpt lat="43.52194" lon="6.79695">
        <ele>247</ele>
        <time>2012-11-01T09:41:46Z</time>
      </trkpt>
      <trkpt lat="43.522" lon="6.79695">
        <ele>247</ele>
        <time>2012-11-01T09:41:48Z</time>
      </trkpt>
      <trkpt lat="43.52207" lon="6.79695">
        <ele>247</ele>
        <time>2012-11-01T09:41:49Z</time>
      </trkpt>
      <trkpt lat="43.52213" lon="6.79695">
        <ele>247</ele>
        <time>2012-11-01T09:41:50Z</time>
      </trkpt>
      <trkpt lat="43.52219" lon="6.79695">
        <ele>247</ele>
        <time>2012-11-01T09:41:50Z</time>
      </trkpt>
      <trkpt lat="43.52226" lon="6.79695">
        <ele>247</ele>
        <time>2012-11-01T09:41:52Z</time>
      </trkpt>
      <trkpt lat="43.52233" lon="6.79695">
        <ele>247</ele>
        <time>2012-11-01T09:41:53Z</time>
      </trkpt>
      <trkpt lat="43.52239" lon="6.79696">
        <ele>247</ele>
        <time>2012-11-01T09:41:54Z</time>
      </trkpt>
      <trkpt lat="43.52245" lon="6.79696">
        <ele>247</ele>
        <time>2012-11-01T09:41:54Z</time>
      </trkpt>
      <trkpt lat="43.52251" lon="6.79695">
        <ele>247</ele>
        <time>2012-11-01T09:41:56Z</time>
      </trkpt>
      <trkpt lat="43.52257" lon="6.79695">
        <ele>246</ele>
        <time>2012-11-01T09:41:57Z</time>
      </trkpt>
      <trkpt lat="43.52263" lon="6.79693">
        <ele>246</ele>
        <time>2012-11-01T09:41:58Z</time>
      </trkpt>
      <trkpt lat="43.52269" lon="6.79692">
        <ele>246</ele>
        <time>2012-11-01T09:41:58Z</time>
      </trkpt>
      <trkpt lat="43.52275" lon="6.79691">
        <ele>246</ele>
        <time>2012-11-01T09:42:00Z</time>
      </trkpt>
      <trkpt lat="43.52282" lon="6.7969">
        <ele>246</ele>
        <time>2012-11-01T09:42:01Z</time>
      </trkpt>
      <trkpt lat="43.52288" lon="6.79689">
        <ele>246</ele>
        <time>2012-11-01T09:42:02Z</time>
      </trkpt>
      <trkpt lat="43.52293" lon="6.79689">
        <ele>246</ele>
        <time>2012-11-01T09:42:02Z</time>
      </trkpt>
      <trkpt lat="43.52298" lon="6.79687">
        <ele>246</ele>
        <time>2012-11-01T09:42:04Z</time>
      </trkpt>
      <trkpt lat="43.52303" lon="6.79684">
        <ele>246</ele>
        <time>2012-11-01T09:42:05Z</time>
      </trkpt>
      <trkpt lat="43.52308" lon="6.7968">
        <ele>246</ele>
        <time>2012-11-01T09:42:06Z</time>
      </trkpt>
      <trkpt lat="43.52313" lon="6.79675">
        <ele>245</ele>
        <time>2012-11-01T09:42:06Z</time>
      </trkpt>
      <trkpt lat="43.52318" lon="6.7967">
        <ele>245</ele>
        <time>2012-11-01T09:42:08Z</time>
      </trkpt>
      <trkpt lat="43.52323" lon="6.79664">
        <ele>244</ele>
        <time>2012-11-01T09:42:09Z</time>
      </trkpt>
      <trkpt lat="43.52327" lon="6.79659">
        <ele>244</ele>
        <time>2012-11-01T09:42:10Z</time>
      </trkpt>
      <trkpt lat="43.52332" lon="6.79652">
        <ele>244</ele>
        <time>2012-11-01T09:42:10Z</time>
      </trkpt>
      <trkpt lat="43.52336" lon="6.79646">
        <ele>243</ele>
        <time>2012-11-01T09:42:12Z</time>
      </trkpt>
      <trkpt lat="43.52341" lon="6.7964">
        <ele>243</ele>
        <time>2012-11-01T09:42:13Z</time>
      </trkpt>
      <trkpt lat="43.52345" lon="6.79633">
        <ele>242</ele>
        <time>2012-11-01T09:42:13Z</time>
      </trkpt>
      <trkpt lat="43.5235" lon="6.79627">
        <ele>242</ele>
        <time>2012-11-01T09:42:14Z</time>
      </trkpt>
      <trkpt lat="43.52354" lon="6.7962">
        <ele>242</ele>
        <time>2012-11-01T09:42:16Z</time>
      </trkpt>
      <trkpt lat="43.52358" lon="6.79614">
        <ele>242</ele>
        <time>2012-11-01T09:42:17Z</time>
      </trkpt>
      <trkpt lat="43.52362" lon="6.79607">
        <ele>242</ele>
        <time>2012-11-01T09:42:18Z</time>
      </trkpt>
      <trkpt lat="43.52366" lon="6.796">
        <ele>242</ele>
        <time>2012-11-01T09:42:18Z</time>
      </trkpt>
      <trkpt lat="43.52371" lon="6.79593">
        <ele>242</ele>
        <time>2012-11-01T09:42:19Z</time>
      </trkpt>
      <trkpt lat="43.52375" lon="6.79586">
        <ele>242</ele>
        <time>2012-11-01T09:42:21Z</time>
      </trkpt>
      <trkpt lat="43.52379" lon="6.7958">
        <ele>242</ele>
        <time>2012-11-01T09:42:22Z</time>
      </trkpt>
      <trkpt lat="43.52383" lon="6.79572">
        <ele>242</ele>
        <time>2012-11-01T09:42:22Z</time>
      </trkpt>
      <trkpt lat="43.52385" lon="6.79565">
        <ele>242</ele>
        <time>2012-11-01T09:42:23Z</time>
      </trkpt>
      <trkpt lat="43.52386" lon="6.79557">
        <ele>242</ele>
        <time>2012-11-01T09:42:25Z</time>
      </trkpt>
      <trkpt lat="43.52386" lon="6.7955">
        <ele>242</ele>
        <time>2012-11-01T09:42:25Z</time>
      </trkpt>
      <trkpt lat="43.52385" lon="6.79542">
        <ele>241</ele>
        <time>2012-11-01T09:42:26Z</time>
      </trkpt>
      <trkpt lat="43.52383" lon="6.79534">
        <ele>241</ele>
        <time>2012-11-01T09:42:27Z</time>
      </trkpt>
      <trkpt lat="43.52381" lon="6.79526">
        <ele>241</ele>
        <time>2012-11-01T09:42:29Z</time>
      </trkpt>
      <trkpt lat="43.52381" lon="6.79518">
        <ele>241</ele>
        <time>2012-11-01T09:42:29Z</time>
      </trkpt>
      <trkpt lat="43.52381" lon="6.7951">
        <ele>241</ele>
        <time>2012-11-01T09:42:30Z</time>
      </trkpt>
      <trkpt lat="43.52383" lon="6.79505">
        <ele>241</ele>
        <time>2012-11-01T09:42:32Z</time>
      </trkpt>
      <trkpt lat="43.52387" lon="6.79502">
        <ele>241</ele>
        <time>2012-11-01T09:42:33Z</time>
      </trkpt>
      <trkpt lat="43.52393" lon="6.79502">
        <ele>241</ele>
        <time>2012-11-01T09:42:33Z</time>
      </trkpt>
      <trkpt lat="43.52397" lon="6.79505">
        <ele>241</ele>
        <time>2012-11-01T09:42:34Z</time>
      </trkpt>
      <trkpt lat="43.52402" lon="6.79506">
        <ele>241</ele>
        <time>2012-11-01T09:42:35Z</time>
      </trkpt>
      <trkpt lat="43.52406" lon="6.79507">
        <ele>241</ele>
        <time>2012-11-01T09:42:37Z</time>
      </trkpt>
      <trkpt lat="43.52411" lon="6.79508">
        <ele>241</ele>
        <time>2012-11-01T09:42:37Z</time>
      </trkpt>
      <trkpt lat="43.52416" lon="6.79508">
        <ele>241</ele>
        <time>2012-11-01T09:42:38Z</time>
      </trkpt>
      <trkpt lat="43.5242" lon="6.79508">
        <ele>241</ele>
        <time>2012-11-01T09:42:40Z</time>
      </trkpt>
      <trkpt lat="43.52425" lon="6.79507">
        <ele>241</ele>
        <time>2012-11-01T09:42:41Z</time>
      </trkpt>
      <trkpt lat="43.5243" lon="6.79504">
        <ele>241</ele>
        <time>2012-11-01T09:42:42Z</time>
      </trkpt>
      <trkpt lat="43.52435" lon="6.79502">
        <ele>241</ele>
        <time>2012-11-01T09:42:42Z</time>
      </trkpt>
      <trkpt lat="43.5244" lon="6.79499">
        <ele>241</ele>
        <time>2012-11-01T09:42:44Z</time>
      </trkpt>
      <trkpt lat="43.52445" lon="6.79496">
        <ele>241</ele>
        <time>2012-11-01T09:42:45Z</time>
      </trkpt>
      <trkpt lat="43.5245" lon="6.79491">
        <ele>241</ele>
        <time>2012-11-01T09:42:46Z</time>
      </trkpt>
      <trkpt lat="43.52454" lon="6.79486">
        <ele>241</ele>
        <time>2012-11-01T09:42:47Z</time>
      </trkpt>
      <trkpt lat="43.52458" lon="6.7948">
        <ele>241</ele>
        <time>2012-11-01T09:42:47Z</time>
      </trkpt>
      <trkpt lat="43.52462" lon="6.79474">
        <ele>241</ele>
        <time>2012-11-01T09:42:49Z</time>
      </trkpt>
      <trkpt lat="43.52465" lon="6.79468">
        <ele>241</ele>
        <time>2012-11-01T09:42:49Z</time>
      </trkpt>
      <trkpt lat="43.52467" lon="6.79462">
        <ele>241</ele>
        <time>2012-11-01T09:42:50Z</time>
      </trkpt>
      <trkpt lat="43.5247" lon="6.79456">
        <ele>241</ele>
        <time>2012-11-01T09:42:52Z</time>
      </trkpt>
      <trkpt lat="43.52473" lon="6.79449">
        <ele>241</ele>
        <time>2012-11-01T09:42:53Z</time>
      </trkpt>
      <trkpt lat="43.52475" lon="6.79441">
        <ele>241</ele>
        <time>2012-11-01T09:42:54Z</time>
      </trkpt>
      <trkpt lat="43.52477" lon="6.79433">
        <ele>241</ele>
        <time>2012-11-01T09:42:54Z</time>
      </trkpt>
      <trkpt lat="43.52477" lon="6.79426">
        <ele>241</ele>
        <time>2012-11-01T09:42:56Z</time>
      </trkpt>
      <trkpt lat="43.52478" lon="6.79418">
        <ele>241</ele>
        <time>2012-11-01T09:42:57Z</time>
      </trkpt>
      <trkpt lat="43.52477" lon="6.79411">
        <ele>241</ele>
        <time>2012-11-01T09:42:57Z</time>
      </trkpt>
      <trkpt lat="43.52477" lon="6.79404">
        <ele>241</ele>
        <time>2012-11-01T09:42:59Z</time>
      </trkpt>
      <trkpt lat="43.52477" lon="6.79397">
        <ele>241</ele>
        <time>2012-11-01T09:43:00Z</time>
      </trkpt>
      <trkpt lat="43.52478" lon="6.7939">
        <ele>241</ele>
        <time>2012-11-01T09:43:01Z</time>
      </trkpt>
      <trkpt lat="43.52481" lon="6.79383">
        <ele>241</ele>
        <time>2012-11-01T09:43:02Z</time>
      </trkpt>
      <trkpt lat="43.52484" lon="6.79376">
        <ele>241</ele>
        <time>2012-11-01T09:43:02Z</time>
      </trkpt>
      <trkpt lat="43.52487" lon="6.79369">
        <ele>241</ele>
        <time>2012-11-01T09:43:04Z</time>
      </trkpt>
      <trkpt lat="43.52491" lon="6.79362">
        <ele>241</ele>
        <time>2012-11-01T09:43:05Z</time>
      </trkpt>
      <trkpt lat="43.52494" lon="6.79356">
        <ele>241</ele>
        <time>2012-11-01T09:43:05Z</time>
      </trkpt>
      <trkpt lat="43.52498" lon="6.79349">
        <ele>241</ele>
        <time>2012-11-01T09:43:06Z</time>
      </trkpt>
      <trkpt lat="43.52499" lon="6.79341">
        <ele>241</ele>
        <time>2012-11-01T09:43:08Z</time>
      </trkpt>
      <trkpt lat="43.525" lon="6.79332">
        <ele>242</ele>
        <time>2012-11-01T09:43:08Z</time>
      </trkpt>
      <trkpt lat="43.52501" lon="6.79323">
        <ele>242</ele>
        <time>2012-11-01T09:43:10Z</time>
      </trkpt>
      <trkpt lat="43.52502" lon="6.79315">
        <ele>243</ele>
        <time>2012-11-01T09:43:10Z</time>
      </trkpt>
      <trkpt lat="43.52503" lon="6.79306">
        <ele>244</ele>
        <time>2012-11-01T09:43:11Z</time>
      </trkpt>
      <trkpt lat="43.52502" lon="6.79297">
        <ele>245</ele>
        <time>2012-11-01T09:43:13Z</time>
      </trkpt>
      <trkpt lat="43.52502" lon="6.79288">
        <ele>246</ele>
        <time>2012-11-01T09:43:14Z</time>
      </trkpt>
      <trkpt lat="43.52504" lon="6.79278">
        <ele>247</ele>
        <time>2012-11-01T09:43:14Z</time>
      </trkpt>
      <trkpt lat="43.52504" lon="6.79268">
        <ele>248</ele>
        <time>2012-11-01T09:43:16Z</time>
      </trkpt>
      <trkpt lat="43.52505" lon="6.79258">
        <ele>249</ele>
        <time>2012-11-01T09:43:17Z</time>
      </trkpt>
      <trkpt lat="43.52506" lon="6.79248">
        <ele>250</ele>
        <time>2012-11-01T09:43:17Z</time>
      </trkpt>
      <trkpt lat="43.52506" lon="6.79239">
        <ele>251</ele>
        <time>2012-11-01T09:43:18Z</time>
      </trkpt>
      <trkpt lat="43.52506" lon="6.79229">
        <ele>251</ele>
        <time>2012-11-01T09:43:20Z</time>
      </trkpt>
      <trkpt lat="43.52506" lon="6.7922">
        <ele>251</ele>
        <time>2012-11-01T09:43:21Z</time>
      </trkpt>
      <trkpt lat="43.52506" lon="6.79211">
        <ele>251</ele>
        <time>2012-11-01T09:43:21Z</time>
      </trkpt>
      <trkpt lat="43.52505" lon="6.79201">
        <ele>251</ele>
        <time>2012-11-01T09:43:23Z</time>
      </trkpt>
      <trkpt lat="43.52504" lon="6.79191">
        <ele>251</ele>
        <time>2012-11-01T09:43:24Z</time>
      </trkpt>
      <trkpt lat="43.52504" lon="6.79181">
        <ele>250</ele>
        <time>2012-11-01T09:43:25Z</time>
      </trkpt>
      <trkpt lat="43.52504" lon="6.79171">
        <ele>249</ele>
        <time>2012-11-01T09:43:26Z</time>
      </trkpt>
      <trkpt lat="43.52506" lon="6.79162">
        <ele>248</ele>
        <time>2012-11-01T09:43:26Z</time>
      </trkpt>
      <trkpt lat="43.52509" lon="6.79153">
        <ele>247</ele>
        <time>2012-11-01T09:43:28Z</time>
      </trkpt>
      <trkpt lat="43.52513" lon="6.79146">
        <ele>246</ele>
        <time>2012-11-01T09:43:29Z</time>
      </trkpt>
      <trkpt lat="43.52517" lon="6.79138">
        <ele>245</ele>
        <time>2012-11-01T09:43:29Z</time>
      </trkpt>
      <trkpt lat="43.5252" lon="6.79129">
        <ele>244</ele>
        <time>2012-11-01T09:43:30Z</time>
      </trkpt>
      <trkpt lat="43.52523" lon="6.7912">
        <ele>244</ele>
        <time>2012-11-01T09:43:32Z</time>
      </trkpt>
      <trkpt lat="43.52525" lon="6.7911">
        <ele>243</ele>
        <time>2012-11-01T09:43:33Z</time>
      </trkpt>
      <trkpt lat="43.52528" lon="6.79101">
        <ele>243</ele>
        <time>2012-11-01T09:43:33Z</time>
      </trkpt>
      <trkpt lat="43.52532" lon="6.79093">
        <ele>242</ele>
        <time>2012-11-01T09:43:34Z</time>
      </trkpt>
      <trkpt lat="43.52536" lon="6.79084">
        <ele>241</ele>
        <time>2012-11-01T09:43:36Z</time>
      </trkpt>
      <trkpt lat="43.5254" lon="6.79076">
        <ele>241</ele>
        <time>2012-11-01T09:43:37Z</time>
      </trkpt>
      <trkpt lat="43.52546" lon="6.7907">
        <ele>240</ele>
        <time>2012-11-01T09:43:38Z</time>
      </trkpt>
      <trkpt lat="43.52551" lon="6.79063">
        <ele>239</ele>
        <time>2012-11-01T09:43:39Z</time>
      </trkpt>
      <trkpt lat="43.52556" lon="6.79057">
        <ele>238</ele>
        <time>2012-11-01T09:43:40Z</time>
      </trkpt>
      <trkpt lat="43.52562" lon="6.79051">
        <ele>238</ele>
        <time>2012-11-01T09:43:41Z</time>
      </trkpt>
      <trkpt lat="43.52566" lon="6.79045">
        <ele>238</ele>
        <time>2012-11-01T09:43:41Z</time>
      </trkpt>
      <trkpt lat="43.5257" lon="6.79039">
        <ele>237</ele>
        <time>2012-11-01T09:43:43Z</time>
      </trkpt>
      <trkpt lat="43.52571" lon="6.79031">
        <ele>237</ele>
        <time>2012-11-01T09:43:44Z</time>
      </trkpt>
      <trkpt lat="43.5257" lon="6.79022">
        <ele>236</ele>
        <time>2012-11-01T09:43:45Z</time>
      </trkpt>
      <trkpt lat="43.52568" lon="6.79014">
        <ele>235</ele>
        <time>2012-11-01T09:43:46Z</time>
      </trkpt>
      <trkpt lat="43.52565" lon="6.79006">
        <ele>234</ele>
        <time>2012-11-01T09:43:47Z</time>
      </trkpt>
      <trkpt lat="43.52563" lon="6.78999">
        <ele>234</ele>
        <time>2012-11-01T09:43:47Z</time>
      </trkpt>
      <trkpt lat="43.5256" lon="6.78992">
        <ele>234</ele>
        <time>2012-11-01T09:43:48Z</time>
      </trkpt>
      <trkpt lat="43.52557" lon="6.78985">
        <ele>234</ele>
        <time>2012-11-01T09:43:50Z</time>
      </trkpt>
      <trkpt lat="43.52554" lon="6.78979">
        <ele>233</ele>
        <time>2012-11-01T09:43:50Z</time>
      </trkpt>
      <trkpt lat="43.5255" lon="6.78972">
        <ele>232</ele>
        <time>2012-11-01T09:43:52Z</time>
      </trkpt>
      <trkpt lat="43.52546" lon="6.78965">
        <ele>231</ele>
        <time>2012-11-01T09:43:53Z</time>
      </trkpt>
      <trkpt lat="43.52542" lon="6.78959">
        <ele>231</ele>
        <time>2012-11-01T09:43:53Z</time>
      </trkpt>
      <trkpt lat="43.52538" lon="6.78953">
        <ele>230</ele>
        <time>2012-11-01T09:43:55Z</time>
      </trkpt>
      <trkpt lat="43.52533" lon="6.78946">
        <ele>230</ele>
        <time>2012-11-01T09:43:56Z</time>
      </trkpt>
      <trkpt lat="43.5253" lon="6.78938">
        <ele>230</ele>
        <time>2012-11-01T09:43:57Z</time>
      </trkpt>
      <trkpt lat="43.52527" lon="6.78932">
        <ele>230</ele>
        <time>2012-11-01T09:43:57Z</time>
      </trkpt>
      <trkpt lat="43.52526" lon="6.78926">
        <ele>230</ele>
        <time>2012-11-01T09:43:58Z</time>
      </trkpt>
      <trkpt lat="43.5253" lon="6.78917">
        <ele>230</ele>
        <time>2012-11-01T09:44:00Z</time>
      </trkpt>
      <trkpt lat="43.52534" lon="6.7891">
        <ele>230</ele>
        <time>2012-11-01T09:44:01Z</time>
      </trkpt>
      <trkpt lat="43.52539" lon="6.78903">
        <ele>229</ele>
        <time>2012-11-01T09:44:01Z</time>
      </trkpt>
      <trkpt lat="43.52544" lon="6.78897">
        <ele>228</ele>
        <time>2012-11-01T09:44:02Z</time>
      </trkpt>
      <trkpt lat="43.5255" lon="6.7889">
        <ele>228</ele>
        <time>2012-11-01T09:44:04Z</time>
      </trkpt>
      <trkpt lat="43.52554" lon="6.78883">
        <ele>228</ele>
        <time>2012-11-01T09:44:05Z</time>
      </trkpt>
      <trkpt lat="43.52557" lon="6.78875">
        <ele>227</ele>
        <time>2012-11-01T09:44:06Z</time>
      </trkpt>
      <trkpt lat="43.52559" lon="6.78866">
        <ele>227</ele>
        <time>2012-11-01T09:44:06Z</time>
      </trkpt>
      <trkpt lat="43.52559" lon="6.78857">
        <ele>226</ele>
        <time>2012-11-01T09:44:08Z</time>
      </trkpt>
      <trkpt lat="43.52559" lon="6.78848">
        <ele>226</ele>
        <time>2012-11-01T09:44:09Z</time>
      </trkpt>
      <trkpt lat="43.52557" lon="6.78839">
        <ele>225</ele>
        <time>2012-11-01T09:44:10Z</time>
      </trkpt>
      <trkpt lat="43.52555" lon="6.7883">
        <ele>225</ele>
        <time>2012-11-01T09:44:10Z</time>
      </trkpt>
      <trkpt lat="43.52552" lon="6.78822">
        <ele>225</ele>
        <time>2012-11-01T09:44:12Z</time>
      </trkpt>
      <trkpt lat="43.52549" lon="6.78814">
        <ele>225</ele>
        <time>2012-11-01T09:44:13Z</time>
      </trkpt>
      <trkpt lat="43.52545" lon="6.78805">
        <ele>225</ele>
        <time>2012-11-01T09:44:14Z</time>
      </trkpt>
      <trkpt lat="43.52542" lon="6.78798">
        <ele>225</ele>
        <time>2012-11-01T09:44:14Z</time>
      </trkpt>
      <trkpt lat="43.5254" lon="6.7879">
        <ele>225</ele>
        <time>2012-11-01T09:44:16Z</time>
      </trkpt>
      <trkpt lat="43.52538" lon="6.78782">
        <ele>225</ele>
        <time>2012-11-01T09:44:17Z</time>
      </trkpt>
      <trkpt lat="43.52538" lon="6.78774">
        <ele>225</ele>
        <time>2012-11-01T09:44:17Z</time>
      </trkpt>
      <trkpt lat="43.52539" lon="6.78768">
        <ele>225</ele>
        <time>2012-11-01T09:44:19Z</time>
      </trkpt>
      <trkpt lat="43.52544" lon="6.78764">
        <ele>225</ele>
        <time>2012-11-01T09:44:20Z</time>
      </trkpt>
      <trkpt lat="43.52552" lon="6.78764">
        <ele>225</ele>
        <time>2012-11-01T09:44:21Z</time>
      </trkpt>
      <trkpt lat="43.52559" lon="6.78763">
        <ele>225</ele>
        <time>2012-11-01T09:44:21Z</time>
      </trkpt>
      <trkpt lat="43.52566" lon="6.78761">
        <ele>225</ele>
        <time>2012-11-01T09:44:22Z</time>
      </trkpt>
      <trkpt lat="43.52571" lon="6.78758">
        <ele>224</ele>
        <time>2012-11-01T09:44:24Z</time>
      </trkpt>
      <trkpt lat="43.52577" lon="6.78754">
        <ele>223</ele>
        <time>2012-11-01T09:44:25Z</time>
      </trkpt>
      <trkpt lat="43.52583" lon="6.78749">
        <ele>222</ele>
        <time>2012-11-01T09:44:26Z</time>
      </trkpt>
      <trkpt lat="43.52586" lon="6.78743">
        <ele>221</ele>
        <time>2012-11-01T09:44:26Z</time>
      </trkpt>
      <trkpt lat="43.52589" lon="6.78735">
        <ele>220</ele>
        <time>2012-11-01T09:44:28Z</time>
      </trkpt>
      <trkpt lat="43.5259" lon="6.78726">
        <ele>219</ele>
        <time>2012-11-01T09:44:28Z</time>
      </trkpt>
      <trkpt lat="43.52592" lon="6.78718">
        <ele>218</ele>
        <time>2012-11-01T09:44:30Z</time>
      </trkpt>
      <trkpt lat="43.52594" lon="6.78709">
        <ele>217</ele>
        <time>2012-11-01T09:44:30Z</time>
      </trkpt>
      <trkpt lat="43.52596" lon="6.787">
        <ele>216</ele>
        <time>2012-11-01T09:44:32Z</time>
      </trkpt>
      <trkpt lat="43.52599" lon="6.78691">
        <ele>215</ele>
        <time>2012-11-01T09:44:32Z</time>
      </trkpt>
      <trkpt lat="43.52602" lon="6.78683">
        <ele>214</ele>
        <time>2012-11-01T09:44:33Z</time>
      </trkpt>
      <trkpt lat="43.52606" lon="6.78675">
        <ele>213</ele>
        <time>2012-11-01T09:44:34Z</time>
      </trkpt>
      <trkpt lat="43.5261" lon="6.78667">
        <ele>212</ele>
        <time>2012-11-01T09:44:35Z</time>
      </trkpt>
      <trkpt lat="43.52614" lon="6.78659">
        <ele>212</ele>
        <time>2012-11-01T09:44:37Z</time>
      </trkpt>
      <trkpt lat="43.52618" lon="6.78651">
        <ele>211</ele>
        <time>2012-11-01T09:44:37Z</time>
      </trkpt>
      <trkpt lat="43.52623" lon="6.78644">
        <ele>211</ele>
        <time>2012-11-01T09:44:38Z</time>
      </trkpt>
      <trkpt lat="43.52628" lon="6.78636">
        <ele>211</ele>
        <time>2012-11-01T09:44:40Z</time>
      </trkpt>
      <trkpt lat="43.52633" lon="6.78629">
        <ele>211</ele>
        <time>2012-11-01T09:44:41Z</time>
      </trkpt>
      <trkpt lat="43.52637" lon="6.78622">
        <ele>211</ele>
        <time>2012-11-01T09:44:42Z</time>
      </trkpt>
      <trkpt lat="43.52641" lon="6.78615">
        <ele>211</ele>
        <time>2012-11-01T09:44:42Z</time>
      </trkpt>
      <trkpt lat="43.52643" lon="6.78609">
        <ele>211</ele>
        <time>2012-11-01T09:44:44Z</time>
      </trkpt>
      <trkpt lat="43.52644" lon="6.78603">
        <ele>211</ele>
        <time>2012-11-01T09:44:44Z</time>
      </trkpt>
      <trkpt lat="43.52644" lon="6.78598">
        <ele>211</ele>
        <time>2012-11-01T09:44:45Z</time>
      </trkpt>
      <trkpt lat="43.52643" lon="6.78593">
        <ele>211</ele>
        <time>2012-11-01T09:44:46Z</time>
      </trkpt>
      <trkpt lat="43.52642" lon="6.78589">
        <ele>211</ele>
        <time>2012-11-01T09:44:47Z</time>
      </trkpt>
      <trkpt lat="43.5264" lon="6.78585">
        <ele>211</ele>
        <time>2012-11-01T09:44:49Z</time>
      </trkpt>
      <trkpt lat="43.52639" lon="6.78581">
        <ele>211</ele>
        <time>2012-11-01T09:44:49Z</time>
      </trkpt>
      <trkpt lat="43.52637" lon="6.78578">
        <ele>211</ele>
        <time>2012-11-01T09:44:50Z</time>
      </trkpt>
      <trkpt lat="43.52635" lon="6.78575">
        <ele>210</ele>
        <time>2012-11-01T09:44:51Z</time>
      </trkpt>
      <trkpt lat="43.52633" lon="6.78573">
        <ele>210</ele>
        <time>2012-11-01T09:44:53Z</time>
      </trkpt>
      <trkpt lat="43.5263" lon="6.78571">
        <ele>210</ele>
        <time>2012-11-01T09:44:53Z</time>
      </trkpt>
      <trkpt lat="43.52628" lon="6.78569">
        <ele>209</ele>
        <time>2012-11-01T09:44:54Z</time>
      </trkpt>
      <trkpt lat="43.52625" lon="6.78567">
        <ele>209</ele>
        <time>2012-11-01T09:44:55Z</time>
      </trkpt>
      <trkpt lat="43.52623" lon="6.78565">
        <ele>209</ele>
        <time>2012-11-01T09:44:56Z</time>
      </trkpt>
      <trkpt lat="43.5262" lon="6.78563">
        <ele>209</ele>
        <time>2012-11-01T09:44:57Z</time>
      </trkpt>
      <trkpt lat="43.52617" lon="6.78561">
        <ele>209</ele>
        <time>2012-11-01T09:44:58Z</time>
      </trkpt>
      <trkpt lat="43.52614" lon="6.78559">
        <ele>209</ele>
        <time>2012-11-01T09:45:00Z</time>
      </trkpt>
      <trkpt lat="43.52611" lon="6.78557">
        <ele>209</ele>
        <time>2012-11-01T09:45:00Z</time>
      </trkpt>
      <trkpt lat="43.52608" lon="6.78555">
        <ele>209</ele>
        <time>2012-11-01T09:45:01Z</time>
      </trkpt>
      <trkpt lat="43.52605" lon="6.78553">
        <ele>209</ele>
        <time>2012-11-01T09:45:02Z</time>
      </trkpt>
      <trkpt lat="43.52602" lon="6.78551">
        <ele>209</ele>
        <time>2012-11-01T09:45:03Z</time>
      </trkpt>
      <trkpt lat="43.52599" lon="6.78549">
        <ele>210</ele>
        <time>2012-11-01T09:45:04Z</time>
      </trkpt>
      <trkpt lat="43.52596" lon="6.78547">
        <ele>211</ele>
        <time>2012-11-01T09:45:05Z</time>
      </trkpt>
      <trkpt lat="43.52592" lon="6.78546">
        <ele>212</ele>
        <time>2012-11-01T09:45:06Z</time>
      </trkpt>
      <trkpt lat="43.5259" lon="6.78544">
        <ele>213</ele>
        <time>2012-11-01T09:45:07Z</time>
      </trkpt>
      <trkpt lat="43.52587" lon="6.78541">
        <ele>214</ele>
        <time>2012-11-01T09:45:09Z</time>
      </trkpt>
      <trkpt lat="43.52584" lon="6.7854">
        <ele>215</ele>
        <time>2012-11-01T09:45:09Z</time>
      </trkpt>
      <trkpt lat="43.52581" lon="6.78538">
        <ele>217</ele>
        <time>2012-11-01T09:45:11Z</time>
      </trkpt>
      <trkpt lat="43.52579" lon="6.78536">
        <ele>219</ele>
        <time>2012-11-01T09:45:12Z</time>
      </trkpt>
      <trkpt lat="43.52576" lon="6.78534">
        <ele>221</ele>
        <time>2012-11-01T09:45:12Z</time>
      </trkpt>
      <trkpt lat="43.52573" lon="6.78532">
        <ele>223</ele>
        <time>2012-11-01T09:45:13Z</time>
      </trkpt>
      <trkpt lat="43.52571" lon="6.7853">
        <ele>225</ele>
        <time>2012-11-01T09:45:14Z</time>
      </trkpt>
      <trkpt lat="43.52568" lon="6.78528">
        <ele>227</ele>
        <time>2012-11-01T09:45:16Z</time>
      </trkpt>
      <trkpt lat="43.52564" lon="6.78526">
        <ele>229</ele>
        <time>2012-11-01T09:45:17Z</time>
      </trkpt>
      <trkpt lat="43.5256" lon="6.78524">
        <ele>231</ele>
        <time>2012-11-01T09:45:17Z</time>
      </trkpt>
      <trkpt lat="43.52557" lon="6.78523">
        <ele>233</ele>
        <time>2012-11-01T09:45:18Z</time>
      </trkpt>
      <trkpt lat="43.52554" lon="6.78521">
        <ele>235</ele>
        <time>2012-11-01T09:45:20Z</time>
      </trkpt>
      <trkpt lat="43.52552" lon="6.78519">
        <ele>237</ele>
        <time>2012-11-01T09:45:21Z</time>
      </trkpt>
      <trkpt lat="43.52549" lon="6.78518">
        <ele>239</ele>
        <time>2012-11-01T09:45:22Z</time>
      </trkpt>
      <trkpt lat="43.52546" lon="6.78516">
        <ele>241</ele>
        <time>2012-11-01T09:45:22Z</time>
      </trkpt>
      <trkpt lat="43.52543" lon="6.78515">
        <ele>243</ele>
        <time>2012-11-01T09:45:24Z</time>
      </trkpt>
      <trkpt lat="43.5254" lon="6.78512">
        <ele>245</ele>
        <time>2012-11-01T09:45:25Z</time>
      </trkpt>
      <trkpt lat="43.52537" lon="6.78511">
        <ele>247</ele>
        <time>2012-11-01T09:45:26Z</time>
      </trkpt>
      <trkpt lat="43.52534" lon="6.78509">
        <ele>249</ele>
        <time>2012-11-01T09:45:27Z</time>
      </trkpt>
      <trkpt lat="43.52531" lon="6.78507">
        <ele>251</ele>
        <time>2012-11-01T09:45:28Z</time>
      </trkpt>
      <trkpt lat="43.52528" lon="6.78505">
        <ele>253</ele>
        <time>2012-11-01T09:45:28Z</time>
      </trkpt>
      <trkpt lat="43.52526" lon="6.78502">
        <ele>255</ele>
        <time>2012-11-01T09:45:29Z</time>
      </trkpt>
      <trkpt lat="43.52523" lon="6.78499">
        <ele>257</ele>
        <time>2012-11-01T09:45:30Z</time>
      </trkpt>
      <trkpt lat="43.52521" lon="6.78496">
        <ele>259</ele>
        <time>2012-11-01T09:45:32Z</time>
      </trkpt>
      <trkpt lat="43.52518" lon="6.78493">
        <ele>261</ele>
        <time>2012-11-01T09:45:32Z</time>
      </trkpt>
      <trkpt lat="43.52516" lon="6.7849">
        <ele>263</ele>
        <time>2012-11-01T09:45:34Z</time>
      </trkpt>
      <trkpt lat="43.52514" lon="6.78487">
        <ele>265</ele>
        <time>2012-11-01T09:45:34Z</time>
      </trkpt>
      <trkpt lat="43.52511" lon="6.78484">
        <ele>267</ele>
        <time>2012-11-01T09:45:35Z</time>
      </trkpt>
      <trkpt lat="43.52509" lon="6.78482">
        <ele>269</ele>
        <time>2012-11-01T09:45:37Z</time>
      </trkpt>
      <trkpt lat="43.52506" lon="6.78479">
        <ele>271</ele>
        <time>2012-11-01T09:45:37Z</time>
      </trkpt>
      <trkpt lat="43.52504" lon="6.78476">
        <ele>273</ele>
        <time>2012-11-01T09:45:39Z</time>
      </trkpt>
      <trkpt lat="43.52501" lon="6.78475">
        <ele>275</ele>
        <time>2012-11-01T09:45:40Z</time>
      </trkpt>
      <trkpt lat="43.52497" lon="6.78474">
        <ele>276</ele>
        <time>2012-11-01T09:45:40Z</time>
      </trkpt>
      <trkpt lat="43.52494" lon="6.78473">
        <ele>277</ele>
        <time>2012-11-01T09:45:41Z</time>
      </trkpt>
      <trkpt lat="43.52491" lon="6.78471">
        <ele>278</ele>
        <time>2012-11-01T09:45:43Z</time>
      </trkpt>
      <trkpt lat="43.52489" lon="6.78471">
        <ele>278</ele>
        <time>2012-11-01T09:45:43Z</time>
      </trkpt>
      <trkpt lat="43.52486" lon="6.7847">
        <ele>278</ele>
        <time>2012-11-01T09:45:44Z</time>
      </trkpt>
      <trkpt lat="43.52483" lon="6.78469">
        <ele>277</ele>
        <time>2012-11-01T09:45:45Z</time>
      </trkpt>
      <trkpt lat="43.52479" lon="6.7847">
        <ele>276</ele>
        <time>2012-11-01T09:45:46Z</time>
      </trkpt>
      <trkpt lat="43.52475" lon="6.7847">
        <ele>274</ele>
        <time>2012-11-01T09:45:47Z</time>
      </trkpt>
      <trkpt lat="43.52472" lon="6.78471">
        <ele>272</ele>
        <time>2012-11-01T09:45:48Z</time>
      </trkpt>
      <trkpt lat="43.52469" lon="6.7847">
        <ele>270</ele>
        <time>2012-11-01T09:45:49Z</time>
      </trkpt>
      <trkpt lat="43.52466" lon="6.78472">
        <ele>268</ele>
        <time>2012-11-01T09:45:51Z</time>
      </trkpt>
      <trkpt lat="43.52463" lon="6.78472">
        <ele>266</ele>
        <time>2012-11-01T09:45:52Z</time>
      </trkpt>
      <trkpt lat="43.5246" lon="6.78474">
        <ele>264</ele>
        <time>2012-11-01T09:45:53Z</time>
      </trkpt>
      <trkpt lat="43.52457" lon="6.78474">
        <ele>262</ele>
        <time>2012-11-01T09:45:53Z</time>
      </trkpt>
      <trkpt lat="43.52454" lon="6.78474">
        <ele>260</ele>
        <time>2012-11-01T09:45:54Z</time>
      </trkpt>
      <trkpt lat="43.52452" lon="6.78474">
        <ele>258</ele>
        <time>2012-11-01T09:45:56Z</time>
      </trkpt>
      <trkpt lat="43.52449" lon="6.78475">
        <ele>256</ele>
        <time>2012-11-01T09:45:57Z</time>
      </trkpt>
      <trkpt lat="43.52446" lon="6.78476">
        <ele>254</ele>
        <time>2012-11-01T09:45:57Z</time>
      </trkpt>
      <trkpt lat="43.52443" lon="6.78476">
        <ele>252</ele>
        <time>2012-11-01T09:45:59Z</time>
      </trkpt>
      <trkpt lat="43.52441" lon="6.78477">
        <ele>250</ele>
        <time>2012-11-01T09:46:00Z</time>
      </trkpt>
      <trkpt lat="43.52438" lon="6.78478">
        <ele>249</ele>
        <time>2012-11-01T09:46:01Z</time>
      </trkpt>
      <trkpt lat="43.52436" lon="6.78479">
        <ele>248</ele>
        <time>2012-11-01T09:46:02Z</time>
      </trkpt>
      <trkpt lat="43.52433" lon="6.7848">
        <ele>247</ele>
        <time>2012-11-01T09:46:03Z</time>
      </trkpt>
      <trkpt lat="43.5243" lon="6.78481">
        <ele>246</ele>
        <time>2012-11-01T09:46:04Z</time>
      </trkpt>
      <trkpt lat="43.52428" lon="6.78482">
        <ele>245</ele>
        <time>2012-11-01T09:46:04Z</time>
      </trkpt>
      <trkpt lat="43.52425" lon="6.78484">
        <ele>243</ele>
        <time>2012-11-01T09:46:06Z</time>
      </trkpt>
      <trkpt lat="43.52422" lon="6.78485">
        <ele>242</ele>
        <time>2012-11-01T09:46:07Z</time>
      </trkpt>
      <trkpt lat="43.5242" lon="6.78486">
        <ele>240</ele>
        <time>2012-11-01T09:46:08Z</time>
      </trkpt>
      <trkpt lat="43.52417" lon="6.78488">
        <ele>239</ele>
        <time>2012-11-01T09:46:09Z</time>
      </trkpt>
      <trkpt lat="43.52414" lon="6.78489">
        <ele>238</ele>
        <time>2012-11-01T09:46:09Z</time>
      </trkpt>
      <trkpt lat="43.52412" lon="6.7849">
        <ele>237</ele>
        <time>2012-11-01T09:46:11Z</time>
      </trkpt>
      <trkpt lat="43.52409" lon="6.78491">
        <ele>236</ele>
        <time>2012-11-01T09:46:12Z</time>
      </trkpt>
      <trkpt lat="43.52406" lon="6.78491">
        <ele>235</ele>
        <time>2012-11-01T09:46:13Z</time>
      </trkpt>
      <trkpt lat="43.52404" lon="6.78492">
        <ele>234</ele>
        <time>2012-11-01T09:46:14Z</time>
      </trkpt>
      <trkpt lat="43.52401" lon="6.78493">
        <ele>234</ele>
        <time>2012-11-01T09:46:15Z</time>
      </trkpt>
      <trkpt lat="43.52399" lon="6.78494">
        <ele>234</ele>
        <time>2012-11-01T09:46:16Z</time>
      </trkpt>
      <trkpt lat="43.52397" lon="6.78495">
        <ele>234</ele>
        <time>2012-11-01T09:46:17Z</time>
      </trkpt>
      <trkpt lat="43.52394" lon="6.78496">
        <ele>234</ele>
        <time>2012-11-01T09:46:18Z</time>
      </trkpt>
      <trkpt lat="43.52392" lon="6.78497">
        <ele>234</ele>
        <time>2012-11-01T09:46:19Z</time>
      </trkpt>
      <trkpt lat="43.5239" lon="6.78498">
        <ele>234</ele>
        <time>2012-11-01T09:46:20Z</time>
      </trkpt>
      <trkpt lat="43.52388" lon="6.78499">
        <ele>235</ele>
        <time>2012-11-01T09:46:21Z</time>
      </trkpt>
      <trkpt lat="43.52385" lon="6.785">
        <ele>235</ele>
        <time>2012-11-01T09:46:21Z</time>
      </trkpt>
      <trkpt lat="43.52383" lon="6.785">
        <ele>235</ele>
        <time>2012-11-01T09:46:22Z</time>
      </trkpt>
      <trkpt lat="43.52381" lon="6.78501">
        <ele>235</ele>
        <time>2012-11-01T09:46:24Z</time>
      </trkpt>
      <trkpt lat="43.52379" lon="6.78501">
        <ele>235</ele>
        <time>2012-11-01T09:46:25Z</time>
      </trkpt>
      <trkpt lat="43.52377" lon="6.78501">
        <ele>235</ele>
        <time>2012-11-01T09:46:25Z</time>
      </trkpt>
      <trkpt lat="43.52376" lon="6.785">
        <ele>235</ele>
        <time>2012-11-01T09:46:26Z</time>
      </trkpt>
      <trkpt lat="43.52374" lon="6.78499">
        <ele>235</ele>
        <time>2012-11-01T09:46:28Z</time>
      </trkpt>
      <trkpt lat="43.52372" lon="6.78498">
        <ele>235</ele>
        <time>2012-11-01T09:46:29Z</time>
      </trkpt>
      <trkpt lat="43.5237" lon="6.78495">
        <ele>235</ele>
        <time>2012-11-01T09:46:29Z</time>
      </trkpt>
      <trkpt lat="43.52369" lon="6.78491">
        <ele>235</ele>
        <time>2012-11-01T09:46:31Z</time>
      </trkpt>
      <trkpt lat="43.52369" lon="6.78488">
        <ele>235</ele>
        <time>2012-11-01T09:46:32Z</time>
      </trkpt>
      <trkpt lat="43.52369" lon="6.78484">
        <ele>235</ele>
        <time>2012-11-01T09:46:33Z</time>
      </trkpt>
      <trkpt lat="43.52369" lon="6.7848">
        <ele>235</ele>
        <time>2012-11-01T09:46:34Z</time>
      </trkpt>
      <trkpt lat="43.5237" lon="6.78477">
        <ele>235</ele>
        <time>2012-11-01T09:46:35Z</time>
      </trkpt>
      <trkpt lat="43.5237" lon="6.78474">
        <ele>235</ele>
        <time>2012-11-01T09:46:35Z</time>
      </trkpt>
      <trkpt lat="43.5237" lon="6.7847">
        <ele>235</ele>
        <time>2012-11-01T09:46:37Z</time>
      </trkpt>
      <trkpt lat="43.5237" lon="6.78466">
        <ele>235</ele>
        <time>2012-11-01T09:46:37Z</time>
      </trkpt>
      <trkpt lat="43.52369" lon="6.78463">
        <ele>235</ele>
        <time>2012-11-01T09:46:39Z</time>
      </trkpt>
      <trkpt lat="43.52368" lon="6.78459">
        <ele>235</ele>
        <time>2012-11-01T09:46:40Z</time>
      </trkpt>
      <trkpt lat="43.52366" lon="6.78456">
        <ele>235</ele>
        <time>2012-11-01T09:46:41Z</time>
      </trkpt>
      <trkpt lat="43.52363" lon="6.78454">
        <ele>235</ele>
        <time>2012-11-01T09:46:42Z</time>
      </trkpt>
      <trkpt lat="43.52361" lon="6.78452">
        <ele>235</ele>
        <time>2012-11-01T09:46:43Z</time>
      </trkpt>
      <trkpt lat="43.52359" lon="6.78451">
        <ele>236</ele>
        <time>2012-11-01T09:46:44Z</time>
      </trkpt>
      <trkpt lat="43.52356" lon="6.78449">
        <ele>236</ele>
        <time>2012-11-01T09:46:44Z</time>
      </trkpt>
      <trkpt lat="43.52354" lon="6.78448">
        <ele>236</ele>
        <time>2012-11-01T09:46:45Z</time>
      </trkpt>
      <trkpt lat="43.52351" lon="6.78447">
        <ele>236</ele>
        <time>2012-11-01T09:46:47Z</time>
      </trkpt>
      <trkpt lat="43.52348" lon="6.78447">
        <ele>236</ele>
        <time>2012-11-01T09:46:48Z</time>
      </trkpt>
      <trkpt lat="43.52346" lon="6.78446">
        <ele>237</ele>
        <time>2012-11-01T09:46:48Z</time>
      </trkpt>
      <trkpt lat="43.52343" lon="6.78446">
        <ele>237</ele>
        <time>2012-11-01T09:46:49Z</time>
      </trkpt>
      <trkpt lat="43.5234" lon="6.78446">
        <ele>237</ele>
        <time>2012-11-01T09:46:51Z</time>
      </trkpt>
      <trkpt lat="43.52336" lon="6.78445">
        <ele>237</ele>
        <time>2012-11-01T09:46:52Z</time>
      </trkpt>
      <trkpt lat="43.52333" lon="6.78445">
        <ele>238</ele>
        <time>2012-11-01T09:46:52Z</time>
      </trkpt>
      <trkpt lat="43.5233" lon="6.78445">
        <ele>238</ele>
        <time>2012-11-01T09:46:54Z</time>
      </trkpt>
      <trkpt lat="43.52326" lon="6.78445">
        <ele>239</ele>
        <time>2012-11-01T09:46:55Z</time>
      </trkpt>
      <trkpt lat="43.52323" lon="6.78445">
        <ele>240</ele>
        <time>2012-11-01T09:46:56Z</time>
      </trkpt>
      <trkpt lat="43.5232" lon="6.78445">
        <ele>241</ele>
        <time>2012-11-01T09:46:56Z</time>
      </trkpt>
      <trkpt lat="43.52317" lon="6.78445">
        <ele>241</ele>
        <time>2012-11-01T09:46:58Z</time>
      </trkpt>
      <trkpt lat="43.52314" lon="6.78444">
        <ele>241</ele>
        <time>2012-11-01T09:46:58Z</time>
      </trkpt>
      <trkpt lat="43.52311" lon="6.78444">
        <ele>242</ele>
        <time>2012-11-01T09:47:00Z</time>
      </trkpt>
      <trkpt lat="43.52308" lon="6.78444">
        <ele>242</ele>
        <time>2012-11-01T09:47:00Z</time>
      </trkpt>
      <trkpt lat="43.52305" lon="6.78444">
        <ele>242</ele>
        <time>2012-11-01T09:47:01Z</time>
      </trkpt>
      <trkpt lat="43.52302" lon="6.78445">
        <ele>242</ele>
        <time>2012-11-01T09:47:03Z</time>
      </trkpt>
      <trkpt lat="43.523" lon="6.78445">
        <ele>242</ele>
        <time>2012-11-01T09:47:04Z</time>
      </trkpt>
      <trkpt lat="43.52297" lon="6.78445">
        <ele>242</ele>
        <time>2012-11-01T09:47:05Z</time>
      </trkpt>
      <trkpt lat="43.52294" lon="6.78446">
        <ele>242</ele>
        <time>2012-11-01T09:47:06Z</time>
      </trkpt>
      <trkpt lat="43.52291" lon="6.78447">
        <ele>242</ele>
        <time>2012-11-01T09:47:07Z</time>
      </trkpt>
      <trkpt lat="43.52288" lon="6.78449">
        <ele>242</ele>
        <time>2012-11-01T09:47:08Z</time>
      </trkpt>
      <trkpt lat="43.52285" lon="6.7845">
        <ele>242</ele>
        <time>2012-11-01T09:47:08Z</time>
      </trkpt>
      <trkpt lat="43.52283" lon="6.78452">
        <ele>242</ele>
        <time>2012-11-01T09:47:09Z</time>
      </trkpt>
      <trkpt lat="43.52281" lon="6.78454">
        <ele>242</ele>
        <time>2012-11-01T09:47:11Z</time>
      </trkpt>
      <trkpt lat="43.52278" lon="6.78456">
        <ele>242</ele>
        <time>2012-11-01T09:47:12Z</time>
      </trkpt>
      <trkpt lat="43.52276" lon="6.78457">
        <ele>242</ele>
        <time>2012-11-01T09:47:12Z</time>
      </trkpt>
      <trkpt lat="43.52274" lon="6.7846">
        <ele>242</ele>
        <time>2012-11-01T09:47:13Z</time>
      </trkpt>
      <trkpt lat="43.52272" lon="6.78463">
        <ele>242</ele>
        <time>2012-11-01T09:47:15Z</time>
      </trkpt>
      <trkpt lat="43.52269" lon="6.78466">
        <ele>242</ele>
        <time>2012-11-01T09:47:15Z</time>
      </trkpt>
      <trkpt lat="43.52268" lon="6.78469">
        <ele>242</ele>
        <time>2012-11-01T09:47:16Z</time>
      </trkpt>
      <trkpt lat="43.52266" lon="6.78472">
        <ele>242</ele>
        <time>2012-11-01T09:47:17Z</time>
      </trkpt>
      <trkpt lat="43.52263" lon="6.78474">
        <ele>242</ele>
        <time>2012-11-01T09:47:19Z</time>
      </trkpt>
      <trkpt lat="43.52261" lon="6.78476">
        <ele>242</ele>
        <time>2012-11-01T09:47:20Z</time>
      </trkpt>
      <trkpt lat="43.52258" lon="6.78477">
        <ele>242</ele>
        <time>2012-11-01T09:47:20Z</time>
      </trkpt>
      <trkpt lat="43.52255" lon="6.78478">
        <ele>242</ele>
        <time>2012-11-01T09:47:21Z</time>
      </trkpt>
      <trkpt lat="43.52251" lon="6.78478">
        <ele>242</ele>
        <time>2012-11-01T09:47:23Z</time>
      </trkpt>
      <trkpt lat="43.52247" lon="6.78477">
        <ele>242</ele>
        <time>2012-11-01T09:47:24Z</time>
      </trkpt>
      <trkpt lat="43.52244" lon="6.78475">
        <ele>242</ele>
        <time>2012-11-01T09:47:24Z</time>
      </trkpt>
      <trkpt lat="43.52241" lon="6.78474">
        <ele>242</ele>
        <time>2012-11-01T09:47:26Z</time>
      </trkpt>
      <trkpt lat="43.52238" lon="6.78472">
        <ele>242</ele>
        <time>2012-11-01T09:47:27Z</time>
      </trkpt>
      <trkpt lat="43.52235" lon="6.78471">
        <ele>242</ele>
        <time>2012-11-01T09:47:28Z</time>
      </trkpt>
      <trkpt lat="43.52233" lon="6.78469">
        <ele>242</ele>
        <time>2012-11-01T09:47:28Z</time>
      </trkpt>
      <trkpt lat="43.5223" lon="6.78467">
        <ele>242</ele>
        <time>2012-11-01T09:47:30Z</time>
      </trkpt>
      <trkpt lat="43.52227" lon="6.78466">
        <ele>242</ele>
        <time>2012-11-01T09:47:30Z</time>
      </trkpt>
      <trkpt lat="43.52224" lon="6.78465">
        <ele>242</ele>
        <time>2012-11-01T09:47:31Z</time>
      </trkpt>
      <trkpt lat="43.52221" lon="6.78463">
        <ele>242</ele>
        <time>2012-11-01T09:47:32Z</time>
      </trkpt>
      <trkpt lat="43.52218" lon="6.78462">
        <ele>242</ele>
        <time>2012-11-01T09:47:33Z</time>
      </trkpt>
      <trkpt lat="43.52215" lon="6.78461">
        <ele>242</ele>
        <time>2012-11-01T09:47:34Z</time>
      </trkpt>
      <trkpt lat="43.52212" lon="6.78459">
        <ele>242</ele>
        <time>2012-11-01T09:47:35Z</time>
      </trkpt>
      <trkpt lat="43.52209" lon="6.78458">
        <ele>242</ele>
        <time>2012-11-01T09:47:36Z</time>
      </trkpt>
      <trkpt lat="43.52206" lon="6.78457">
        <ele>242</ele>
        <time>2012-11-01T09:47:37Z</time>
      </trkpt>
      <trkpt lat="43.52203" lon="6.78456">
        <ele>242</ele>
        <time>2012-11-01T09:47:39Z</time>
      </trkpt>
      <trkpt lat="43.522" lon="6.78455">
        <ele>242</ele>
        <time>2012-11-01T09:47:40Z</time>
      </trkpt>
      <trkpt lat="43.52197" lon="6.78455">
        <ele>242</ele>
        <time>2012-11-01T09:47:40Z</time>
      </trkpt>
      <trkpt lat="43.52195" lon="6.78455">
        <ele>242</ele>
        <time>2012-11-01T09:47:41Z</time>
      </trkpt>
      <trkpt lat="43.52192" lon="6.78455">
        <ele>242</ele>
        <time>2012-11-01T09:47:43Z</time>
      </trkpt>
      <trkpt lat="43.52187" lon="6.78453">
        <ele>242</ele>
        <time>2012-11-01T09:47:44Z</time>
      </trkpt>
      <trkpt lat="43.52184" lon="6.78454">
        <ele>243</ele>
        <time>2012-11-01T09:47:46Z</time>
      </trkpt>
      <trkpt lat="43.52182" lon="6.78454">
        <ele>244</ele>
        <time>2012-11-01T09:47:46Z</time>
      </trkpt>
      <trkpt lat="43.52179" lon="6.78455">
        <ele>245</ele>
        <time>2012-11-01T09:47:48Z</time>
      </trkpt>
      <trkpt lat="43.52177" lon="6.78455">
        <ele>247</ele>
        <time>2012-11-01T09:47:48Z</time>
      </trkpt>
      <trkpt lat="43.52174" lon="6.78457">
        <ele>248</ele>
        <time>2012-11-01T09:47:50Z</time>
      </trkpt>
      <trkpt lat="43.52171" lon="6.78457">
        <ele>249</ele>
        <time>2012-11-01T09:47:51Z</time>
      </trkpt>
      <trkpt lat="43.52168" lon="6.78459">
        <ele>250</ele>
        <time>2012-11-01T09:47:52Z</time>
      </trkpt>
      <trkpt lat="43.52166" lon="6.7846">
        <ele>251</ele>
        <time>2012-11-01T09:47:52Z</time>
      </trkpt>
      <trkpt lat="43.52163" lon="6.78461">
        <ele>252</ele>
        <time>2012-11-01T09:47:53Z</time>
      </trkpt>
      <trkpt lat="43.52161" lon="6.78463">
        <ele>253</ele>
        <time>2012-11-01T09:47:55Z</time>
      </trkpt>
      <trkpt lat="43.52158" lon="6.78464">
        <ele>254</ele>
        <time>2012-11-01T09:47:55Z</time>
      </trkpt>
      <trkpt lat="43.52155" lon="6.78466">
        <ele>255</ele>
        <time>2012-11-01T09:47:56Z</time>
      </trkpt>
      <trkpt lat="43.52151" lon="6.78467">
        <ele>256</ele>
        <time>2012-11-01T09:47:57Z</time>
      </trkpt>
      <trkpt lat="43.52148" lon="6.78469">
        <ele>256</ele>
        <time>2012-11-01T09:47:59Z</time>
      </trkpt>
      <trkpt lat="43.52145" lon="6.7847">
        <ele>257</ele>
        <time>2012-11-01T09:48:00Z</time>
      </trkpt>
      <trkpt lat="43.52143" lon="6.78472">
        <ele>257</ele>
        <time>2012-11-01T09:48:00Z</time>
      </trkpt>
      <trkpt lat="43.5214" lon="6.78473">
        <ele>257</ele>
        <time>2012-11-01T09:48:01Z</time>
      </trkpt>
      <trkpt lat="43.52137" lon="6.78474">
        <ele>257</ele>
        <time>2012-11-01T09:48:03Z</time>
      </trkpt>
      <trkpt lat="43.52134" lon="6.78476">
        <ele>257</ele>
        <time>2012-11-01T09:48:04Z</time>
      </trkpt>
      <trkpt lat="43.52132" lon="6.78477">
        <ele>257</ele>
        <time>2012-11-01T09:48:04Z</time>
      </trkpt>
      <trkpt lat="43.52129" lon="6.78478">
        <ele>257</ele>
        <time>2012-11-01T09:48:05Z</time>
      </trkpt>
      <trkpt lat="43.52126" lon="6.7848">
        <ele>257</ele>
        <time>2012-11-01T09:48:06Z</time>
      </trkpt>
      <trkpt lat="43.52124" lon="6.78481">
        <ele>257</ele>
        <time>2012-11-01T09:48:08Z</time>
      </trkpt>
      <trkpt lat="43.52121" lon="6.78483">
        <ele>257</ele>
        <time>2012-11-01T09:48:08Z</time>
      </trkpt>
      <trkpt lat="43.52118" lon="6.78484">
        <ele>257</ele>
        <time>2012-11-01T09:48:09Z</time>
      </trkpt>
      <trkpt lat="43.52115" lon="6.78486">
        <ele>257</ele>
        <time>2012-11-01T09:48:11Z</time>
      </trkpt>
      <trkpt lat="43.52113" lon="6.78489">
        <ele>257</ele>
        <time>2012-11-01T09:48:12Z</time>
      </trkpt>
      <trkpt lat="43.52111" lon="6.78492">
        <ele>257</ele>
        <time>2012-11-01T09:48:12Z</time>
      </trkpt>
      <trkpt lat="43.5211" lon="6.78495">
        <ele>257</ele>
        <time>2012-11-01T09:48:13Z</time>
      </trkpt>
      <trkpt lat="43.52109" lon="6.78498">
        <ele>257</ele>
        <time>2012-11-01T09:48:15Z</time>
      </trkpt>
      <trkpt lat="43.52108" lon="6.78501">
        <ele>257</ele>
        <time>2012-11-01T09:48:15Z</time>
      </trkpt>
      <trkpt lat="43.52108" lon="6.78504">
        <ele>257</ele>
        <time>2012-11-01T09:48:16Z</time>
      </trkpt>
      <trkpt lat="43.52108" lon="6.78508">
        <ele>257</ele>
        <time>2012-11-01T09:48:17Z</time>
      </trkpt>
      <trkpt lat="43.5211" lon="6.78511">
        <ele>257</ele>
        <time>2012-11-01T09:48:19Z</time>
      </trkpt>
      <trkpt lat="43.52111" lon="6.78514">
        <ele>257</ele>
        <time>2012-11-01T09:48:19Z</time>
      </trkpt>
      <trkpt lat="43.52112" lon="6.78518">
        <ele>257</ele>
        <time>2012-11-01T09:48:20Z</time>
      </trkpt>
      <trkpt lat="43.52113" lon="6.78521">
        <ele>257</ele>
        <time>2012-11-01T09:48:21Z</time>
      </trkpt>
      <trkpt lat="43.52114" lon="6.78524">
        <ele>257</ele>
        <time>2012-11-01T09:48:23Z</time>
      </trkpt>
      <trkpt lat="43.52114" lon="6.78527">
        <ele>257</ele>
        <time>2012-11-01T09:48:24Z</time>
      </trkpt>
      <trkpt lat="43.52114" lon="6.7853">
        <ele>257</ele>
        <time>2012-11-01T09:48:24Z</time>
      </trkpt>
      <trkpt lat="43.52114" lon="6.78534">
        <ele>257</ele>
        <time>2012-11-01T09:48:25Z</time>
      </trkpt>
      <trkpt lat="43.52113" lon="6.78538">
        <ele>257</ele>
        <time>2012-11-01T09:48:27Z</time>
      </trkpt>
      <trkpt lat="43.52112" lon="6.78541">
        <ele>257</ele>
        <time>2012-11-01T09:48:28Z</time>
      </trkpt>
      <trkpt lat="43.52111" lon="6.78544">
        <ele>257</ele>
        <time>2012-11-01T09:48:28Z</time>
      </trkpt>
      <trkpt lat="43.52109" lon="6.78547">
        <ele>257</ele>
        <time>2012-11-01T09:48:29Z</time>
      </trkpt>
      <trkpt lat="43.52106" lon="6.78549">
        <ele>257</ele>
        <time>2012-11-01T09:48:31Z</time>
      </trkpt>
      <trkpt lat="43.52104" lon="6.78551">
        <ele>257</ele>
        <time>2012-11-01T09:48:32Z</time>
      </trkpt>
      <trkpt lat="43.52102" lon="6.78553">
        <ele>257</ele>
        <time>2012-11-01T09:48:33Z</time>
      </trkpt>
      <trkpt lat="43.52099" lon="6.78555">
        <ele>257</ele>
        <time>2012-11-01T09:48:33Z</time>
      </trkpt>
      <trkpt lat="43.52097" lon="6.78557">
        <ele>257</ele>
        <time>2012-11-01T09:48:35Z</time>
      </trkpt>
      <trkpt lat="43.52094" lon="6.78559">
        <ele>257</ele>
        <time>2012-11-01T09:48:36Z</time>
      </trkpt>
      <trkpt lat="43.52092" lon="6.78561">
        <ele>257</ele>
        <time>2012-11-01T09:48:36Z</time>
      </trkpt>
      <trkpt lat="43.52089" lon="6.78564">
        <ele>257</ele>
        <time>2012-11-01T09:48:38Z</time>
      </trkpt>
      <trkpt lat="43.52087" lon="6.78566">
        <ele>257</ele>
        <time>2012-11-01T09:48:39Z</time>
      </trkpt>
      <trkpt lat="43.52084" lon="6.78568">
        <ele>257</ele>
        <time>2012-11-01T09:48:39Z</time>
      </trkpt>
      <trkpt lat="43.52082" lon="6.7857">
        <ele>257</ele>
        <time>2012-11-01T09:48:40Z</time>
      </trkpt>
      <trkpt lat="43.5208" lon="6.78572">
        <ele>258</ele>
        <time>2012-11-01T09:48:41Z</time>
      </trkpt>
      <trkpt lat="43.52078" lon="6.78575">
        <ele>258</ele>
        <time>2012-11-01T09:48:43Z</time>
      </trkpt>
      <trkpt lat="43.52075" lon="6.78577">
        <ele>259</ele>
        <time>2012-11-01T09:48:43Z</time>
      </trkpt>
      <trkpt lat="43.52073" lon="6.78579">
        <ele>259</ele>
        <time>2012-11-01T09:48:44Z</time>
      </trkpt>
      <trkpt lat="43.52071" lon="6.78581">
        <ele>259</ele>
        <time>2012-11-01T09:48:46Z</time>
      </trkpt>
      <trkpt lat="43.52069" lon="6.78583">
        <ele>259</ele>
        <time>2012-11-01T09:48:47Z</time>
      </trkpt>
      <trkpt lat="43.52066" lon="6.78585">
        <ele>259</ele>
        <time>2012-11-01T09:48:47Z</time>
      </trkpt>
      <trkpt lat="43.52064" lon="6.78587">
        <ele>259</ele>
        <time>2012-11-01T09:48:48Z</time>
      </trkpt>
      <trkpt lat="43.52062" lon="6.78588">
        <ele>259</ele>
        <time>2012-11-01T09:48:49Z</time>
      </trkpt>
      <trkpt lat="43.52059" lon="6.7859">
        <ele>259</ele>
        <time>2012-11-01T09:48:51Z</time>
      </trkpt>
      <trkpt lat="43.52057" lon="6.78592">
        <ele>259</ele>
        <time>2012-11-01T09:48:52Z</time>
      </trkpt>
      <trkpt lat="43.52055" lon="6.78593">
        <ele>259</ele>
        <time>2012-11-01T09:48:52Z</time>
      </trkpt>
      <trkpt lat="43.52053" lon="6.78594">
        <ele>259</ele>
        <time>2012-11-01T09:48:54Z</time>
      </trkpt>
      <trkpt lat="43.52051" lon="6.78595">
        <ele>259</ele>
        <time>2012-11-01T09:48:55Z</time>
      </trkpt>
      <trkpt lat="43.52048" lon="6.78595">
        <ele>259</ele>
        <time>2012-11-01T09:48:56Z</time>
      </trkpt>
      <trkpt lat="43.52046" lon="6.78595">
        <ele>259</ele>
        <time>2012-11-01T09:48:56Z</time>
      </trkpt>
      <trkpt lat="43.52044" lon="6.78595">
        <ele>259</ele>
        <time>2012-11-01T09:48:57Z</time>
      </trkpt>
      <trkpt lat="43.52041" lon="6.78595">
        <ele>259</ele>
        <time>2012-11-01T09:48:59Z</time>
      </trkpt>
      <trkpt lat="43.52039" lon="6.78595">
        <ele>260</ele>
        <time>2012-11-01T09:48:59Z</time>
      </trkpt>
      <trkpt lat="43.52036" lon="6.78594">
        <ele>260</ele>
        <time>2012-11-01T09:49:00Z</time>
      </trkpt>
      <trkpt lat="43.52033" lon="6.78594">
        <ele>260</ele>
        <time>2012-11-01T09:49:01Z</time>
      </trkpt>
      <trkpt lat="43.5203" lon="6.78593">
        <ele>260</ele>
        <time>2012-11-01T09:49:03Z</time>
      </trkpt>
      <trkpt lat="43.52028" lon="6.78593">
        <ele>260</ele>
        <time>2012-11-01T09:49:04Z</time>
      </trkpt>
      <trkpt lat="43.52025" lon="6.78593">
        <ele>260</ele>
        <time>2012-11-01T09:49:04Z</time>
      </trkpt>
      <trkpt lat="43.52022" lon="6.78594">
        <ele>260</ele>
        <time>2012-11-01T09:49:05Z</time>
      </trkpt>
      <trkpt lat="43.5202" lon="6.78594">
        <ele>261</ele>
        <time>2012-11-01T09:49:07Z</time>
      </trkpt>
      <trkpt lat="43.52016" lon="6.78595">
        <ele>261</ele>
        <time>2012-11-01T09:49:07Z</time>
      </trkpt>
      <trkpt lat="43.52014" lon="6.78596">
        <ele>261</ele>
        <time>2012-11-01T09:49:08Z</time>
      </trkpt>
      <trkpt lat="43.52011" lon="6.78596">
        <ele>261</ele>
        <time>2012-11-01T09:49:10Z</time>
      </trkpt>
      <trkpt lat="43.52008" lon="6.78597">
        <ele>261</ele>
        <time>2012-11-01T09:49:11Z</time>
      </trkpt>
      <trkpt lat="43.52005" lon="6.78598">
        <ele>261</ele>
        <time>2012-11-01T09:49:11Z</time>
      </trkpt>
      <trkpt lat="43.52003" lon="6.78598">
        <ele>261</ele>
        <time>2012-11-01T09:49:12Z</time>
      </trkpt>
      <trkpt lat="43.52" lon="6.786">
        <ele>261</ele>
        <time>2012-11-01T09:49:13Z</time>
      </trkpt>
      <trkpt lat="43.51997" lon="6.78602">
        <ele>261</ele>
        <time>2012-11-01T09:49:14Z</time>
      </trkpt>
      <trkpt lat="43.51995" lon="6.78603">
        <ele>261</ele>
        <time>2012-11-01T09:49:16Z</time>
      </trkpt>
      <trkpt lat="43.51992" lon="6.78604">
        <ele>261</ele>
        <time>2012-11-01T09:49:16Z</time>
      </trkpt>
      <trkpt lat="43.51989" lon="6.78606">
        <ele>261</ele>
        <time>2012-11-01T09:49:17Z</time>
      </trkpt>
      <trkpt lat="43.51986" lon="6.78607">
        <ele>261</ele>
        <time>2012-11-01T09:49:19Z</time>
      </trkpt>
      <trkpt lat="43.51984" lon="6.78608">
        <ele>261</ele>
        <time>2012-11-01T09:49:19Z</time>
      </trkpt>
      <trkpt lat="43.51981" lon="6.7861">
        <ele>261</ele>
        <time>2012-11-01T09:49:20Z</time>
      </trkpt>
      <trkpt lat="43.51979" lon="6.78612">
        <ele>261</ele>
        <time>2012-11-01T09:49:21Z</time>
      </trkpt>
      <trkpt lat="43.51977" lon="6.78613">
        <ele>261</ele>
        <time>2012-11-01T09:49:23Z</time>
      </trkpt>
      <trkpt lat="43.51975" lon="6.78615">
        <ele>261</ele>
        <time>2012-11-01T09:49:23Z</time>
      </trkpt>
      <trkpt lat="43.51972" lon="6.78617">
        <ele>261</ele>
        <time>2012-11-01T09:49:24Z</time>
      </trkpt>
      <trkpt lat="43.51969" lon="6.78619">
        <ele>261</ele>
        <time>2012-11-01T09:49:25Z</time>
      </trkpt>
      <trkpt lat="43.51967" lon="6.78621">
        <ele>261</ele>
        <time>2012-11-01T09:49:26Z</time>
      </trkpt>
      <trkpt lat="43.51965" lon="6.78624">
        <ele>261</ele>
        <time>2012-11-01T09:49:28Z</time>
      </trkpt>
      <trkpt lat="43.51963" lon="6.78627">
        <ele>261</ele>
        <time>2012-11-01T09:49:28Z</time>
      </trkpt>
      <trkpt lat="43.5196" lon="6.78629">
        <ele>261</ele>
        <time>2012-11-01T09:49:29Z</time>
      </trkpt>
      <trkpt lat="43.51959" lon="6.78632">
        <ele>261</ele>
        <time>2012-11-01T09:49:31Z</time>
      </trkpt>
      <trkpt lat="43.51957" lon="6.78635">
        <ele>261</ele>
        <time>2012-11-01T09:49:32Z</time>
      </trkpt>
      <trkpt lat="43.51955" lon="6.78638">
        <ele>262</ele>
        <time>2012-11-01T09:49:32Z</time>
      </trkpt>
      <trkpt lat="43.51954" lon="6.7864">
        <ele>262</ele>
        <time>2012-11-01T09:49:33Z</time>
      </trkpt>
      <trkpt lat="43.51952" lon="6.78642">
        <ele>263</ele>
        <time>2012-11-01T09:49:35Z</time>
      </trkpt>
      <trkpt lat="43.5195" lon="6.78644">
        <ele>263</ele>
        <time>2012-11-01T09:49:36Z</time>
      </trkpt>
      <trkpt lat="43.51948" lon="6.78646">
        <ele>263</ele>
        <time>2012-11-01T09:49:36Z</time>
      </trkpt>
      <trkpt lat="43.51947" lon="6.78648">
        <ele>264</ele>
        <time>2012-11-01T09:49:38Z</time>
      </trkpt>
      <trkpt lat="43.51945" lon="6.7865">
        <ele>264</ele>
        <time>2012-11-01T09:49:39Z</time>
      </trkpt>
      <trkpt lat="43.51943" lon="6.78652">
        <ele>264</ele>
        <time>2012-11-01T09:49:39Z</time>
      </trkpt>
      <trkpt lat="43.51941" lon="6.78653">
        <ele>265</ele>
        <time>2012-11-01T09:49:41Z</time>
      </trkpt>
      <trkpt lat="43.51939" lon="6.78653">
        <ele>266</ele>
        <time>2012-11-01T09:49:42Z</time>
      </trkpt>
      <trkpt lat="43.51937" lon="6.78653">
        <ele>267</ele>
        <time>2012-11-01T09:49:43Z</time>
      </trkpt>
      <trkpt lat="43.51935" lon="6.78654">
        <ele>267</ele>
        <time>2012-11-01T09:49:43Z</time>
      </trkpt>
      <trkpt lat="43.51933" lon="6.78654">
        <ele>268</ele>
        <time>2012-11-01T09:49:44Z</time>
      </trkpt>
      <trkpt lat="43.5193" lon="6.78654">
        <ele>269</ele>
        <time>2012-11-01T09:49:45Z</time>
      </trkpt>
      <trkpt lat="43.51928" lon="6.78654">
        <ele>269</ele>
        <time>2012-11-01T09:49:47Z</time>
      </trkpt>
      <trkpt lat="43.51926" lon="6.78655">
        <ele>269</ele>
        <time>2012-11-01T09:49:48Z</time>
      </trkpt>
      <trkpt lat="43.51924" lon="6.78656">
        <ele>270</ele>
        <time>2012-11-01T09:49:48Z</time>
      </trkpt>
      <trkpt lat="43.51921" lon="6.78657">
        <ele>270</ele>
        <time>2012-11-01T09:49:49Z</time>
      </trkpt>
      <trkpt lat="43.51919" lon="6.78658">
        <ele>271</ele>
        <time>2012-11-01T09:49:51Z</time>
      </trkpt>
      <trkpt lat="43.51917" lon="6.7866">
        <ele>271</ele>
        <time>2012-11-01T09:49:52Z</time>
      </trkpt>
      <trkpt lat="43.51915" lon="6.78662">
        <ele>271</ele>
        <time>2012-11-01T09:49:52Z</time>
      </trkpt>
      <trkpt lat="43.51914" lon="6.78663">
        <ele>271</ele>
        <time>2012-11-01T09:49:53Z</time>
      </trkpt>
      <trkpt lat="43.51912" lon="6.78665">
        <ele>271</ele>
        <time>2012-11-01T09:49:55Z</time>
      </trkpt>
      <trkpt lat="43.5191" lon="6.78666">
        <ele>271</ele>
        <time>2012-11-01T09:49:55Z</time>
      </trkpt>
      <trkpt lat="43.51907" lon="6.78667">
        <ele>271</ele>
        <time>2012-11-01T09:49:56Z</time>
      </trkpt>
      <trkpt lat="43.51904" lon="6.78667">
        <ele>271</ele>
        <time>2012-11-01T09:49:58Z</time>
      </trkpt>
      <trkpt lat="43.51901" lon="6.78666">
        <ele>271</ele>
        <time>2012-11-01T09:49:59Z</time>
      </trkpt>
      <trkpt lat="43.51898" lon="6.78665">
        <ele>271</ele>
        <time>2012-11-01T09:49:59Z</time>
      </trkpt>
      <trkpt lat="43.51896" lon="6.78664">
        <ele>271</ele>
        <time>2012-11-01T09:50:00Z</time>
      </trkpt>
      <trkpt lat="43.51893" lon="6.78662">
        <ele>272</ele>
        <time>2012-11-01T09:50:01Z</time>
      </trkpt>
      <trkpt lat="43.51891" lon="6.7866">
        <ele>272</ele>
        <time>2012-11-01T09:50:03Z</time>
      </trkpt>
      <trkpt lat="43.51889" lon="6.78657">
        <ele>272</ele>
        <time>2012-11-01T09:50:04Z</time>
      </trkpt>
      <trkpt lat="43.51888" lon="6.78653">
        <ele>272</ele>
        <time>2012-11-01T09:50:04Z</time>
      </trkpt>
      <trkpt lat="43.51886" lon="6.7865">
        <ele>273</ele>
        <time>2012-11-01T09:50:05Z</time>
      </trkpt>
      <trkpt lat="43.51886" lon="6.78647">
        <ele>273</ele>
        <time>2012-11-01T09:50:06Z</time>
      </trkpt>
      <trkpt lat="43.51885" lon="6.78643">
        <ele>273</ele>
        <time>2012-11-01T09:50:07Z</time>
      </trkpt>
      <trkpt lat="43.51884" lon="6.78639">
        <ele>274</ele>
        <time>2012-11-01T09:50:08Z</time>
      </trkpt>
      <trkpt lat="43.51884" lon="6.78636">
        <ele>274</ele>
        <time>2012-11-01T09:50:10Z</time>
      </trkpt>
      <trkpt lat="43.51883" lon="6.78632">
        <ele>275</ele>
        <time>2012-11-01T09:50:10Z</time>
      </trkpt>
      <trkpt lat="43.51883" lon="6.78629">
        <ele>275</ele>
        <time>2012-11-01T09:50:12Z</time>
      </trkpt>
      <trkpt lat="43.51882" lon="6.78625">
        <ele>276</ele>
        <time>2012-11-01T09:50:12Z</time>
      </trkpt>
      <trkpt lat="43.51881" lon="6.78622">
        <ele>276</ele>
        <time>2012-11-01T09:50:13Z</time>
      </trkpt>
      <trkpt lat="43.5188" lon="6.78618">
        <ele>276</ele>
        <time>2012-11-01T09:50:14Z</time>
      </trkpt>
      <trkpt lat="43.51879" lon="6.78615">
        <ele>277</ele>
        <time>2012-11-01T09:50:16Z</time>
      </trkpt>
      <trkpt lat="43.51878" lon="6.78612">
        <ele>277</ele>
        <time>2012-11-01T09:50:16Z</time>
      </trkpt>
      <trkpt lat="43.51877" lon="6.78609">
        <ele>277</ele>
        <time>2012-11-01T09:50:17Z</time>
      </trkpt>
      <trkpt lat="43.51875" lon="6.78606">
        <ele>278</ele>
        <time>2012-11-01T09:50:19Z</time>
      </trkpt>
      <trkpt lat="43.51873" lon="6.78603">
        <ele>278</ele>
        <time>2012-11-01T09:50:20Z</time>
      </trkpt>
      <trkpt lat="43.51872" lon="6.78601">
        <ele>278</ele>
        <time>2012-11-01T09:50:20Z</time>
      </trkpt>
      <trkpt lat="43.5187" lon="6.78598">
        <ele>279</ele>
        <time>2012-11-01T09:50:21Z</time>
      </trkpt>
      <trkpt lat="43.51869" lon="6.78596">
        <ele>279</ele>
        <time>2012-11-01T09:50:22Z</time>
      </trkpt>
      <trkpt lat="43.51867" lon="6.78593">
        <ele>279</ele>
        <time>2012-11-01T09:50:23Z</time>
      </trkpt>
      <trkpt lat="43.51865" lon="6.78591">
        <ele>280</ele>
        <time>2012-11-01T09:50:24Z</time>
      </trkpt>
      <trkpt lat="43.51864" lon="6.78588">
        <ele>280</ele>
        <time>2012-11-01T09:50:25Z</time>
      </trkpt>
      <trkpt lat="43.51862" lon="6.78585">
        <ele>280</ele>
        <time>2012-11-01T09:50:27Z</time>
      </trkpt>
      <trkpt lat="43.5186" lon="6.78583">
        <ele>281</ele>
        <time>2012-11-01T09:50:28Z</time>
      </trkpt>
      <trkpt lat="43.51858" lon="6.7858">
        <ele>281</ele>
        <time>2012-11-01T09:50:28Z</time>
      </trkpt>
      <trkpt lat="43.51856" lon="6.78578">
        <ele>282</ele>
        <time>2012-11-01T09:50:29Z</time>
      </trkpt>
      <trkpt lat="43.51854" lon="6.78575">
        <ele>282</ele>
        <time>2012-11-01T09:50:30Z</time>
      </trkpt>
      <trkpt lat="43.51852" lon="6.78572">
        <ele>282</ele>
        <time>2012-11-01T09:50:32Z</time>
      </trkpt>
      <trkpt lat="43.51849" lon="6.7857">
        <ele>283</ele>
        <time>2012-11-01T09:50:32Z</time>
      </trkpt>
      <trkpt lat="43.51847" lon="6.78567">
        <ele>283</ele>
        <time>2012-11-01T09:50:33Z</time>
      </trkpt>
      <trkpt lat="43.51845" lon="6.78563">
        <ele>283</ele>
        <time>2012-11-01T09:50:34Z</time>
      </trkpt>
      <trkpt lat="43.51844" lon="6.7856">
        <ele>284</ele>
        <time>2012-11-01T09:50:35Z</time>
      </trkpt>
      <trkpt lat="43.51842" lon="6.78556">
        <ele>285</ele>
        <time>2012-11-01T09:50:36Z</time>
      </trkpt>
      <trkpt lat="43.51841" lon="6.78552">
        <ele>285</ele>
        <time>2012-11-01T09:50:37Z</time>
      </trkpt>
      <trkpt lat="43.5184" lon="6.78548">
        <ele>286</ele>
        <time>2012-11-01T09:50:39Z</time>
      </trkpt>
      <trkpt lat="43.51839" lon="6.78544">
        <ele>286</ele>
        <time>2012-11-01T09:50:40Z</time>
      </trkpt>
      <trkpt lat="43.51839" lon="6.7854">
        <ele>286</ele>
        <time>2012-11-01T09:50:41Z</time>
      </trkpt>
      <trkpt lat="43.5184" lon="6.78536">
        <ele>287</ele>
        <time>2012-11-01T09:50:41Z</time>
      </trkpt>
      <trkpt lat="43.5184" lon="6.78533">
        <ele>287</ele>
        <time>2012-11-01T09:50:42Z</time>
      </trkpt>
      <trkpt lat="43.5184" lon="6.78529">
        <ele>287</ele>
        <time>2012-11-01T09:50:44Z</time>
      </trkpt>
      <trkpt lat="43.51839" lon="6.78525">
        <ele>288</ele>
        <time>2012-11-01T09:50:44Z</time>
      </trkpt>
      <trkpt lat="43.51839" lon="6.78522">
        <ele>288</ele>
        <time>2012-11-01T09:50:45Z</time>
      </trkpt>
      <trkpt lat="43.51839" lon="6.78518">
        <ele>288</ele>
        <time>2012-11-01T09:50:46Z</time>
      </trkpt>
      <trkpt lat="43.51838" lon="6.78514">
        <ele>289</ele>
        <time>2012-11-01T09:50:48Z</time>
      </trkpt>
      <trkpt lat="43.51837" lon="6.78511">
        <ele>289</ele>
        <time>2012-11-01T09:50:48Z</time>
      </trkpt>
      <trkpt lat="43.51836" lon="6.78508">
        <ele>289</ele>
        <time>2012-11-01T09:50:49Z</time>
      </trkpt>
      <trkpt lat="43.51836" lon="6.78505">
        <ele>289</ele>
        <time>2012-11-01T09:50:50Z</time>
      </trkpt>
      <trkpt lat="43.51836" lon="6.78502">
        <ele>289</ele>
        <time>2012-11-01T09:50:51Z</time>
      </trkpt>
      <trkpt lat="43.51836" lon="6.78499">
        <ele>289</ele>
        <time>2012-11-01T09:50:53Z</time>
      </trkpt>
      <trkpt lat="43.51837" lon="6.78497">
        <ele>289</ele>
        <time>2012-11-01T09:50:53Z</time>
      </trkpt>
      <trkpt lat="43.51838" lon="6.78496">
        <ele>289</ele>
        <time>2012-11-01T09:50:54Z</time>
      </trkpt>
      <trkpt lat="43.51821" lon="6.78531">
        <ele>287</ele>
        <time>2012-11-01T09:51:00Z</time>
      </trkpt>
      <trkpt lat="43.51819" lon="6.78536">
        <ele>286</ele>
        <time>2012-11-01T09:51:02Z</time>
      </trkpt>
      <trkpt lat="43.51817" lon="6.7854">
        <ele>286</ele>
        <time>2012-11-01T09:51:02Z</time>
      </trkpt>
      <trkpt lat="43.51815" lon="6.78545">
        <ele>286</ele>
        <time>2012-11-01T09:51:03Z</time>
      </trkpt>
      <trkpt lat="43.51812" lon="6.78549">
        <ele>285</ele>
        <time>2012-11-01T09:51:04Z</time>
      </trkpt>
      <trkpt lat="43.51809" lon="6.78553">
        <ele>285</ele>
        <time>2012-11-01T09:51:06Z</time>
      </trkpt>
      <trkpt lat="43.51805" lon="6.78557">
        <ele>285</ele>
        <time>2012-11-01T09:51:06Z</time>
      </trkpt>
      <trkpt lat="43.51801" lon="6.78561">
        <ele>284</ele>
        <time>2012-11-01T09:51:07Z</time>
      </trkpt>
      <trkpt lat="43.51797" lon="6.78564">
        <ele>284</ele>
        <time>2012-11-01T09:51:09Z</time>
      </trkpt>
      <trkpt lat="43.51793" lon="6.78567">
        <ele>284</ele>
        <time>2012-11-01T09:51:09Z</time>
      </trkpt>
      <trkpt lat="43.51789" lon="6.7857">
        <ele>283</ele>
        <time>2012-11-01T09:51:10Z</time>
      </trkpt>
      <trkpt lat="43.51785" lon="6.78573">
        <ele>283</ele>
        <time>2012-11-01T09:51:12Z</time>
      </trkpt>
      <trkpt lat="43.51781" lon="6.78576">
        <ele>283</ele>
        <time>2012-11-01T09:51:13Z</time>
      </trkpt>
      <trkpt lat="43.51777" lon="6.78579">
        <ele>282</ele>
        <time>2012-11-01T09:51:14Z</time>
      </trkpt>
      <trkpt lat="43.51773" lon="6.78581">
        <ele>282</ele>
        <time>2012-11-01T09:51:14Z</time>
      </trkpt>
      <trkpt lat="43.51768" lon="6.78584">
        <ele>282</ele>
        <time>2012-11-01T09:51:16Z</time>
      </trkpt>
      <trkpt lat="43.51764" lon="6.78588">
        <ele>281</ele>
        <time>2012-11-01T09:51:17Z</time>
      </trkpt>
      <trkpt lat="43.51759" lon="6.78591">
        <ele>281</ele>
        <time>2012-11-01T09:51:18Z</time>
      </trkpt>
      <trkpt lat="43.51755" lon="6.78595">
        <ele>280</ele>
        <time>2012-11-01T09:51:18Z</time>
      </trkpt>
      <trkpt lat="43.5175" lon="6.78599">
        <ele>280</ele>
        <time>2012-11-01T09:51:20Z</time>
      </trkpt>
      <trkpt lat="43.51746" lon="6.78603">
        <ele>279</ele>
        <time>2012-11-01T09:51:21Z</time>
      </trkpt>
      <trkpt lat="43.51741" lon="6.78609">
        <ele>279</ele>
        <time>2012-11-01T09:51:22Z</time>
      </trkpt>
      <trkpt lat="43.51738" lon="6.78616">
        <ele>278</ele>
        <time>2012-11-01T09:51:22Z</time>
      </trkpt>
      <trkpt lat="43.51735" lon="6.78622">
        <ele>278</ele>
        <time>2012-11-01T09:51:24Z</time>
      </trkpt>
      <trkpt lat="43.51733" lon="6.78628">
        <ele>277</ele>
        <time>2012-11-01T09:51:25Z</time>
      </trkpt>
      <trkpt lat="43.51733" lon="6.78633">
        <ele>277</ele>
        <time>2012-11-01T09:51:26Z</time>
      </trkpt>
      <trkpt lat="43.51732" lon="6.78636">
        <ele>277</ele>
        <time>2012-11-01T09:51:27Z</time>
      </trkpt>
      <trkpt lat="43.51731" lon="6.78638">
        <ele>277</ele>
        <time>2012-11-01T09:51:27Z</time>
      </trkpt>
      <trkpt lat="43.51731" lon="6.78639">
        <ele>276</ele>
        <time>2012-11-01T09:51:37Z</time>
      </trkpt>
      <trkpt lat="43.51731" lon="6.78641">
        <ele>276</ele>
        <time>2012-11-01T09:51:38Z</time>
      </trkpt>
      <trkpt lat="43.51731" lon="6.78644">
        <ele>276</ele>
        <time>2012-11-01T09:51:39Z</time>
      </trkpt>
      <trkpt lat="43.51732" lon="6.78646">
        <ele>276</ele>
        <time>2012-11-01T09:51:41Z</time>
      </trkpt>
      <trkpt lat="43.51733" lon="6.7865">
        <ele>275</ele>
        <time>2012-11-01T09:51:41Z</time>
      </trkpt>
      <trkpt lat="43.51734" lon="6.78654">
        <ele>275</ele>
        <time>2012-11-01T09:51:42Z</time>
      </trkpt>
      <trkpt lat="43.51735" lon="6.78659">
        <ele>275</ele>
        <time>2012-11-01T09:51:44Z</time>
      </trkpt>
      <trkpt lat="43.51736" lon="6.78664">
        <ele>275</ele>
        <time>2012-11-01T09:51:45Z</time>
      </trkpt>
      <trkpt lat="43.51737" lon="6.7867">
        <ele>275</ele>
        <time>2012-11-01T09:51:45Z</time>
      </trkpt>
      <trkpt lat="43.51738" lon="6.78677">
        <ele>274</ele>
        <time>2012-11-01T09:51:47Z</time>
      </trkpt>
      <trkpt lat="43.5174" lon="6.78684">
        <ele>274</ele>
        <time>2012-11-01T09:51:47Z</time>
      </trkpt>
      <trkpt lat="43.51741" lon="6.78691">
        <ele>274</ele>
        <time>2012-11-01T09:51:49Z</time>
      </trkpt>
      <trkpt lat="43.51743" lon="6.78698">
        <ele>274</ele>
        <time>2012-11-01T09:51:50Z</time>
      </trkpt>
      <trkpt lat="43.51744" lon="6.78707">
        <ele>273</ele>
        <time>2012-11-01T09:51:50Z</time>
      </trkpt>
      <trkpt lat="43.51745" lon="6.78716">
        <ele>273</ele>
        <time>2012-11-01T09:51:52Z</time>
      </trkpt>
      <trkpt lat="43.51746" lon="6.78724">
        <ele>272</ele>
        <time>2012-11-01T09:51:53Z</time>
      </trkpt>
      <trkpt lat="43.51746" lon="6.78733">
        <ele>272</ele>
        <time>2012-11-01T09:51:53Z</time>
      </trkpt>
      <trkpt lat="43.51747" lon="6.78741">
        <ele>271</ele>
        <time>2012-11-01T09:51:55Z</time>
      </trkpt>
      <trkpt lat="43.51748" lon="6.78749">
        <ele>271</ele>
        <time>2012-11-01T09:51:55Z</time>
      </trkpt>
      <trkpt lat="43.51748" lon="6.78758">
        <ele>270</ele>
        <time>2012-11-01T09:51:57Z</time>
      </trkpt>
      <trkpt lat="43.51748" lon="6.78767">
        <ele>270</ele>
        <time>2012-11-01T09:51:57Z</time>
      </trkpt>
      <trkpt lat="43.51748" lon="6.78776">
        <ele>269</ele>
        <time>2012-11-01T09:51:58Z</time>
      </trkpt>
      <trkpt lat="43.51748" lon="6.78786">
        <ele>269</ele>
        <time>2012-11-01T09:52:00Z</time>
      </trkpt>
      <trkpt lat="43.51746" lon="6.78795">
        <ele>268</ele>
        <time>2012-11-01T09:52:01Z</time>
      </trkpt>
      <trkpt lat="43.51745" lon="6.78805">
        <ele>268</ele>
        <time>2012-11-01T09:52:01Z</time>
      </trkpt>
      <trkpt lat="43.51744" lon="6.78816">
        <ele>268</ele>
        <time>2012-11-01T09:52:03Z</time>
      </trkpt>
      <trkpt lat="43.51742" lon="6.78826">
        <ele>267</ele>
        <time>2012-11-01T09:52:04Z</time>
      </trkpt>
      <trkpt lat="43.5174" lon="6.78836">
        <ele>267</ele>
        <time>2012-11-01T09:52:04Z</time>
      </trkpt>
      <trkpt lat="43.51738" lon="6.78847">
        <ele>266</ele>
        <time>2012-11-01T09:52:05Z</time>
      </trkpt>
      <trkpt lat="43.51736" lon="6.78858">
        <ele>265</ele>
        <time>2012-11-01T09:52:07Z</time>
      </trkpt>
      <trkpt lat="43.51734" lon="6.78869">
        <ele>265</ele>
        <time>2012-11-01T09:52:08Z</time>
      </trkpt>
      <trkpt lat="43.51732" lon="6.7888">
        <ele>264</ele>
        <time>2012-11-01T09:52:09Z</time>
      </trkpt>
      <trkpt lat="43.51731" lon="6.78891">
        <ele>264</ele>
        <time>2012-11-01T09:52:09Z</time>
      </trkpt>
      <trkpt lat="43.51732" lon="6.78902">
        <ele>263</ele>
        <time>2012-11-01T09:52:11Z</time>
      </trkpt>
      <trkpt lat="43.51733" lon="6.78913">
        <ele>263</ele>
        <time>2012-11-01T09:52:12Z</time>
      </trkpt>
      <trkpt lat="43.51735" lon="6.78925">
        <ele>262</ele>
        <time>2012-11-01T09:52:13Z</time>
      </trkpt>
      <trkpt lat="43.51737" lon="6.78936">
        <ele>262</ele>
        <time>2012-11-01T09:52:13Z</time>
      </trkpt>
      <trkpt lat="43.5174" lon="6.78947">
        <ele>261</ele>
        <time>2012-11-01T09:52:15Z</time>
      </trkpt>
      <trkpt lat="43.51743" lon="6.78957">
        <ele>260</ele>
        <time>2012-11-01T09:52:16Z</time>
      </trkpt>
      <trkpt lat="43.51747" lon="6.78966">
        <ele>260</ele>
        <time>2012-11-01T09:52:17Z</time>
      </trkpt>
      <trkpt lat="43.51752" lon="6.78973">
        <ele>259</ele>
        <time>2012-11-01T09:52:17Z</time>
      </trkpt>
      <trkpt lat="43.51758" lon="6.78978">
        <ele>258</ele>
        <time>2012-11-01T09:52:19Z</time>
      </trkpt>
      <trkpt lat="43.51762" lon="6.78984">
        <ele>258</ele>
        <time>2012-11-01T09:52:19Z</time>
      </trkpt>
      <trkpt lat="43.51765" lon="6.78991">
        <ele>258</ele>
        <time>2012-11-01T09:52:21Z</time>
      </trkpt>
      <trkpt lat="43.51765" lon="6.78999">
        <ele>257</ele>
        <time>2012-11-01T09:52:21Z</time>
      </trkpt>
      <trkpt lat="43.51763" lon="6.79008">
        <ele>256</ele>
        <time>2012-11-01T09:52:23Z</time>
      </trkpt>
      <trkpt lat="43.51756" lon="6.79014">
        <ele>256</ele>
        <time>2012-11-01T09:52:24Z</time>
      </trkpt>
      <trkpt lat="43.51749" lon="6.79017">
        <ele>255</ele>
        <time>2012-11-01T09:52:24Z</time>
      </trkpt>
      <trkpt lat="43.51741" lon="6.79015">
        <ele>254</ele>
        <time>2012-11-01T09:52:25Z</time>
      </trkpt>
      <trkpt lat="43.51735" lon="6.7901">
        <ele>253</ele>
        <time>2012-11-01T09:52:26Z</time>
      </trkpt>
      <trkpt lat="43.51729" lon="6.79002">
        <ele>252</ele>
        <time>2012-11-01T09:52:27Z</time>
      </trkpt>
      <trkpt lat="43.51724" lon="6.78993">
        <ele>251</ele>
        <time>2012-11-01T09:52:29Z</time>
      </trkpt>
      <trkpt lat="43.51719" lon="6.78983">
        <ele>250</ele>
        <time>2012-11-01T09:52:29Z</time>
      </trkpt>
      <trkpt lat="43.51713" lon="6.78974">
        <ele>249</ele>
        <time>2012-11-01T09:52:30Z</time>
      </trkpt>
      <trkpt lat="43.51707" lon="6.78968">
        <ele>248</ele>
        <time>2012-11-01T09:52:32Z</time>
      </trkpt>
      <trkpt lat="43.517" lon="6.78964">
        <ele>247</ele>
        <time>2012-11-01T09:52:33Z</time>
      </trkpt>
      <trkpt lat="43.51693" lon="6.78962">
        <ele>246</ele>
        <time>2012-11-01T09:52:33Z</time>
      </trkpt>
      <trkpt lat="43.51685" lon="6.78958">
        <ele>245</ele>
        <time>2012-11-01T09:52:34Z</time>
      </trkpt>
      <trkpt lat="43.51679" lon="6.78952">
        <ele>244</ele>
        <time>2012-11-01T09:52:36Z</time>
      </trkpt>
      <trkpt lat="43.51673" lon="6.78943">
        <ele>243</ele>
        <time>2012-11-01T09:52:36Z</time>
      </trkpt>
      <trkpt lat="43.51667" lon="6.78933">
        <ele>242</ele>
        <time>2012-11-01T09:52:37Z</time>
      </trkpt>
      <trkpt lat="43.51663" lon="6.78921">
        <ele>241</ele>
        <time>2012-11-01T09:52:38Z</time>
      </trkpt>
      <trkpt lat="43.51659" lon="6.78907">
        <ele>240</ele>
        <time>2012-11-01T09:52:40Z</time>
      </trkpt>
      <trkpt lat="43.51657" lon="6.78893">
        <ele>239</ele>
        <time>2012-11-01T09:52:40Z</time>
      </trkpt>
      <trkpt lat="43.51654" lon="6.78878">
        <ele>238</ele>
        <time>2012-11-01T09:52:41Z</time>
      </trkpt>
      <trkpt lat="43.51652" lon="6.78864">
        <ele>237</ele>
        <time>2012-11-01T09:52:42Z</time>
      </trkpt>
      <trkpt lat="43.5165" lon="6.78851">
        <ele>236</ele>
        <time>2012-11-01T09:52:44Z</time>
      </trkpt>
      <trkpt lat="43.51648" lon="6.78839">
        <ele>235</ele>
        <time>2012-11-01T09:52:45Z</time>
      </trkpt>
      <trkpt lat="43.51645" lon="6.7883">
        <ele>234</ele>
        <time>2012-11-01T09:52:45Z</time>
      </trkpt>
      <trkpt lat="43.51641" lon="6.78824">
        <ele>233</ele>
        <time>2012-11-01T09:52:47Z</time>
      </trkpt>
      <trkpt lat="43.51636" lon="6.78821">
        <ele>232</ele>
        <time>2012-11-01T09:52:48Z</time>
      </trkpt>
      <trkpt lat="43.51631" lon="6.7882">
        <ele>231</ele>
        <time>2012-11-01T09:52:49Z</time>
      </trkpt>
      <trkpt lat="43.51625" lon="6.78822">
        <ele>230</ele>
        <time>2012-11-01T09:52:49Z</time>
      </trkpt>
      <trkpt lat="43.51618" lon="6.78827">
        <ele>229</ele>
        <time>2012-11-01T09:52:50Z</time>
      </trkpt>
      <trkpt lat="43.51611" lon="6.78833">
        <ele>228</ele>
        <time>2012-11-01T09:52:51Z</time>
      </trkpt>
      <trkpt lat="43.51604" lon="6.7884">
        <ele>227</ele>
        <time>2012-11-01T09:52:53Z</time>
      </trkpt>
      <trkpt lat="43.51597" lon="6.78848">
        <ele>226</ele>
        <time>2012-11-01T09:52:53Z</time>
      </trkpt>
      <trkpt lat="43.5159" lon="6.78856">
        <ele>225</ele>
        <time>2012-11-01T09:52:54Z</time>
      </trkpt>
      <trkpt lat="43.51582" lon="6.78864">
        <ele>224</ele>
        <time>2012-11-01T09:52:56Z</time>
      </trkpt>
      <trkpt lat="43.51574" lon="6.78871">
        <ele>223</ele>
        <time>2012-11-01T09:52:57Z</time>
      </trkpt>
      <trkpt lat="43.51567" lon="6.78879">
        <ele>222</ele>
        <time>2012-11-01T09:52:58Z</time>
      </trkpt>
      <trkpt lat="43.51559" lon="6.78889">
        <ele>221</ele>
        <time>2012-11-01T09:52:59Z</time>
      </trkpt>
      <trkpt lat="43.51552" lon="6.78898">
        <ele>220</ele>
        <time>2012-11-01T09:52:59Z</time>
      </trkpt>
      <trkpt lat="43.51545" lon="6.78908">
        <ele>219</ele>
        <time>2012-11-01T09:53:01Z</time>
      </trkpt>
      <trkpt lat="43.51538" lon="6.78917">
        <ele>218</ele>
        <time>2012-11-01T09:53:02Z</time>
      </trkpt>
      <trkpt lat="43.51531" lon="6.78927">
        <ele>217</ele>
        <time>2012-11-01T09:53:03Z</time>
      </trkpt>
      <trkpt lat="43.51525" lon="6.78936">
        <ele>216</ele>
        <time>2012-11-01T09:53:04Z</time>
      </trkpt>
      <trkpt lat="43.51518" lon="6.78945">
        <ele>215</ele>
        <time>2012-11-01T09:53:04Z</time>
      </trkpt>
      <trkpt lat="43.51511" lon="6.78955">
        <ele>214</ele>
        <time>2012-11-01T09:53:06Z</time>
      </trkpt>
      <trkpt lat="43.51505" lon="6.78965">
        <ele>213</ele>
        <time>2012-11-01T09:53:06Z</time>
      </trkpt>
      <trkpt lat="43.515" lon="6.78976">
        <ele>212</ele>
        <time>2012-11-01T09:53:08Z</time>
      </trkpt>
      <trkpt lat="43.51495" lon="6.78988">
        <ele>211</ele>
        <time>2012-11-01T09:53:08Z</time>
      </trkpt>
      <trkpt lat="43.5149" lon="6.79">
        <ele>210</ele>
        <time>2012-11-01T09:53:09Z</time>
      </trkpt>
      <trkpt lat="43.51486" lon="6.79013">
        <ele>209</ele>
        <time>2012-11-01T09:53:10Z</time>
      </trkpt>
      <trkpt lat="43.51482" lon="6.79027">
        <ele>208</ele>
        <time>2012-11-01T09:53:11Z</time>
      </trkpt>
      <trkpt lat="43.51479" lon="6.79041">
        <ele>207</ele>
        <time>2012-11-01T09:53:12Z</time>
      </trkpt>
      <trkpt lat="43.51477" lon="6.79054">
        <ele>206</ele>
        <time>2012-11-01T09:53:13Z</time>
      </trkpt>
      <trkpt lat="43.51475" lon="6.79068">
        <ele>205</ele>
        <time>2012-11-01T09:53:15Z</time>
      </trkpt>
      <trkpt lat="43.51475" lon="6.79082">
        <ele>204</ele>
        <time>2012-11-01T09:53:16Z</time>
      </trkpt>
      <trkpt lat="43.51474" lon="6.79095">
        <ele>203</ele>
        <time>2012-11-01T09:53:17Z</time>
      </trkpt>
      <trkpt lat="43.51472" lon="6.79107">
        <ele>202</ele>
        <time>2012-11-01T09:53:18Z</time>
      </trkpt>
      <trkpt lat="43.5147" lon="6.7912">
        <ele>201</ele>
        <time>2012-11-01T09:53:18Z</time>
      </trkpt>
      <trkpt lat="43.51466" lon="6.79133">
        <ele>200</ele>
        <time>2012-11-01T09:53:20Z</time>
      </trkpt>
      <trkpt lat="43.51461" lon="6.79144">
        <ele>199</ele>
        <time>2012-11-01T09:53:21Z</time>
      </trkpt>
      <trkpt lat="43.51455" lon="6.79153">
        <ele>198</ele>
        <time>2012-11-01T09:53:21Z</time>
      </trkpt>
      <trkpt lat="43.51448" lon="6.79159">
        <ele>197</ele>
        <time>2012-11-01T09:53:23Z</time>
      </trkpt>
      <trkpt lat="43.51439" lon="6.79162">
        <ele>196</ele>
        <time>2012-11-01T09:53:23Z</time>
      </trkpt>
      <trkpt lat="43.51429" lon="6.79158">
        <ele>195</ele>
        <time>2012-11-01T09:53:25Z</time>
      </trkpt>
      <trkpt lat="43.51419" lon="6.79152">
        <ele>194</ele>
        <time>2012-11-01T09:53:25Z</time>
      </trkpt>
      <trkpt lat="43.5141" lon="6.79145">
        <ele>193</ele>
        <time>2012-11-01T09:53:26Z</time>
      </trkpt>
      <trkpt lat="43.514" lon="6.79139">
        <ele>192</ele>
        <time>2012-11-01T09:53:28Z</time>
      </trkpt>
      <trkpt lat="43.51391" lon="6.79134">
        <ele>191</ele>
        <time>2012-11-01T09:53:29Z</time>
      </trkpt>
      <trkpt lat="43.51381" lon="6.79129">
        <ele>190</ele>
        <time>2012-11-01T09:53:29Z</time>
      </trkpt>
      <trkpt lat="43.51371" lon="6.79124">
        <ele>189</ele>
        <time>2012-11-01T09:53:30Z</time>
      </trkpt>
      <trkpt lat="43.51361" lon="6.79119">
        <ele>188</ele>
        <time>2012-11-01T09:53:31Z</time>
      </trkpt>
      <trkpt lat="43.51352" lon="6.79114">
        <ele>187</ele>
        <time>2012-11-01T09:53:32Z</time>
      </trkpt>
      <trkpt lat="43.51342" lon="6.79109">
        <ele>186</ele>
        <time>2012-11-01T09:53:33Z</time>
      </trkpt>
      <trkpt lat="43.51332" lon="6.79103">
        <ele>185</ele>
        <time>2012-11-01T09:53:34Z</time>
      </trkpt>
      <trkpt lat="43.51322" lon="6.79098">
        <ele>184</ele>
        <time>2012-11-01T09:53:35Z</time>
      </trkpt>
      <trkpt lat="43.51311" lon="6.79092">
        <ele>183</ele>
        <time>2012-11-01T09:53:36Z</time>
      </trkpt>
      <trkpt lat="43.51302" lon="6.79086">
        <ele>182</ele>
        <time>2012-11-01T09:53:37Z</time>
      </trkpt>
      <trkpt lat="43.51292" lon="6.7908">
        <ele>181</ele>
        <time>2012-11-01T09:53:38Z</time>
      </trkpt>
      <trkpt lat="43.51283" lon="6.79074">
        <ele>180</ele>
        <time>2012-11-01T09:53:40Z</time>
      </trkpt>
      <trkpt lat="43.51274" lon="6.79068">
        <ele>179</ele>
        <time>2012-11-01T09:53:40Z</time>
      </trkpt>
      <trkpt lat="43.51267" lon="6.79062">
        <ele>178</ele>
        <time>2012-11-01T09:53:41Z</time>
      </trkpt>
      <trkpt lat="43.5126" lon="6.79057">
        <ele>177</ele>
        <time>2012-11-01T09:53:43Z</time>
      </trkpt>
      <trkpt lat="43.51254" lon="6.79052">
        <ele>176</ele>
        <time>2012-11-01T09:53:43Z</time>
      </trkpt>
      <trkpt lat="43.51249" lon="6.79048">
        <ele>175</ele>
        <time>2012-11-01T09:53:45Z</time>
      </trkpt>
      <trkpt lat="43.51245" lon="6.79046">
        <ele>174</ele>
        <time>2012-11-01T09:53:45Z</time>
      </trkpt>
      <trkpt lat="43.51242" lon="6.79044">
        <ele>173</ele>
        <time>2012-11-01T09:53:47Z</time>
      </trkpt>
      <trkpt lat="43.51239" lon="6.79044">
        <ele>172</ele>
        <time>2012-11-01T09:53:48Z</time>
      </trkpt>
      <trkpt lat="43.51237" lon="6.79043">
        <ele>172</ele>
        <time>2012-11-01T09:53:49Z</time>
      </trkpt>
      <trkpt lat="43.51235" lon="6.79042">
        <ele>172</ele>
        <time>2012-11-01T09:53:49Z</time>
      </trkpt>
      <trkpt lat="43.51234" lon="6.79041">
        <ele>172</ele>
        <time>2012-11-01T09:53:51Z</time>
      </trkpt>
      <trkpt lat="43.51232" lon="6.7904">
        <ele>172</ele>
        <time>2012-11-01T09:53:52Z</time>
      </trkpt>
      <trkpt lat="43.5123" lon="6.79038">
        <ele>172</ele>
        <time>2012-11-01T09:53:53Z</time>
      </trkpt>
      <trkpt lat="43.51229" lon="6.79037">
        <ele>172</ele>
        <time>2012-11-01T09:53:53Z</time>
      </trkpt>
      <trkpt lat="43.51227" lon="6.79036">
        <ele>172</ele>
        <time>2012-11-01T09:53:54Z</time>
      </trkpt>
      <trkpt lat="43.51225" lon="6.79035">
        <ele>172</ele>
        <time>2012-11-01T09:53:56Z</time>
      </trkpt>
      <trkpt lat="43.51224" lon="6.79034">
        <ele>172</ele>
        <time>2012-11-01T09:53:56Z</time>
      </trkpt>
      <trkpt lat="43.51223" lon="6.79032">
        <ele>172</ele>
        <time>2012-11-01T09:53:57Z</time>
      </trkpt>
      <trkpt lat="43.51222" lon="6.79031">
        <ele>172</ele>
        <time>2012-11-01T09:53:59Z</time>
      </trkpt>
      <trkpt lat="43.51222" lon="6.79029">
        <ele>172</ele>
        <time>2012-11-01T09:54:00Z</time>
      </trkpt>
      <trkpt lat="43.51221" lon="6.79027">
        <ele>172</ele>
        <time>2012-11-01T09:54:00Z</time>
      </trkpt>
      <trkpt lat="43.51221" lon="6.79024">
        <ele>172</ele>
        <time>2012-11-01T09:54:01Z</time>
      </trkpt>
      <trkpt lat="43.5122" lon="6.79021">
        <ele>172</ele>
        <time>2012-11-01T09:54:02Z</time>
      </trkpt>
      <trkpt lat="43.51218" lon="6.79018">
        <ele>172</ele>
        <time>2012-11-01T09:54:04Z</time>
      </trkpt>
      <trkpt lat="43.51217" lon="6.79015">
        <ele>172</ele>
        <time>2012-11-01T09:54:04Z</time>
      </trkpt>
      <trkpt lat="43.51216" lon="6.79012">
        <ele>172</ele>
        <time>2012-11-01T09:54:05Z</time>
      </trkpt>
      <trkpt lat="43.51214" lon="6.79009">
        <ele>172</ele>
        <time>2012-11-01T09:54:06Z</time>
      </trkpt>
      <trkpt lat="43.51211" lon="6.79006">
        <ele>172</ele>
        <time>2012-11-01T09:54:08Z</time>
      </trkpt>
      <trkpt lat="43.51208" lon="6.79005">
        <ele>172</ele>
        <time>2012-11-01T09:54:08Z</time>
      </trkpt>
      <trkpt lat="43.51206" lon="6.79007">
        <ele>172</ele>
        <time>2012-11-01T09:54:09Z</time>
      </trkpt>
      <trkpt lat="43.51204" lon="6.79009">
        <ele>172</ele>
        <time>2012-11-01T09:54:10Z</time>
      </trkpt>
      <trkpt lat="43.51202" lon="6.79013">
        <ele>172</ele>
        <time>2012-11-01T09:54:12Z</time>
      </trkpt>
      <trkpt lat="43.51201" lon="6.79016">
        <ele>172</ele>
        <time>2012-11-01T09:54:13Z</time>
      </trkpt>
      <trkpt lat="43.51199" lon="6.7902">
        <ele>172</ele>
        <time>2012-11-01T09:54:13Z</time>
      </trkpt>
      <trkpt lat="43.51197" lon="6.79025">
        <ele>172</ele>
        <time>2012-11-01T09:54:14Z</time>
      </trkpt>
      <trkpt lat="43.51195" lon="6.79029">
        <ele>172</ele>
        <time>2012-11-01T09:54:16Z</time>
      </trkpt>
      <trkpt lat="43.51192" lon="6.79033">
        <ele>172</ele>
        <time>2012-11-01T09:54:17Z</time>
      </trkpt>
      <trkpt lat="43.51189" lon="6.79037">
        <ele>172</ele>
        <time>2012-11-01T09:54:17Z</time>
      </trkpt>
      <trkpt lat="43.51185" lon="6.7904">
        <ele>172</ele>
        <time>2012-11-01T09:54:19Z</time>
      </trkpt>
      <trkpt lat="43.51181" lon="6.79043">
        <ele>172</ele>
        <time>2012-11-01T09:54:19Z</time>
      </trkpt>
      <trkpt lat="43.51176" lon="6.79046">
        <ele>172</ele>
        <time>2012-11-01T09:54:21Z</time>
      </trkpt>
      <trkpt lat="43.51171" lon="6.79048">
        <ele>172</ele>
        <time>2012-11-01T09:54:21Z</time>
      </trkpt>
      <trkpt lat="43.51167" lon="6.7905">
        <ele>172</ele>
        <time>2012-11-01T09:54:22Z</time>
      </trkpt>
      <trkpt lat="43.51163" lon="6.79052">
        <ele>172</ele>
        <time>2012-11-01T09:54:23Z</time>
      </trkpt>
      <trkpt lat="43.5116" lon="6.79054">
        <ele>172</ele>
        <time>2012-11-01T09:54:25Z</time>
      </trkpt>
      <trkpt lat="43.51156" lon="6.79056">
        <ele>172</ele>
        <time>2012-11-01T09:54:26Z</time>
      </trkpt>
      <trkpt lat="43.51152" lon="6.79057">
        <ele>172</ele>
        <time>2012-11-01T09:54:27Z</time>
      </trkpt>
      <trkpt lat="43.51149" lon="6.79058">
        <ele>172</ele>
        <time>2012-11-01T09:54:27Z</time>
      </trkpt>
      <trkpt lat="43.51145" lon="6.79059">
        <ele>172</ele>
        <time>2012-11-01T09:54:29Z</time>
      </trkpt>
      <trkpt lat="43.51141" lon="6.7906">
        <ele>172</ele>
        <time>2012-11-01T09:54:29Z</time>
      </trkpt>
      <trkpt lat="43.51138" lon="6.79061">
        <ele>172</ele>
        <time>2012-11-01T09:54:30Z</time>
      </trkpt>
      <trkpt lat="43.51136" lon="6.79062">
        <ele>172</ele>
        <time>2012-11-01T09:54:32Z</time>
      </trkpt>
      <trkpt lat="43.51133" lon="6.79064">
        <ele>172</ele>
        <time>2012-11-01T09:54:33Z</time>
      </trkpt>
      <trkpt lat="43.5113" lon="6.79065">
        <ele>172</ele>
        <time>2012-11-01T09:54:33Z</time>
      </trkpt>
      <trkpt lat="43.51127" lon="6.79066">
        <ele>172</ele>
        <time>2012-11-01T09:54:35Z</time>
      </trkpt>
      <trkpt lat="43.51125" lon="6.79068">
        <ele>172</ele>
        <time>2012-11-01T09:54:36Z</time>
      </trkpt>
      <trkpt lat="43.51123" lon="6.7907">
        <ele>172</ele>
        <time>2012-11-01T09:54:36Z</time>
      </trkpt>
      <trkpt lat="43.51121" lon="6.79072">
        <ele>172</ele>
        <time>2012-11-01T09:54:37Z</time>
      </trkpt>
      <trkpt lat="43.5112" lon="6.79075">
        <ele>173</ele>
        <time>2012-11-01T09:54:38Z</time>
      </trkpt>
      <trkpt lat="43.51118" lon="6.79078">
        <ele>173</ele>
        <time>2012-11-01T09:54:40Z</time>
      </trkpt>
      <trkpt lat="43.51117" lon="6.79081">
        <ele>174</ele>
        <time>2012-11-01T09:54:41Z</time>
      </trkpt>
      <trkpt lat="43.51116" lon="6.79084">
        <ele>174</ele>
        <time>2012-11-01T09:54:41Z</time>
      </trkpt>
      <trkpt lat="43.51116" lon="6.79087">
        <ele>174</ele>
        <time>2012-11-01T09:54:43Z</time>
      </trkpt>
      <trkpt lat="43.51115" lon="6.7909">
        <ele>175</ele>
        <time>2012-11-01T09:54:44Z</time>
      </trkpt>
      <trkpt lat="43.51114" lon="6.79094">
        <ele>175</ele>
        <time>2012-11-01T09:54:44Z</time>
      </trkpt>
      <trkpt lat="43.51113" lon="6.79097">
        <ele>175</ele>
        <time>2012-11-01T09:54:45Z</time>
      </trkpt>
      <trkpt lat="43.51112" lon="6.791">
        <ele>175</ele>
        <time>2012-11-01T09:54:46Z</time>
      </trkpt>
      <trkpt lat="43.51111" lon="6.79103">
        <ele>176</ele>
        <time>2012-11-01T09:54:48Z</time>
      </trkpt>
      <trkpt lat="43.51109" lon="6.79106">
        <ele>176</ele>
        <time>2012-11-01T09:54:48Z</time>
      </trkpt>
      <trkpt lat="43.51108" lon="6.79109">
        <ele>176</ele>
        <time>2012-11-01T09:54:49Z</time>
      </trkpt>
      <trkpt lat="43.51107" lon="6.79112">
        <ele>176</ele>
        <time>2012-11-01T09:54:50Z</time>
      </trkpt>
      <trkpt lat="43.51105" lon="6.79115">
        <ele>177</ele>
        <time>2012-11-01T09:54:52Z</time>
      </trkpt>
      <trkpt lat="43.51104" lon="6.79118">
        <ele>177</ele>
        <time>2012-11-01T09:54:53Z</time>
      </trkpt>
      <trkpt lat="43.51102" lon="6.7912">
        <ele>177</ele>
        <time>2012-11-01T09:54:54Z</time>
      </trkpt>
      <trkpt lat="43.51101" lon="6.79122">
        <ele>177</ele>
        <time>2012-11-01T09:54:54Z</time>
      </trkpt>
      <trkpt lat="43.511" lon="6.79125">
        <ele>177</ele>
        <time>2012-11-01T09:54:55Z</time>
      </trkpt>
      <trkpt lat="43.511" lon="6.79128">
        <ele>178</ele>
        <time>2012-11-01T09:54:57Z</time>
      </trkpt>
      <trkpt lat="43.51099" lon="6.7913">
        <ele>178</ele>
        <time>2012-11-01T09:54:57Z</time>
      </trkpt>
      <trkpt lat="43.51098" lon="6.79132">
        <ele>178</ele>
        <time>2012-11-01T09:54:58Z</time>
      </trkpt>
      <trkpt lat="43.51097" lon="6.79134">
        <ele>179</ele>
        <time>2012-11-01T09:54:59Z</time>
      </trkpt>
      <trkpt lat="43.51096" lon="6.79135">
        <ele>179</ele>
        <time>2012-11-01T09:55:00Z</time>
      </trkpt>
      <trkpt lat="43.51094" lon="6.79135">
        <ele>180</ele>
        <time>2012-11-01T09:55:01Z</time>
      </trkpt>
      <trkpt lat="43.51092" lon="6.79134">
        <ele>180</ele>
        <time>2012-11-01T09:55:02Z</time>
      </trkpt>
      <trkpt lat="43.5109" lon="6.79134">
        <ele>180</ele>
        <time>2012-11-01T09:55:04Z</time>
      </trkpt>
      <trkpt lat="43.51088" lon="6.79134">
        <ele>180</ele>
        <time>2012-11-01T09:55:05Z</time>
      </trkpt>
      <trkpt lat="43.51086" lon="6.79135">
        <ele>180</ele>
        <time>2012-11-01T09:55:05Z</time>
      </trkpt>
      <trkpt lat="43.51084" lon="6.79137">
        <ele>180</ele>
        <time>2012-11-01T09:55:07Z</time>
      </trkpt>
      <trkpt lat="43.51082" lon="6.79139">
        <ele>180</ele>
        <time>2012-11-01T09:55:08Z</time>
      </trkpt>
      <trkpt lat="43.5108" lon="6.7914">
        <ele>180</ele>
        <time>2012-11-01T09:55:09Z</time>
      </trkpt>
      <trkpt lat="43.51078" lon="6.79142">
        <ele>180</ele>
        <time>2012-11-01T09:55:09Z</time>
      </trkpt>
      <trkpt lat="43.51075" lon="6.79143">
        <ele>181</ele>
        <time>2012-11-01T09:55:10Z</time>
      </trkpt>
      <trkpt lat="43.51072" lon="6.79145">
        <ele>181</ele>
        <time>2012-11-01T09:55:12Z</time>
      </trkpt>
      <trkpt lat="43.5107" lon="6.79146">
        <ele>181</ele>
        <time>2012-11-01T09:55:12Z</time>
      </trkpt>
      <trkpt lat="43.51068" lon="6.79148">
        <ele>181</ele>
        <time>2012-11-01T09:55:13Z</time>
      </trkpt>
      <trkpt lat="43.51065" lon="6.79149">
        <ele>182</ele>
        <time>2012-11-01T09:55:15Z</time>
      </trkpt>
      <trkpt lat="43.51063" lon="6.79152">
        <ele>182</ele>
        <time>2012-11-01T09:55:16Z</time>
      </trkpt>
      <trkpt lat="43.51061" lon="6.79153">
        <ele>182</ele>
        <time>2012-11-01T09:55:17Z</time>
      </trkpt>
      <trkpt lat="43.51058" lon="6.79155">
        <ele>182</ele>
        <time>2012-11-01T09:55:18Z</time>
      </trkpt>
      <trkpt lat="43.51055" lon="6.79156">
        <ele>183</ele>
        <time>2012-11-01T09:55:18Z</time>
      </trkpt>
      <trkpt lat="43.51053" lon="6.79158">
        <ele>183</ele>
        <time>2012-11-01T09:55:20Z</time>
      </trkpt>
      <trkpt lat="43.5105" lon="6.79159">
        <ele>183</ele>
        <time>2012-11-01T09:55:21Z</time>
      </trkpt>
      <trkpt lat="43.51048" lon="6.79162">
        <ele>183</ele>
        <time>2012-11-01T09:55:22Z</time>
      </trkpt>
      <trkpt lat="43.51045" lon="6.79163">
        <ele>183</ele>
        <time>2012-11-01T09:55:23Z</time>
      </trkpt>
      <trkpt lat="43.51043" lon="6.79165">
        <ele>184</ele>
        <time>2012-11-01T09:55:23Z</time>
      </trkpt>
      <trkpt lat="43.5104" lon="6.79167">
        <ele>184</ele>
        <time>2012-11-01T09:55:25Z</time>
      </trkpt>
      <trkpt lat="43.51038" lon="6.79169">
        <ele>184</ele>
        <time>2012-11-01T09:55:26Z</time>
      </trkpt>
      <trkpt lat="43.51035" lon="6.7917">
        <ele>184</ele>
        <time>2012-11-01T09:55:26Z</time>
      </trkpt>
      <trkpt lat="43.51033" lon="6.79172">
        <ele>184</ele>
        <time>2012-11-01T09:55:27Z</time>
      </trkpt>
      <trkpt lat="43.51031" lon="6.79174">
        <ele>184</ele>
        <time>2012-11-01T09:55:28Z</time>
      </trkpt>
      <trkpt lat="43.51029" lon="6.79176">
        <ele>184</ele>
        <time>2012-11-01T09:55:29Z</time>
      </trkpt>
      <trkpt lat="43.51027" lon="6.79178">
        <ele>184</ele>
        <time>2012-11-01T09:55:30Z</time>
      </trkpt>
      <trkpt lat="43.51024" lon="6.7918">
        <ele>184</ele>
        <time>2012-11-01T09:55:31Z</time>
      </trkpt>
      <trkpt lat="43.51022" lon="6.79182">
        <ele>184</ele>
        <time>2012-11-01T09:55:33Z</time>
      </trkpt>
      <trkpt lat="43.5102" lon="6.79183">
        <ele>184</ele>
        <time>2012-11-01T09:55:33Z</time>
      </trkpt>
      <trkpt lat="43.51018" lon="6.79186">
        <ele>184</ele>
        <time>2012-11-01T09:55:34Z</time>
      </trkpt>
      <trkpt lat="43.51016" lon="6.79188">
        <ele>184</ele>
        <time>2012-11-01T09:55:36Z</time>
      </trkpt>
      <trkpt lat="43.51014" lon="6.7919">
        <ele>184</ele>
        <time>2012-11-01T09:55:37Z</time>
      </trkpt>
      <trkpt lat="43.51012" lon="6.79193">
        <ele>184</ele>
        <time>2012-11-01T09:55:37Z</time>
      </trkpt>
      <trkpt lat="43.5101" lon="6.79195">
        <ele>184</ele>
        <time>2012-11-01T09:55:38Z</time>
      </trkpt>
      <trkpt lat="43.51008" lon="6.79197">
        <ele>184</ele>
        <time>2012-11-01T09:55:40Z</time>
      </trkpt>
      <trkpt lat="43.51006" lon="6.792">
        <ele>184</ele>
        <time>2012-11-01T09:55:41Z</time>
      </trkpt>
      <trkpt lat="43.51004" lon="6.79203">
        <ele>184</ele>
        <time>2012-11-01T09:55:41Z</time>
      </trkpt>
      <trkpt lat="43.51003" lon="6.79206">
        <ele>184</ele>
        <time>2012-11-01T09:55:43Z</time>
      </trkpt>
      <trkpt lat="43.51001" lon="6.79209">
        <ele>184</ele>
        <time>2012-11-01T09:55:43Z</time>
      </trkpt>
      <trkpt lat="43.50999" lon="6.79211">
        <ele>184</ele>
        <time>2012-11-01T09:55:45Z</time>
      </trkpt>
      <trkpt lat="43.50997" lon="6.79214">
        <ele>184</ele>
        <time>2012-11-01T09:55:45Z</time>
      </trkpt>
      <trkpt lat="43.50995" lon="6.79217">
        <ele>184</ele>
        <time>2012-11-01T09:55:47Z</time>
      </trkpt>
      <trkpt lat="43.50993" lon="6.7922">
        <ele>184</ele>
        <time>2012-11-01T09:55:48Z</time>
      </trkpt>
      <trkpt lat="43.50991" lon="6.79223">
        <ele>184</ele>
        <time>2012-11-01T09:55:49Z</time>
      </trkpt>
      <trkpt lat="43.50989" lon="6.79226">
        <ele>184</ele>
        <time>2012-11-01T09:55:49Z</time>
      </trkpt>
      <trkpt lat="43.50987" lon="6.79229">
        <ele>184</ele>
        <time>2012-11-01T09:55:51Z</time>
      </trkpt>
      <trkpt lat="43.50985" lon="6.79231">
        <ele>184</ele>
        <time>2012-11-01T09:55:52Z</time>
      </trkpt>
      <trkpt lat="43.50983" lon="6.79234">
        <ele>184</ele>
        <time>2012-11-01T09:55:53Z</time>
      </trkpt>
      <trkpt lat="43.5098" lon="6.79237">
        <ele>184</ele>
        <time>2012-11-01T09:55:53Z</time>
      </trkpt>
      <trkpt lat="43.50978" lon="6.7924">
        <ele>184</ele>
        <time>2012-11-01T09:55:55Z</time>
      </trkpt>
      <trkpt lat="43.50976" lon="6.79243">
        <ele>184</ele>
        <time>2012-11-01T09:55:55Z</time>
      </trkpt>
      <trkpt lat="43.50974" lon="6.79246">
        <ele>184</ele>
        <time>2012-11-01T09:55:57Z</time>
      </trkpt>
      <trkpt lat="43.50972" lon="6.79249">
        <ele>184</ele>
        <time>2012-11-01T09:55:57Z</time>
      </trkpt>
      <trkpt lat="43.5097" lon="6.79252">
        <ele>184</ele>
        <time>2012-11-01T09:55:59Z</time>
      </trkpt>
      <trkpt lat="43.50968" lon="6.79255">
        <ele>184</ele>
        <time>2012-11-01T09:56:00Z</time>
      </trkpt>
      <trkpt lat="43.50966" lon="6.79258">
        <ele>184</ele>
        <time>2012-11-01T09:56:01Z</time>
      </trkpt>
      <trkpt lat="43.50964" lon="6.79261">
        <ele>184</ele>
        <time>2012-11-01T09:56:01Z</time>
      </trkpt>
      <trkpt lat="43.50962" lon="6.79264">
        <ele>184</ele>
        <time>2012-11-01T09:56:02Z</time>
      </trkpt>
      <trkpt lat="43.50959" lon="6.79267">
        <ele>184</ele>
        <time>2012-11-01T09:56:04Z</time>
      </trkpt>
      <trkpt lat="43.50957" lon="6.79269">
        <ele>184</ele>
        <time>2012-11-01T09:56:05Z</time>
      </trkpt>
      <trkpt lat="43.50956" lon="6.79272">
        <ele>184</ele>
        <time>2012-11-01T09:56:05Z</time>
      </trkpt>
      <trkpt lat="43.50953" lon="6.79275">
        <ele>184</ele>
        <time>2012-11-01T09:56:06Z</time>
      </trkpt>
      <trkpt lat="43.50951" lon="6.79278">
        <ele>184</ele>
        <time>2012-11-01T09:56:07Z</time>
      </trkpt>
      <trkpt lat="43.50949" lon="6.79281">
        <ele>184</ele>
        <time>2012-11-01T09:56:09Z</time>
      </trkpt>
      <trkpt lat="43.50947" lon="6.79284">
        <ele>184</ele>
        <time>2012-11-01T09:56:09Z</time>
      </trkpt>
      <trkpt lat="43.50945" lon="6.79287">
        <ele>184</ele>
        <time>2012-11-01T09:56:11Z</time>
      </trkpt>
      <trkpt lat="43.50943" lon="6.7929">
        <ele>184</ele>
        <time>2012-11-01T09:56:12Z</time>
      </trkpt>
      <trkpt lat="43.5094" lon="6.79293">
        <ele>184</ele>
        <time>2012-11-01T09:56:13Z</time>
      </trkpt>
      <trkpt lat="43.50938" lon="6.79295">
        <ele>184</ele>
        <time>2012-11-01T09:56:13Z</time>
      </trkpt>
      <trkpt lat="43.50935" lon="6.79298">
        <ele>184</ele>
        <time>2012-11-01T09:56:15Z</time>
      </trkpt>
      <trkpt lat="43.50933" lon="6.79301">
        <ele>184</ele>
        <time>2012-11-01T09:56:16Z</time>
      </trkpt>
      <trkpt lat="43.50931" lon="6.79304">
        <ele>185</ele>
        <time>2012-11-01T09:56:17Z</time>
      </trkpt>
      <trkpt lat="43.50929" lon="6.79307">
        <ele>185</ele>
        <time>2012-11-01T09:56:18Z</time>
      </trkpt>
      <trkpt lat="43.50926" lon="6.79309">
        <ele>185</ele>
        <time>2012-11-01T09:56:18Z</time>
      </trkpt>
      <trkpt lat="43.50924" lon="6.79312">
        <ele>185</ele>
        <time>2012-11-01T09:56:20Z</time>
      </trkpt>
      <trkpt lat="43.50921" lon="6.79314">
        <ele>186</ele>
        <time>2012-11-01T09:56:21Z</time>
      </trkpt>
      <trkpt lat="43.50918" lon="6.79316">
        <ele>186</ele>
        <time>2012-11-01T09:56:21Z</time>
      </trkpt>
      <trkpt lat="43.50915" lon="6.79318">
        <ele>187</ele>
        <time>2012-11-01T09:56:23Z</time>
      </trkpt>
      <trkpt lat="43.50912" lon="6.79319">
        <ele>187</ele>
        <time>2012-11-01T09:56:24Z</time>
      </trkpt>
      <trkpt lat="43.50909" lon="6.79321">
        <ele>188</ele>
        <time>2012-11-01T09:56:25Z</time>
      </trkpt>
      <trkpt lat="43.50906" lon="6.79322">
        <ele>189</ele>
        <time>2012-11-01T09:56:25Z</time>
      </trkpt>
      <trkpt lat="43.50903" lon="6.79323">
        <ele>189</ele>
        <time>2012-11-01T09:56:27Z</time>
      </trkpt>
      <trkpt lat="43.509" lon="6.79323">
        <ele>190</ele>
        <time>2012-11-01T09:56:27Z</time>
      </trkpt>
      <trkpt lat="43.50897" lon="6.79322">
        <ele>190</ele>
        <time>2012-11-01T09:56:28Z</time>
      </trkpt>
      <trkpt lat="43.50894" lon="6.79321">
        <ele>190</ele>
        <time>2012-11-01T09:56:29Z</time>
      </trkpt>
      <trkpt lat="43.50891" lon="6.79319">
        <ele>191</ele>
        <time>2012-11-01T09:56:31Z</time>
      </trkpt>
      <trkpt lat="43.50889" lon="6.79317">
        <ele>191</ele>
        <time>2012-11-01T09:56:32Z</time>
      </trkpt>
      <trkpt lat="43.50886" lon="6.79315">
        <ele>191</ele>
        <time>2012-11-01T09:56:33Z</time>
      </trkpt>
      <trkpt lat="43.50884" lon="6.79313">
        <ele>191</ele>
        <time>2012-11-01T09:56:33Z</time>
      </trkpt>
      <trkpt lat="43.50881" lon="6.7931">
        <ele>191</ele>
        <time>2012-11-01T09:56:35Z</time>
      </trkpt>
      <trkpt lat="43.50879" lon="6.79307">
        <ele>191</ele>
        <time>2012-11-01T09:56:36Z</time>
      </trkpt>
      <trkpt lat="43.50877" lon="6.79304">
        <ele>191</ele>
        <time>2012-11-01T09:56:36Z</time>
      </trkpt>
      <trkpt lat="43.50874" lon="6.79301">
        <ele>192</ele>
        <time>2012-11-01T09:56:37Z</time>
      </trkpt>
      <trkpt lat="43.50872" lon="6.79298">
        <ele>192</ele>
        <time>2012-11-01T09:56:39Z</time>
      </trkpt>
      <trkpt lat="43.5087" lon="6.79295">
        <ele>192</ele>
        <time>2012-11-01T09:56:40Z</time>
      </trkpt>
      <trkpt lat="43.50868" lon="6.79292">
        <ele>192</ele>
        <time>2012-11-01T09:56:40Z</time>
      </trkpt>
      <trkpt lat="43.50866" lon="6.79289">
        <ele>192</ele>
        <time>2012-11-01T09:56:41Z</time>
      </trkpt>
      <trkpt lat="43.50864" lon="6.79286">
        <ele>192</ele>
        <time>2012-11-01T09:56:42Z</time>
      </trkpt>
      <trkpt lat="43.50861" lon="6.79284">
        <ele>192</ele>
        <time>2012-11-01T09:56:44Z</time>
      </trkpt>
      <trkpt lat="43.5086" lon="6.7928">
        <ele>192</ele>
        <time>2012-11-01T09:56:45Z</time>
      </trkpt>
      <trkpt lat="43.50858" lon="6.79277">
        <ele>193</ele>
        <time>2012-11-01T09:56:45Z</time>
      </trkpt>
      <trkpt lat="43.50856" lon="6.79274">
        <ele>193</ele>
        <time>2012-11-01T09:56:47Z</time>
      </trkpt>
      <trkpt lat="43.50855" lon="6.7927">
        <ele>193</ele>
        <time>2012-11-01T09:56:48Z</time>
      </trkpt>
      <trkpt lat="43.50854" lon="6.79267">
        <ele>193</ele>
        <time>2012-11-01T09:56:49Z</time>
      </trkpt>
      <trkpt lat="43.50853" lon="6.79262">
        <ele>194</ele>
        <time>2012-11-01T09:56:49Z</time>
      </trkpt>
      <trkpt lat="43.50851" lon="6.79258">
        <ele>194</ele>
        <time>2012-11-01T09:56:50Z</time>
      </trkpt>
      <trkpt lat="43.50851" lon="6.79254">
        <ele>195</ele>
        <time>2012-11-01T09:56:52Z</time>
      </trkpt>
      <trkpt lat="43.5085" lon="6.7925">
        <ele>195</ele>
        <time>2012-11-01T09:56:52Z</time>
      </trkpt>
      <trkpt lat="43.50848" lon="6.79245">
        <ele>196</ele>
        <time>2012-11-01T09:56:53Z</time>
      </trkpt>
      <trkpt lat="43.50847" lon="6.79241">
        <ele>197</ele>
        <time>2012-11-01T09:56:55Z</time>
      </trkpt>
      <trkpt lat="43.50846" lon="6.79237">
        <ele>197</ele>
        <time>2012-11-01T09:56:56Z</time>
      </trkpt>
      <trkpt lat="43.50844" lon="6.79233">
        <ele>198</ele>
        <time>2012-11-01T09:56:57Z</time>
      </trkpt>
      <trkpt lat="43.50843" lon="6.79229">
        <ele>198</ele>
        <time>2012-11-01T09:56:57Z</time>
      </trkpt>
      <trkpt lat="43.50841" lon="6.79226">
        <ele>198</ele>
        <time>2012-11-01T09:56:58Z</time>
      </trkpt>
      <trkpt lat="43.50839" lon="6.79222">
        <ele>199</ele>
        <time>2012-11-01T09:57:00Z</time>
      </trkpt>
      <trkpt lat="43.50837" lon="6.79219">
        <ele>199</ele>
        <time>2012-11-01T09:57:01Z</time>
      </trkpt>
      <trkpt lat="43.50835" lon="6.79215">
        <ele>199</ele>
        <time>2012-11-01T09:57:01Z</time>
      </trkpt>
      <trkpt lat="43.50833" lon="6.79212">
        <ele>199</ele>
        <time>2012-11-01T09:57:02Z</time>
      </trkpt>
      <trkpt lat="43.50831" lon="6.79209">
        <ele>200</ele>
        <time>2012-11-01T09:57:04Z</time>
      </trkpt>
      <trkpt lat="43.50828" lon="6.79206">
        <ele>200</ele>
        <time>2012-11-01T09:57:04Z</time>
      </trkpt>
      <trkpt lat="43.50826" lon="6.79204">
        <ele>200</ele>
        <time>2012-11-01T09:57:05Z</time>
      </trkpt>
      <trkpt lat="43.50823" lon="6.79201">
        <ele>200</ele>
        <time>2012-11-01T09:57:07Z</time>
      </trkpt>
      <trkpt lat="43.5082" lon="6.79199">
        <ele>200</ele>
        <time>2012-11-01T09:57:07Z</time>
      </trkpt>
      <trkpt lat="43.50817" lon="6.79197">
        <ele>200</ele>
        <time>2012-11-01T09:57:08Z</time>
      </trkpt>
      <trkpt lat="43.50814" lon="6.79195">
        <ele>200</ele>
        <time>2012-11-01T09:57:10Z</time>
      </trkpt>
      <trkpt lat="43.50812" lon="6.79193">
        <ele>200</ele>
        <time>2012-11-01T09:57:11Z</time>
      </trkpt>
      <trkpt lat="43.50809" lon="6.79191">
        <ele>200</ele>
        <time>2012-11-01T09:57:12Z</time>
      </trkpt>
      <trkpt lat="43.50806" lon="6.7919">
        <ele>200</ele>
        <time>2012-11-01T09:57:13Z</time>
      </trkpt>
      <trkpt lat="43.50803" lon="6.79189">
        <ele>200</ele>
        <time>2012-11-01T09:57:14Z</time>
      </trkpt>
      <trkpt lat="43.508" lon="6.79187">
        <ele>200</ele>
        <time>2012-11-01T09:57:14Z</time>
      </trkpt>
      <trkpt lat="43.50797" lon="6.79186">
        <ele>200</ele>
        <time>2012-11-01T09:57:16Z</time>
      </trkpt>
      <trkpt lat="43.50794" lon="6.79185">
        <ele>200</ele>
        <time>2012-11-01T09:57:17Z</time>
      </trkpt>
      <trkpt lat="43.50791" lon="6.79184">
        <ele>200</ele>
        <time>2012-11-01T09:57:17Z</time>
      </trkpt>
      <trkpt lat="43.50788" lon="6.79182">
        <ele>200</ele>
        <time>2012-11-01T09:57:18Z</time>
      </trkpt>
      <trkpt lat="43.50785" lon="6.79181">
        <ele>200</ele>
        <time>2012-11-01T09:57:20Z</time>
      </trkpt>
      <trkpt lat="43.50782" lon="6.79181">
        <ele>200</ele>
        <time>2012-11-01T09:57:21Z</time>
      </trkpt>
      <trkpt lat="43.50779" lon="6.7918">
        <ele>200</ele>
        <time>2012-11-01T09:57:21Z</time>
      </trkpt>
      <trkpt lat="43.50776" lon="6.7918">
        <ele>200</ele>
        <time>2012-11-01T09:57:23Z</time>
      </trkpt>
      <trkpt lat="43.50772" lon="6.7918">
        <ele>200</ele>
        <time>2012-11-01T09:57:23Z</time>
      </trkpt>
      <trkpt lat="43.50769" lon="6.7918">
        <ele>200</ele>
        <time>2012-11-01T09:57:25Z</time>
      </trkpt>
      <trkpt lat="43.50766" lon="6.79181">
        <ele>200</ele>
        <time>2012-11-01T09:57:25Z</time>
      </trkpt>
      <trkpt lat="43.50762" lon="6.79182">
        <ele>200</ele>
        <time>2012-11-01T09:57:26Z</time>
      </trkpt>
      <trkpt lat="43.50759" lon="6.79184">
        <ele>200</ele>
        <time>2012-11-01T09:57:28Z</time>
      </trkpt>
      <trkpt lat="43.50757" lon="6.79187">
        <ele>200</ele>
        <time>2012-11-01T09:57:28Z</time>
      </trkpt>
      <trkpt lat="43.50756" lon="6.79191">
        <ele>200</ele>
        <time>2012-11-01T09:57:29Z</time>
      </trkpt>
      <trkpt lat="43.50758" lon="6.79196">
        <ele>200</ele>
        <time>2012-11-01T09:57:31Z</time>
      </trkpt>
      <trkpt lat="43.5076" lon="6.792">
        <ele>200</ele>
        <time>2012-11-01T09:57:31Z</time>
      </trkpt>
      <trkpt lat="43.50763" lon="6.79204">
        <ele>200</ele>
        <time>2012-11-01T09:57:33Z</time>
      </trkpt>
      <trkpt lat="43.50766" lon="6.79206">
        <ele>200</ele>
        <time>2012-11-01T09:57:33Z</time>
      </trkpt>
      <trkpt lat="43.50769" lon="6.79209">
        <ele>200</ele>
        <time>2012-11-01T09:57:34Z</time>
      </trkpt>
      <trkpt lat="43.50772" lon="6.79213">
        <ele>200</ele>
        <time>2012-11-01T09:57:36Z</time>
      </trkpt>
      <trkpt lat="43.50775" lon="6.79215">
        <ele>200</ele>
        <time>2012-11-01T09:57:36Z</time>
      </trkpt>
      <trkpt lat="43.50779" lon="6.79218">
        <ele>200</ele>
        <time>2012-11-01T09:57:37Z</time>
      </trkpt>
      <trkpt lat="43.50782" lon="6.79221">
        <ele>200</ele>
        <time>2012-11-01T09:57:38Z</time>
      </trkpt>
      <trkpt lat="43.50784" lon="6.79224">
        <ele>200</ele>
        <time>2012-11-01T09:57:40Z</time>
      </trkpt>
      <trkpt lat="43.50785" lon="6.79227">
        <ele>200</ele>
        <time>2012-11-01T09:57:40Z</time>
      </trkpt>
      <trkpt lat="43.50787" lon="6.79231">
        <ele>200</ele>
        <time>2012-11-01T09:57:41Z</time>
      </trkpt>
      <trkpt lat="43.50789" lon="6.79234">
        <ele>200</ele>
        <time>2012-11-01T09:57:43Z</time>
      </trkpt>
      <trkpt lat="43.5079" lon="6.79238">
        <ele>200</ele>
        <time>2012-11-01T09:57:44Z</time>
      </trkpt>
      <trkpt lat="43.50791" lon="6.79242">
        <ele>200</ele>
        <time>2012-11-01T09:57:45Z</time>
      </trkpt>
      <trkpt lat="43.50791" lon="6.79245">
        <ele>200</ele>
        <time>2012-11-01T09:57:46Z</time>
      </trkpt>
      <trkpt lat="43.50792" lon="6.79249">
        <ele>200</ele>
        <time>2012-11-01T09:57:46Z</time>
      </trkpt>
      <trkpt lat="43.50792" lon="6.79253">
        <ele>201</ele>
        <time>2012-11-01T09:57:48Z</time>
      </trkpt>
      <trkpt lat="43.50792" lon="6.79258">
        <ele>201</ele>
        <time>2012-11-01T09:57:49Z</time>
      </trkpt>
      <trkpt lat="43.50792" lon="6.79262">
        <ele>202</ele>
        <time>2012-11-01T09:57:50Z</time>
      </trkpt>
      <trkpt lat="43.50792" lon="6.79267">
        <ele>203</ele>
        <time>2012-11-01T09:57:50Z</time>
      </trkpt>
      <trkpt lat="43.50792" lon="6.7927">
        <ele>203</ele>
        <time>2012-11-01T09:57:51Z</time>
      </trkpt>
      <trkpt lat="43.50792" lon="6.79274">
        <ele>204</ele>
        <time>2012-11-01T09:57:52Z</time>
      </trkpt>
      <trkpt lat="43.50792" lon="6.79278">
        <ele>204</ele>
        <time>2012-11-01T09:57:54Z</time>
      </trkpt>
      <trkpt lat="43.50793" lon="6.79283">
        <ele>205</ele>
        <time>2012-11-01T09:57:54Z</time>
      </trkpt>
      <trkpt lat="43.50792" lon="6.79286">
        <ele>205</ele>
        <time>2012-11-01T09:57:55Z</time>
      </trkpt>
      <trkpt lat="43.50792" lon="6.7929">
        <ele>206</ele>
        <time>2012-11-01T09:57:57Z</time>
      </trkpt>
      <trkpt lat="43.50792" lon="6.79294">
        <ele>206</ele>
        <time>2012-11-01T09:57:57Z</time>
      </trkpt>
      <trkpt lat="43.50791" lon="6.79297">
        <ele>207</ele>
        <time>2012-11-01T09:57:59Z</time>
      </trkpt>
      <trkpt lat="43.50791" lon="6.79301">
        <ele>207</ele>
        <time>2012-11-01T09:57:59Z</time>
      </trkpt>
      <trkpt lat="43.5079" lon="6.79305">
        <ele>207</ele>
        <time>2012-11-01T09:58:01Z</time>
      </trkpt>
      <trkpt lat="43.5079" lon="6.79309">
        <ele>208</ele>
        <time>2012-11-01T09:58:01Z</time>
      </trkpt>
      <trkpt lat="43.50789" lon="6.79312">
        <ele>208</ele>
        <time>2012-11-01T09:58:02Z</time>
      </trkpt>
      <trkpt lat="43.50787" lon="6.79316">
        <ele>208</ele>
        <time>2012-11-01T09:58:04Z</time>
      </trkpt>
      <trkpt lat="43.50787" lon="6.79319">
        <ele>209</ele>
        <time>2012-11-01T09:58:04Z</time>
      </trkpt>
      <trkpt lat="43.50785" lon="6.79322">
        <ele>209</ele>
        <time>2012-11-01T09:58:05Z</time>
      </trkpt>
      <trkpt lat="43.50784" lon="6.79325">
        <ele>210</ele>
        <time>2012-11-01T09:58:07Z</time>
      </trkpt>
      <trkpt lat="43.50782" lon="6.79328">
        <ele>210</ele>
        <time>2012-11-01T09:58:07Z</time>
      </trkpt>
      <trkpt lat="43.5078" lon="6.7933">
        <ele>210</ele>
        <time>2012-11-01T09:58:08Z</time>
      </trkpt>
      <trkpt lat="43.50778" lon="6.79332">
        <ele>210</ele>
        <time>2012-11-01T09:58:09Z</time>
      </trkpt>
      <trkpt lat="43.50776" lon="6.79334">
        <ele>210</ele>
        <time>2012-11-01T09:58:11Z</time>
      </trkpt>
      <trkpt lat="43.50774" lon="6.79336">
        <ele>211</ele>
        <time>2012-11-01T09:58:12Z</time>
      </trkpt>
      <trkpt lat="43.50772" lon="6.79338">
        <ele>211</ele>
        <time>2012-11-01T09:58:12Z</time>
      </trkpt>
      <trkpt lat="43.50769" lon="6.7934">
        <ele>211</ele>
        <time>2012-11-01T09:58:13Z</time>
      </trkpt>
      <trkpt lat="43.50767" lon="6.79341">
        <ele>211</ele>
        <time>2012-11-01T09:58:15Z</time>
      </trkpt>
      <trkpt lat="43.50764" lon="6.79342">
        <ele>211</ele>
        <time>2012-11-01T09:58:16Z</time>
      </trkpt>
      <trkpt lat="43.50763" lon="6.79344">
        <ele>211</ele>
        <time>2012-11-01T09:58:17Z</time>
      </trkpt>
      <trkpt lat="43.50761" lon="6.79346">
        <ele>211</ele>
        <time>2012-11-01T09:58:17Z</time>
      </trkpt>
      <trkpt lat="43.50758" lon="6.79347">
        <ele>211</ele>
        <time>2012-11-01T09:58:19Z</time>
      </trkpt>
      <trkpt lat="43.50756" lon="6.7935">
        <ele>211</ele>
        <time>2012-11-01T09:58:19Z</time>
      </trkpt>
      <trkpt lat="43.50755" lon="6.79352">
        <ele>211</ele>
        <time>2012-11-01T09:58:21Z</time>
      </trkpt>
      <trkpt lat="43.50754" lon="6.79355">
        <ele>212</ele>
        <time>2012-11-01T09:58:21Z</time>
      </trkpt>
      <trkpt lat="43.50754" lon="6.79358">
        <ele>212</ele>
        <time>2012-11-01T09:58:23Z</time>
      </trkpt>
      <trkpt lat="43.50754" lon="6.79362">
        <ele>213</ele>
        <time>2012-11-01T09:58:24Z</time>
      </trkpt>
      <trkpt lat="43.50755" lon="6.79365">
        <ele>213</ele>
        <time>2012-11-01T09:58:25Z</time>
      </trkpt>
      <trkpt lat="43.50756" lon="6.79368">
        <ele>214</ele>
        <time>2012-11-01T09:58:26Z</time>
      </trkpt>
      <trkpt lat="43.50757" lon="6.79372">
        <ele>214</ele>
        <time>2012-11-01T09:58:27Z</time>
      </trkpt>
      <trkpt lat="43.50759" lon="6.79375">
        <ele>215</ele>
        <time>2012-11-01T09:58:27Z</time>
      </trkpt>
      <trkpt lat="43.5076" lon="6.79378">
        <ele>215</ele>
        <time>2012-11-01T09:58:29Z</time>
      </trkpt>
      <trkpt lat="43.50762" lon="6.79381">
        <ele>215</ele>
        <time>2012-11-01T09:58:29Z</time>
      </trkpt>
      <trkpt lat="43.50764" lon="6.79384">
        <ele>215</ele>
        <time>2012-11-01T09:58:31Z</time>
      </trkpt>
      <trkpt lat="43.50765" lon="6.79387">
        <ele>215</ele>
        <time>2012-11-01T09:58:32Z</time>
      </trkpt>
      <trkpt lat="43.50766" lon="6.7939">
        <ele>215</ele>
        <time>2012-11-01T09:58:33Z</time>
      </trkpt>
      <trkpt lat="43.50767" lon="6.79393">
        <ele>215</ele>
        <time>2012-11-01T09:58:33Z</time>
      </trkpt>
      <trkpt lat="43.50768" lon="6.79397">
        <ele>215</ele>
        <time>2012-11-01T09:58:35Z</time>
      </trkpt>
      <trkpt lat="43.50769" lon="6.794">
        <ele>215</ele>
        <time>2012-11-01T09:58:36Z</time>
      </trkpt>
      <trkpt lat="43.5077" lon="6.79403">
        <ele>215</ele>
        <time>2012-11-01T09:58:37Z</time>
      </trkpt>
      <trkpt lat="43.50771" lon="6.79407">
        <ele>215</ele>
        <time>2012-11-01T09:58:37Z</time>
      </trkpt>
      <trkpt lat="43.50772" lon="6.7941">
        <ele>215</ele>
        <time>2012-11-01T09:58:38Z</time>
      </trkpt>
      <trkpt lat="43.50772" lon="6.79414">
        <ele>215</ele>
        <time>2012-11-01T09:58:39Z</time>
      </trkpt>
      <trkpt lat="43.50772" lon="6.79417">
        <ele>215</ele>
        <time>2012-11-01T09:58:41Z</time>
      </trkpt>
      <trkpt lat="43.50772" lon="6.79421">
        <ele>216</ele>
        <time>2012-11-01T09:58:41Z</time>
      </trkpt>
      <trkpt lat="43.50772" lon="6.79424">
        <ele>217</ele>
        <time>2012-11-01T09:58:43Z</time>
      </trkpt>
      <trkpt lat="43.50772" lon="6.79428">
        <ele>217</ele>
        <time>2012-11-01T09:58:44Z</time>
      </trkpt>
      <trkpt lat="43.50771" lon="6.79431">
        <ele>218</ele>
        <time>2012-11-01T09:58:45Z</time>
      </trkpt>
      <trkpt lat="43.50771" lon="6.79435">
        <ele>219</ele>
        <time>2012-11-01T09:58:45Z</time>
      </trkpt>
      <trkpt lat="43.50771" lon="6.79438">
        <ele>219</ele>
        <time>2012-11-01T09:58:47Z</time>
      </trkpt>
      <trkpt lat="43.5077" lon="6.79442">
        <ele>219</ele>
        <time>2012-11-01T09:58:48Z</time>
      </trkpt>
      <trkpt lat="43.50769" lon="6.79446">
        <ele>220</ele>
        <time>2012-11-01T09:58:49Z</time>
      </trkpt>
      <trkpt lat="43.50769" lon="6.79449">
        <ele>220</ele>
        <time>2012-11-01T09:58:49Z</time>
      </trkpt>
      <trkpt lat="43.50768" lon="6.79453">
        <ele>220</ele>
        <time>2012-11-01T09:58:50Z</time>
      </trkpt>
      <trkpt lat="43.50767" lon="6.79456">
        <ele>220</ele>
        <time>2012-11-01T09:58:52Z</time>
      </trkpt>
      <trkpt lat="43.50766" lon="6.79459">
        <ele>220</ele>
        <time>2012-11-01T09:58:52Z</time>
      </trkpt>
      <trkpt lat="43.50765" lon="6.79462">
        <ele>220</ele>
        <time>2012-11-01T09:58:53Z</time>
      </trkpt>
      <trkpt lat="43.50764" lon="6.79465">
        <ele>220</ele>
        <time>2012-11-01T09:58:54Z</time>
      </trkpt>
      <trkpt lat="43.50763" lon="6.79467">
        <ele>220</ele>
        <time>2012-11-01T09:58:56Z</time>
      </trkpt>
      <trkpt lat="43.50762" lon="6.7947">
        <ele>221</ele>
        <time>2012-11-01T09:58:57Z</time>
      </trkpt>
      <trkpt lat="43.50761" lon="6.79473">
        <ele>221</ele>
        <time>2012-11-01T09:58:58Z</time>
      </trkpt>
      <trkpt lat="43.50759" lon="6.79476">
        <ele>221</ele>
        <time>2012-11-01T09:58:59Z</time>
      </trkpt>
      <trkpt lat="43.50758" lon="6.79479">
        <ele>221</ele>
        <time>2012-11-01T09:58:59Z</time>
      </trkpt>
      <trkpt lat="43.50756" lon="6.79482">
        <ele>221</ele>
        <time>2012-11-01T09:59:01Z</time>
      </trkpt>
      <trkpt lat="43.50755" lon="6.79484">
        <ele>221</ele>
        <time>2012-11-01T09:59:01Z</time>
      </trkpt>
      <trkpt lat="43.50753" lon="6.79486">
        <ele>221</ele>
        <time>2012-11-01T09:59:02Z</time>
      </trkpt>
      <trkpt lat="43.50752" lon="6.79488">
        <ele>221</ele>
        <time>2012-11-01T09:59:04Z</time>
      </trkpt>
      <trkpt lat="43.5075" lon="6.79491">
        <ele>221</ele>
        <time>2012-11-01T09:59:04Z</time>
      </trkpt>
      <trkpt lat="43.50748" lon="6.79493">
        <ele>221</ele>
        <time>2012-11-01T09:59:05Z</time>
      </trkpt>
      <trkpt lat="43.50746" lon="6.79495">
        <ele>221</ele>
        <time>2012-11-01T09:59:06Z</time>
      </trkpt>
      <trkpt lat="43.50745" lon="6.79498">
        <ele>221</ele>
        <time>2012-11-01T09:59:08Z</time>
      </trkpt>
      <trkpt lat="43.50743" lon="6.795">
        <ele>221</ele>
        <time>2012-11-01T09:59:09Z</time>
      </trkpt>
      <trkpt lat="43.50742" lon="6.79503">
        <ele>221</ele>
        <time>2012-11-01T09:59:09Z</time>
      </trkpt>
      <trkpt lat="43.5074" lon="6.79505">
        <ele>221</ele>
        <time>2012-11-01T09:59:11Z</time>
      </trkpt>
      <trkpt lat="43.5074" lon="6.79508">
        <ele>221</ele>
        <time>2012-11-01T09:59:12Z</time>
      </trkpt>
      <trkpt lat="43.50739" lon="6.79511">
        <ele>221</ele>
        <time>2012-11-01T09:59:13Z</time>
      </trkpt>
      <trkpt lat="43.50737" lon="6.79514">
        <ele>221</ele>
        <time>2012-11-01T09:59:13Z</time>
      </trkpt>
      <trkpt lat="43.50737" lon="6.79517">
        <ele>221</ele>
        <time>2012-11-01T09:59:15Z</time>
      </trkpt>
      <trkpt lat="43.50736" lon="6.7952">
        <ele>221</ele>
        <time>2012-11-01T09:59:16Z</time>
      </trkpt>
      <trkpt lat="43.50735" lon="6.79523">
        <ele>221</ele>
        <time>2012-11-01T09:59:17Z</time>
      </trkpt>
      <trkpt lat="43.50734" lon="6.79525">
        <ele>221</ele>
        <time>2012-11-01T09:59:17Z</time>
      </trkpt>
      <trkpt lat="43.50733" lon="6.79528">
        <ele>221</ele>
        <time>2012-11-01T09:59:19Z</time>
      </trkpt>
      <trkpt lat="43.50732" lon="6.79531">
        <ele>222</ele>
        <time>2012-11-01T09:59:20Z</time>
      </trkpt>
      <trkpt lat="43.50731" lon="6.79534">
        <ele>222</ele>
        <time>2012-11-01T09:59:21Z</time>
      </trkpt>
      <trkpt lat="43.5073" lon="6.79536">
        <ele>223</ele>
        <time>2012-11-01T09:59:21Z</time>
      </trkpt>
      <trkpt lat="43.50729" lon="6.79539">
        <ele>224</ele>
        <time>2012-11-01T09:59:22Z</time>
      </trkpt>
      <trkpt lat="43.50728" lon="6.79542">
        <ele>224</ele>
        <time>2012-11-01T09:59:24Z</time>
      </trkpt>
      <trkpt lat="43.50726" lon="6.79544">
        <ele>225</ele>
        <time>2012-11-01T09:59:25Z</time>
      </trkpt>
      <trkpt lat="43.50725" lon="6.79546">
        <ele>225</ele>
        <time>2012-11-01T09:59:25Z</time>
      </trkpt>
      <trkpt lat="43.50723" lon="6.79548">
        <ele>225</ele>
        <time>2012-11-01T09:59:26Z</time>
      </trkpt>
      <trkpt lat="43.50721" lon="6.7955">
        <ele>226</ele>
        <time>2012-11-01T09:59:28Z</time>
      </trkpt>
      <trkpt lat="43.50719" lon="6.79551">
        <ele>226</ele>
        <time>2012-11-01T09:59:28Z</time>
      </trkpt>
      <trkpt lat="43.50717" lon="6.79552">
        <ele>226</ele>
        <time>2012-11-01T09:59:30Z</time>
      </trkpt>
      <trkpt lat="43.50715" lon="6.79553">
        <ele>227</ele>
        <time>2012-11-01T09:59:31Z</time>
      </trkpt>
      <trkpt lat="43.50713" lon="6.79553">
        <ele>227</ele>
        <time>2012-11-01T09:59:32Z</time>
      </trkpt>
      <trkpt lat="43.50711" lon="6.79554">
        <ele>227</ele>
        <time>2012-11-01T09:59:33Z</time>
      </trkpt>
      <trkpt lat="43.50709" lon="6.79554">
        <ele>227</ele>
        <time>2012-11-01T09:59:33Z</time>
      </trkpt>
      <trkpt lat="43.50706" lon="6.79554">
        <ele>228</ele>
        <time>2012-11-01T09:59:34Z</time>
      </trkpt>
      <trkpt lat="43.50704" lon="6.79553">
        <ele>228</ele>
        <time>2012-11-01T09:59:36Z</time>
      </trkpt>
      <trkpt lat="43.50701" lon="6.79552">
        <ele>228</ele>
        <time>2012-11-01T09:59:37Z</time>
      </trkpt>
      <trkpt lat="43.50699" lon="6.79551">
        <ele>228</ele>
        <time>2012-11-01T09:59:37Z</time>
      </trkpt>
      <trkpt lat="43.50696" lon="6.7955">
        <ele>228</ele>
        <time>2012-11-01T09:59:38Z</time>
      </trkpt>
      <trkpt lat="43.50694" lon="6.79549">
        <ele>228</ele>
        <time>2012-11-01T09:59:39Z</time>
      </trkpt>
      <trkpt lat="43.50692" lon="6.79547">
        <ele>228</ele>
        <time>2012-11-01T09:59:40Z</time>
      </trkpt>
      <trkpt lat="43.50689" lon="6.79545">
        <ele>228</ele>
        <time>2012-11-01T09:59:41Z</time>
      </trkpt>
      <trkpt lat="43.50687" lon="6.79544">
        <ele>228</ele>
        <time>2012-11-01T09:59:42Z</time>
      </trkpt>
      <trkpt lat="43.50685" lon="6.79542">
        <ele>229</ele>
        <time>2012-11-01T09:59:44Z</time>
      </trkpt>
      <trkpt lat="43.50682" lon="6.79541">
        <ele>229</ele>
        <time>2012-11-01T09:59:45Z</time>
      </trkpt>
      <trkpt lat="43.5068" lon="6.79539">
        <ele>229</ele>
        <time>2012-11-01T09:59:45Z</time>
      </trkpt>
      <trkpt lat="43.50678" lon="6.79537">
        <ele>230</ele>
        <time>2012-11-01T09:59:46Z</time>
      </trkpt>
      <trkpt lat="43.50676" lon="6.79536">
        <ele>230</ele>
        <time>2012-11-01T09:59:48Z</time>
      </trkpt>
      <trkpt lat="43.50674" lon="6.79534">
        <ele>230</ele>
        <time>2012-11-01T09:59:49Z</time>
      </trkpt>
      <trkpt lat="43.50672" lon="6.79533">
        <ele>230</ele>
        <time>2012-11-01T09:59:49Z</time>
      </trkpt>
      <trkpt lat="43.5067" lon="6.79532">
        <ele>231</ele>
        <time>2012-11-01T09:59:50Z</time>
      </trkpt>
      <trkpt lat="43.50668" lon="6.7953">
        <ele>231</ele>
        <time>2012-11-01T09:59:52Z</time>
      </trkpt>
      <trkpt lat="43.50665" lon="6.79528">
        <ele>231</ele>
        <time>2012-11-01T09:59:53Z</time>
      </trkpt>
      <trkpt lat="43.50663" lon="6.79526">
        <ele>231</ele>
        <time>2012-11-01T09:59:53Z</time>
      </trkpt>
      <trkpt lat="43.50661" lon="6.79524">
        <ele>231</ele>
        <time>2012-11-01T09:59:54Z</time>
      </trkpt>
      <trkpt lat="43.50659" lon="6.79522">
        <ele>232</ele>
        <time>2012-11-01T09:59:56Z</time>
      </trkpt>
      <trkpt lat="43.50657" lon="6.7952">
        <ele>232</ele>
        <time>2012-11-01T09:59:57Z</time>
      </trkpt>
      <trkpt lat="43.50655" lon="6.79518">
        <ele>232</ele>
        <time>2012-11-01T09:59:57Z</time>
      </trkpt>
      <trkpt lat="43.50653" lon="6.79516">
        <ele>232</ele>
        <time>2012-11-01T09:59:58Z</time>
      </trkpt>
      <trkpt lat="43.50652" lon="6.79513">
        <ele>232</ele>
        <time>2012-11-01T10:00:00Z</time>
      </trkpt>
      <trkpt lat="43.5065" lon="6.79511">
        <ele>233</ele>
        <time>2012-11-01T10:00:00Z</time>
      </trkpt>
      <trkpt lat="43.50648" lon="6.79509">
        <ele>233</ele>
        <time>2012-11-01T10:00:01Z</time>
      </trkpt>
      <trkpt lat="43.50647" lon="6.79506">
        <ele>234</ele>
        <time>2012-11-01T10:00:02Z</time>
      </trkpt>
      <trkpt lat="43.50645" lon="6.79504">
        <ele>234</ele>
        <time>2012-11-01T10:00:04Z</time>
      </trkpt>
      <trkpt lat="43.50644" lon="6.79501">
        <ele>235</ele>
        <time>2012-11-01T10:00:05Z</time>
      </trkpt>
      <trkpt lat="43.50642" lon="6.79499">
        <ele>235</ele>
        <time>2012-11-01T10:00:05Z</time>
      </trkpt>
      <trkpt lat="43.50641" lon="6.79496">
        <ele>236</ele>
        <time>2012-11-01T10:00:07Z</time>
      </trkpt>
      <trkpt lat="43.50639" lon="6.79493">
        <ele>236</ele>
        <time>2012-11-01T10:00:07Z</time>
      </trkpt>
      <trkpt lat="43.50638" lon="6.7949">
        <ele>237</ele>
        <time>2012-11-01T10:00:09Z</time>
      </trkpt>
      <trkpt lat="43.50637" lon="6.79487">
        <ele>237</ele>
        <time>2012-11-01T10:00:09Z</time>
      </trkpt>
      <trkpt lat="43.50636" lon="6.79484">
        <ele>237</ele>
        <time>2012-11-01T10:00:10Z</time>
      </trkpt>
      <trkpt lat="43.50635" lon="6.79481">
        <ele>238</ele>
        <time>2012-11-01T10:00:12Z</time>
      </trkpt>
      <trkpt lat="43.50634" lon="6.79478">
        <ele>238</ele>
        <time>2012-11-01T10:00:12Z</time>
      </trkpt>
      <trkpt lat="43.50632" lon="6.79475">
        <ele>239</ele>
        <time>2012-11-01T10:00:14Z</time>
      </trkpt>
      <trkpt lat="43.50631" lon="6.79472">
        <ele>239</ele>
        <time>2012-11-01T10:00:14Z</time>
      </trkpt>
      <trkpt lat="43.5063" lon="6.79469">
        <ele>239</ele>
        <time>2012-11-01T10:00:16Z</time>
      </trkpt>
      <trkpt lat="43.50629" lon="6.79466">
        <ele>240</ele>
        <time>2012-11-01T10:00:17Z</time>
      </trkpt>
      <trkpt lat="43.50627" lon="6.79462">
        <ele>240</ele>
        <time>2012-11-01T10:00:18Z</time>
      </trkpt>
      <trkpt lat="43.50626" lon="6.79459">
        <ele>241</ele>
        <time>2012-11-01T10:00:19Z</time>
      </trkpt>
      <trkpt lat="43.50624" lon="6.79456">
        <ele>241</ele>
        <time>2012-11-01T10:00:20Z</time>
      </trkpt>
      <trkpt lat="43.50623" lon="6.79453">
        <ele>241</ele>
        <time>2012-11-01T10:00:21Z</time>
      </trkpt>
      <trkpt lat="43.50621" lon="6.79451">
        <ele>242</ele>
        <time>2012-11-01T10:00:21Z</time>
      </trkpt>
      <trkpt lat="43.5062" lon="6.79448">
        <ele>242</ele>
        <time>2012-11-01T10:00:23Z</time>
      </trkpt>
      <trkpt lat="43.50618" lon="6.79445">
        <ele>242</ele>
        <time>2012-11-01T10:00:24Z</time>
      </trkpt>
      <trkpt lat="43.50617" lon="6.79442">
        <ele>243</ele>
        <time>2012-11-01T10:00:25Z</time>
      </trkpt>
      <trkpt lat="43.50615" lon="6.79439">
        <ele>243</ele>
        <time>2012-11-01T10:00:25Z</time>
      </trkpt>
      <trkpt lat="43.50613" lon="6.79437">
        <ele>243</ele>
        <time>2012-11-01T10:00:27Z</time>
      </trkpt>
      <trkpt lat="43.50612" lon="6.79434">
        <ele>243</ele>
        <time>2012-11-01T10:00:28Z</time>
      </trkpt>
      <trkpt lat="43.5061" lon="6.79432">
        <ele>244</ele>
        <time>2012-11-01T10:00:28Z</time>
      </trkpt>
      <trkpt lat="43.50608" lon="6.79429">
        <ele>244</ele>
        <time>2012-11-01T10:00:29Z</time>
      </trkpt>
      <trkpt lat="43.50606" lon="6.79427">
        <ele>244</ele>
        <time>2012-11-01T10:00:30Z</time>
      </trkpt>
      <trkpt lat="43.50604" lon="6.79424">
        <ele>244</ele>
        <time>2012-11-01T10:00:32Z</time>
      </trkpt>
      <trkpt lat="43.50602" lon="6.79422">
        <ele>244</ele>
        <time>2012-11-01T10:00:33Z</time>
      </trkpt>
      <trkpt lat="43.506" lon="6.7942">
        <ele>244</ele>
        <time>2012-11-01T10:00:33Z</time>
      </trkpt>
      <trkpt lat="43.50598" lon="6.79419">
        <ele>244</ele>
        <time>2012-11-01T10:00:34Z</time>
      </trkpt>
      <trkpt lat="43.50595" lon="6.79418">
        <ele>245</ele>
        <time>2012-11-01T10:00:36Z</time>
      </trkpt>
      <trkpt lat="43.50593" lon="6.79417">
        <ele>245</ele>
        <time>2012-11-01T10:00:36Z</time>
      </trkpt>
      <trkpt lat="43.50591" lon="6.79416">
        <ele>245</ele>
        <time>2012-11-01T10:00:37Z</time>
      </trkpt>
      <trkpt lat="43.50588" lon="6.79416">
        <ele>245</ele>
        <time>2012-11-01T10:00:38Z</time>
      </trkpt>
      <trkpt lat="43.50586" lon="6.79416">
        <ele>245</ele>
        <time>2012-11-01T10:00:40Z</time>
      </trkpt>
      <trkpt lat="43.50583" lon="6.79416">
        <ele>246</ele>
        <time>2012-11-01T10:00:40Z</time>
      </trkpt>
      <trkpt lat="43.5058" lon="6.79415">
        <ele>246</ele>
        <time>2012-11-01T10:00:41Z</time>
      </trkpt>
      <trkpt lat="43.50578" lon="6.79415">
        <ele>246</ele>
        <time>2012-11-01T10:00:43Z</time>
      </trkpt>
      <trkpt lat="43.50575" lon="6.79416">
        <ele>246</ele>
        <time>2012-11-01T10:00:44Z</time>
      </trkpt>
      <trkpt lat="43.50572" lon="6.79417">
        <ele>246</ele>
        <time>2012-11-01T10:00:45Z</time>
      </trkpt>
      <trkpt lat="43.5057" lon="6.79417">
        <ele>246</ele>
        <time>2012-11-01T10:00:45Z</time>
      </trkpt>
      <trkpt lat="43.50567" lon="6.79418">
        <ele>246</ele>
        <time>2012-11-01T10:00:47Z</time>
      </trkpt>
      <trkpt lat="43.50564" lon="6.79418">
        <ele>246</ele>
        <time>2012-11-01T10:00:48Z</time>
      </trkpt>
      <trkpt lat="43.50562" lon="6.79419">
        <ele>247</ele>
        <time>2012-11-01T10:00:48Z</time>
      </trkpt>
      <trkpt lat="43.50559" lon="6.7942">
        <ele>247</ele>
        <time>2012-11-01T10:00:49Z</time>
      </trkpt>
      <trkpt lat="43.50556" lon="6.79422">
        <ele>247</ele>
        <time>2012-11-01T10:00:50Z</time>
      </trkpt>
      <trkpt lat="43.50554" lon="6.79423">
        <ele>247</ele>
        <time>2012-11-01T10:00:52Z</time>
      </trkpt>
      <trkpt lat="43.50551" lon="6.79424">
        <ele>247</ele>
        <time>2012-11-01T10:00:52Z</time>
      </trkpt>
      <trkpt lat="43.50549" lon="6.79425">
        <ele>247</ele>
        <time>2012-11-01T10:00:53Z</time>
      </trkpt>
      <trkpt lat="43.50546" lon="6.79426">
        <ele>247</ele>
        <time>2012-11-01T10:00:54Z</time>
      </trkpt>
      <trkpt lat="43.50544" lon="6.79428">
        <ele>247</ele>
        <time>2012-11-01T10:00:56Z</time>
      </trkpt>
      <trkpt lat="43.50541" lon="6.7943">
        <ele>247</ele>
        <time>2012-11-01T10:00:56Z</time>
      </trkpt>
      <trkpt lat="43.50539" lon="6.79431">
        <ele>248</ele>
        <time>2012-11-01T10:00:57Z</time>
      </trkpt>
      <trkpt lat="43.50536" lon="6.79434">
        <ele>248</ele>
        <time>2012-11-01T10:00:59Z</time>
      </trkpt>
      <trkpt lat="43.50534" lon="6.79436">
        <ele>248</ele>
        <time>2012-11-01T10:01:00Z</time>
      </trkpt>
      <trkpt lat="43.50532" lon="6.79438">
        <ele>248</ele>
        <time>2012-11-01T10:01:01Z</time>
      </trkpt>
      <trkpt lat="43.50529" lon="6.79441">
        <ele>248</ele>
        <time>2012-11-01T10:01:01Z</time>
      </trkpt>
      <trkpt lat="43.50527" lon="6.79443">
        <ele>248</ele>
        <time>2012-11-01T10:01:03Z</time>
      </trkpt>
      <trkpt lat="43.50525" lon="6.79446">
        <ele>249</ele>
        <time>2012-11-01T10:01:04Z</time>
      </trkpt>
      <trkpt lat="43.50523" lon="6.79449">
        <ele>249</ele>
        <time>2012-11-01T10:01:05Z</time>
      </trkpt>
      <trkpt lat="43.50521" lon="6.79451">
        <ele>249</ele>
        <time>2012-11-01T10:01:05Z</time>
      </trkpt>
      <trkpt lat="43.50519" lon="6.79454">
        <ele>249</ele>
        <time>2012-11-01T10:01:06Z</time>
      </trkpt>
      <trkpt lat="43.50518" lon="6.79457">
        <ele>249</ele>
        <time>2012-11-01T10:01:08Z</time>
      </trkpt>
      <trkpt lat="43.50516" lon="6.7946">
        <ele>249</ele>
        <time>2012-11-01T10:01:09Z</time>
      </trkpt>
      <trkpt lat="43.50514" lon="6.79463">
        <ele>249</ele>
        <time>2012-11-01T10:01:09Z</time>
      </trkpt>
      <trkpt lat="43.50512" lon="6.79466">
        <ele>249</ele>
        <time>2012-11-01T10:01:11Z</time>
      </trkpt>
      <trkpt lat="43.50511" lon="6.79469">
        <ele>250</ele>
        <time>2012-11-01T10:01:12Z</time>
      </trkpt>
      <trkpt lat="43.5051" lon="6.79471">
        <ele>250</ele>
        <time>2012-11-01T10:01:13Z</time>
      </trkpt>
      <trkpt lat="43.50508" lon="6.79474">
        <ele>250</ele>
        <time>2012-11-01T10:01:13Z</time>
      </trkpt>
      <trkpt lat="43.50508" lon="6.79477">
        <ele>250</ele>
        <time>2012-11-01T10:01:15Z</time>
      </trkpt>
      <trkpt lat="43.50507" lon="6.7948">
        <ele>250</ele>
        <time>2012-11-01T10:01:16Z</time>
      </trkpt>
      <trkpt lat="43.50506" lon="6.79483">
        <ele>251</ele>
        <time>2012-11-01T10:01:17Z</time>
      </trkpt>
      <trkpt lat="43.50505" lon="6.79486">
        <ele>251</ele>
        <time>2012-11-01T10:01:17Z</time>
      </trkpt>
      <trkpt lat="43.50505" lon="6.79489">
        <ele>251</ele>
        <time>2012-11-01T10:01:18Z</time>
      </trkpt>
      <trkpt lat="43.50504" lon="6.79492">
        <ele>251</ele>
        <time>2012-11-01T10:01:20Z</time>
      </trkpt>
      <trkpt lat="43.50502" lon="6.79494">
        <ele>251</ele>
        <time>2012-11-01T10:01:20Z</time>
      </trkpt>
      <trkpt lat="43.50501" lon="6.79496">
        <ele>252</ele>
        <time>2012-11-01T10:01:21Z</time>
      </trkpt>
      <trkpt lat="43.50499" lon="6.79499">
        <ele>252</ele>
        <time>2012-11-01T10:01:22Z</time>
      </trkpt>
      <trkpt lat="43.50498" lon="6.79501">
        <ele>252</ele>
        <time>2012-11-01T10:01:24Z</time>
      </trkpt>
      <trkpt lat="43.50496" lon="6.79504">
        <ele>252</ele>
        <time>2012-11-01T10:01:25Z</time>
      </trkpt>
      <trkpt lat="43.50494" lon="6.79506">
        <ele>252</ele>
        <time>2012-11-01T10:01:25Z</time>
      </trkpt>
      <trkpt lat="43.50492" lon="6.79508">
        <ele>253</ele>
        <time>2012-11-01T10:01:26Z</time>
      </trkpt>
      <trkpt lat="43.50491" lon="6.7951">
        <ele>253</ele>
        <time>2012-11-01T10:01:28Z</time>
      </trkpt>
      <trkpt lat="43.50488" lon="6.79511">
        <ele>253</ele>
        <time>2012-11-01T10:01:28Z</time>
      </trkpt>
      <trkpt lat="43.50486" lon="6.79513">
        <ele>253</ele>
        <time>2012-11-01T10:01:29Z</time>
      </trkpt>
      <trkpt lat="43.50484" lon="6.79515">
        <ele>253</ele>
        <time>2012-11-01T10:01:31Z</time>
      </trkpt>
      <trkpt lat="43.50482" lon="6.79517">
        <ele>253</ele>
        <time>2012-11-01T10:01:31Z</time>
      </trkpt>
      <trkpt lat="43.5048" lon="6.79519">
        <ele>253</ele>
        <time>2012-11-01T10:01:33Z</time>
      </trkpt>
      <trkpt lat="43.50477" lon="6.7952">
        <ele>253</ele>
        <time>2012-11-01T10:01:33Z</time>
      </trkpt>
      <trkpt lat="43.50475" lon="6.79522">
        <ele>254</ele>
        <time>2012-11-01T10:01:34Z</time>
      </trkpt>
      <trkpt lat="43.50473" lon="6.79524">
        <ele>254</ele>
        <time>2012-11-01T10:01:36Z</time>
      </trkpt>
      <trkpt lat="43.50471" lon="6.79525">
        <ele>254</ele>
        <time>2012-11-01T10:01:37Z</time>
      </trkpt>
      <trkpt lat="43.50468" lon="6.79527">
        <ele>254</ele>
        <time>2012-11-01T10:01:37Z</time>
      </trkpt>
      <trkpt lat="43.50466" lon="6.79529">
        <ele>255</ele>
        <time>2012-11-01T10:01:38Z</time>
      </trkpt>
      <trkpt lat="43.50464" lon="6.79531">
        <ele>255</ele>
        <time>2012-11-01T10:01:40Z</time>
      </trkpt>
      <trkpt lat="43.50462" lon="6.79533">
        <ele>255</ele>
        <time>2012-11-01T10:01:41Z</time>
      </trkpt>
      <trkpt lat="43.5046" lon="6.79535">
        <ele>255</ele>
        <time>2012-11-01T10:01:41Z</time>
      </trkpt>
      <trkpt lat="43.50457" lon="6.79536">
        <ele>255</ele>
        <time>2012-11-01T10:01:42Z</time>
      </trkpt>
      <trkpt lat="43.50455" lon="6.79539">
        <ele>255</ele>
        <time>2012-11-01T10:01:43Z</time>
      </trkpt>
      <trkpt lat="43.50453" lon="6.79541">
        <ele>256</ele>
        <time>2012-11-01T10:01:44Z</time>
      </trkpt>
      <trkpt lat="43.50451" lon="6.79542">
        <ele>256</ele>
        <time>2012-11-01T10:01:45Z</time>
      </trkpt>
      <trkpt lat="43.50449" lon="6.79544">
        <ele>256</ele>
        <time>2012-11-01T10:01:47Z</time>
      </trkpt>
      <trkpt lat="43.50448" lon="6.79547">
        <ele>257</ele>
        <time>2012-11-01T10:01:47Z</time>
      </trkpt>
      <trkpt lat="43.50446" lon="6.79549">
        <ele>257</ele>
        <time>2012-11-01T10:01:48Z</time>
      </trkpt>
      <trkpt lat="43.50444" lon="6.79551">
        <ele>257</ele>
        <time>2012-11-01T10:01:49Z</time>
      </trkpt>
      <trkpt lat="43.50442" lon="6.79553">
        <ele>257</ele>
        <time>2012-11-01T10:01:50Z</time>
      </trkpt>
      <trkpt lat="43.5044" lon="6.79555">
        <ele>258</ele>
        <time>2012-11-01T10:01:51Z</time>
      </trkpt>
      <trkpt lat="43.50438" lon="6.79556">
        <ele>258</ele>
        <time>2012-11-01T10:01:52Z</time>
      </trkpt>
      <trkpt lat="43.50435" lon="6.79557">
        <ele>258</ele>
        <time>2012-11-01T10:01:53Z</time>
      </trkpt>
      <trkpt lat="43.50433" lon="6.79557">
        <ele>258</ele>
        <time>2012-11-01T10:01:54Z</time>
      </trkpt>
      <trkpt lat="43.5043" lon="6.79555">
        <ele>258</ele>
        <time>2012-11-01T10:01:56Z</time>
      </trkpt>
      <trkpt lat="43.50428" lon="6.79553">
        <ele>258</ele>
        <time>2012-11-01T10:01:57Z</time>
      </trkpt>
      <trkpt lat="43.50428" lon="6.79549">
        <ele>258</ele>
        <time>2012-11-01T10:01:57Z</time>
      </trkpt>
      <trkpt lat="43.50429" lon="6.79545">
        <ele>258</ele>
        <time>2012-11-01T10:01:58Z</time>
      </trkpt>
      <trkpt lat="43.50431" lon="6.79542">
        <ele>258</ele>
        <time>2012-11-01T10:02:00Z</time>
      </trkpt>
      <trkpt lat="43.50432" lon="6.7954">
        <ele>259</ele>
        <time>2012-11-01T10:02:00Z</time>
      </trkpt>
      <trkpt lat="43.50434" lon="6.79538">
        <ele>259</ele>
        <time>2012-11-01T10:02:01Z</time>
      </trkpt>
      <trkpt lat="43.50436" lon="6.79535">
        <ele>259</ele>
        <time>2012-11-01T10:02:02Z</time>
      </trkpt>
      <trkpt lat="43.50438" lon="6.79533">
        <ele>259</ele>
        <time>2012-11-01T10:02:04Z</time>
      </trkpt>
      <trkpt lat="43.5044" lon="6.7953">
        <ele>259</ele>
        <time>2012-11-01T10:02:04Z</time>
      </trkpt>
      <trkpt lat="43.50441" lon="6.79528">
        <ele>259</ele>
        <time>2012-11-01T10:02:05Z</time>
      </trkpt>
      <trkpt lat="43.50443" lon="6.79525">
        <ele>260</ele>
        <time>2012-11-01T10:02:07Z</time>
      </trkpt>
      <trkpt lat="43.50444" lon="6.79522">
        <ele>260</ele>
        <time>2012-11-01T10:02:08Z</time>
      </trkpt>
      <trkpt lat="43.50444" lon="6.79519">
        <ele>260</ele>
        <time>2012-11-01T10:02:09Z</time>
      </trkpt>
      <trkpt lat="43.50444" lon="6.79515">
        <ele>260</ele>
        <time>2012-11-01T10:02:09Z</time>
      </trkpt>
      <trkpt lat="43.50444" lon="6.79512">
        <ele>260</ele>
        <time>2012-11-01T10:02:11Z</time>
      </trkpt>
      <trkpt lat="43.50443" lon="6.79509">
        <ele>260</ele>
        <time>2012-11-01T10:02:12Z</time>
      </trkpt>
      <trkpt lat="43.50441" lon="6.79506">
        <ele>260</ele>
        <time>2012-11-01T10:02:13Z</time>
      </trkpt>
      <trkpt lat="43.50439" lon="6.79505">
        <ele>261</ele>
        <time>2012-11-01T10:02:13Z</time>
      </trkpt>
      <trkpt lat="43.50436" lon="6.79504">
        <ele>261</ele>
        <time>2012-11-01T10:02:14Z</time>
      </trkpt>
      <trkpt lat="43.50434" lon="6.79504">
        <ele>261</ele>
        <time>2012-11-01T10:02:15Z</time>
      </trkpt>
      <trkpt lat="43.50432" lon="6.79505">
        <ele>261</ele>
        <time>2012-11-01T10:02:17Z</time>
      </trkpt>
      <trkpt lat="43.5043" lon="6.79506">
        <ele>261</ele>
        <time>2012-11-01T10:02:18Z</time>
      </trkpt>
      <trkpt lat="43.50428" lon="6.79508">
        <ele>261</ele>
        <time>2012-11-01T10:02:18Z</time>
      </trkpt>
      <trkpt lat="43.50427" lon="6.79511">
        <ele>262</ele>
        <time>2012-11-01T10:02:20Z</time>
      </trkpt>
      <trkpt lat="43.50426" lon="6.79515">
        <ele>262</ele>
        <time>2012-11-01T10:02:21Z</time>
      </trkpt>
      <trkpt lat="43.50426" lon="6.79518">
        <ele>262</ele>
        <time>2012-11-01T10:02:22Z</time>
      </trkpt>
      <trkpt lat="43.50425" lon="6.79521">
        <ele>263</ele>
        <time>2012-11-01T10:02:22Z</time>
      </trkpt>
      <trkpt lat="43.50424" lon="6.79523">
        <ele>263</ele>
        <time>2012-11-01T10:02:24Z</time>
      </trkpt>
      <trkpt lat="43.50423" lon="6.79526">
        <ele>263</ele>
        <time>2012-11-01T10:02:25Z</time>
      </trkpt>
      <trkpt lat="43.50422" lon="6.79528">
        <ele>263</ele>
        <time>2012-11-01T10:02:25Z</time>
      </trkpt>
      <trkpt lat="43.50421" lon="6.7953">
        <ele>264</ele>
        <time>2012-11-01T10:02:27Z</time>
      </trkpt>
      <trkpt lat="43.5042" lon="6.79533">
        <ele>264</ele>
        <time>2012-11-01T10:02:28Z</time>
      </trkpt>
      <trkpt lat="43.50418" lon="6.79535">
        <ele>264</ele>
        <time>2012-11-01T10:02:28Z</time>
      </trkpt>
      <trkpt lat="43.50417" lon="6.79536">
        <ele>264</ele>
        <time>2012-11-01T10:02:29Z</time>
      </trkpt>
      <trkpt lat="43.50415" lon="6.79538">
        <ele>265</ele>
        <time>2012-11-01T10:02:31Z</time>
      </trkpt>
      <trkpt lat="43.50414" lon="6.79539">
        <ele>265</ele>
        <time>2012-11-01T10:02:32Z</time>
      </trkpt>
      <trkpt lat="43.50412" lon="6.79541">
        <ele>265</ele>
        <time>2012-11-01T10:02:32Z</time>
      </trkpt>
      <trkpt lat="43.5041" lon="6.79542">
        <ele>265</ele>
        <time>2012-11-01T10:02:33Z</time>
      </trkpt>
      <trkpt lat="43.50408" lon="6.79543">
        <ele>266</ele>
        <time>2012-11-01T10:02:34Z</time>
      </trkpt>
      <trkpt lat="43.50406" lon="6.79545">
        <ele>266</ele>
        <time>2012-11-01T10:02:35Z</time>
      </trkpt>
      <trkpt lat="43.50404" lon="6.79547">
        <ele>266</ele>
        <time>2012-11-01T10:02:37Z</time>
      </trkpt>
      <trkpt lat="43.50402" lon="6.79549">
        <ele>266</ele>
        <time>2012-11-01T10:02:38Z</time>
      </trkpt>
      <trkpt lat="43.504" lon="6.7955">
        <ele>266</ele>
        <time>2012-11-01T10:02:39Z</time>
      </trkpt>
      <trkpt lat="43.50398" lon="6.79552">
        <ele>267</ele>
        <time>2012-11-01T10:02:40Z</time>
      </trkpt>
      <trkpt lat="43.50396" lon="6.79554">
        <ele>267</ele>
        <time>2012-11-01T10:02:41Z</time>
      </trkpt>
      <trkpt lat="43.50394" lon="6.79556">
        <ele>267</ele>
        <time>2012-11-01T10:02:41Z</time>
      </trkpt>
      <trkpt lat="43.50392" lon="6.79557">
        <ele>267</ele>
        <time>2012-11-01T10:02:42Z</time>
      </trkpt>
      <trkpt lat="43.5039" lon="6.79559">
        <ele>268</ele>
        <time>2012-11-01T10:02:44Z</time>
      </trkpt>
      <trkpt lat="43.50388" lon="6.79561">
        <ele>268</ele>
        <time>2012-11-01T10:02:45Z</time>
      </trkpt>
      <trkpt lat="43.50387" lon="6.79563">
        <ele>268</ele>
        <time>2012-11-01T10:02:45Z</time>
      </trkpt>
      <trkpt lat="43.50385" lon="6.79565">
        <ele>268</ele>
        <time>2012-11-01T10:02:46Z</time>
      </trkpt>
      <trkpt lat="43.50383" lon="6.79568">
        <ele>268</ele>
        <time>2012-11-01T10:02:48Z</time>
      </trkpt>
      <trkpt lat="43.50381" lon="6.7957">
        <ele>268</ele>
        <time>2012-11-01T10:02:49Z</time>
      </trkpt>
      <trkpt lat="43.5038" lon="6.79572">
        <ele>268</ele>
        <time>2012-11-01T10:02:49Z</time>
      </trkpt>
      <trkpt lat="43.50378" lon="6.79574">
        <ele>268</ele>
        <time>2012-11-01T10:02:51Z</time>
      </trkpt>
      <trkpt lat="43.50376" lon="6.79576">
        <ele>268</ele>
        <time>2012-11-01T10:02:52Z</time>
      </trkpt>
      <trkpt lat="43.50374" lon="6.79579">
        <ele>269</ele>
        <time>2012-11-01T10:02:53Z</time>
      </trkpt>
      <trkpt lat="43.50372" lon="6.79581">
        <ele>269</ele>
        <time>2012-11-01T10:02:53Z</time>
      </trkpt>
      <trkpt lat="43.50371" lon="6.79584">
        <ele>269</ele>
        <time>2012-11-01T10:02:54Z</time>
      </trkpt>
      <trkpt lat="43.50369" lon="6.79586">
        <ele>269</ele>
        <time>2012-11-01T10:02:56Z</time>
      </trkpt>
      <trkpt lat="43.50368" lon="6.79589">
        <ele>269</ele>
        <time>2012-11-01T10:02:57Z</time>
      </trkpt>
      <trkpt lat="43.50366" lon="6.79591">
        <ele>270</ele>
        <time>2012-11-01T10:02:57Z</time>
      </trkpt>
      <trkpt lat="43.50365" lon="6.79594">
        <ele>270</ele>
        <time>2012-11-01T10:02:58Z</time>
      </trkpt>
      <trkpt lat="43.50364" lon="6.79596">
        <ele>270</ele>
        <time>2012-11-01T10:03:00Z</time>
      </trkpt>
      <trkpt lat="43.50362" lon="6.79598">
        <ele>270</ele>
        <time>2012-11-01T10:03:00Z</time>
      </trkpt>
      <trkpt lat="43.5036" lon="6.79599">
        <ele>271</ele>
        <time>2012-11-01T10:03:01Z</time>
      </trkpt>
      <trkpt lat="43.50359" lon="6.796">
        <ele>271</ele>
        <time>2012-11-01T10:03:02Z</time>
      </trkpt>
      <trkpt lat="43.50357" lon="6.79601">
        <ele>271</ele>
        <time>2012-11-01T10:03:04Z</time>
      </trkpt>
      <trkpt lat="43.50354" lon="6.79601">
        <ele>272</ele>
        <time>2012-11-01T10:03:04Z</time>
      </trkpt>
      <trkpt lat="43.50352" lon="6.796">
        <ele>272</ele>
        <time>2012-11-01T10:03:05Z</time>
      </trkpt>
      <trkpt lat="43.5035" lon="6.79598">
        <ele>272</ele>
        <time>2012-11-01T10:03:06Z</time>
      </trkpt>
      <trkpt lat="43.50349" lon="6.79595">
        <ele>273</ele>
        <time>2012-11-01T10:03:08Z</time>
      </trkpt>
      <trkpt lat="43.50349" lon="6.79591">
        <ele>273</ele>
        <time>2012-11-01T10:03:08Z</time>
      </trkpt>
      <trkpt lat="43.50351" lon="6.79588">
        <ele>274</ele>
        <time>2012-11-01T10:03:09Z</time>
      </trkpt>
      <trkpt lat="43.50352" lon="6.79584">
        <ele>274</ele>
        <time>2012-11-01T10:03:10Z</time>
      </trkpt>
      <trkpt lat="43.50354" lon="6.79581">
        <ele>275</ele>
        <time>2012-11-01T10:03:12Z</time>
      </trkpt>
      <trkpt lat="43.50356" lon="6.79578">
        <ele>275</ele>
        <time>2012-11-01T10:03:12Z</time>
      </trkpt>
      <trkpt lat="43.50357" lon="6.79574">
        <ele>276</ele>
        <time>2012-11-01T10:03:13Z</time>
      </trkpt>
      <trkpt lat="43.50359" lon="6.79571">
        <ele>276</ele>
        <time>2012-11-01T10:03:14Z</time>
      </trkpt>
      <trkpt lat="43.5036" lon="6.79568">
        <ele>276</ele>
        <time>2012-11-01T10:03:16Z</time>
      </trkpt>
      <trkpt lat="43.50361" lon="6.79564">
        <ele>276</ele>
        <time>2012-11-01T10:03:17Z</time>
      </trkpt>
      <trkpt lat="43.50362" lon="6.79561">
        <ele>277</ele>
        <time>2012-11-01T10:03:17Z</time>
      </trkpt>
      <trkpt lat="43.50362" lon="6.79557">
        <ele>277</ele>
        <time>2012-11-01T10:03:18Z</time>
      </trkpt>
      <trkpt lat="43.50362" lon="6.79554">
        <ele>277</ele>
        <time>2012-11-01T10:03:20Z</time>
      </trkpt>
      <trkpt lat="43.50362" lon="6.7955">
        <ele>277</ele>
        <time>2012-11-01T10:03:21Z</time>
      </trkpt>
      <trkpt lat="43.50362" lon="6.79547">
        <ele>278</ele>
        <time>2012-11-01T10:03:21Z</time>
      </trkpt>
      <trkpt lat="43.5036" lon="6.79544">
        <ele>278</ele>
        <time>2012-11-01T10:03:23Z</time>
      </trkpt>
      <trkpt lat="43.50359" lon="6.79541">
        <ele>278</ele>
        <time>2012-11-01T10:03:23Z</time>
      </trkpt>
      <trkpt lat="43.50357" lon="6.79538">
        <ele>278</ele>
        <time>2012-11-01T10:03:25Z</time>
      </trkpt>
      <trkpt lat="43.50356" lon="6.79536">
        <ele>279</ele>
        <time>2012-11-01T10:03:25Z</time>
      </trkpt>
      <trkpt lat="43.50354" lon="6.79533">
        <ele>279</ele>
        <time>2012-11-01T10:03:27Z</time>
      </trkpt>
      <trkpt lat="43.50352" lon="6.79531">
        <ele>279</ele>
        <time>2012-11-01T10:03:27Z</time>
      </trkpt>
      <trkpt lat="43.5035" lon="6.79528">
        <ele>279</ele>
        <time>2012-11-01T10:03:28Z</time>
      </trkpt>
      <trkpt lat="43.50348" lon="6.79526">
        <ele>280</ele>
        <time>2012-11-01T10:03:29Z</time>
      </trkpt>
      <trkpt lat="43.50347" lon="6.79523">
        <ele>280</ele>
        <time>2012-11-01T10:03:30Z</time>
      </trkpt>
      <trkpt lat="43.50345" lon="6.79521">
        <ele>280</ele>
        <time>2012-11-01T10:03:32Z</time>
      </trkpt>
      <trkpt lat="43.50343" lon="6.79519">
        <ele>280</ele>
        <time>2012-11-01T10:03:32Z</time>
      </trkpt>
      <trkpt lat="43.50341" lon="6.79517">
        <ele>281</ele>
        <time>2012-11-01T10:03:33Z</time>
      </trkpt>
      <trkpt lat="43.5034" lon="6.79515">
        <ele>281</ele>
        <time>2012-11-01T10:03:34Z</time>
      </trkpt>
      <trkpt lat="43.50338" lon="6.79513">
        <ele>281</ele>
        <time>2012-11-01T10:03:36Z</time>
      </trkpt>
      <trkpt lat="43.50336" lon="6.79513">
        <ele>281</ele>
        <time>2012-11-01T10:03:36Z</time>
      </trkpt>
      <trkpt lat="43.50333" lon="6.79513">
        <ele>282</ele>
        <time>2012-11-01T10:03:37Z</time>
      </trkpt>
      <trkpt lat="43.50331" lon="6.79513">
        <ele>282</ele>
        <time>2012-11-01T10:03:38Z</time>
      </trkpt>
      <trkpt lat="43.50329" lon="6.79515">
        <ele>282</ele>
        <time>2012-11-01T10:03:40Z</time>
      </trkpt>
      <trkpt lat="43.50328" lon="6.79517">
        <ele>282</ele>
        <time>2012-11-01T10:03:41Z</time>
      </trkpt>
      <trkpt lat="43.50327" lon="6.7952">
        <ele>282</ele>
        <time>2012-11-01T10:03:41Z</time>
      </trkpt>
      <trkpt lat="43.50327" lon="6.79523">
        <ele>282</ele>
        <time>2012-11-01T10:03:42Z</time>
      </trkpt>
      <trkpt lat="43.50328" lon="6.79526">
        <ele>282</ele>
        <time>2012-11-01T10:03:44Z</time>
      </trkpt>
      <trkpt lat="43.50329" lon="6.79529">
        <ele>282</ele>
        <time>2012-11-01T10:03:45Z</time>
      </trkpt>
      <trkpt lat="43.5033" lon="6.79531">
        <ele>282</ele>
        <time>2012-11-01T10:03:45Z</time>
      </trkpt>
      <trkpt lat="43.50331" lon="6.79533">
        <ele>283</ele>
        <time>2012-11-01T10:03:47Z</time>
      </trkpt>
      <trkpt lat="43.50333" lon="6.79535">
        <ele>283</ele>
        <time>2012-11-01T10:03:48Z</time>
      </trkpt>
      <trkpt lat="43.50334" lon="6.79537">
        <ele>283</ele>
        <time>2012-11-01T10:03:48Z</time>
      </trkpt>
      <trkpt lat="43.50336" lon="6.79539">
        <ele>284</ele>
        <time>2012-11-01T10:03:49Z</time>
      </trkpt>
      <trkpt lat="43.50337" lon="6.79542">
        <ele>284</ele>
        <time>2012-11-01T10:03:51Z</time>
      </trkpt>
      <trkpt lat="43.50338" lon="6.79544">
        <ele>284</ele>
        <time>2012-11-01T10:03:52Z</time>
      </trkpt>
      <trkpt lat="43.50338" lon="6.79547">
        <ele>284</ele>
        <time>2012-11-01T10:03:52Z</time>
      </trkpt>
      <trkpt lat="43.50339" lon="6.7955">
        <ele>285</ele>
        <time>2012-11-01T10:03:53Z</time>
      </trkpt>
      <trkpt lat="43.5034" lon="6.79553">
        <ele>285</ele>
        <time>2012-11-01T10:03:54Z</time>
      </trkpt>
      <trkpt lat="43.5034" lon="6.79556">
        <ele>285</ele>
        <time>2012-11-01T10:03:55Z</time>
      </trkpt>
      <trkpt lat="43.5034" lon="6.79559">
        <ele>285</ele>
        <time>2012-11-01T10:03:57Z</time>
      </trkpt>
      <trkpt lat="43.5034" lon="6.79562">
        <ele>286</ele>
        <time>2012-11-01T10:03:57Z</time>
      </trkpt>
      <trkpt lat="43.50339" lon="6.79565">
        <ele>286</ele>
        <time>2012-11-01T10:03:58Z</time>
      </trkpt>
      <trkpt lat="43.50338" lon="6.79567">
        <ele>286</ele>
        <time>2012-11-01T10:04:00Z</time>
      </trkpt>
      <trkpt lat="43.50335" lon="6.79569">
        <ele>286</ele>
        <time>2012-11-01T10:04:00Z</time>
      </trkpt>
      <trkpt lat="43.50333" lon="6.79569">
        <ele>286</ele>
        <time>2012-11-01T10:04:01Z</time>
      </trkpt>
      <trkpt lat="43.50331" lon="6.79569">
        <ele>286</ele>
        <time>2012-11-01T10:04:02Z</time>
      </trkpt>
      <trkpt lat="43.50329" lon="6.79568">
        <ele>286</ele>
        <time>2012-11-01T10:04:03Z</time>
      </trkpt>
      <trkpt lat="43.50327" lon="6.79566">
        <ele>287</ele>
        <time>2012-11-01T10:04:04Z</time>
      </trkpt>
      <trkpt lat="43.50326" lon="6.79564">
        <ele>287</ele>
        <time>2012-11-01T10:04:05Z</time>
      </trkpt>
      <trkpt lat="43.50325" lon="6.7956">
        <ele>287</ele>
        <time>2012-11-01T10:04:06Z</time>
      </trkpt>
      <trkpt lat="43.50325" lon="6.79557">
        <ele>287</ele>
        <time>2012-11-01T10:04:08Z</time>
      </trkpt>
      <trkpt lat="43.50325" lon="6.79554">
        <ele>287</ele>
        <time>2012-11-01T10:04:08Z</time>
      </trkpt>
      <trkpt lat="43.50324" lon="6.79551">
        <ele>287</ele>
        <time>2012-11-01T10:04:09Z</time>
      </trkpt>
      <trkpt lat="43.50322" lon="6.79549">
        <ele>288</ele>
        <time>2012-11-01T10:04:10Z</time>
      </trkpt>
      <trkpt lat="43.50321" lon="6.79546">
        <ele>288</ele>
        <time>2012-11-01T10:04:12Z</time>
      </trkpt>
      <trkpt lat="43.5032" lon="6.79544">
        <ele>288</ele>
        <time>2012-11-01T10:04:12Z</time>
      </trkpt>
      <trkpt lat="43.50318" lon="6.79541">
        <ele>288</ele>
        <time>2012-11-01T10:04:13Z</time>
      </trkpt>
      <trkpt lat="43.50316" lon="6.79539">
        <ele>289</ele>
        <time>2012-11-01T10:04:14Z</time>
      </trkpt>
      <trkpt lat="43.50314" lon="6.79537">
        <ele>289</ele>
        <time>2012-11-01T10:04:15Z</time>
      </trkpt>
      <trkpt lat="43.50313" lon="6.79535">
        <ele>289</ele>
        <time>2012-11-01T10:04:16Z</time>
      </trkpt>
      <trkpt lat="43.50311" lon="6.79534">
        <ele>289</ele>
        <time>2012-11-01T10:04:17Z</time>
      </trkpt>
      <trkpt lat="43.50309" lon="6.79533">
        <ele>289</ele>
        <time>2012-11-01T10:04:18Z</time>
      </trkpt>
      <trkpt lat="43.50306" lon="6.79532">
        <ele>289</ele>
        <time>2012-11-01T10:04:19Z</time>
      </trkpt>
      <trkpt lat="43.50304" lon="6.79531">
        <ele>289</ele>
        <time>2012-11-01T10:04:20Z</time>
      </trkpt>
      <trkpt lat="43.50302" lon="6.7953">
        <ele>289</ele>
        <time>2012-11-01T10:04:21Z</time>
      </trkpt>
      <trkpt lat="43.503" lon="6.79529">
        <ele>289</ele>
        <time>2012-11-01T10:04:22Z</time>
      </trkpt>
      <trkpt lat="43.50298" lon="6.79529">
        <ele>290</ele>
        <time>2012-11-01T10:04:24Z</time>
      </trkpt>
      <trkpt lat="43.50296" lon="6.79528">
        <ele>290</ele>
        <time>2012-11-01T10:04:24Z</time>
      </trkpt>
      <trkpt lat="43.50293" lon="6.79527">
        <ele>290</ele>
        <time>2012-11-01T10:04:25Z</time>
      </trkpt>
      <trkpt lat="43.50291" lon="6.79527">
        <ele>290</ele>
        <time>2012-11-01T10:04:26Z</time>
      </trkpt>
      <trkpt lat="43.50289" lon="6.79526">
        <ele>290</ele>
        <time>2012-11-01T10:04:28Z</time>
      </trkpt>
      <trkpt lat="43.50286" lon="6.79526">
        <ele>290</ele>
        <time>2012-11-01T10:04:28Z</time>
      </trkpt>
      <trkpt lat="43.50284" lon="6.79526">
        <ele>291</ele>
        <time>2012-11-01T10:04:29Z</time>
      </trkpt>
      <trkpt lat="43.50282" lon="6.79526">
        <ele>291</ele>
        <time>2012-11-01T10:04:30Z</time>
      </trkpt>
      <trkpt lat="43.5028" lon="6.79527">
        <ele>291</ele>
        <time>2012-11-01T10:04:32Z</time>
      </trkpt>
      <trkpt lat="43.50278" lon="6.79527">
        <ele>291</ele>
        <time>2012-11-01T10:04:33Z</time>
      </trkpt>
      <trkpt lat="43.50275" lon="6.79528">
        <ele>291</ele>
        <time>2012-11-01T10:04:33Z</time>
      </trkpt>
      <trkpt lat="43.50273" lon="6.79529">
        <ele>292</ele>
        <time>2012-11-01T10:04:34Z</time>
      </trkpt>
      <trkpt lat="43.50271" lon="6.7953">
        <ele>292</ele>
        <time>2012-11-01T10:04:36Z</time>
      </trkpt>
      <trkpt lat="43.50269" lon="6.79531">
        <ele>292</ele>
        <time>2012-11-01T10:04:36Z</time>
      </trkpt>
      <trkpt lat="43.50267" lon="6.79533">
        <ele>292</ele>
        <time>2012-11-01T10:04:37Z</time>
      </trkpt>
      <trkpt lat="43.50266" lon="6.79534">
        <ele>292</ele>
        <time>2012-11-01T10:04:38Z</time>
      </trkpt>
      <trkpt lat="43.50264" lon="6.79536">
        <ele>292</ele>
        <time>2012-11-01T10:04:40Z</time>
      </trkpt>
      <trkpt lat="43.50262" lon="6.79538">
        <ele>292</ele>
        <time>2012-11-01T10:04:40Z</time>
      </trkpt>
      <trkpt lat="43.5026" lon="6.79539">
        <ele>292</ele>
        <time>2012-11-01T10:04:41Z</time>
      </trkpt>
      <trkpt lat="43.50258" lon="6.79541">
        <ele>292</ele>
        <time>2012-11-01T10:04:42Z</time>
      </trkpt>
      <trkpt lat="43.50256" lon="6.79541">
        <ele>292</ele>
        <time>2012-11-01T10:04:43Z</time>
      </trkpt>
      <trkpt lat="43.50253" lon="6.79542">
        <ele>292</ele>
        <time>2012-11-01T10:04:44Z</time>
      </trkpt>
      <trkpt lat="43.50251" lon="6.79542">
        <ele>292</ele>
        <time>2012-11-01T10:04:45Z</time>
      </trkpt>
      <trkpt lat="43.50248" lon="6.79542">
        <ele>292</ele>
        <time>2012-11-01T10:04:46Z</time>
      </trkpt>
      <trkpt lat="43.50246" lon="6.79541">
        <ele>292</ele>
        <time>2012-11-01T10:04:48Z</time>
      </trkpt>
      <trkpt lat="43.50243" lon="6.7954">
        <ele>292</ele>
        <time>2012-11-01T10:04:49Z</time>
      </trkpt>
      <trkpt lat="43.50241" lon="6.79539">
        <ele>292</ele>
        <time>2012-11-01T10:04:49Z</time>
      </trkpt>
      <trkpt lat="43.50239" lon="6.79538">
        <ele>292</ele>
        <time>2012-11-01T10:04:50Z</time>
      </trkpt>
      <trkpt lat="43.50237" lon="6.79537">
        <ele>293</ele>
        <time>2012-11-01T10:04:51Z</time>
      </trkpt>
      <trkpt lat="43.50235" lon="6.79535">
        <ele>293</ele>
        <time>2012-11-01T10:04:53Z</time>
      </trkpt>
      <trkpt lat="43.50232" lon="6.79533">
        <ele>293</ele>
        <time>2012-11-01T10:04:54Z</time>
      </trkpt>
      <trkpt lat="43.5023" lon="6.79532">
        <ele>293</ele>
        <time>2012-11-01T10:04:54Z</time>
      </trkpt>
      <trkpt lat="43.50229" lon="6.7953">
        <ele>293</ele>
        <time>2012-11-01T10:04:56Z</time>
      </trkpt>
      <trkpt lat="43.50227" lon="6.79529">
        <ele>293</ele>
        <time>2012-11-01T10:04:57Z</time>
      </trkpt>
      <trkpt lat="43.50225" lon="6.79527">
        <ele>293</ele>
        <time>2012-11-01T10:04:57Z</time>
      </trkpt>
      <trkpt lat="43.50223" lon="6.79525">
        <ele>293</ele>
        <time>2012-11-01T10:04:58Z</time>
      </trkpt>
      <trkpt lat="43.50222" lon="6.79522">
        <ele>293</ele>
        <time>2012-11-01T10:05:00Z</time>
      </trkpt>
      <trkpt lat="43.50221" lon="6.79519">
        <ele>293</ele>
        <time>2012-11-01T10:05:01Z</time>
      </trkpt>
      <trkpt lat="43.50219" lon="6.79516">
        <ele>293</ele>
        <time>2012-11-01T10:05:01Z</time>
      </trkpt>
      <trkpt lat="43.50218" lon="6.79513">
        <ele>294</ele>
        <time>2012-11-01T10:05:02Z</time>
      </trkpt>
      <trkpt lat="43.50217" lon="6.7951">
        <ele>294</ele>
        <time>2012-11-01T10:05:04Z</time>
      </trkpt>
      <trkpt lat="43.50216" lon="6.79506">
        <ele>295</ele>
        <time>2012-11-01T10:05:05Z</time>
      </trkpt>
      <trkpt lat="43.50216" lon="6.79503">
        <ele>295</ele>
        <time>2012-11-01T10:05:05Z</time>
      </trkpt>
      <trkpt lat="43.50215" lon="6.79499">
        <ele>296</ele>
        <time>2012-11-01T10:05:07Z</time>
      </trkpt>
      <trkpt lat="43.50215" lon="6.79496">
        <ele>296</ele>
        <time>2012-11-01T10:05:08Z</time>
      </trkpt>
      <trkpt lat="43.50216" lon="6.79493">
        <ele>297</ele>
        <time>2012-11-01T10:05:09Z</time>
      </trkpt>
      <trkpt lat="43.50216" lon="6.79489">
        <ele>298</ele>
        <time>2012-11-01T10:05:10Z</time>
      </trkpt>
      <trkpt lat="43.50216" lon="6.79486">
        <ele>298</ele>
        <time>2012-11-01T10:05:10Z</time>
      </trkpt>
      <trkpt lat="43.50217" lon="6.79483">
        <ele>299</ele>
        <time>2012-11-01T10:05:12Z</time>
      </trkpt>
      <trkpt lat="43.50217" lon="6.7948">
        <ele>300</ele>
        <time>2012-11-01T10:05:12Z</time>
      </trkpt>
      <trkpt lat="43.50217" lon="6.79476">
        <ele>300</ele>
        <time>2012-11-01T10:05:13Z</time>
      </trkpt>
      <trkpt lat="43.50217" lon="6.79473">
        <ele>301</ele>
        <time>2012-11-01T10:05:15Z</time>
      </trkpt>
      <trkpt lat="43.50217" lon="6.7947">
        <ele>301</ele>
        <time>2012-11-01T10:05:16Z</time>
      </trkpt>
      <trkpt lat="43.50217" lon="6.79467">
        <ele>301</ele>
        <time>2012-11-01T10:05:16Z</time>
      </trkpt>
      <trkpt lat="43.50217" lon="6.79463">
        <ele>302</ele>
        <time>2012-11-01T10:05:17Z</time>
      </trkpt>
      <trkpt lat="43.50217" lon="6.7946">
        <ele>302</ele>
        <time>2012-11-01T10:05:18Z</time>
      </trkpt>
      <trkpt lat="43.50217" lon="6.79457">
        <ele>302</ele>
        <time>2012-11-01T10:05:20Z</time>
      </trkpt>
      <trkpt lat="43.50216" lon="6.79453">
        <ele>302</ele>
        <time>2012-11-01T10:05:20Z</time>
      </trkpt>
      <trkpt lat="43.50216" lon="6.7945">
        <ele>303</ele>
        <time>2012-11-01T10:05:21Z</time>
      </trkpt>
      <trkpt lat="43.50215" lon="6.79446">
        <ele>303</ele>
        <time>2012-11-01T10:05:22Z</time>
      </trkpt>
      <trkpt lat="43.50214" lon="6.79443">
        <ele>303</ele>
        <time>2012-11-01T10:05:24Z</time>
      </trkpt>
      <trkpt lat="43.50213" lon="6.79439">
        <ele>303</ele>
        <time>2012-11-01T10:05:24Z</time>
      </trkpt>
      <trkpt lat="43.50212" lon="6.79436">
        <ele>304</ele>
        <time>2012-11-01T10:05:25Z</time>
      </trkpt>
      <trkpt lat="43.50211" lon="6.79433">
        <ele>304</ele>
        <time>2012-11-01T10:05:26Z</time>
      </trkpt>
      <trkpt lat="43.5021" lon="6.7943">
        <ele>304</ele>
        <time>2012-11-01T10:05:27Z</time>
      </trkpt>
      <trkpt lat="43.50209" lon="6.79427">
        <ele>304</ele>
        <time>2012-11-01T10:05:28Z</time>
      </trkpt>
      <trkpt lat="43.50207" lon="6.79424">
        <ele>305</ele>
        <time>2012-11-01T10:05:29Z</time>
      </trkpt>
      <trkpt lat="43.50206" lon="6.79421">
        <ele>305</ele>
        <time>2012-11-01T10:05:30Z</time>
      </trkpt>
      <trkpt lat="43.50205" lon="6.79418">
        <ele>305</ele>
        <time>2012-11-01T10:05:31Z</time>
      </trkpt>
      <trkpt lat="43.50205" lon="6.79415">
        <ele>305</ele>
        <time>2012-11-01T10:05:32Z</time>
      </trkpt>
      <trkpt lat="43.50204" lon="6.79412">
        <ele>305</ele>
        <time>2012-11-01T10:05:33Z</time>
      </trkpt>
      <trkpt lat="43.50204" lon="6.79408">
        <ele>306</ele>
        <time>2012-11-01T10:05:34Z</time>
      </trkpt>
      <trkpt lat="43.50205" lon="6.79405">
        <ele>306</ele>
        <time>2012-11-01T10:05:36Z</time>
      </trkpt>
      <trkpt lat="43.50206" lon="6.79402">
        <ele>306</ele>
        <time>2012-11-01T10:05:37Z</time>
      </trkpt>
      <trkpt lat="43.50207" lon="6.79399">
        <ele>306</ele>
        <time>2012-11-01T10:05:37Z</time>
      </trkpt>
      <trkpt lat="43.50208" lon="6.79397">
        <ele>307</ele>
        <time>2012-11-01T10:05:38Z</time>
      </trkpt>
      <trkpt lat="43.50209" lon="6.79394">
        <ele>307</ele>
        <time>2012-11-01T10:05:39Z</time>
      </trkpt>
      <trkpt lat="43.50211" lon="6.79392">
        <ele>307</ele>
        <time>2012-11-01T10:05:40Z</time>
      </trkpt>
      <trkpt lat="43.50212" lon="6.79389">
        <ele>307</ele>
        <time>2012-11-01T10:05:41Z</time>
      </trkpt>
      <trkpt lat="43.50213" lon="6.79386">
        <ele>307</ele>
        <time>2012-11-01T10:05:42Z</time>
      </trkpt>
      <trkpt lat="43.50214" lon="6.79384">
        <ele>307</ele>
        <time>2012-11-01T10:05:44Z</time>
      </trkpt>
      <trkpt lat="43.50215" lon="6.79381">
        <ele>307</ele>
        <time>2012-11-01T10:05:44Z</time>
      </trkpt>
      <trkpt lat="43.50217" lon="6.79378">
        <ele>307</ele>
        <time>2012-11-01T10:05:45Z</time>
      </trkpt>
      <trkpt lat="43.50218" lon="6.79375">
        <ele>307</ele>
        <time>2012-11-01T10:05:46Z</time>
      </trkpt>
      <trkpt lat="43.50219" lon="6.79372">
        <ele>307</ele>
        <time>2012-11-01T10:05:48Z</time>
      </trkpt>
      <trkpt lat="43.50219" lon="6.79369">
        <ele>308</ele>
        <time>2012-11-01T10:05:48Z</time>
      </trkpt>
      <trkpt lat="43.5022" lon="6.79365">
        <ele>308</ele>
        <time>2012-11-01T10:05:49Z</time>
      </trkpt>
      <trkpt lat="43.50219" lon="6.79362">
        <ele>308</ele>
        <time>2012-11-01T10:05:50Z</time>
      </trkpt>
      <trkpt lat="43.50219" lon="6.7936">
        <ele>308</ele>
        <time>2012-11-01T10:05:52Z</time>
      </trkpt>
      <trkpt lat="43.50217" lon="6.79357">
        <ele>309</ele>
        <time>2012-11-01T10:05:52Z</time>
      </trkpt>
      <trkpt lat="43.50216" lon="6.79355">
        <ele>309</ele>
        <time>2012-11-01T10:05:54Z</time>
      </trkpt>
      <trkpt lat="43.50215" lon="6.79352">
        <ele>309</ele>
        <time>2012-11-01T10:05:54Z</time>
      </trkpt>
      <trkpt lat="43.50214" lon="6.7935">
        <ele>309</ele>
        <time>2012-11-01T10:05:55Z</time>
      </trkpt>
      <trkpt lat="43.50214" lon="6.79348">
        <ele>310</ele>
        <time>2012-11-01T10:05:56Z</time>
      </trkpt>
      <trkpt lat="43.50213" lon="6.79346">
        <ele>310</ele>
        <time>2012-11-01T10:05:57Z</time>
      </trkpt>
      <trkpt lat="43.50213" lon="6.79344">
        <ele>310</ele>
        <time>2012-11-01T10:05:58Z</time>
      </trkpt>
      <trkpt lat="43.50212" lon="6.79342">
        <ele>310</ele>
        <time>2012-11-01T10:05:59Z</time>
      </trkpt>
      <trkpt lat="43.50212" lon="6.7934">
        <ele>311</ele>
        <time>2012-11-01T10:06:01Z</time>
      </trkpt>
      <trkpt lat="43.50211" lon="6.79338">
        <ele>311</ele>
        <time>2012-11-01T10:06:01Z</time>
      </trkpt>
      <trkpt lat="43.50209" lon="6.79335">
        <ele>311</ele>
        <time>2012-11-01T10:06:04Z</time>
      </trkpt>
      <trkpt lat="43.50208" lon="6.79333">
        <ele>311</ele>
        <time>2012-11-01T10:06:05Z</time>
      </trkpt>
      <trkpt lat="43.50208" lon="6.7933">
        <ele>312</ele>
        <time>2012-11-01T10:06:08Z</time>
      </trkpt>
      <trkpt lat="43.50208" lon="6.79328">
        <ele>312</ele>
        <time>2012-11-01T10:06:08Z</time>
      </trkpt>
      <trkpt lat="43.50209" lon="6.79325">
        <ele>312</ele>
        <time>2012-11-01T10:06:10Z</time>
      </trkpt>
      <trkpt lat="43.50209" lon="6.79323">
        <ele>312</ele>
        <time>2012-11-01T10:06:10Z</time>
      </trkpt>
      <trkpt lat="43.5021" lon="6.7932">
        <ele>312</ele>
        <time>2012-11-01T10:06:11Z</time>
      </trkpt>
      <trkpt lat="43.50211" lon="6.79317">
        <ele>312</ele>
        <time>2012-11-01T10:06:12Z</time>
      </trkpt>
      <trkpt lat="43.50212" lon="6.79315">
        <ele>312</ele>
        <time>2012-11-01T10:06:13Z</time>
      </trkpt>
      <trkpt lat="43.50214" lon="6.79313">
        <ele>312</ele>
        <time>2012-11-01T10:06:14Z</time>
      </trkpt>
      <trkpt lat="43.50216" lon="6.79312">
        <ele>312</ele>
        <time>2012-11-01T10:06:15Z</time>
      </trkpt>
      <trkpt lat="43.50219" lon="6.79311">
        <ele>312</ele>
        <time>2012-11-01T10:06:16Z</time>
      </trkpt>
      <trkpt lat="43.50221" lon="6.79311">
        <ele>312</ele>
        <time>2012-11-01T10:06:17Z</time>
      </trkpt>
      <trkpt lat="43.50224" lon="6.7931">
        <ele>312</ele>
        <time>2012-11-01T10:06:18Z</time>
      </trkpt>
      <trkpt lat="43.50226" lon="6.79309">
        <ele>312</ele>
        <time>2012-11-01T10:06:19Z</time>
      </trkpt>
      <trkpt lat="43.50229" lon="6.79308">
        <ele>312</ele>
        <time>2012-11-01T10:06:20Z</time>
      </trkpt>
      <trkpt lat="43.50233" lon="6.79306">
        <ele>312</ele>
        <time>2012-11-01T10:06:21Z</time>
      </trkpt>
      <trkpt lat="43.50236" lon="6.79303">
        <ele>312</ele>
        <time>2012-11-01T10:06:22Z</time>
      </trkpt>
      <trkpt lat="43.50239" lon="6.79299">
        <ele>312</ele>
        <time>2012-11-01T10:06:23Z</time>
      </trkpt>
      <trkpt lat="43.50241" lon="6.79294">
        <ele>312</ele>
        <time>2012-11-01T10:06:24Z</time>
      </trkpt>
      <trkpt lat="43.50243" lon="6.7929">
        <ele>312</ele>
        <time>2012-11-01T10:06:25Z</time>
      </trkpt>
      <trkpt lat="43.50246" lon="6.79285">
        <ele>312</ele>
        <time>2012-11-01T10:06:26Z</time>
      </trkpt>
      <trkpt lat="43.50248" lon="6.79281">
        <ele>312</ele>
        <time>2012-11-01T10:06:27Z</time>
      </trkpt>
      <trkpt lat="43.50251" lon="6.79277">
        <ele>312</ele>
        <time>2012-11-01T10:06:28Z</time>
      </trkpt>
      <trkpt lat="43.50255" lon="6.79274">
        <ele>312</ele>
        <time>2012-11-01T10:06:29Z</time>
      </trkpt>
      <trkpt lat="43.50259" lon="6.79273">
        <ele>312</ele>
        <time>2012-11-01T10:06:31Z</time>
      </trkpt>
      <trkpt lat="43.50263" lon="6.79272">
        <ele>312</ele>
        <time>2012-11-01T10:06:31Z</time>
      </trkpt>
      <trkpt lat="43.50268" lon="6.79272">
        <ele>312</ele>
        <time>2012-11-01T10:06:32Z</time>
      </trkpt>
      <trkpt lat="43.50272" lon="6.79273">
        <ele>312</ele>
        <time>2012-11-01T10:06:33Z</time>
      </trkpt>
      <trkpt lat="43.50277" lon="6.79274">
        <ele>312</ele>
        <time>2012-11-01T10:06:34Z</time>
      </trkpt>
      <trkpt lat="43.50282" lon="6.79276">
        <ele>312</ele>
        <time>2012-11-01T10:06:36Z</time>
      </trkpt>
      <trkpt lat="43.50286" lon="6.79279">
        <ele>312</ele>
        <time>2012-11-01T10:06:36Z</time>
      </trkpt>
      <trkpt lat="43.5029" lon="6.79282">
        <ele>312</ele>
        <time>2012-11-01T10:06:37Z</time>
      </trkpt>
      <trkpt lat="43.50294" lon="6.79284">
        <ele>312</ele>
        <time>2012-11-01T10:06:38Z</time>
      </trkpt>
      <trkpt lat="43.50299" lon="6.79286">
        <ele>312</ele>
        <time>2012-11-01T10:06:39Z</time>
      </trkpt>
      <trkpt lat="43.50304" lon="6.79287">
        <ele>311</ele>
        <time>2012-11-01T10:06:41Z</time>
      </trkpt>
      <trkpt lat="43.50309" lon="6.79287">
        <ele>311</ele>
        <time>2012-11-01T10:06:41Z</time>
      </trkpt>
      <trkpt lat="43.50313" lon="6.79286">
        <ele>311</ele>
        <time>2012-11-01T10:06:42Z</time>
      </trkpt>
      <trkpt lat="43.50318" lon="6.79284">
        <ele>311</ele>
        <time>2012-11-01T10:06:43Z</time>
      </trkpt>
      <trkpt lat="43.50323" lon="6.79283">
        <ele>310</ele>
        <time>2012-11-01T10:06:44Z</time>
      </trkpt>
      <trkpt lat="43.50328" lon="6.79281">
        <ele>310</ele>
        <time>2012-11-01T10:06:45Z</time>
      </trkpt>
      <trkpt lat="43.50333" lon="6.79279">
        <ele>309</ele>
        <time>2012-11-01T10:06:47Z</time>
      </trkpt>
      <trkpt lat="43.50338" lon="6.79275">
        <ele>309</ele>
        <time>2012-11-01T10:06:47Z</time>
      </trkpt>
      <trkpt lat="43.50342" lon="6.79271">
        <ele>308</ele>
        <time>2012-11-01T10:06:48Z</time>
      </trkpt>
      <trkpt lat="43.50346" lon="6.79265">
        <ele>307</ele>
        <time>2012-11-01T10:06:49Z</time>
      </trkpt>
      <trkpt lat="43.50349" lon="6.7926">
        <ele>307</ele>
        <time>2012-11-01T10:06:50Z</time>
      </trkpt>
      <trkpt lat="43.50353" lon="6.79255">
        <ele>307</ele>
        <time>2012-11-01T10:06:52Z</time>
      </trkpt>
      <trkpt lat="43.50357" lon="6.7925">
        <ele>306</ele>
        <time>2012-11-01T10:06:52Z</time>
      </trkpt>
      <trkpt lat="43.50362" lon="6.79245">
        <ele>306</ele>
        <time>2012-11-01T10:06:53Z</time>
      </trkpt>
      <trkpt lat="43.50366" lon="6.7924">
        <ele>306</ele>
        <time>2012-11-01T10:06:54Z</time>
      </trkpt>
      <trkpt lat="43.5037" lon="6.79235">
        <ele>305</ele>
        <time>2012-11-01T10:06:55Z</time>
      </trkpt>
      <trkpt lat="43.50374" lon="6.79229">
        <ele>305</ele>
        <time>2012-11-01T10:06:57Z</time>
      </trkpt>
      <trkpt lat="43.50378" lon="6.79223">
        <ele>305</ele>
        <time>2012-11-01T10:06:57Z</time>
      </trkpt>
      <trkpt lat="43.5038" lon="6.79216">
        <ele>305</ele>
        <time>2012-11-01T10:06:58Z</time>
      </trkpt>
      <trkpt lat="43.50382" lon="6.7921">
        <ele>305</ele>
        <time>2012-11-01T10:06:59Z</time>
      </trkpt>
      <trkpt lat="43.50382" lon="6.79203">
        <ele>305</ele>
        <time>2012-11-01T10:07:00Z</time>
      </trkpt>
      <trkpt lat="43.50382" lon="6.79196">
        <ele>304</ele>
        <time>2012-11-01T10:07:01Z</time>
      </trkpt>
      <trkpt lat="43.50381" lon="6.79189">
        <ele>304</ele>
        <time>2012-11-01T10:07:03Z</time>
      </trkpt>
      <trkpt lat="43.50381" lon="6.79182">
        <ele>304</ele>
        <time>2012-11-01T10:07:03Z</time>
      </trkpt>
      <trkpt lat="43.50381" lon="6.79175">
        <ele>304</ele>
        <time>2012-11-01T10:07:04Z</time>
      </trkpt>
      <trkpt lat="43.50383" lon="6.79169">
        <ele>304</ele>
        <time>2012-11-01T10:07:05Z</time>
      </trkpt>
      <trkpt lat="43.50386" lon="6.79163">
        <ele>303</ele>
        <time>2012-11-01T10:07:06Z</time>
      </trkpt>
      <trkpt lat="43.50391" lon="6.79157">
        <ele>303</ele>
        <time>2012-11-01T10:07:08Z</time>
      </trkpt>
      <trkpt lat="43.50394" lon="6.79152">
        <ele>303</ele>
        <time>2012-11-01T10:07:08Z</time>
      </trkpt>
      <trkpt lat="43.50398" lon="6.79145">
        <ele>303</ele>
        <time>2012-11-01T10:07:09Z</time>
      </trkpt>
      <trkpt lat="43.50402" lon="6.79139">
        <ele>302</ele>
        <time>2012-11-01T10:07:10Z</time>
      </trkpt>
      <trkpt lat="43.50406" lon="6.79134">
        <ele>302</ele>
        <time>2012-11-01T10:07:11Z</time>
      </trkpt>
      <trkpt lat="43.5041" lon="6.79127">
        <ele>301</ele>
        <time>2012-11-01T10:07:13Z</time>
      </trkpt>
      <trkpt lat="43.50414" lon="6.79121">
        <ele>301</ele>
        <time>2012-11-01T10:07:13Z</time>
      </trkpt>
      <trkpt lat="43.50418" lon="6.79114">
        <ele>301</ele>
        <time>2012-11-01T10:07:14Z</time>
      </trkpt>
      <trkpt lat="43.5042" lon="6.79106">
        <ele>301</ele>
        <time>2012-11-01T10:07:15Z</time>
      </trkpt>
      <trkpt lat="43.50422" lon="6.79097">
        <ele>300</ele>
        <time>2012-11-01T10:07:16Z</time>
      </trkpt>
      <trkpt lat="43.5042" lon="6.79088">
        <ele>300</ele>
        <time>2012-11-01T10:07:17Z</time>
      </trkpt>
      <trkpt lat="43.50419" lon="6.7908">
        <ele>300</ele>
        <time>2012-11-01T10:07:18Z</time>
      </trkpt>
      <trkpt lat="43.50417" lon="6.79072">
        <ele>299</ele>
        <time>2012-11-01T10:07:19Z</time>
      </trkpt>
      <trkpt lat="43.50416" lon="6.79063">
        <ele>299</ele>
        <time>2012-11-01T10:07:20Z</time>
      </trkpt>
      <trkpt lat="43.50416" lon="6.79055">
        <ele>299</ele>
        <time>2012-11-01T10:07:21Z</time>
      </trkpt>
      <trkpt lat="43.50418" lon="6.79048">
        <ele>298</ele>
        <time>2012-11-01T10:07:23Z</time>
      </trkpt>
      <trkpt lat="43.50421" lon="6.79044">
        <ele>298</ele>
        <time>2012-11-01T10:07:23Z</time>
      </trkpt>
      <trkpt lat="43.50425" lon="6.79043">
        <ele>298</ele>
        <time>2012-11-01T10:07:24Z</time>
      </trkpt>
      <trkpt lat="43.50429" lon="6.79045">
        <ele>297</ele>
        <time>2012-11-01T10:07:25Z</time>
      </trkpt>
      <trkpt lat="43.50433" lon="6.79047">
        <ele>297</ele>
        <time>2012-11-01T10:07:26Z</time>
      </trkpt>
      <trkpt lat="43.50437" lon="6.7905">
        <ele>297</ele>
        <time>2012-11-01T10:07:28Z</time>
      </trkpt>
      <trkpt lat="43.50441" lon="6.79053">
        <ele>296</ele>
        <time>2012-11-01T10:07:28Z</time>
      </trkpt>
      <trkpt lat="43.50445" lon="6.79056">
        <ele>296</ele>
        <time>2012-11-01T10:07:29Z</time>
      </trkpt>
      <trkpt lat="43.50449" lon="6.79059">
        <ele>296</ele>
        <time>2012-11-01T10:07:30Z</time>
      </trkpt>
      <trkpt lat="43.50454" lon="6.79061">
        <ele>296</ele>
        <time>2012-11-01T10:07:31Z</time>
      </trkpt>
      <trkpt lat="43.5046" lon="6.79062">
        <ele>295</ele>
        <time>2012-11-01T10:07:33Z</time>
      </trkpt>
      <trkpt lat="43.50466" lon="6.79063">
        <ele>295</ele>
        <time>2012-11-01T10:07:33Z</time>
      </trkpt>
      <trkpt lat="43.50472" lon="6.79064">
        <ele>295</ele>
        <time>2012-11-01T10:07:34Z</time>
      </trkpt>
      <trkpt lat="43.50478" lon="6.79067">
        <ele>294</ele>
        <time>2012-11-01T10:07:35Z</time>
      </trkpt>
      <trkpt lat="43.50483" lon="6.79071">
        <ele>294</ele>
        <time>2012-11-01T10:07:36Z</time>
      </trkpt>
      <trkpt lat="43.50489" lon="6.79075">
        <ele>294</ele>
        <time>2012-11-01T10:07:37Z</time>
      </trkpt>
      <trkpt lat="43.50495" lon="6.7908">
        <ele>293</ele>
        <time>2012-11-01T10:07:39Z</time>
      </trkpt>
      <trkpt lat="43.50501" lon="6.79083">
        <ele>293</ele>
        <time>2012-11-01T10:07:39Z</time>
      </trkpt>
      <trkpt lat="43.50507" lon="6.79085">
        <ele>293</ele>
        <time>2012-11-01T10:07:40Z</time>
      </trkpt>
      <trkpt lat="43.50514" lon="6.79084">
        <ele>292</ele>
        <time>2012-11-01T10:07:41Z</time>
      </trkpt>
      <trkpt lat="43.5052" lon="6.79079">
        <ele>292</ele>
        <time>2012-11-01T10:07:42Z</time>
      </trkpt>
      <trkpt lat="43.50525" lon="6.79073">
        <ele>292</ele>
        <time>2012-11-01T10:07:43Z</time>
      </trkpt>
      <trkpt lat="43.50528" lon="6.79067">
        <ele>291</ele>
        <time>2012-11-01T10:07:45Z</time>
      </trkpt>
      <trkpt lat="43.50532" lon="6.79059">
        <ele>291</ele>
        <time>2012-11-01T10:07:45Z</time>
      </trkpt>
      <trkpt lat="43.50536" lon="6.79052">
        <ele>290</ele>
        <time>2012-11-01T10:07:46Z</time>
      </trkpt>
      <trkpt lat="43.50539" lon="6.79044">
        <ele>290</ele>
        <time>2012-11-01T10:07:47Z</time>
      </trkpt>
      <trkpt lat="43.50543" lon="6.79037">
        <ele>289</ele>
        <time>2012-11-01T10:07:48Z</time>
      </trkpt>
      <trkpt lat="43.50547" lon="6.79028">
        <ele>289</ele>
        <time>2012-11-01T10:07:49Z</time>
      </trkpt>
      <trkpt lat="43.5055" lon="6.79019">
        <ele>288</ele>
        <time>2012-11-01T10:07:50Z</time>
      </trkpt>
      <trkpt lat="43.50554" lon="6.7901">
        <ele>287</ele>
        <time>2012-11-01T10:07:51Z</time>
      </trkpt>
      <trkpt lat="43.50557" lon="6.79001">
        <ele>287</ele>
        <time>2012-11-01T10:07:52Z</time>
      </trkpt>
      <trkpt lat="43.5056" lon="6.78992">
        <ele>287</ele>
        <time>2012-11-01T10:07:53Z</time>
      </trkpt>
      <trkpt lat="43.50563" lon="6.78982">
        <ele>286</ele>
        <time>2012-11-01T10:07:54Z</time>
      </trkpt>
      <trkpt lat="43.50566" lon="6.78973">
        <ele>286</ele>
        <time>2012-11-01T10:07:56Z</time>
      </trkpt>
      <trkpt lat="43.50568" lon="6.78963">
        <ele>286</ele>
        <time>2012-11-01T10:07:56Z</time>
      </trkpt>
      <trkpt lat="43.5057" lon="6.78954">
        <ele>285</ele>
        <time>2012-11-01T10:07:57Z</time>
      </trkpt>
      <trkpt lat="43.50571" lon="6.78944">
        <ele>285</ele>
        <time>2012-11-01T10:07:58Z</time>
      </trkpt>
      <trkpt lat="43.50571" lon="6.78934">
        <ele>285</ele>
        <time>2012-11-01T10:07:59Z</time>
      </trkpt>
      <trkpt lat="43.5057" lon="6.78925">
        <ele>285</ele>
        <time>2012-11-01T10:08:00Z</time>
      </trkpt>
      <trkpt lat="43.50567" lon="6.78916">
        <ele>284</ele>
        <time>2012-11-01T10:08:01Z</time>
      </trkpt>
      <trkpt lat="43.50564" lon="6.78908">
        <ele>284</ele>
        <time>2012-11-01T10:08:02Z</time>
      </trkpt>
      <trkpt lat="43.50559" lon="6.78902">
        <ele>284</ele>
        <time>2012-11-01T10:08:03Z</time>
      </trkpt>
      <trkpt lat="43.50553" lon="6.78897">
        <ele>284</ele>
        <time>2012-11-01T10:08:04Z</time>
      </trkpt>
      <trkpt lat="43.50547" lon="6.78893">
        <ele>284</ele>
        <time>2012-11-01T10:08:05Z</time>
      </trkpt>
      <trkpt lat="43.50542" lon="6.78889">
        <ele>284</ele>
        <time>2012-11-01T10:08:07Z</time>
      </trkpt>
      <trkpt lat="43.50536" lon="6.78884">
        <ele>284</ele>
        <time>2012-11-01T10:08:07Z</time>
      </trkpt>
      <trkpt lat="43.50531" lon="6.78878">
        <ele>284</ele>
        <time>2012-11-01T10:08:08Z</time>
      </trkpt>
      <trkpt lat="43.50526" lon="6.78871">
        <ele>284</ele>
        <time>2012-11-01T10:08:09Z</time>
      </trkpt>
      <trkpt lat="43.50522" lon="6.78863">
        <ele>284</ele>
        <time>2012-11-01T10:08:10Z</time>
      </trkpt>
      <trkpt lat="43.5052" lon="6.78853">
        <ele>284</ele>
        <time>2012-11-01T10:08:12Z</time>
      </trkpt>
      <trkpt lat="43.50521" lon="6.78843">
        <ele>284</ele>
        <time>2012-11-01T10:08:12Z</time>
      </trkpt>
      <trkpt lat="43.50524" lon="6.78833">
        <ele>283</ele>
        <time>2012-11-01T10:08:13Z</time>
      </trkpt>
      <trkpt lat="43.50526" lon="6.78824">
        <ele>283</ele>
        <time>2012-11-01T10:08:14Z</time>
      </trkpt>
      <trkpt lat="43.50529" lon="6.78815">
        <ele>283</ele>
        <time>2012-11-01T10:08:15Z</time>
      </trkpt>
      <trkpt lat="43.50534" lon="6.78806">
        <ele>283</ele>
        <time>2012-11-01T10:08:16Z</time>
      </trkpt>
      <trkpt lat="43.50537" lon="6.78797">
        <ele>283</ele>
        <time>2012-11-01T10:08:17Z</time>
      </trkpt>
      <trkpt lat="43.50542" lon="6.78789">
        <ele>283</ele>
        <time>2012-11-01T10:08:18Z</time>
      </trkpt>
      <trkpt lat="43.50548" lon="6.78783">
        <ele>283</ele>
        <time>2012-11-01T10:08:19Z</time>
      </trkpt>
      <trkpt lat="43.50556" lon="6.78779">
        <ele>283</ele>
        <time>2012-11-01T10:08:20Z</time>
      </trkpt>
      <trkpt lat="43.50562" lon="6.78774">
        <ele>283</ele>
        <time>2012-11-01T10:08:21Z</time>
      </trkpt>
      <trkpt lat="43.50565" lon="6.78768">
        <ele>283</ele>
        <time>2012-11-01T10:08:22Z</time>
      </trkpt>
      <trkpt lat="43.50569" lon="6.78762">
        <ele>283</ele>
        <time>2012-11-01T10:08:23Z</time>
      </trkpt>
      <trkpt lat="43.50571" lon="6.78754">
        <ele>283</ele>
        <time>2012-11-01T10:08:24Z</time>
      </trkpt>
      <trkpt lat="43.50573" lon="6.78745">
        <ele>283</ele>
        <time>2012-11-01T10:08:25Z</time>
      </trkpt>
      <trkpt lat="43.50575" lon="6.78736">
        <ele>282</ele>
        <time>2012-11-01T10:08:26Z</time>
      </trkpt>
      <trkpt lat="43.50576" lon="6.78727">
        <ele>282</ele>
        <time>2012-11-01T10:08:27Z</time>
      </trkpt>
      <trkpt lat="43.50577" lon="6.78717">
        <ele>281</ele>
        <time>2012-11-01T10:08:28Z</time>
      </trkpt>
      <trkpt lat="43.50577" lon="6.78707">
        <ele>281</ele>
        <time>2012-11-01T10:08:29Z</time>
      </trkpt>
      <trkpt lat="43.50576" lon="6.78697">
        <ele>280</ele>
        <time>2012-11-01T10:08:30Z</time>
      </trkpt>
      <trkpt lat="43.50574" lon="6.78688">
        <ele>280</ele>
        <time>2012-11-01T10:08:31Z</time>
      </trkpt>
      <trkpt lat="43.50571" lon="6.7868">
        <ele>279</ele>
        <time>2012-11-01T10:08:32Z</time>
      </trkpt>
      <trkpt lat="43.50567" lon="6.78672">
        <ele>279</ele>
        <time>2012-11-01T10:08:33Z</time>
      </trkpt>
      <trkpt lat="43.50563" lon="6.78664">
        <ele>278</ele>
        <time>2012-11-01T10:08:34Z</time>
      </trkpt>
      <trkpt lat="43.50558" lon="6.78657">
        <ele>277</ele>
        <time>2012-11-01T10:08:35Z</time>
      </trkpt>
      <trkpt lat="43.50555" lon="6.78649">
        <ele>277</ele>
        <time>2012-11-01T10:08:36Z</time>
      </trkpt>
      <trkpt lat="43.50552" lon="6.7864">
        <ele>276</ele>
        <time>2012-11-01T10:08:37Z</time>
      </trkpt>
      <trkpt lat="43.50549" lon="6.78631">
        <ele>276</ele>
        <time>2012-11-01T10:08:38Z</time>
      </trkpt>
      <trkpt lat="43.50546" lon="6.78622">
        <ele>275</ele>
        <time>2012-11-01T10:08:39Z</time>
      </trkpt>
      <trkpt lat="43.50544" lon="6.78614">
        <ele>275</ele>
        <time>2012-11-01T10:08:40Z</time>
      </trkpt>
      <trkpt lat="43.50543" lon="6.78605">
        <ele>275</ele>
        <time>2012-11-01T10:08:41Z</time>
      </trkpt>
      <trkpt lat="43.50542" lon="6.78597">
        <ele>274</ele>
        <time>2012-11-01T10:08:42Z</time>
      </trkpt>
      <trkpt lat="43.50541" lon="6.78589">
        <ele>274</ele>
        <time>2012-11-01T10:08:43Z</time>
      </trkpt>
      <trkpt lat="43.5054" lon="6.78581">
        <ele>274</ele>
        <time>2012-11-01T10:08:44Z</time>
      </trkpt>
      <trkpt lat="43.5054" lon="6.78573">
        <ele>274</ele>
        <time>2012-11-01T10:08:45Z</time>
      </trkpt>
      <trkpt lat="43.5054" lon="6.78565">
        <ele>274</ele>
        <time>2012-11-01T10:08:46Z</time>
      </trkpt>
      <trkpt lat="43.50541" lon="6.78557">
        <ele>274</ele>
        <time>2012-11-01T10:08:47Z</time>
      </trkpt>
      <trkpt lat="43.50544" lon="6.78552">
        <ele>274</ele>
        <time>2012-11-01T10:08:48Z</time>
      </trkpt>
      <trkpt lat="43.50549" lon="6.7855">
        <ele>274</ele>
        <time>2012-11-01T10:08:49Z</time>
      </trkpt>
      <trkpt lat="43.50555" lon="6.7855">
        <ele>274</ele>
        <time>2012-11-01T10:08:50Z</time>
      </trkpt>
      <trkpt lat="43.5056" lon="6.78553">
        <ele>274</ele>
        <time>2012-11-01T10:08:51Z</time>
      </trkpt>
      <trkpt lat="43.50565" lon="6.78557">
        <ele>274</ele>
        <time>2012-11-01T10:08:52Z</time>
      </trkpt>
      <trkpt lat="43.50571" lon="6.7856">
        <ele>274</ele>
        <time>2012-11-01T10:08:54Z</time>
      </trkpt>
      <trkpt lat="43.50577" lon="6.78565">
        <ele>274</ele>
        <time>2012-11-01T10:08:54Z</time>
      </trkpt>
      <trkpt lat="43.50582" lon="6.78569">
        <ele>274</ele>
        <time>2012-11-01T10:08:55Z</time>
      </trkpt>
      <trkpt lat="43.50588" lon="6.78574">
        <ele>274</ele>
        <time>2012-11-01T10:08:56Z</time>
      </trkpt>
      <trkpt lat="43.50594" lon="6.78578">
        <ele>274</ele>
        <time>2012-11-01T10:08:57Z</time>
      </trkpt>
      <trkpt lat="43.50599" lon="6.78582">
        <ele>274</ele>
        <time>2012-11-01T10:08:58Z</time>
      </trkpt>
      <trkpt lat="43.50605" lon="6.78586">
        <ele>274</ele>
        <time>2012-11-01T10:09:00Z</time>
      </trkpt>
      <trkpt lat="43.50611" lon="6.78588">
        <ele>274</ele>
        <time>2012-11-01T10:09:00Z</time>
      </trkpt>
      <trkpt lat="43.50618" lon="6.78589">
        <ele>273</ele>
        <time>2012-11-01T10:09:01Z</time>
      </trkpt>
      <trkpt lat="43.50624" lon="6.7859">
        <ele>273</ele>
        <time>2012-11-01T10:09:02Z</time>
      </trkpt>
      <trkpt lat="43.50631" lon="6.78589">
        <ele>273</ele>
        <time>2012-11-01T10:09:03Z</time>
      </trkpt>
      <trkpt lat="43.50637" lon="6.78588">
        <ele>273</ele>
        <time>2012-11-01T10:09:04Z</time>
      </trkpt>
      <trkpt lat="43.50644" lon="6.78586">
        <ele>273</ele>
        <time>2012-11-01T10:09:05Z</time>
      </trkpt>
      <trkpt lat="43.5065" lon="6.78585">
        <ele>272</ele>
        <time>2012-11-01T10:09:06Z</time>
      </trkpt>
      <trkpt lat="43.50657" lon="6.78586">
        <ele>272</ele>
        <time>2012-11-01T10:09:07Z</time>
      </trkpt>
      <trkpt lat="43.50664" lon="6.78586">
        <ele>272</ele>
        <time>2012-11-01T10:09:08Z</time>
      </trkpt>
      <trkpt lat="43.50671" lon="6.78588">
        <ele>271</ele>
        <time>2012-11-01T10:09:09Z</time>
      </trkpt>
      <trkpt lat="43.50678" lon="6.78588">
        <ele>271</ele>
        <time>2012-11-01T10:09:10Z</time>
      </trkpt>
      <trkpt lat="43.50685" lon="6.78589">
        <ele>271</ele>
        <time>2012-11-01T10:09:11Z</time>
      </trkpt>
      <trkpt lat="43.50692" lon="6.78589">
        <ele>270</ele>
        <time>2012-11-01T10:09:12Z</time>
      </trkpt>
      <trkpt lat="43.507" lon="6.78589">
        <ele>270</ele>
        <time>2012-11-01T10:09:13Z</time>
      </trkpt>
      <trkpt lat="43.50708" lon="6.78589">
        <ele>270</ele>
        <time>2012-11-01T10:09:14Z</time>
      </trkpt>
      <trkpt lat="43.50715" lon="6.78592">
        <ele>270</ele>
        <time>2012-11-01T10:09:16Z</time>
      </trkpt>
      <trkpt lat="43.50721" lon="6.78596">
        <ele>269</ele>
        <time>2012-11-01T10:09:16Z</time>
      </trkpt>
      <trkpt lat="43.50728" lon="6.78601">
        <ele>269</ele>
        <time>2012-11-01T10:09:17Z</time>
      </trkpt>
      <trkpt lat="43.50734" lon="6.78605">
        <ele>269</ele>
        <time>2012-11-01T10:09:18Z</time>
      </trkpt>
      <trkpt lat="43.50741" lon="6.78607">
        <ele>268</ele>
        <time>2012-11-01T10:09:19Z</time>
      </trkpt>
      <trkpt lat="43.50747" lon="6.78609">
        <ele>268</ele>
        <time>2012-11-01T10:09:20Z</time>
      </trkpt>
      <trkpt lat="43.50754" lon="6.78609">
        <ele>268</ele>
        <time>2012-11-01T10:09:21Z</time>
      </trkpt>
      <trkpt lat="43.50761" lon="6.78608">
        <ele>267</ele>
        <time>2012-11-01T10:09:22Z</time>
      </trkpt>
      <trkpt lat="43.50767" lon="6.78605">
        <ele>267</ele>
        <time>2012-11-01T10:09:23Z</time>
      </trkpt>
      <trkpt lat="43.50774" lon="6.78601">
        <ele>267</ele>
        <time>2012-11-01T10:09:24Z</time>
      </trkpt>
      <trkpt lat="43.5078" lon="6.78596">
        <ele>267</ele>
        <time>2012-11-01T10:09:25Z</time>
      </trkpt>
      <trkpt lat="43.50785" lon="6.7859">
        <ele>267</ele>
        <time>2012-11-01T10:09:26Z</time>
      </trkpt>
      <trkpt lat="43.50791" lon="6.78585">
        <ele>267</ele>
        <time>2012-11-01T10:09:27Z</time>
      </trkpt>
      <trkpt lat="43.50797" lon="6.78579">
        <ele>267</ele>
        <time>2012-11-01T10:09:28Z</time>
      </trkpt>
      <trkpt lat="43.50804" lon="6.78573">
        <ele>267</ele>
        <time>2012-11-01T10:09:30Z</time>
      </trkpt>
      <trkpt lat="43.5081" lon="6.78567">
        <ele>266</ele>
        <time>2012-11-01T10:09:31Z</time>
      </trkpt>
      <trkpt lat="43.50816" lon="6.78562">
        <ele>266</ele>
        <time>2012-11-01T10:09:31Z</time>
      </trkpt>
      <trkpt lat="43.50823" lon="6.78557">
        <ele>266</ele>
        <time>2012-11-01T10:09:32Z</time>
      </trkpt>
      <trkpt lat="43.50829" lon="6.78554">
        <ele>266</ele>
        <time>2012-11-01T10:09:33Z</time>
      </trkpt>
      <trkpt lat="43.50835" lon="6.78551">
        <ele>265</ele>
        <time>2012-11-01T10:09:34Z</time>
      </trkpt>
      <trkpt lat="43.50842" lon="6.78549">
        <ele>265</ele>
        <time>2012-11-01T10:09:35Z</time>
      </trkpt>
      <trkpt lat="43.50848" lon="6.78547">
        <ele>265</ele>
        <time>2012-11-01T10:09:36Z</time>
      </trkpt>
      <trkpt lat="43.50855" lon="6.78546">
        <ele>265</ele>
        <time>2012-11-01T10:09:37Z</time>
      </trkpt>
      <trkpt lat="43.50861" lon="6.78544">
        <ele>264</ele>
        <time>2012-11-01T10:09:38Z</time>
      </trkpt>
      <trkpt lat="43.50868" lon="6.78542">
        <ele>264</ele>
        <time>2012-11-01T10:09:39Z</time>
      </trkpt>
      <trkpt lat="43.50874" lon="6.7854">
        <ele>264</ele>
        <time>2012-11-01T10:09:40Z</time>
      </trkpt>
      <trkpt lat="43.50881" lon="6.78538">
        <ele>263</ele>
        <time>2012-11-01T10:09:41Z</time>
      </trkpt>
      <trkpt lat="43.50887" lon="6.78536">
        <ele>263</ele>
        <time>2012-11-01T10:09:42Z</time>
      </trkpt>
      <trkpt lat="43.50893" lon="6.78534">
        <ele>263</ele>
        <time>2012-11-01T10:09:43Z</time>
      </trkpt>
      <trkpt lat="43.50899" lon="6.78532">
        <ele>263</ele>
        <time>2012-11-01T10:09:44Z</time>
      </trkpt>
      <trkpt lat="43.50905" lon="6.78531">
        <ele>263</ele>
        <time>2012-11-01T10:09:45Z</time>
      </trkpt>
      <trkpt lat="43.50911" lon="6.78528">
        <ele>263</ele>
        <time>2012-11-01T10:09:46Z</time>
      </trkpt>
      <trkpt lat="43.50916" lon="6.78526">
        <ele>263</ele>
        <time>2012-11-01T10:09:47Z</time>
      </trkpt>
      <trkpt lat="43.50921" lon="6.78522">
        <ele>263</ele>
        <time>2012-11-01T10:09:48Z</time>
      </trkpt>
      <trkpt lat="43.50924" lon="6.78517">
        <ele>263</ele>
        <time>2012-11-01T10:09:49Z</time>
      </trkpt>
      <trkpt lat="43.50927" lon="6.78511">
        <ele>263</ele>
        <time>2012-11-01T10:09:50Z</time>
      </trkpt>
      <trkpt lat="43.50927" lon="6.78505">
        <ele>262</ele>
        <time>2012-11-01T10:09:51Z</time>
      </trkpt>
      <trkpt lat="43.50925" lon="6.78498">
        <ele>262</ele>
        <time>2012-11-01T10:09:53Z</time>
      </trkpt>
      <trkpt lat="43.50922" lon="6.78492">
        <ele>262</ele>
        <time>2012-11-01T10:09:53Z</time>
      </trkpt>
      <trkpt lat="43.50918" lon="6.78486">
        <ele>261</ele>
        <time>2012-11-01T10:09:54Z</time>
      </trkpt>
      <trkpt lat="43.50913" lon="6.78481">
        <ele>261</ele>
        <time>2012-11-01T10:09:55Z</time>
      </trkpt>
      <trkpt lat="43.50908" lon="6.78476">
        <ele>261</ele>
        <time>2012-11-01T10:09:56Z</time>
      </trkpt>
      <trkpt lat="43.50903" lon="6.7847">
        <ele>260</ele>
        <time>2012-11-01T10:09:57Z</time>
      </trkpt>
      <trkpt lat="43.50898" lon="6.78464">
        <ele>260</ele>
        <time>2012-11-01T10:09:58Z</time>
      </trkpt>
      <trkpt lat="43.50893" lon="6.78457">
        <ele>260</ele>
        <time>2012-11-01T10:09:59Z</time>
      </trkpt>
      <trkpt lat="43.50888" lon="6.7845">
        <ele>259</ele>
        <time>2012-11-01T10:10:00Z</time>
      </trkpt>
      <trkpt lat="43.50884" lon="6.78443">
        <ele>259</ele>
        <time>2012-11-01T10:10:01Z</time>
      </trkpt>
      <trkpt lat="43.50879" lon="6.78436">
        <ele>259</ele>
        <time>2012-11-01T10:10:02Z</time>
      </trkpt>
      <trkpt lat="43.50875" lon="6.78428">
        <ele>259</ele>
        <time>2012-11-01T10:10:03Z</time>
      </trkpt>
      <trkpt lat="43.50871" lon="6.7842">
        <ele>258</ele>
        <time>2012-11-01T10:10:04Z</time>
      </trkpt>
      <trkpt lat="43.50866" lon="6.78412">
        <ele>258</ele>
        <time>2012-11-01T10:10:05Z</time>
      </trkpt>
      <trkpt lat="43.50862" lon="6.78404">
        <ele>258</ele>
        <time>2012-11-01T10:10:06Z</time>
      </trkpt>
      <trkpt lat="43.50858" lon="6.78396">
        <ele>257</ele>
        <time>2012-11-01T10:10:07Z</time>
      </trkpt>
      <trkpt lat="43.50855" lon="6.78388">
        <ele>257</ele>
        <time>2012-11-01T10:10:09Z</time>
      </trkpt>
      <trkpt lat="43.50853" lon="6.7838">
        <ele>257</ele>
        <time>2012-11-01T10:10:09Z</time>
      </trkpt>
      <trkpt lat="43.50854" lon="6.78371">
        <ele>256</ele>
        <time>2012-11-01T10:10:10Z</time>
      </trkpt>
      <trkpt lat="43.50858" lon="6.78363">
        <ele>256</ele>
        <time>2012-11-01T10:10:11Z</time>
      </trkpt>
      <trkpt lat="43.50864" lon="6.78356">
        <ele>255</ele>
        <time>2012-11-01T10:10:12Z</time>
      </trkpt>
      <trkpt lat="43.5087" lon="6.78349">
        <ele>255</ele>
        <time>2012-11-01T10:10:13Z</time>
      </trkpt>
      <trkpt lat="43.50875" lon="6.78342">
        <ele>255</ele>
        <time>2012-11-01T10:10:14Z</time>
      </trkpt>
      <trkpt lat="43.50882" lon="6.78335">
        <ele>255</ele>
        <time>2012-11-01T10:10:15Z</time>
      </trkpt>
      <trkpt lat="43.50887" lon="6.78328">
        <ele>255</ele>
        <time>2012-11-01T10:10:16Z</time>
      </trkpt>
      <trkpt lat="43.50892" lon="6.78321">
        <ele>255</ele>
        <time>2012-11-01T10:10:17Z</time>
      </trkpt>
      <trkpt lat="43.50896" lon="6.78314">
        <ele>255</ele>
        <time>2012-11-01T10:10:18Z</time>
      </trkpt>
      <trkpt lat="43.50901" lon="6.78306">
        <ele>255</ele>
        <time>2012-11-01T10:10:19Z</time>
      </trkpt>
      <trkpt lat="43.50906" lon="6.78299">
        <ele>255</ele>
        <time>2012-11-01T10:10:20Z</time>
      </trkpt>
      <trkpt lat="43.50911" lon="6.78293">
        <ele>255</ele>
        <time>2012-11-01T10:10:21Z</time>
      </trkpt>
      <trkpt lat="43.50917" lon="6.78286">
        <ele>254</ele>
        <time>2012-11-01T10:10:22Z</time>
      </trkpt>
      <trkpt lat="43.50922" lon="6.78279">
        <ele>253</ele>
        <time>2012-11-01T10:10:23Z</time>
      </trkpt>
      <trkpt lat="43.50927" lon="6.78272">
        <ele>253</ele>
        <time>2012-11-01T10:10:24Z</time>
      </trkpt>
      <trkpt lat="43.50931" lon="6.78265">
        <ele>252</ele>
        <time>2012-11-01T10:10:25Z</time>
      </trkpt>
      <trkpt lat="43.50936" lon="6.78257">
        <ele>252</ele>
        <time>2012-11-01T10:10:27Z</time>
      </trkpt>
      <trkpt lat="43.50941" lon="6.7825">
        <ele>251</ele>
        <time>2012-11-01T10:10:27Z</time>
      </trkpt>
      <trkpt lat="43.50946" lon="6.78244">
        <ele>251</ele>
        <time>2012-11-01T10:10:28Z</time>
      </trkpt>
      <trkpt lat="43.50953" lon="6.78239">
        <ele>250</ele>
        <time>2012-11-01T10:10:29Z</time>
      </trkpt>
      <trkpt lat="43.50959" lon="6.78235">
        <ele>250</ele>
        <time>2012-11-01T10:10:30Z</time>
      </trkpt>
      <trkpt lat="43.50966" lon="6.7823">
        <ele>249</ele>
        <time>2012-11-01T10:10:31Z</time>
      </trkpt>
      <trkpt lat="43.50972" lon="6.78226">
        <ele>249</ele>
        <time>2012-11-01T10:10:32Z</time>
      </trkpt>
      <trkpt lat="43.50978" lon="6.78221">
        <ele>249</ele>
        <time>2012-11-01T10:10:33Z</time>
      </trkpt>
      <trkpt lat="43.50985" lon="6.78217">
        <ele>249</ele>
        <time>2012-11-01T10:10:34Z</time>
      </trkpt>
      <trkpt lat="43.50991" lon="6.78212">
        <ele>249</ele>
        <time>2012-11-01T10:10:35Z</time>
      </trkpt>
      <trkpt lat="43.50998" lon="6.78209">
        <ele>249</ele>
        <time>2012-11-01T10:10:36Z</time>
      </trkpt>
      <trkpt lat="43.51005" lon="6.78206">
        <ele>249</ele>
        <time>2012-11-01T10:10:37Z</time>
      </trkpt>
      <trkpt lat="43.51012" lon="6.78203">
        <ele>248</ele>
        <time>2012-11-01T10:10:38Z</time>
      </trkpt>
      <trkpt lat="43.51019" lon="6.78201">
        <ele>248</ele>
        <time>2012-11-01T10:10:39Z</time>
      </trkpt>
      <trkpt lat="43.51027" lon="6.78198">
        <ele>247</ele>
        <time>2012-11-01T10:10:40Z</time>
      </trkpt>
      <trkpt lat="43.51035" lon="6.78195">
        <ele>247</ele>
        <time>2012-11-01T10:10:41Z</time>
      </trkpt>
      <trkpt lat="43.51042" lon="6.78192">
        <ele>246</ele>
        <time>2012-11-01T10:10:43Z</time>
      </trkpt>
      <trkpt lat="43.51049" lon="6.78189">
        <ele>246</ele>
        <time>2012-11-01T10:10:43Z</time>
      </trkpt>
      <trkpt lat="43.51056" lon="6.78184">
        <ele>245</ele>
        <time>2012-11-01T10:10:44Z</time>
      </trkpt>
      <trkpt lat="43.51063" lon="6.78178">
        <ele>245</ele>
        <time>2012-11-01T10:10:45Z</time>
      </trkpt>
      <trkpt lat="43.51068" lon="6.78171">
        <ele>244</ele>
        <time>2012-11-01T10:10:46Z</time>
      </trkpt>
      <trkpt lat="43.51073" lon="6.78165">
        <ele>244</ele>
        <time>2012-11-01T10:10:47Z</time>
      </trkpt>
      <trkpt lat="43.51077" lon="6.78159">
        <ele>244</ele>
        <time>2012-11-01T10:10:48Z</time>
      </trkpt>
      <trkpt lat="43.51079" lon="6.78154">
        <ele>244</ele>
        <time>2012-11-01T10:10:49Z</time>
      </trkpt>
      <trkpt lat="43.5108" lon="6.78149">
        <ele>244</ele>
        <time>2012-11-01T10:10:50Z</time>
      </trkpt>
      <trkpt lat="43.51081" lon="6.78145">
        <ele>244</ele>
        <time>2012-11-01T10:10:51Z</time>
      </trkpt>
      <trkpt lat="43.51081" lon="6.7814">
        <ele>244</ele>
        <time>2012-11-01T10:10:52Z</time>
      </trkpt>
      <trkpt lat="43.51081" lon="6.78135">
        <ele>244</ele>
        <time>2012-11-01T10:10:54Z</time>
      </trkpt>
      <trkpt lat="43.51081" lon="6.78129">
        <ele>244</ele>
        <time>2012-11-01T10:10:54Z</time>
      </trkpt>
      <trkpt lat="43.51081" lon="6.78124">
        <ele>244</ele>
        <time>2012-11-01T10:10:55Z</time>
      </trkpt>
      <trkpt lat="43.51082" lon="6.78119">
        <ele>244</ele>
        <time>2012-11-01T10:10:56Z</time>
      </trkpt>
      <trkpt lat="43.51082" lon="6.78113">
        <ele>244</ele>
        <time>2012-11-01T10:10:57Z</time>
      </trkpt>
      <trkpt lat="43.51083" lon="6.78107">
        <ele>244</ele>
        <time>2012-11-01T10:10:58Z</time>
      </trkpt>
      <trkpt lat="43.51084" lon="6.78102">
        <ele>244</ele>
        <time>2012-11-01T10:10:59Z</time>
      </trkpt>
      <trkpt lat="43.51086" lon="6.78096">
        <ele>244</ele>
        <time>2012-11-01T10:11:00Z</time>
      </trkpt>
      <trkpt lat="43.51088" lon="6.78091">
        <ele>244</ele>
        <time>2012-11-01T10:11:01Z</time>
      </trkpt>
      <trkpt lat="43.51091" lon="6.78085">
        <ele>244</ele>
        <time>2012-11-01T10:11:02Z</time>
      </trkpt>
      <trkpt lat="43.51092" lon="6.7808">
        <ele>244</ele>
        <time>2012-11-01T10:11:03Z</time>
      </trkpt>
      <trkpt lat="43.51094" lon="6.78074">
        <ele>244</ele>
        <time>2012-11-01T10:11:04Z</time>
      </trkpt>
      <trkpt lat="43.51096" lon="6.78068">
        <ele>244</ele>
        <time>2012-11-01T10:11:05Z</time>
      </trkpt>
      <trkpt lat="43.51097" lon="6.78063">
        <ele>244</ele>
        <time>2012-11-01T10:11:06Z</time>
      </trkpt>
      <trkpt lat="43.51099" lon="6.78057">
        <ele>244</ele>
        <time>2012-11-01T10:11:07Z</time>
      </trkpt>
      <trkpt lat="43.51101" lon="6.78052">
        <ele>244</ele>
        <time>2012-11-01T10:11:08Z</time>
      </trkpt>
      <trkpt lat="43.51102" lon="6.78047">
        <ele>244</ele>
        <time>2012-11-01T10:11:09Z</time>
      </trkpt>
      <trkpt lat="43.51104" lon="6.78041">
        <ele>244</ele>
        <time>2012-11-01T10:11:10Z</time>
      </trkpt>
      <trkpt lat="43.51105" lon="6.78035">
        <ele>244</ele>
        <time>2012-11-01T10:11:11Z</time>
      </trkpt>
      <trkpt lat="43.51106" lon="6.78029">
        <ele>244</ele>
        <time>2012-11-01T10:11:12Z</time>
      </trkpt>
      <trkpt lat="43.51107" lon="6.78024">
        <ele>244</ele>
        <time>2012-11-01T10:11:13Z</time>
      </trkpt>
      <trkpt lat="43.51108" lon="6.78018">
        <ele>244</ele>
        <time>2012-11-01T10:11:14Z</time>
      </trkpt>
      <trkpt lat="43.51109" lon="6.78012">
        <ele>244</ele>
        <time>2012-11-01T10:11:15Z</time>
      </trkpt>
      <trkpt lat="43.51109" lon="6.78006">
        <ele>244</ele>
        <time>2012-11-01T10:11:16Z</time>
      </trkpt>
      <trkpt lat="43.5111" lon="6.78">
        <ele>244</ele>
        <time>2012-11-01T10:11:17Z</time>
      </trkpt>
      <trkpt lat="43.5111" lon="6.77995">
        <ele>244</ele>
        <time>2012-11-01T10:11:18Z</time>
      </trkpt>
      <trkpt lat="43.5111" lon="6.77989">
        <ele>244</ele>
        <time>2012-11-01T10:11:19Z</time>
      </trkpt>
      <trkpt lat="43.51109" lon="6.77983">
        <ele>244</ele>
        <time>2012-11-01T10:11:20Z</time>
      </trkpt>
      <trkpt lat="43.51109" lon="6.77978">
        <ele>244</ele>
        <time>2012-11-01T10:11:21Z</time>
      </trkpt>
      <trkpt lat="43.51109" lon="6.77972">
        <ele>244</ele>
        <time>2012-11-01T10:11:22Z</time>
      </trkpt>
      <trkpt lat="43.5111" lon="6.77965">
        <ele>244</ele>
        <time>2012-11-01T10:11:23Z</time>
      </trkpt>
      <trkpt lat="43.51111" lon="6.77959">
        <ele>244</ele>
        <time>2012-11-01T10:11:24Z</time>
      </trkpt>
      <trkpt lat="43.51112" lon="6.77952">
        <ele>244</ele>
        <time>2012-11-01T10:11:25Z</time>
      </trkpt>
      <trkpt lat="43.51114" lon="6.77945">
        <ele>244</ele>
        <time>2012-11-01T10:11:26Z</time>
      </trkpt>
      <trkpt lat="43.51115" lon="6.77938">
        <ele>244</ele>
        <time>2012-11-01T10:11:27Z</time>
      </trkpt>
      <trkpt lat="43.51117" lon="6.77931">
        <ele>244</ele>
        <time>2012-11-01T10:11:28Z</time>
      </trkpt>
      <trkpt lat="43.51119" lon="6.77923">
        <ele>244</ele>
        <time>2012-11-01T10:11:29Z</time>
      </trkpt>
      <trkpt lat="43.51121" lon="6.77915">
        <ele>244</ele>
        <time>2012-11-01T10:11:30Z</time>
      </trkpt>
      <trkpt lat="43.51123" lon="6.77908">
        <ele>244</ele>
        <time>2012-11-01T10:11:31Z</time>
      </trkpt>
      <trkpt lat="43.51126" lon="6.77901">
        <ele>244</ele>
        <time>2012-11-01T10:11:32Z</time>
      </trkpt>
      <trkpt lat="43.51128" lon="6.77894">
        <ele>244</ele>
        <time>2012-11-01T10:11:33Z</time>
      </trkpt>
      <trkpt lat="43.51129" lon="6.77887">
        <ele>243</ele>
        <time>2012-11-01T10:11:34Z</time>
      </trkpt>
      <trkpt lat="43.51128" lon="6.77879">
        <ele>243</ele>
        <time>2012-11-01T10:11:35Z</time>
      </trkpt>
      <trkpt lat="43.51125" lon="6.77873">
        <ele>242</ele>
        <time>2012-11-01T10:11:36Z</time>
      </trkpt>
      <trkpt lat="43.51122" lon="6.77866">
        <ele>241</ele>
        <time>2012-11-01T10:11:37Z</time>
      </trkpt>
      <trkpt lat="43.51117" lon="6.77861">
        <ele>240</ele>
        <time>2012-11-01T10:11:38Z</time>
      </trkpt>
      <trkpt lat="43.51112" lon="6.77856">
        <ele>239</ele>
        <time>2012-11-01T10:11:39Z</time>
      </trkpt>
      <trkpt lat="43.51106" lon="6.77853">
        <ele>238</ele>
        <time>2012-11-01T10:11:40Z</time>
      </trkpt>
      <trkpt lat="43.511" lon="6.7785">
        <ele>237</ele>
        <time>2012-11-01T10:11:41Z</time>
      </trkpt>
      <trkpt lat="43.51094" lon="6.77848">
        <ele>236</ele>
        <time>2012-11-01T10:11:42Z</time>
      </trkpt>
      <trkpt lat="43.51088" lon="6.77847">
        <ele>236</ele>
        <time>2012-11-01T10:11:43Z</time>
      </trkpt>
      <trkpt lat="43.51081" lon="6.77846">
        <ele>235</ele>
        <time>2012-11-01T10:11:44Z</time>
      </trkpt>
      <trkpt lat="43.51075" lon="6.77846">
        <ele>234</ele>
        <time>2012-11-01T10:11:45Z</time>
      </trkpt>
      <trkpt lat="43.51068" lon="6.77846">
        <ele>234</ele>
        <time>2012-11-01T10:11:46Z</time>
      </trkpt>
      <trkpt lat="43.51062" lon="6.77848">
        <ele>233</ele>
        <time>2012-11-01T10:11:47Z</time>
      </trkpt>
      <trkpt lat="43.51056" lon="6.77849">
        <ele>233</ele>
        <time>2012-11-01T10:11:48Z</time>
      </trkpt>
      <trkpt lat="43.51049" lon="6.77849">
        <ele>232</ele>
        <time>2012-11-01T10:11:49Z</time>
      </trkpt>
      <trkpt lat="43.51042" lon="6.77849">
        <ele>232</ele>
        <time>2012-11-01T10:11:50Z</time>
      </trkpt>
      <trkpt lat="43.51035" lon="6.7785">
        <ele>231</ele>
        <time>2012-11-01T10:11:51Z</time>
      </trkpt>
      <trkpt lat="43.51029" lon="6.77852">
        <ele>231</ele>
        <time>2012-11-01T10:11:52Z</time>
      </trkpt>
      <trkpt lat="43.51022" lon="6.77854">
        <ele>231</ele>
        <time>2012-11-01T10:11:54Z</time>
      </trkpt>
      <trkpt lat="43.51015" lon="6.77856">
        <ele>230</ele>
        <time>2012-11-01T10:11:54Z</time>
      </trkpt>
      <trkpt lat="43.51009" lon="6.77858">
        <ele>230</ele>
        <time>2012-11-01T10:11:55Z</time>
      </trkpt>
      <trkpt lat="43.51002" lon="6.7786">
        <ele>230</ele>
        <time>2012-11-01T10:11:56Z</time>
      </trkpt>
      <trkpt lat="43.50995" lon="6.77863">
        <ele>229</ele>
        <time>2012-11-01T10:11:57Z</time>
      </trkpt>
      <trkpt lat="43.50987" lon="6.77865">
        <ele>229</ele>
        <time>2012-11-01T10:11:58Z</time>
      </trkpt>
      <trkpt lat="43.5098" lon="6.77868">
        <ele>229</ele>
        <time>2012-11-01T10:11:59Z</time>
      </trkpt>
      <trkpt lat="43.50973" lon="6.7787">
        <ele>229</ele>
        <time>2012-11-01T10:12:00Z</time>
      </trkpt>
      <trkpt lat="43.50965" lon="6.77872">
        <ele>229</ele>
        <time>2012-11-01T10:12:01Z</time>
      </trkpt>
      <trkpt lat="43.50959" lon="6.77871">
        <ele>228</ele>
        <time>2012-11-01T10:12:02Z</time>
      </trkpt>
      <trkpt lat="43.50951" lon="6.77867">
        <ele>228</ele>
        <time>2012-11-01T10:12:03Z</time>
      </trkpt>
      <trkpt lat="43.50945" lon="6.77864">
        <ele>228</ele>
        <time>2012-11-01T10:12:04Z</time>
      </trkpt>
      <trkpt lat="43.50938" lon="6.77859">
        <ele>227</ele>
        <time>2012-11-01T10:12:05Z</time>
      </trkpt>
      <trkpt lat="43.5093" lon="6.77855">
        <ele>227</ele>
        <time>2012-11-01T10:12:06Z</time>
      </trkpt>
      <trkpt lat="43.50923" lon="6.77851">
        <ele>226</ele>
        <time>2012-11-01T10:12:07Z</time>
      </trkpt>
      <trkpt lat="43.50915" lon="6.77848">
        <ele>225</ele>
        <time>2012-11-01T10:12:08Z</time>
      </trkpt>
      <trkpt lat="43.50907" lon="6.77846">
        <ele>225</ele>
        <time>2012-11-01T10:12:09Z</time>
      </trkpt>
      <trkpt lat="43.50899" lon="6.77845">
        <ele>224</ele>
        <time>2012-11-01T10:12:10Z</time>
      </trkpt>
      <trkpt lat="43.50891" lon="6.77843">
        <ele>223</ele>
        <time>2012-11-01T10:12:11Z</time>
      </trkpt>
      <trkpt lat="43.50883" lon="6.77843">
        <ele>222</ele>
        <time>2012-11-01T10:12:12Z</time>
      </trkpt>
      <trkpt lat="43.50874" lon="6.77842">
        <ele>222</ele>
        <time>2012-11-01T10:12:13Z</time>
      </trkpt>
      <trkpt lat="43.50867" lon="6.77842">
        <ele>221</ele>
        <time>2012-11-01T10:12:14Z</time>
      </trkpt>
      <trkpt lat="43.50859" lon="6.77841">
        <ele>220</ele>
        <time>2012-11-01T10:12:15Z</time>
      </trkpt>
      <trkpt lat="43.50851" lon="6.7784">
        <ele>219</ele>
        <time>2012-11-01T10:12:16Z</time>
      </trkpt>
      <trkpt lat="43.50843" lon="6.77838">
        <ele>218</ele>
        <time>2012-11-01T10:12:17Z</time>
      </trkpt>
      <trkpt lat="43.50835" lon="6.77837">
        <ele>217</ele>
        <time>2012-11-01T10:12:18Z</time>
      </trkpt>
      <trkpt lat="43.50827" lon="6.77835">
        <ele>217</ele>
        <time>2012-11-01T10:12:19Z</time>
      </trkpt>
      <trkpt lat="43.50819" lon="6.77835">
        <ele>216</ele>
        <time>2012-11-01T10:12:20Z</time>
      </trkpt>
      <trkpt lat="43.50812" lon="6.77834">
        <ele>215</ele>
        <time>2012-11-01T10:12:21Z</time>
      </trkpt>
      <trkpt lat="43.50804" lon="6.77834">
        <ele>215</ele>
        <time>2012-11-01T10:12:22Z</time>
      </trkpt>
      <trkpt lat="43.50796" lon="6.77834">
        <ele>214</ele>
        <time>2012-11-01T10:12:23Z</time>
      </trkpt>
      <trkpt lat="43.50789" lon="6.77833">
        <ele>213</ele>
        <time>2012-11-01T10:12:24Z</time>
      </trkpt>
      <trkpt lat="43.50782" lon="6.77831">
        <ele>212</ele>
        <time>2012-11-01T10:12:25Z</time>
      </trkpt>
      <trkpt lat="43.50776" lon="6.77828">
        <ele>211</ele>
        <time>2012-11-01T10:12:26Z</time>
      </trkpt>
      <trkpt lat="43.5077" lon="6.77823">
        <ele>210</ele>
        <time>2012-11-01T10:12:27Z</time>
      </trkpt>
      <trkpt lat="43.50763" lon="6.77819">
        <ele>210</ele>
        <time>2012-11-01T10:12:28Z</time>
      </trkpt>
      <trkpt lat="43.50755" lon="6.77815">
        <ele>209</ele>
        <time>2012-11-01T10:12:29Z</time>
      </trkpt>
      <trkpt lat="43.50748" lon="6.77813">
        <ele>209</ele>
        <time>2012-11-01T10:12:30Z</time>
      </trkpt>
      <trkpt lat="43.5074" lon="6.7781">
        <ele>208</ele>
        <time>2012-11-01T10:12:31Z</time>
      </trkpt>
      <trkpt lat="43.50733" lon="6.77806">
        <ele>208</ele>
        <time>2012-11-01T10:12:32Z</time>
      </trkpt>
      <trkpt lat="43.50727" lon="6.77801">
        <ele>207</ele>
        <time>2012-11-01T10:12:33Z</time>
      </trkpt>
      <trkpt lat="43.50722" lon="6.77794">
        <ele>206</ele>
        <time>2012-11-01T10:12:34Z</time>
      </trkpt>
      <trkpt lat="43.50718" lon="6.77786">
        <ele>206</ele>
        <time>2012-11-01T10:12:35Z</time>
      </trkpt>
      <trkpt lat="43.50717" lon="6.77778">
        <ele>205</ele>
        <time>2012-11-01T10:12:36Z</time>
      </trkpt>
      <trkpt lat="43.50719" lon="6.7777">
        <ele>205</ele>
        <time>2012-11-01T10:12:37Z</time>
      </trkpt>
      <trkpt lat="43.50725" lon="6.77763">
        <ele>204</ele>
        <time>2012-11-01T10:12:38Z</time>
      </trkpt>
      <trkpt lat="43.50733" lon="6.77756">
        <ele>203</ele>
        <time>2012-11-01T10:12:39Z</time>
      </trkpt>
      <trkpt lat="43.5074" lon="6.77748">
        <ele>202</ele>
        <time>2012-11-01T10:12:40Z</time>
      </trkpt>
      <trkpt lat="43.50747" lon="6.77739">
        <ele>201</ele>
        <time>2012-11-01T10:12:41Z</time>
      </trkpt>
      <trkpt lat="43.50755" lon="6.7773">
        <ele>200</ele>
        <time>2012-11-01T10:12:42Z</time>
      </trkpt>
      <trkpt lat="43.50761" lon="6.77721">
        <ele>199</ele>
        <time>2012-11-01T10:12:43Z</time>
      </trkpt>
      <trkpt lat="43.50766" lon="6.77711">
        <ele>198</ele>
        <time>2012-11-01T10:12:44Z</time>
      </trkpt>
      <trkpt lat="43.50768" lon="6.777">
        <ele>197</ele>
        <time>2012-11-01T10:12:45Z</time>
      </trkpt>
      <trkpt lat="43.50767" lon="6.77689">
        <ele>196</ele>
        <time>2012-11-01T10:12:46Z</time>
      </trkpt>
      <trkpt lat="43.50762" lon="6.77681">
        <ele>195</ele>
        <time>2012-11-01T10:12:47Z</time>
      </trkpt>
      <trkpt lat="43.50755" lon="6.77675">
        <ele>194</ele>
        <time>2012-11-01T10:12:48Z</time>
      </trkpt>
      <trkpt lat="43.50748" lon="6.7767">
        <ele>193</ele>
        <time>2012-11-01T10:12:49Z</time>
      </trkpt>
      <trkpt lat="43.50741" lon="6.77666">
        <ele>193</ele>
        <time>2012-11-01T10:12:50Z</time>
      </trkpt>
      <trkpt lat="43.50735" lon="6.77662">
        <ele>193</ele>
        <time>2012-11-01T10:12:51Z</time>
      </trkpt>
      <trkpt lat="43.50728" lon="6.77659">
        <ele>192</ele>
        <time>2012-11-01T10:12:52Z</time>
      </trkpt>
      <trkpt lat="43.50721" lon="6.77655">
        <ele>192</ele>
        <time>2012-11-01T10:12:54Z</time>
      </trkpt>
      <trkpt lat="43.50714" lon="6.7765">
        <ele>192</ele>
        <time>2012-11-01T10:12:54Z</time>
      </trkpt>
      <trkpt lat="43.50708" lon="6.77643">
        <ele>191</ele>
        <time>2012-11-01T10:12:55Z</time>
      </trkpt>
      <trkpt lat="43.50703" lon="6.77635">
        <ele>190</ele>
        <time>2012-11-01T10:12:56Z</time>
      </trkpt>
      <trkpt lat="43.50698" lon="6.77626">
        <ele>190</ele>
        <time>2012-11-01T10:12:57Z</time>
      </trkpt>
      <trkpt lat="43.50693" lon="6.77617">
        <ele>189</ele>
        <time>2012-11-01T10:12:58Z</time>
      </trkpt>
      <trkpt lat="43.50689" lon="6.77608">
        <ele>189</ele>
        <time>2012-11-01T10:12:59Z</time>
      </trkpt>
      <trkpt lat="43.50686" lon="6.77598">
        <ele>188</ele>
        <time>2012-11-01T10:13:00Z</time>
      </trkpt>
      <trkpt lat="43.50684" lon="6.77589">
        <ele>188</ele>
        <time>2012-11-01T10:13:01Z</time>
      </trkpt>
      <trkpt lat="43.50684" lon="6.77579">
        <ele>188</ele>
        <time>2012-11-01T10:13:02Z</time>
      </trkpt>
      <trkpt lat="43.50686" lon="6.77568">
        <ele>187</ele>
        <time>2012-11-01T10:13:03Z</time>
      </trkpt>
      <trkpt lat="43.50688" lon="6.77558">
        <ele>187</ele>
        <time>2012-11-01T10:13:04Z</time>
      </trkpt>
      <trkpt lat="43.50691" lon="6.77547">
        <ele>186</ele>
        <time>2012-11-01T10:13:05Z</time>
      </trkpt>
      <trkpt lat="43.50694" lon="6.77537">
        <ele>186</ele>
        <time>2012-11-01T10:13:06Z</time>
      </trkpt>
      <trkpt lat="43.50696" lon="6.77526">
        <ele>185</ele>
        <time>2012-11-01T10:13:07Z</time>
      </trkpt>
      <trkpt lat="43.50697" lon="6.77515">
        <ele>185</ele>
        <time>2012-11-01T10:13:08Z</time>
      </trkpt>
      <trkpt lat="43.50698" lon="6.77503">
        <ele>184</ele>
        <time>2012-11-01T10:13:09Z</time>
      </trkpt>
      <trkpt lat="43.507" lon="6.77493">
        <ele>184</ele>
        <time>2012-11-01T10:13:10Z</time>
      </trkpt>
      <trkpt lat="43.50701" lon="6.77483">
        <ele>183</ele>
        <time>2012-11-01T10:13:11Z</time>
      </trkpt>
      <trkpt lat="43.507" lon="6.77475">
        <ele>183</ele>
        <time>2012-11-01T10:13:12Z</time>
      </trkpt>
      <trkpt lat="43.50699" lon="6.7747">
        <ele>182</ele>
        <time>2012-11-01T10:13:13Z</time>
      </trkpt>
      <trkpt lat="43.50697" lon="6.77467">
        <ele>182</ele>
        <time>2012-11-01T10:13:14Z</time>
      </trkpt>
      <trkpt lat="43.50695" lon="6.77464">
        <ele>181</ele>
        <time>2012-11-01T10:13:15Z</time>
      </trkpt>
      <trkpt lat="43.50693" lon="6.77463">
        <ele>181</ele>
        <time>2012-11-01T10:13:16Z</time>
      </trkpt>
      <trkpt lat="43.50692" lon="6.77462">
        <ele>181</ele>
        <time>2012-11-01T10:13:18Z</time>
      </trkpt>
      <trkpt lat="43.50691" lon="6.7746">
        <ele>181</ele>
        <time>2012-11-01T10:13:20Z</time>
      </trkpt>
      <trkpt lat="43.50691" lon="6.77458">
        <ele>181</ele>
        <time>2012-11-01T10:13:21Z</time>
      </trkpt>
      <trkpt lat="43.5069" lon="6.77456">
        <ele>181</ele>
        <time>2012-11-01T10:13:22Z</time>
      </trkpt>
      <trkpt lat="43.50689" lon="6.77452">
        <ele>181</ele>
        <time>2012-11-01T10:13:23Z</time>
      </trkpt>
      <trkpt lat="43.50689" lon="6.77448">
        <ele>180</ele>
        <time>2012-11-01T10:13:24Z</time>
      </trkpt>
      <trkpt lat="43.50689" lon="6.77444">
        <ele>180</ele>
        <time>2012-11-01T10:13:25Z</time>
      </trkpt>
      <trkpt lat="43.50691" lon="6.77439">
        <ele>180</ele>
        <time>2012-11-01T10:13:26Z</time>
      </trkpt>
      <trkpt lat="43.50694" lon="6.77435">
        <ele>179</ele>
        <time>2012-11-01T10:13:27Z</time>
      </trkpt>
      <trkpt lat="43.50696" lon="6.7743">
        <ele>179</ele>
        <time>2012-11-01T10:13:28Z</time>
      </trkpt>
      <trkpt lat="43.50699" lon="6.77424">
        <ele>178</ele>
        <time>2012-11-01T10:13:29Z</time>
      </trkpt>
      <trkpt lat="43.50702" lon="6.77419">
        <ele>177</ele>
        <time>2012-11-01T10:13:30Z</time>
      </trkpt>
      <trkpt lat="43.50705" lon="6.77412">
        <ele>176</ele>
        <time>2012-11-01T10:13:31Z</time>
      </trkpt>
      <trkpt lat="43.50708" lon="6.77404">
        <ele>176</ele>
        <time>2012-11-01T10:13:32Z</time>
      </trkpt>
      <trkpt lat="43.5071" lon="6.77397">
        <ele>175</ele>
        <time>2012-11-01T10:13:33Z</time>
      </trkpt>
      <trkpt lat="43.50711" lon="6.77389">
        <ele>174</ele>
        <time>2012-11-01T10:13:34Z</time>
      </trkpt>
      <trkpt lat="43.50712" lon="6.77381">
        <ele>173</ele>
        <time>2012-11-01T10:13:35Z</time>
      </trkpt>
      <trkpt lat="43.50712" lon="6.77371">
        <ele>172</ele>
        <time>2012-11-01T10:13:36Z</time>
      </trkpt>
      <trkpt lat="43.50711" lon="6.77362">
        <ele>171</ele>
        <time>2012-11-01T10:13:37Z</time>
      </trkpt>
      <trkpt lat="43.50711" lon="6.77353">
        <ele>170</ele>
        <time>2012-11-01T10:13:38Z</time>
      </trkpt>
      <trkpt lat="43.5071" lon="6.77345">
        <ele>169</ele>
        <time>2012-11-01T10:13:39Z</time>
      </trkpt>
      <trkpt lat="43.50709" lon="6.77336">
        <ele>168</ele>
        <time>2012-11-01T10:13:40Z</time>
      </trkpt>
      <trkpt lat="43.50709" lon="6.77328">
        <ele>167</ele>
        <time>2012-11-01T10:13:41Z</time>
      </trkpt>
      <trkpt lat="43.50709" lon="6.7732">
        <ele>166</ele>
        <time>2012-11-01T10:13:42Z</time>
      </trkpt>
      <trkpt lat="43.50711" lon="6.77312">
        <ele>165</ele>
        <time>2012-11-01T10:13:43Z</time>
      </trkpt>
      <trkpt lat="43.50714" lon="6.77305">
        <ele>164</ele>
        <time>2012-11-01T10:13:44Z</time>
      </trkpt>
      <trkpt lat="43.50719" lon="6.77298">
        <ele>163</ele>
        <time>2012-11-01T10:13:45Z</time>
      </trkpt>
      <trkpt lat="43.50725" lon="6.77293">
        <ele>162</ele>
        <time>2012-11-01T10:13:46Z</time>
      </trkpt>
      <trkpt lat="43.5073" lon="6.77288">
        <ele>161</ele>
        <time>2012-11-01T10:13:47Z</time>
      </trkpt>
      <trkpt lat="43.50735" lon="6.77284">
        <ele>160</ele>
        <time>2012-11-01T10:13:48Z</time>
      </trkpt>
      <trkpt lat="43.5074" lon="6.77281">
        <ele>159</ele>
        <time>2012-11-01T10:13:49Z</time>
      </trkpt>
      <trkpt lat="43.50745" lon="6.77277">
        <ele>158</ele>
        <time>2012-11-01T10:13:50Z</time>
      </trkpt>
      <trkpt lat="43.5075" lon="6.77274">
        <ele>157</ele>
        <time>2012-11-01T10:13:51Z</time>
      </trkpt>
      <trkpt lat="43.50756" lon="6.77271">
        <ele>156</ele>
        <time>2012-11-01T10:13:52Z</time>
      </trkpt>
      <trkpt lat="43.50761" lon="6.77267">
        <ele>155</ele>
        <time>2012-11-01T10:13:53Z</time>
      </trkpt>
      <trkpt lat="43.50767" lon="6.77262">
        <ele>154</ele>
        <time>2012-11-01T10:13:54Z</time>
      </trkpt>
      <trkpt lat="43.50774" lon="6.77259">
        <ele>153</ele>
        <time>2012-11-01T10:13:55Z</time>
      </trkpt>
      <trkpt lat="43.50781" lon="6.77257">
        <ele>152</ele>
        <time>2012-11-01T10:13:56Z</time>
      </trkpt>
      <trkpt lat="43.50788" lon="6.77258">
        <ele>151</ele>
        <time>2012-11-01T10:13:57Z</time>
      </trkpt>
      <trkpt lat="43.50796" lon="6.7726">
        <ele>150</ele>
        <time>2012-11-01T10:13:58Z</time>
      </trkpt>
      <trkpt lat="43.50802" lon="6.77263">
        <ele>149</ele>
        <time>2012-11-01T10:13:59Z</time>
      </trkpt>
      <trkpt lat="43.50808" lon="6.77266">
        <ele>148</ele>
        <time>2012-11-01T10:14:00Z</time>
      </trkpt>
      <trkpt lat="43.50814" lon="6.77269">
        <ele>147</ele>
        <time>2012-11-01T10:14:01Z</time>
      </trkpt>
      <trkpt lat="43.50819" lon="6.77271">
        <ele>146</ele>
        <time>2012-11-01T10:14:03Z</time>
      </trkpt>
      <trkpt lat="43.50824" lon="6.7727">
        <ele>145</ele>
        <time>2012-11-01T10:14:03Z</time>
      </trkpt>
      <trkpt lat="43.50828" lon="6.77266">
        <ele>144</ele>
        <time>2012-11-01T10:14:04Z</time>
      </trkpt>
      <trkpt lat="43.50833" lon="6.77258">
        <ele>143</ele>
        <time>2012-11-01T10:14:05Z</time>
      </trkpt>
      <trkpt lat="43.50839" lon="6.77251">
        <ele>142</ele>
        <time>2012-11-01T10:14:06Z</time>
      </trkpt>
      <trkpt lat="43.50845" lon="6.77244">
        <ele>141</ele>
        <time>2012-11-01T10:14:07Z</time>
      </trkpt>
      <trkpt lat="43.50851" lon="6.77237">
        <ele>140</ele>
        <time>2012-11-01T10:14:08Z</time>
      </trkpt>
      <trkpt lat="43.50857" lon="6.77231">
        <ele>139</ele>
        <time>2012-11-01T10:14:09Z</time>
      </trkpt>
      <trkpt lat="43.50862" lon="6.77224">
        <ele>138</ele>
        <time>2012-11-01T10:14:10Z</time>
      </trkpt>
      <trkpt lat="43.50866" lon="6.77218">
        <ele>137</ele>
        <time>2012-11-01T10:14:11Z</time>
      </trkpt>
      <trkpt lat="43.50867" lon="6.77212">
        <ele>136</ele>
        <time>2012-11-01T10:14:12Z</time>
      </trkpt>
      <trkpt lat="43.50867" lon="6.77205">
        <ele>135</ele>
        <time>2012-11-01T10:14:13Z</time>
      </trkpt>
      <trkpt lat="43.50865" lon="6.77199">
        <ele>134</ele>
        <time>2012-11-01T10:14:14Z</time>
      </trkpt>
      <trkpt lat="43.50861" lon="6.77192">
        <ele>133</ele>
        <time>2012-11-01T10:14:15Z</time>
      </trkpt>
      <trkpt lat="43.50856" lon="6.77187">
        <ele>132</ele>
        <time>2012-11-01T10:14:16Z</time>
      </trkpt>
      <trkpt lat="43.50852" lon="6.7718">
        <ele>131</ele>
        <time>2012-11-01T10:14:17Z</time>
      </trkpt>
      <trkpt lat="43.50849" lon="6.77174">
        <ele>131</ele>
        <time>2012-11-01T10:14:18Z</time>
      </trkpt>
      <trkpt lat="43.50848" lon="6.77166">
        <ele>130</ele>
        <time>2012-11-01T10:14:19Z</time>
      </trkpt>
      <trkpt lat="43.50847" lon="6.77156">
        <ele>130</ele>
        <time>2012-11-01T10:14:20Z</time>
      </trkpt>
      <trkpt lat="43.50845" lon="6.77147">
        <ele>129</ele>
        <time>2012-11-01T10:14:21Z</time>
      </trkpt>
      <trkpt lat="43.50842" lon="6.77139">
        <ele>128</ele>
        <time>2012-11-01T10:14:22Z</time>
      </trkpt>
      <trkpt lat="43.50837" lon="6.77132">
        <ele>127</ele>
        <time>2012-11-01T10:14:23Z</time>
      </trkpt>
      <trkpt lat="43.50831" lon="6.77126">
        <ele>127</ele>
        <time>2012-11-01T10:14:24Z</time>
      </trkpt>
      <trkpt lat="43.50824" lon="6.77122">
        <ele>126</ele>
        <time>2012-11-01T10:14:25Z</time>
      </trkpt>
      <trkpt lat="43.50817" lon="6.77118">
        <ele>125</ele>
        <time>2012-11-01T10:14:26Z</time>
      </trkpt>
      <trkpt lat="43.50811" lon="6.77113">
        <ele>124</ele>
        <time>2012-11-01T10:14:27Z</time>
      </trkpt>
      <trkpt lat="43.50805" lon="6.77107">
        <ele>123</ele>
        <time>2012-11-01T10:14:28Z</time>
      </trkpt>
      <trkpt lat="43.50801" lon="6.771">
        <ele>122</ele>
        <time>2012-11-01T10:14:29Z</time>
      </trkpt>
      <trkpt lat="43.50799" lon="6.77091">
        <ele>121</ele>
        <time>2012-11-01T10:14:30Z</time>
      </trkpt>
      <trkpt lat="43.50798" lon="6.77081">
        <ele>121</ele>
        <time>2012-11-01T10:14:31Z</time>
      </trkpt>
      <trkpt lat="43.50799" lon="6.7707">
        <ele>120</ele>
        <time>2012-11-01T10:14:32Z</time>
      </trkpt>
      <trkpt lat="43.50801" lon="6.77059">
        <ele>119</ele>
        <time>2012-11-01T10:14:33Z</time>
      </trkpt>
      <trkpt lat="43.50802" lon="6.77048">
        <ele>118</ele>
        <time>2012-11-01T10:14:34Z</time>
      </trkpt>
      <trkpt lat="43.50803" lon="6.77038">
        <ele>117</ele>
        <time>2012-11-01T10:14:36Z</time>
      </trkpt>
      <trkpt lat="43.50804" lon="6.77029">
        <ele>116</ele>
        <time>2012-11-01T10:14:36Z</time>
      </trkpt>
      <trkpt lat="43.50805" lon="6.77021">
        <ele>115</ele>
        <time>2012-11-01T10:14:37Z</time>
      </trkpt>
      <trkpt lat="43.50807" lon="6.77015">
        <ele>114</ele>
        <time>2012-11-01T10:14:38Z</time>
      </trkpt>
      <trkpt lat="43.5081" lon="6.77012">
        <ele>113</ele>
        <time>2012-11-01T10:14:39Z</time>
      </trkpt>
      <trkpt lat="43.50814" lon="6.77011">
        <ele>112</ele>
        <time>2012-11-01T10:14:40Z</time>
      </trkpt>
      <trkpt lat="43.50818" lon="6.77014">
        <ele>111</ele>
        <time>2012-11-01T10:14:41Z</time>
      </trkpt>
      <trkpt lat="43.50822" lon="6.77017">
        <ele>110</ele>
        <time>2012-11-01T10:14:42Z</time>
      </trkpt>
      <trkpt lat="43.50826" lon="6.77021">
        <ele>109</ele>
        <time>2012-11-01T10:14:43Z</time>
      </trkpt>
      <trkpt lat="43.5083" lon="6.77021">
        <ele>108</ele>
        <time>2012-11-01T10:14:44Z</time>
      </trkpt>
      <trkpt lat="43.50833" lon="6.77018">
        <ele>107</ele>
        <time>2012-11-01T10:14:45Z</time>
      </trkpt>
      <trkpt lat="43.50835" lon="6.77015">
        <ele>106</ele>
        <time>2012-11-01T10:14:46Z</time>
      </trkpt>
      <trkpt lat="43.50836" lon="6.77011">
        <ele>105</ele>
        <time>2012-11-01T10:14:47Z</time>
      </trkpt>
      <trkpt lat="43.50835" lon="6.77005">
        <ele>105</ele>
        <time>2012-11-01T10:14:48Z</time>
      </trkpt>
      <trkpt lat="43.50834" lon="6.76997">
        <ele>104</ele>
        <time>2012-11-01T10:14:49Z</time>
      </trkpt>
      <trkpt lat="43.50834" lon="6.7699">
        <ele>104</ele>
        <time>2012-11-01T10:14:50Z</time>
      </trkpt>
      <trkpt lat="43.50834" lon="6.76982">
        <ele>104</ele>
        <time>2012-11-01T10:14:51Z</time>
      </trkpt>
      <trkpt lat="43.50834" lon="6.76973">
        <ele>103</ele>
        <time>2012-11-01T10:14:52Z</time>
      </trkpt>
      <trkpt lat="43.50835" lon="6.76965">
        <ele>103</ele>
        <time>2012-11-01T10:14:54Z</time>
      </trkpt>
      <trkpt lat="43.50835" lon="6.76955">
        <ele>103</ele>
        <time>2012-11-01T10:14:54Z</time>
      </trkpt>
      <trkpt lat="43.50834" lon="6.76946">
        <ele>102</ele>
        <time>2012-11-01T10:14:55Z</time>
      </trkpt>
      <trkpt lat="43.50832" lon="6.76937">
        <ele>102</ele>
        <time>2012-11-01T10:14:56Z</time>
      </trkpt>
      <trkpt lat="43.5083" lon="6.76929">
        <ele>101</ele>
        <time>2012-11-01T10:14:57Z</time>
      </trkpt>
      <trkpt lat="43.50827" lon="6.76921">
        <ele>100</ele>
        <time>2012-11-01T10:14:58Z</time>
      </trkpt>
      <trkpt lat="43.50824" lon="6.76913">
        <ele>100</ele>
        <time>2012-11-01T10:14:59Z</time>
      </trkpt>
      <trkpt lat="43.50819" lon="6.76904">
        <ele>99</ele>
        <time>2012-11-01T10:15:00Z</time>
      </trkpt>
      <trkpt lat="43.50814" lon="6.76896">
        <ele>98</ele>
        <time>2012-11-01T10:15:01Z</time>
      </trkpt>
      <trkpt lat="43.50808" lon="6.76888">
        <ele>97</ele>
        <time>2012-11-01T10:15:02Z</time>
      </trkpt>
      <trkpt lat="43.50803" lon="6.76883">
        <ele>96</ele>
        <time>2012-11-01T10:15:03Z</time>
      </trkpt>
      <trkpt lat="43.50797" lon="6.7688">
        <ele>95</ele>
        <time>2012-11-01T10:15:04Z</time>
      </trkpt>
      <trkpt lat="43.5079" lon="6.76878">
        <ele>94</ele>
        <time>2012-11-01T10:15:05Z</time>
      </trkpt>
      <trkpt lat="43.50783" lon="6.76878">
        <ele>93</ele>
        <time>2012-11-01T10:15:06Z</time>
      </trkpt>
      <trkpt lat="43.50775" lon="6.7688">
        <ele>93</ele>
        <time>2012-11-01T10:15:07Z</time>
      </trkpt>
      <trkpt lat="43.50768" lon="6.76882">
        <ele>92</ele>
        <time>2012-11-01T10:15:08Z</time>
      </trkpt>
      <trkpt lat="43.50762" lon="6.76886">
        <ele>91</ele>
        <time>2012-11-01T10:15:09Z</time>
      </trkpt>
      <trkpt lat="43.50756" lon="6.76893">
        <ele>91</ele>
        <time>2012-11-01T10:15:10Z</time>
      </trkpt>
      <trkpt lat="43.50752" lon="6.76901">
        <ele>90</ele>
        <time>2012-11-01T10:15:11Z</time>
      </trkpt>
      <trkpt lat="43.50749" lon="6.76911">
        <ele>89</ele>
        <time>2012-11-01T10:15:13Z</time>
      </trkpt>
      <trkpt lat="43.50746" lon="6.76921">
        <ele>88</ele>
        <time>2012-11-01T10:15:13Z</time>
      </trkpt>
      <trkpt lat="43.50744" lon="6.76931">
        <ele>87</ele>
        <time>2012-11-01T10:15:14Z</time>
      </trkpt>
      <trkpt lat="43.50742" lon="6.7694">
        <ele>86</ele>
        <time>2012-11-01T10:15:15Z</time>
      </trkpt>
      <trkpt lat="43.5074" lon="6.76947">
        <ele>85</ele>
        <time>2012-11-01T10:15:16Z</time>
      </trkpt>
      <trkpt lat="43.50738" lon="6.76952">
        <ele>85</ele>
        <time>2012-11-01T10:15:17Z</time>
      </trkpt>
      <trkpt lat="43.50734" lon="6.76954">
        <ele>84</ele>
        <time>2012-11-01T10:15:18Z</time>
      </trkpt>
      <trkpt lat="43.50731" lon="6.76951">
        <ele>84</ele>
        <time>2012-11-01T10:15:19Z</time>
      </trkpt>
      <trkpt lat="43.50728" lon="6.76946">
        <ele>83</ele>
        <time>2012-11-01T10:15:20Z</time>
      </trkpt>
      <trkpt lat="43.50727" lon="6.7694">
        <ele>82</ele>
        <time>2012-11-01T10:15:21Z</time>
      </trkpt>
      <trkpt lat="43.50727" lon="6.76932">
        <ele>82</ele>
        <time>2012-11-01T10:15:22Z</time>
      </trkpt>
      <trkpt lat="43.50727" lon="6.76925">
        <ele>81</ele>
        <time>2012-11-01T10:15:23Z</time>
      </trkpt>
      <trkpt lat="43.50727" lon="6.76917">
        <ele>81</ele>
        <time>2012-11-01T10:15:24Z</time>
      </trkpt>
      <trkpt lat="43.50727" lon="6.7691">
        <ele>81</ele>
        <time>2012-11-01T10:15:25Z</time>
      </trkpt>
      <trkpt lat="43.50727" lon="6.76903">
        <ele>81</ele>
        <time>2012-11-01T10:15:26Z</time>
      </trkpt>
      <trkpt lat="43.50727" lon="6.76898">
        <ele>81</ele>
        <time>2012-11-01T10:15:27Z</time>
      </trkpt>
      <trkpt lat="43.50727" lon="6.76891">
        <ele>80</ele>
        <time>2012-11-01T10:15:28Z</time>
      </trkpt>
      <trkpt lat="43.50728" lon="6.76885">
        <ele>80</ele>
        <time>2012-11-01T10:15:29Z</time>
      </trkpt>
      <trkpt lat="43.50729" lon="6.76878">
        <ele>80</ele>
        <time>2012-11-01T10:15:30Z</time>
      </trkpt>
      <trkpt lat="43.5073" lon="6.76872">
        <ele>80</ele>
        <time>2012-11-01T10:15:31Z</time>
      </trkpt>
      <trkpt lat="43.50732" lon="6.76866">
        <ele>80</ele>
        <time>2012-11-01T10:15:32Z</time>
      </trkpt>
      <trkpt lat="43.50734" lon="6.76861">
        <ele>80</ele>
        <time>2012-11-01T10:15:33Z</time>
      </trkpt>
      <trkpt lat="43.50736" lon="6.76855">
        <ele>80</ele>
        <time>2012-11-01T10:15:34Z</time>
      </trkpt>
      <trkpt lat="43.50738" lon="6.76849">
        <ele>80</ele>
        <time>2012-11-01T10:15:35Z</time>
      </trkpt>
      <trkpt lat="43.50742" lon="6.76844">
        <ele>80</ele>
        <time>2012-11-01T10:15:36Z</time>
      </trkpt>
      <trkpt lat="43.50745" lon="6.7684">
        <ele>80</ele>
        <time>2012-11-01T10:15:37Z</time>
      </trkpt>
      <trkpt lat="43.50749" lon="6.76835">
        <ele>80</ele>
        <time>2012-11-01T10:15:38Z</time>
      </trkpt>
      <trkpt lat="43.50753" lon="6.7683">
        <ele>80</ele>
        <time>2012-11-01T10:15:39Z</time>
      </trkpt>
      <trkpt lat="43.50756" lon="6.76826">
        <ele>80</ele>
        <time>2012-11-01T10:15:40Z</time>
      </trkpt>
      <trkpt lat="43.5076" lon="6.7682">
        <ele>80</ele>
        <time>2012-11-01T10:15:41Z</time>
      </trkpt>
      <trkpt lat="43.50763" lon="6.76814">
        <ele>80</ele>
        <time>2012-11-01T10:15:42Z</time>
      </trkpt>
      <trkpt lat="43.50766" lon="6.76808">
        <ele>80</ele>
        <time>2012-11-01T10:15:43Z</time>
      </trkpt>
      <trkpt lat="43.50769" lon="6.76801">
        <ele>80</ele>
        <time>2012-11-01T10:15:44Z</time>
      </trkpt>
      <trkpt lat="43.50771" lon="6.76794">
        <ele>80</ele>
        <time>2012-11-01T10:15:45Z</time>
      </trkpt>
      <trkpt lat="43.50772" lon="6.76786">
        <ele>80</ele>
        <time>2012-11-01T10:15:46Z</time>
      </trkpt>
      <trkpt lat="43.50774" lon="6.76778">
        <ele>80</ele>
        <time>2012-11-01T10:15:47Z</time>
      </trkpt>
      <trkpt lat="43.50776" lon="6.76769">
        <ele>80</ele>
        <time>2012-11-01T10:15:48Z</time>
      </trkpt>
      <trkpt lat="43.50778" lon="6.7676">
        <ele>80</ele>
        <time>2012-11-01T10:15:49Z</time>
      </trkpt>
      <trkpt lat="43.50779" lon="6.76751">
        <ele>80</ele>
        <time>2012-11-01T10:15:50Z</time>
      </trkpt>
      <trkpt lat="43.50779" lon="6.76742">
        <ele>80</ele>
        <time>2012-11-01T10:15:51Z</time>
      </trkpt>
      <trkpt lat="43.50777" lon="6.76733">
        <ele>80</ele>
        <time>2012-11-01T10:15:52Z</time>
      </trkpt>
      <trkpt lat="43.50774" lon="6.76724">
        <ele>79</ele>
        <time>2012-11-01T10:15:53Z</time>
      </trkpt>
      <trkpt lat="43.50771" lon="6.76717">
        <ele>79</ele>
        <time>2012-11-01T10:15:54Z</time>
      </trkpt>
      <trkpt lat="43.50769" lon="6.7671">
        <ele>79</ele>
        <time>2012-11-01T10:15:55Z</time>
      </trkpt>
      <trkpt lat="43.50768" lon="6.76703">
        <ele>78</ele>
        <time>2012-11-01T10:15:56Z</time>
      </trkpt>
      <trkpt lat="43.50767" lon="6.76698">
        <ele>78</ele>
        <time>2012-11-01T10:15:57Z</time>
      </trkpt>
      <trkpt lat="43.50768" lon="6.76694">
        <ele>78</ele>
        <time>2012-11-01T10:15:58Z</time>
      </trkpt>
      <trkpt lat="43.50768" lon="6.76691">
        <ele>77</ele>
        <time>2012-11-01T10:15:59Z</time>
      </trkpt>
      <trkpt lat="43.5077" lon="6.76689">
        <ele>77</ele>
        <time>2012-11-01T10:16:00Z</time>
      </trkpt>
      <trkpt lat="43.50772" lon="6.76687">
        <ele>77</ele>
        <time>2012-11-01T10:16:01Z</time>
      </trkpt>
      <trkpt lat="43.50776" lon="6.76685">
        <ele>76</ele>
        <time>2012-11-01T10:16:02Z</time>
      </trkpt>
      <trkpt lat="43.50779" lon="6.76684">
        <ele>76</ele>
        <time>2012-11-01T10:16:03Z</time>
      </trkpt>
      <trkpt lat="43.50783" lon="6.76682">
        <ele>75</ele>
        <time>2012-11-01T10:16:04Z</time>
      </trkpt>
      <trkpt lat="43.50786" lon="6.76681">
        <ele>75</ele>
        <time>2012-11-01T10:16:05Z</time>
      </trkpt>
      <trkpt lat="43.50789" lon="6.76679">
        <ele>75</ele>
        <time>2012-11-01T10:16:06Z</time>
      </trkpt>
      <trkpt lat="43.50792" lon="6.76677">
        <ele>74</ele>
        <time>2012-11-01T10:16:07Z</time>
      </trkpt>
      <trkpt lat="43.50795" lon="6.76674">
        <ele>74</ele>
        <time>2012-11-01T10:16:08Z</time>
      </trkpt>
      <trkpt lat="43.50798" lon="6.76669">
        <ele>74</ele>
        <time>2012-11-01T10:16:09Z</time>
      </trkpt>
      <trkpt lat="43.50802" lon="6.76664">
        <ele>73</ele>
        <time>2012-11-01T10:16:10Z</time>
      </trkpt>
      <trkpt lat="43.50805" lon="6.7666">
        <ele>73</ele>
        <time>2012-11-01T10:16:11Z</time>
      </trkpt>
      <trkpt lat="43.50808" lon="6.76656">
        <ele>73</ele>
        <time>2012-11-01T10:16:12Z</time>
      </trkpt>
      <trkpt lat="43.50809" lon="6.76652">
        <ele>73</ele>
        <time>2012-11-01T10:16:13Z</time>
      </trkpt>
      <trkpt lat="43.5081" lon="6.76648">
        <ele>73</ele>
        <time>2012-11-01T10:16:14Z</time>
      </trkpt>
      <trkpt lat="43.50811" lon="6.76643">
        <ele>72</ele>
        <time>2012-11-01T10:16:15Z</time>
      </trkpt>
      <trkpt lat="43.50811" lon="6.76638">
        <ele>72</ele>
        <time>2012-11-01T10:16:16Z</time>
      </trkpt>
      <trkpt lat="43.50812" lon="6.76632">
        <ele>72</ele>
        <time>2012-11-01T10:16:17Z</time>
      </trkpt>
      <trkpt lat="43.50812" lon="6.76626">
        <ele>72</ele>
        <time>2012-11-01T10:16:18Z</time>
      </trkpt>
      <trkpt lat="43.50812" lon="6.7662">
        <ele>72</ele>
        <time>2012-11-01T10:16:19Z</time>
      </trkpt>
      <trkpt lat="43.50812" lon="6.76615">
        <ele>71</ele>
        <time>2012-11-01T10:16:20Z</time>
      </trkpt>
      <trkpt lat="43.50812" lon="6.76609">
        <ele>71</ele>
        <time>2012-11-01T10:16:21Z</time>
      </trkpt>
      <trkpt lat="43.50812" lon="6.76604">
        <ele>71</ele>
        <time>2012-11-01T10:16:22Z</time>
      </trkpt>
      <trkpt lat="43.50812" lon="6.76598">
        <ele>71</ele>
        <time>2012-11-01T10:16:23Z</time>
      </trkpt>
      <trkpt lat="43.50811" lon="6.76593">
        <ele>71</ele>
        <time>2012-11-01T10:16:24Z</time>
      </trkpt>
      <trkpt lat="43.50811" lon="6.76588">
        <ele>71</ele>
        <time>2012-11-01T10:16:25Z</time>
      </trkpt>
      <trkpt lat="43.5081" lon="6.76583">
        <ele>71</ele>
        <time>2012-11-01T10:16:26Z</time>
      </trkpt>
      <trkpt lat="43.50809" lon="6.76578">
        <ele>71</ele>
        <time>2012-11-01T10:16:27Z</time>
      </trkpt>
      <trkpt lat="43.50808" lon="6.76573">
        <ele>71</ele>
        <time>2012-11-01T10:16:28Z</time>
      </trkpt>
      <trkpt lat="43.50807" lon="6.76569">
        <ele>71</ele>
        <time>2012-11-01T10:16:29Z</time>
      </trkpt>
      <trkpt lat="43.50806" lon="6.76564">
        <ele>71</ele>
        <time>2012-11-01T10:16:30Z</time>
      </trkpt>
      <trkpt lat="43.50804" lon="6.7656">
        <ele>71</ele>
        <time>2012-11-01T10:16:31Z</time>
      </trkpt>
      <trkpt lat="43.50803" lon="6.76556">
        <ele>71</ele>
        <time>2012-11-01T10:16:32Z</time>
      </trkpt>
      <trkpt lat="43.50802" lon="6.76552">
        <ele>71</ele>
        <time>2012-11-01T10:16:33Z</time>
      </trkpt>
      <trkpt lat="43.50801" lon="6.76549">
        <ele>71</ele>
        <time>2012-11-01T10:16:34Z</time>
      </trkpt>
      <trkpt lat="43.508" lon="6.76546">
        <ele>71</ele>
        <time>2012-11-01T10:16:35Z</time>
      </trkpt>
      <trkpt lat="43.50798" lon="6.76544">
        <ele>71</ele>
        <time>2012-11-01T10:16:36Z</time>
      </trkpt>
      <trkpt lat="43.50797" lon="6.76541">
        <ele>71</ele>
        <time>2012-11-01T10:16:37Z</time>
      </trkpt>
      <trkpt lat="43.50795" lon="6.76539">
        <ele>72</ele>
        <time>2012-11-01T10:16:38Z</time>
      </trkpt>
      <trkpt lat="43.50794" lon="6.76536">
        <ele>72</ele>
        <time>2012-11-01T10:16:39Z</time>
      </trkpt>
      <trkpt lat="43.50792" lon="6.76533">
        <ele>73</ele>
        <time>2012-11-01T10:16:40Z</time>
      </trkpt>
      <trkpt lat="43.5079" lon="6.76529">
        <ele>73</ele>
        <time>2012-11-01T10:16:41Z</time>
      </trkpt>
      <trkpt lat="43.50789" lon="6.76524">
        <ele>73</ele>
        <time>2012-11-01T10:16:42Z</time>
      </trkpt>
      <trkpt lat="43.50787" lon="6.76521">
        <ele>74</ele>
        <time>2012-11-01T10:16:43Z</time>
      </trkpt>
      <trkpt lat="43.50787" lon="6.76517">
        <ele>74</ele>
        <time>2012-11-01T10:16:44Z</time>
      </trkpt>
      <trkpt lat="43.50786" lon="6.76514">
        <ele>74</ele>
        <time>2012-11-01T10:16:45Z</time>
      </trkpt>
      <trkpt lat="43.50785" lon="6.7651">
        <ele>75</ele>
        <time>2012-11-01T10:16:46Z</time>
      </trkpt>
      <trkpt lat="43.50785" lon="6.76507">
        <ele>75</ele>
        <time>2012-11-01T10:16:47Z</time>
      </trkpt>
      <trkpt lat="43.50784" lon="6.76504">
        <ele>75</ele>
        <time>2012-11-01T10:16:48Z</time>
      </trkpt>
      <trkpt lat="43.50784" lon="6.76501">
        <ele>76</ele>
        <time>2012-11-01T10:16:49Z</time>
      </trkpt>
      <trkpt lat="43.50784" lon="6.76497">
        <ele>76</ele>
        <time>2012-11-01T10:16:50Z</time>
      </trkpt>
      <trkpt lat="43.50784" lon="6.76493">
        <ele>76</ele>
        <time>2012-11-01T10:16:51Z</time>
      </trkpt>
      <trkpt lat="43.50783" lon="6.76489">
        <ele>76</ele>
        <time>2012-11-01T10:16:52Z</time>
      </trkpt>
      <trkpt lat="43.50783" lon="6.76485">
        <ele>76</ele>
        <time>2012-11-01T10:16:54Z</time>
      </trkpt>
      <trkpt lat="43.50782" lon="6.76481">
        <ele>77</ele>
        <time>2012-11-01T10:16:54Z</time>
      </trkpt>
      <trkpt lat="43.50781" lon="6.76476">
        <ele>77</ele>
        <time>2012-11-01T10:16:55Z</time>
      </trkpt>
      <trkpt lat="43.50779" lon="6.76471">
        <ele>77</ele>
        <time>2012-11-01T10:16:56Z</time>
      </trkpt>
      <trkpt lat="43.50776" lon="6.76467">
        <ele>77</ele>
        <time>2012-11-01T10:16:57Z</time>
      </trkpt>
      <trkpt lat="43.50772" lon="6.76463">
        <ele>77</ele>
        <time>2012-11-01T10:16:58Z</time>
      </trkpt>
      <trkpt lat="43.50769" lon="6.76459">
        <ele>77</ele>
        <time>2012-11-01T10:16:59Z</time>
      </trkpt>
      <trkpt lat="43.50766" lon="6.76456">
        <ele>77</ele>
        <time>2012-11-01T10:17:00Z</time>
      </trkpt>
      <trkpt lat="43.50762" lon="6.76452">
        <ele>77</ele>
        <time>2012-11-01T10:17:01Z</time>
      </trkpt>
      <trkpt lat="43.5076" lon="6.76449">
        <ele>77</ele>
        <time>2012-11-01T10:17:02Z</time>
      </trkpt>
      <trkpt lat="43.50757" lon="6.76445">
        <ele>77</ele>
        <time>2012-11-01T10:17:03Z</time>
      </trkpt>
      <trkpt lat="43.50754" lon="6.76442">
        <ele>77</ele>
        <time>2012-11-01T10:17:04Z</time>
      </trkpt>
      <trkpt lat="43.50752" lon="6.76438">
        <ele>78</ele>
        <time>2012-11-01T10:17:05Z</time>
      </trkpt>
      <trkpt lat="43.5075" lon="6.76435">
        <ele>78</ele>
        <time>2012-11-01T10:17:06Z</time>
      </trkpt>
      <trkpt lat="43.50749" lon="6.76431">
        <ele>78</ele>
        <time>2012-11-01T10:17:07Z</time>
      </trkpt>
      <trkpt lat="43.50747" lon="6.76427">
        <ele>79</ele>
        <time>2012-11-01T10:17:08Z</time>
      </trkpt>
      <trkpt lat="43.50745" lon="6.76424">
        <ele>79</ele>
        <time>2012-11-01T10:17:09Z</time>
      </trkpt>
      <trkpt lat="43.50742" lon="6.7642">
        <ele>79</ele>
        <time>2012-11-01T10:17:10Z</time>
      </trkpt>
      <trkpt lat="43.50738" lon="6.76418">
        <ele>79</ele>
        <time>2012-11-01T10:17:11Z</time>
      </trkpt>
      <trkpt lat="43.50733" lon="6.76415">
        <ele>79</ele>
        <time>2012-11-01T10:17:12Z</time>
      </trkpt>
      <trkpt lat="43.50729" lon="6.76412">
        <ele>79</ele>
        <time>2012-11-01T10:17:13Z</time>
      </trkpt>
      <trkpt lat="43.50724" lon="6.76409">
        <ele>79</ele>
        <time>2012-11-01T10:17:14Z</time>
      </trkpt>
      <trkpt lat="43.5072" lon="6.76407">
        <ele>79</ele>
        <time>2012-11-01T10:17:15Z</time>
      </trkpt>
      <trkpt lat="43.50715" lon="6.76404">
        <ele>79</ele>
        <time>2012-11-01T10:17:16Z</time>
      </trkpt>
      <trkpt lat="43.50711" lon="6.76401">
        <ele>79</ele>
        <time>2012-11-01T10:17:17Z</time>
      </trkpt>
      <trkpt lat="43.50706" lon="6.76398">
        <ele>79</ele>
        <time>2012-11-01T10:17:18Z</time>
      </trkpt>
      <trkpt lat="43.50702" lon="6.76395">
        <ele>79</ele>
        <time>2012-11-01T10:17:19Z</time>
      </trkpt>
      <trkpt lat="43.50698" lon="6.76392">
        <ele>79</ele>
        <time>2012-11-01T10:17:20Z</time>
      </trkpt>
      <trkpt lat="43.50694" lon="6.76389">
        <ele>79</ele>
        <time>2012-11-01T10:17:21Z</time>
      </trkpt>
      <trkpt lat="43.50689" lon="6.76387">
        <ele>79</ele>
        <time>2012-11-01T10:17:22Z</time>
      </trkpt>
      <trkpt lat="43.50685" lon="6.76384">
        <ele>79</ele>
        <time>2012-11-01T10:17:23Z</time>
      </trkpt>
      <trkpt lat="43.50681" lon="6.76382">
        <ele>79</ele>
        <time>2012-11-01T10:17:24Z</time>
      </trkpt>
      <trkpt lat="43.50676" lon="6.76379">
        <ele>79</ele>
        <time>2012-11-01T10:17:25Z</time>
      </trkpt>
      <trkpt lat="43.50672" lon="6.76377">
        <ele>79</ele>
        <time>2012-11-01T10:17:26Z</time>
      </trkpt>
      <trkpt lat="43.50668" lon="6.76375">
        <ele>79</ele>
        <time>2012-11-01T10:17:27Z</time>
      </trkpt>
      <trkpt lat="43.50663" lon="6.76373">
        <ele>79</ele>
        <time>2012-11-01T10:17:28Z</time>
      </trkpt>
      <trkpt lat="43.50659" lon="6.76371">
        <ele>79</ele>
        <time>2012-11-01T10:17:29Z</time>
      </trkpt>
      <trkpt lat="43.50654" lon="6.76369">
        <ele>79</ele>
        <time>2012-11-01T10:17:30Z</time>
      </trkpt>
      <trkpt lat="43.5065" lon="6.76367">
        <ele>79</ele>
        <time>2012-11-01T10:17:31Z</time>
      </trkpt>
      <trkpt lat="43.50645" lon="6.76365">
        <ele>79</ele>
        <time>2012-11-01T10:17:32Z</time>
      </trkpt>
      <trkpt lat="43.5064" lon="6.76364">
        <ele>79</ele>
        <time>2012-11-01T10:17:33Z</time>
      </trkpt>
      <trkpt lat="43.50634" lon="6.76363">
        <ele>79</ele>
        <time>2012-11-01T10:17:34Z</time>
      </trkpt>
      <trkpt lat="43.50629" lon="6.76361">
        <ele>79</ele>
        <time>2012-11-01T10:17:35Z</time>
      </trkpt>
      <trkpt lat="43.50623" lon="6.76359">
        <ele>79</ele>
        <time>2012-11-01T10:17:36Z</time>
      </trkpt>
      <trkpt lat="43.50617" lon="6.76356">
        <ele>79</ele>
        <time>2012-11-01T10:17:37Z</time>
      </trkpt>
      <trkpt lat="43.50612" lon="6.76353">
        <ele>79</ele>
        <time>2012-11-01T10:17:38Z</time>
      </trkpt>
      <trkpt lat="43.50608" lon="6.76349">
        <ele>79</ele>
        <time>2012-11-01T10:17:39Z</time>
      </trkpt>
      <trkpt lat="43.50604" lon="6.76345">
        <ele>79</ele>
        <time>2012-11-01T10:17:40Z</time>
      </trkpt>
      <trkpt lat="43.50601" lon="6.76338">
        <ele>79</ele>
        <time>2012-11-01T10:17:41Z</time>
      </trkpt>
      <trkpt lat="43.50599" lon="6.76331">
        <ele>78</ele>
        <time>2012-11-01T10:17:43Z</time>
      </trkpt>
      <trkpt lat="43.50597" lon="6.76322">
        <ele>77</ele>
        <time>2012-11-01T10:17:43Z</time>
      </trkpt>
      <trkpt lat="43.50596" lon="6.76312">
        <ele>77</ele>
        <time>2012-11-01T10:17:45Z</time>
      </trkpt>
      <trkpt lat="43.50596" lon="6.76303">
        <ele>76</ele>
        <time>2012-11-01T10:17:45Z</time>
      </trkpt>
      <trkpt lat="43.50596" lon="6.76292">
        <ele>75</ele>
        <time>2012-11-01T10:17:47Z</time>
      </trkpt>
      <trkpt lat="43.50596" lon="6.76281">
        <ele>74</ele>
        <time>2012-11-01T10:17:47Z</time>
      </trkpt>
      <trkpt lat="43.50595" lon="6.7627">
        <ele>73</ele>
        <time>2012-11-01T10:17:48Z</time>
      </trkpt>
      <trkpt lat="43.50594" lon="6.7626">
        <ele>72</ele>
        <time>2012-11-01T10:17:49Z</time>
      </trkpt>
      <trkpt lat="43.5059" lon="6.76251">
        <ele>71</ele>
        <time>2012-11-01T10:17:50Z</time>
      </trkpt>
      <trkpt lat="43.50586" lon="6.76242">
        <ele>70</ele>
        <time>2012-11-01T10:17:51Z</time>
      </trkpt>
      <trkpt lat="43.50581" lon="6.76235">
        <ele>69</ele>
        <time>2012-11-01T10:17:52Z</time>
      </trkpt>
      <trkpt lat="43.50576" lon="6.76229">
        <ele>68</ele>
        <time>2012-11-01T10:17:53Z</time>
      </trkpt>
      <trkpt lat="43.50571" lon="6.76223">
        <ele>68</ele>
        <time>2012-11-01T10:17:54Z</time>
      </trkpt>
      <trkpt lat="43.50566" lon="6.76216">
        <ele>67</ele>
        <time>2012-11-01T10:17:55Z</time>
      </trkpt>
      <trkpt lat="43.50562" lon="6.76209">
        <ele>67</ele>
        <time>2012-11-01T10:17:56Z</time>
      </trkpt>
      <trkpt lat="43.50558" lon="6.76201">
        <ele>67</ele>
        <time>2012-11-01T10:17:57Z</time>
      </trkpt>
      <trkpt lat="43.50555" lon="6.76194">
        <ele>67</ele>
        <time>2012-11-01T10:17:58Z</time>
      </trkpt>
      <trkpt lat="43.50551" lon="6.76186">
        <ele>67</ele>
        <time>2012-11-01T10:17:59Z</time>
      </trkpt>
      <trkpt lat="43.50548" lon="6.76178">
        <ele>66</ele>
        <time>2012-11-01T10:18:00Z</time>
      </trkpt>
      <trkpt lat="43.50546" lon="6.76169">
        <ele>66</ele>
        <time>2012-11-01T10:18:01Z</time>
      </trkpt>
      <trkpt lat="43.50544" lon="6.7616">
        <ele>66</ele>
        <time>2012-11-01T10:18:02Z</time>
      </trkpt>
      <trkpt lat="43.50542" lon="6.76152">
        <ele>66</ele>
        <time>2012-11-01T10:18:03Z</time>
      </trkpt>
      <trkpt lat="43.5054" lon="6.76143">
        <ele>65</ele>
        <time>2012-11-01T10:18:04Z</time>
      </trkpt>
      <trkpt lat="43.50538" lon="6.76134">
        <ele>65</ele>
        <time>2012-11-01T10:18:05Z</time>
      </trkpt>
      <trkpt lat="43.50536" lon="6.76126">
        <ele>65</ele>
        <time>2012-11-01T10:18:06Z</time>
      </trkpt>
      <trkpt lat="43.50535" lon="6.76118">
        <ele>65</ele>
        <time>2012-11-01T10:18:07Z</time>
      </trkpt>
      <trkpt lat="43.50533" lon="6.7611">
        <ele>65</ele>
        <time>2012-11-01T10:18:08Z</time>
      </trkpt>
      <trkpt lat="43.50531" lon="6.76101">
        <ele>65</ele>
        <time>2012-11-01T10:18:09Z</time>
      </trkpt>
      <trkpt lat="43.50529" lon="6.76093">
        <ele>64</ele>
        <time>2012-11-01T10:18:10Z</time>
      </trkpt>
      <trkpt lat="43.50527" lon="6.76086">
        <ele>64</ele>
        <time>2012-11-01T10:18:11Z</time>
      </trkpt>
      <trkpt lat="43.50525" lon="6.76079">
        <ele>64</ele>
        <time>2012-11-01T10:18:12Z</time>
      </trkpt>
      <trkpt lat="43.50523" lon="6.76072">
        <ele>64</ele>
        <time>2012-11-01T10:18:13Z</time>
      </trkpt>
      <trkpt lat="43.5052" lon="6.76065">
        <ele>63</ele>
        <time>2012-11-01T10:18:14Z</time>
      </trkpt>
      <trkpt lat="43.50518" lon="6.76057">
        <ele>63</ele>
        <time>2012-11-01T10:18:15Z</time>
      </trkpt>
      <trkpt lat="43.50517" lon="6.7605">
        <ele>62</ele>
        <time>2012-11-01T10:18:16Z</time>
      </trkpt>
      <trkpt lat="43.50514" lon="6.76043">
        <ele>62</ele>
        <time>2012-11-01T10:18:17Z</time>
      </trkpt>
      <trkpt lat="43.50512" lon="6.76036">
        <ele>62</ele>
        <time>2012-11-01T10:18:18Z</time>
      </trkpt>
      <trkpt lat="43.50509" lon="6.76029">
        <ele>61</ele>
        <time>2012-11-01T10:18:19Z</time>
      </trkpt>
      <trkpt lat="43.50505" lon="6.76023">
        <ele>61</ele>
        <time>2012-11-01T10:18:20Z</time>
      </trkpt>
      <trkpt lat="43.50499" lon="6.76018">
        <ele>60</ele>
        <time>2012-11-01T10:18:21Z</time>
      </trkpt>
      <trkpt lat="43.50492" lon="6.76015">
        <ele>59</ele>
        <time>2012-11-01T10:18:22Z</time>
      </trkpt>
      <trkpt lat="43.50485" lon="6.76012">
        <ele>58</ele>
        <time>2012-11-01T10:18:23Z</time>
      </trkpt>
      <trkpt lat="43.50477" lon="6.76008">
        <ele>58</ele>
        <time>2012-11-01T10:18:24Z</time>
      </trkpt>
      <trkpt lat="43.5047" lon="6.76005">
        <ele>57</ele>
        <time>2012-11-01T10:18:25Z</time>
      </trkpt>
      <trkpt lat="43.50463" lon="6.76001">
        <ele>56</ele>
        <time>2012-11-01T10:18:26Z</time>
      </trkpt>
      <trkpt lat="43.50456" lon="6.75996">
        <ele>56</ele>
        <time>2012-11-01T10:18:27Z</time>
      </trkpt>
      <trkpt lat="43.50451" lon="6.75991">
        <ele>55</ele>
        <time>2012-11-01T10:18:28Z</time>
      </trkpt>
      <trkpt lat="43.50446" lon="6.75986">
        <ele>55</ele>
        <time>2012-11-01T10:18:29Z</time>
      </trkpt>
      <trkpt lat="43.50442" lon="6.75982">
        <ele>54</ele>
        <time>2012-11-01T10:18:30Z</time>
      </trkpt>
      <trkpt lat="43.50438" lon="6.75977">
        <ele>53</ele>
        <time>2012-11-01T10:18:31Z</time>
      </trkpt>
      <trkpt lat="43.50434" lon="6.75972">
        <ele>53</ele>
        <time>2012-11-01T10:18:32Z</time>
      </trkpt>
      <trkpt lat="43.5043" lon="6.75966">
        <ele>52</ele>
        <time>2012-11-01T10:18:33Z</time>
      </trkpt>
      <trkpt lat="43.50426" lon="6.7596">
        <ele>52</ele>
        <time>2012-11-01T10:18:34Z</time>
      </trkpt>
      <trkpt lat="43.50423" lon="6.75955">
        <ele>51</ele>
        <time>2012-11-01T10:18:35Z</time>
      </trkpt>
      <trkpt lat="43.5042" lon="6.75949">
        <ele>51</ele>
        <time>2012-11-01T10:18:36Z</time>
      </trkpt>
      <trkpt lat="43.50417" lon="6.75944">
        <ele>50</ele>
        <time>2012-11-01T10:18:37Z</time>
      </trkpt>
      <trkpt lat="43.50416" lon="6.75939">
        <ele>50</ele>
        <time>2012-11-01T10:18:38Z</time>
      </trkpt>
      <trkpt lat="43.50416" lon="6.75934">
        <ele>50</ele>
        <time>2012-11-01T10:18:39Z</time>
      </trkpt>
      <trkpt lat="43.50416" lon="6.75929">
        <ele>49</ele>
        <time>2012-11-01T10:18:40Z</time>
      </trkpt>
      <trkpt lat="43.50417" lon="6.75925">
        <ele>49</ele>
        <time>2012-11-01T10:18:41Z</time>
      </trkpt>
      <trkpt lat="43.50418" lon="6.75921">
        <ele>49</ele>
        <time>2012-11-01T10:18:42Z</time>
      </trkpt>
      <trkpt lat="43.50419" lon="6.75918">
        <ele>48</ele>
        <time>2012-11-01T10:18:43Z</time>
      </trkpt>
      <trkpt lat="43.50421" lon="6.75915">
        <ele>48</ele>
        <time>2012-11-01T10:18:44Z</time>
      </trkpt>
      <trkpt lat="43.50423" lon="6.75913">
        <ele>48</ele>
        <time>2012-11-01T10:18:45Z</time>
      </trkpt>
      <trkpt lat="43.50424" lon="6.7591">
        <ele>48</ele>
        <time>2012-11-01T10:18:46Z</time>
      </trkpt>
      <trkpt lat="43.50426" lon="6.75907">
        <ele>48</ele>
        <time>2012-11-01T10:18:47Z</time>
      </trkpt>
      <trkpt lat="43.50428" lon="6.75904">
        <ele>48</ele>
        <time>2012-11-01T10:18:48Z</time>
      </trkpt>
      <trkpt lat="43.5043" lon="6.75901">
        <ele>47</ele>
        <time>2012-11-01T10:18:49Z</time>
      </trkpt>
      <trkpt lat="43.50432" lon="6.75897">
        <ele>47</ele>
        <time>2012-11-01T10:18:50Z</time>
      </trkpt>
      <trkpt lat="43.50435" lon="6.75892">
        <ele>47</ele>
        <time>2012-11-01T10:18:51Z</time>
      </trkpt>
      <trkpt lat="43.50437" lon="6.75888">
        <ele>46</ele>
        <time>2012-11-01T10:18:52Z</time>
      </trkpt>
      <trkpt lat="43.50439" lon="6.75883">
        <ele>46</ele>
        <time>2012-11-01T10:18:53Z</time>
      </trkpt>
      <trkpt lat="43.50441" lon="6.75879">
        <ele>45</ele>
        <time>2012-11-01T10:18:54Z</time>
      </trkpt>
      <trkpt lat="43.50444" lon="6.75873">
        <ele>44</ele>
        <time>2012-11-01T10:18:55Z</time>
      </trkpt>
      <trkpt lat="43.50447" lon="6.75867">
        <ele>44</ele>
        <time>2012-11-01T10:18:56Z</time>
      </trkpt>
      <trkpt lat="43.50449" lon="6.75862">
        <ele>43</ele>
        <time>2012-11-01T10:18:57Z</time>
      </trkpt>
      <trkpt lat="43.5045" lon="6.75859">
        <ele>43</ele>
        <time>2012-11-01T10:18:58Z</time>
      </trkpt>
      <trkpt lat="43.50451" lon="6.75855">
        <ele>43</ele>
        <time>2012-11-01T10:18:59Z</time>
      </trkpt>
      <trkpt lat="43.50451" lon="6.75852">
        <ele>43</ele>
        <time>2012-11-01T10:19:00Z</time>
      </trkpt>
      <trkpt lat="43.50451" lon="6.75849">
        <ele>43</ele>
        <time>2012-11-01T10:19:01Z</time>
      </trkpt>
      <trkpt lat="43.5045" lon="6.75847">
        <ele>43</ele>
        <time>2012-11-01T10:19:02Z</time>
      </trkpt>
      <trkpt lat="43.50449" lon="6.75844">
        <ele>43</ele>
        <time>2012-11-01T10:19:03Z</time>
      </trkpt>
      <trkpt lat="43.50447" lon="6.75843">
        <ele>43</ele>
        <time>2012-11-01T10:19:04Z</time>
      </trkpt>
      <trkpt lat="43.50445" lon="6.75841">
        <ele>43</ele>
        <time>2012-11-01T10:19:05Z</time>
      </trkpt>
      <trkpt lat="43.50443" lon="6.7584">
        <ele>43</ele>
        <time>2012-11-01T10:19:06Z</time>
      </trkpt>
      <trkpt lat="43.50441" lon="6.75839">
        <ele>43</ele>
        <time>2012-11-01T10:19:07Z</time>
      </trkpt>
      <trkpt lat="43.50439" lon="6.75837">
        <ele>43</ele>
        <time>2012-11-01T10:19:08Z</time>
      </trkpt>
      <trkpt lat="43.50437" lon="6.75836">
        <ele>43</ele>
        <time>2012-11-01T10:19:09Z</time>
      </trkpt>
      <trkpt lat="43.50435" lon="6.75835">
        <ele>43</ele>
        <time>2012-11-01T10:19:10Z</time>
      </trkpt>
      <trkpt lat="43.50433" lon="6.75833">
        <ele>43</ele>
        <time>2012-11-01T10:19:11Z</time>
      </trkpt>
      <trkpt lat="43.50431" lon="6.75832">
        <ele>43</ele>
        <time>2012-11-01T10:19:12Z</time>
      </trkpt>
      <trkpt lat="43.50428" lon="6.75831">
        <ele>43</ele>
        <time>2012-11-01T10:19:13Z</time>
      </trkpt>
      <trkpt lat="43.50425" lon="6.7583">
        <ele>43</ele>
        <time>2012-11-01T10:19:14Z</time>
      </trkpt>
      <trkpt lat="43.50423" lon="6.75828">
        <ele>43</ele>
        <time>2012-11-01T10:19:15Z</time>
      </trkpt>
      <trkpt lat="43.50421" lon="6.75827">
        <ele>43</ele>
        <time>2012-11-01T10:19:16Z</time>
      </trkpt>
      <trkpt lat="43.5042" lon="6.75826">
        <ele>43</ele>
        <time>2012-11-01T10:19:17Z</time>
      </trkpt>
      <trkpt lat="43.50417" lon="6.75824">
        <ele>42</ele>
        <time>2012-11-01T10:19:27Z</time>
      </trkpt>
      <trkpt lat="43.50415" lon="6.75823">
        <ele>42</ele>
        <time>2012-11-01T10:19:28Z</time>
      </trkpt>
      <trkpt lat="43.50414" lon="6.75821">
        <ele>42</ele>
        <time>2012-11-01T10:19:29Z</time>
      </trkpt>
      <trkpt lat="43.50412" lon="6.7582">
        <ele>42</ele>
        <time>2012-11-01T10:19:30Z</time>
      </trkpt>
      <trkpt lat="43.5041" lon="6.75818">
        <ele>42</ele>
        <time>2012-11-01T10:19:31Z</time>
      </trkpt>
      <trkpt lat="43.50408" lon="6.75816">
        <ele>42</ele>
        <time>2012-11-01T10:19:32Z</time>
      </trkpt>
      <trkpt lat="43.50406" lon="6.75815">
        <ele>42</ele>
        <time>2012-11-01T10:19:33Z</time>
      </trkpt>
      <trkpt lat="43.50404" lon="6.75814">
        <ele>42</ele>
        <time>2012-11-01T10:19:34Z</time>
      </trkpt>
      <trkpt lat="43.50403" lon="6.75813">
        <ele>42</ele>
        <time>2012-11-01T10:19:36Z</time>
      </trkpt>
      <trkpt lat="43.50401" lon="6.75812">
        <ele>42</ele>
        <time>2012-11-01T10:19:36Z</time>
      </trkpt>
      <trkpt lat="43.50399" lon="6.75811">
        <ele>42</ele>
        <time>2012-11-01T10:19:37Z</time>
      </trkpt>
      <trkpt lat="43.50397" lon="6.75809">
        <ele>42</ele>
        <time>2012-11-01T10:19:38Z</time>
      </trkpt>
      <trkpt lat="43.50395" lon="6.75807">
        <ele>42</ele>
        <time>2012-11-01T10:19:39Z</time>
      </trkpt>
      <trkpt lat="43.50393" lon="6.75806">
        <ele>42</ele>
        <time>2012-11-01T10:19:40Z</time>
      </trkpt>
      <trkpt lat="43.5039" lon="6.75804">
        <ele>42</ele>
        <time>2012-11-01T10:19:41Z</time>
      </trkpt>
      <trkpt lat="43.50388" lon="6.75802">
        <ele>42</ele>
        <time>2012-11-01T10:19:42Z</time>
      </trkpt>
      <trkpt lat="43.50385" lon="6.758">
        <ele>42</ele>
        <time>2012-11-01T10:19:43Z</time>
      </trkpt>
      <trkpt lat="43.50382" lon="6.75798">
        <ele>42</ele>
        <time>2012-11-01T10:19:44Z</time>
      </trkpt>
      <trkpt lat="43.50379" lon="6.75797">
        <ele>42</ele>
        <time>2012-11-01T10:19:45Z</time>
      </trkpt>
      <trkpt lat="43.50376" lon="6.75794">
        <ele>42</ele>
        <time>2012-11-01T10:19:46Z</time>
      </trkpt>
      <trkpt lat="43.50373" lon="6.75793">
        <ele>42</ele>
        <time>2012-11-01T10:19:47Z</time>
      </trkpt>
      <trkpt lat="43.5037" lon="6.75791">
        <ele>42</ele>
        <time>2012-11-01T10:19:48Z</time>
      </trkpt>
      <trkpt lat="43.50368" lon="6.75789">
        <ele>42</ele>
        <time>2012-11-01T10:19:49Z</time>
      </trkpt>
      <trkpt lat="43.50365" lon="6.75788">
        <ele>42</ele>
        <time>2012-11-01T10:19:50Z</time>
      </trkpt>
      <trkpt lat="43.50364" lon="6.75787">
        <ele>42</ele>
        <time>2012-11-01T10:19:51Z</time>
      </trkpt>
      <trkpt lat="43.50362" lon="6.75785">
        <ele>42</ele>
        <time>2012-11-01T10:19:52Z</time>
      </trkpt>
      <trkpt lat="43.5036" lon="6.75783">
        <ele>42</ele>
        <time>2012-11-01T10:19:54Z</time>
      </trkpt>
      <trkpt lat="43.5036" lon="6.75781">
        <ele>42</ele>
        <time>2012-11-01T10:19:54Z</time>
      </trkpt>
      <trkpt lat="43.5036" lon="6.75779">
        <ele>42</ele>
        <time>2012-11-01T10:19:55Z</time>
      </trkpt>
      <trkpt lat="43.50362" lon="6.75777">
        <ele>42</ele>
        <time>2012-11-01T10:19:56Z</time>
      </trkpt>
      <trkpt lat="43.50363" lon="6.75777">
        <ele>42</ele>
        <time>2012-11-01T10:19:57Z</time>
      </trkpt>
      <trkpt lat="43.50365" lon="6.75778">
        <ele>42</ele>
        <time>2012-11-01T10:19:58Z</time>
      </trkpt>
      <trkpt lat="43.50367" lon="6.75779">
        <ele>42</ele>
        <time>2012-11-01T10:19:59Z</time>
      </trkpt>
      <trkpt lat="43.5037" lon="6.7578">
        <ele>42</ele>
        <time>2012-11-01T10:20:00Z</time>
      </trkpt>
      <trkpt lat="43.50372" lon="6.75782">
        <ele>42</ele>
        <time>2012-11-01T10:20:01Z</time>
      </trkpt>
      <trkpt lat="43.50375" lon="6.75784">
        <ele>42</ele>
        <time>2012-11-01T10:20:02Z</time>
      </trkpt>
      <trkpt lat="43.50378" lon="6.75786">
        <ele>42</ele>
        <time>2012-11-01T10:20:03Z</time>
      </trkpt>
      <trkpt lat="43.50381" lon="6.75787">
        <ele>42</ele>
        <time>2012-11-01T10:20:04Z</time>
      </trkpt>
      <trkpt lat="43.50385" lon="6.75788">
        <ele>42</ele>
        <time>2012-11-01T10:20:05Z</time>
      </trkpt>
      <trkpt lat="43.50388" lon="6.75789">
        <ele>42</ele>
        <time>2012-11-01T10:20:06Z</time>
      </trkpt>
      <trkpt lat="43.50391" lon="6.75789">
        <ele>42</ele>
        <time>2012-11-01T10:20:07Z</time>
      </trkpt>
      <trkpt lat="43.50395" lon="6.75789">
        <ele>42</ele>
        <time>2012-11-01T10:20:08Z</time>
      </trkpt>
      <trkpt lat="43.50398" lon="6.75788">
        <ele>42</ele>
        <time>2012-11-01T10:20:09Z</time>
      </trkpt>
      <trkpt lat="43.50401" lon="6.75787">
        <ele>42</ele>
        <time>2012-11-01T10:20:10Z</time>
      </trkpt>
      <trkpt lat="43.50404" lon="6.75785">
        <ele>42</ele>
        <time>2012-11-01T10:20:11Z</time>
      </trkpt>
      <trkpt lat="43.50406" lon="6.75782">
        <ele>42</ele>
        <time>2012-11-01T10:20:12Z</time>
      </trkpt>
      <trkpt lat="43.50408" lon="6.7578">
        <ele>42</ele>
        <time>2012-11-01T10:20:13Z</time>
      </trkpt>
      <trkpt lat="43.50409" lon="6.75777">
        <ele>42</ele>
        <time>2012-11-01T10:20:14Z</time>
      </trkpt>
      <trkpt lat="43.50412" lon="6.75773">
        <ele>42</ele>
        <time>2012-11-01T10:20:15Z</time>
      </trkpt>
      <trkpt lat="43.50413" lon="6.75769">
        <ele>42</ele>
        <time>2012-11-01T10:20:16Z</time>
      </trkpt>
      <trkpt lat="43.50414" lon="6.75764">
        <ele>42</ele>
        <time>2012-11-01T10:20:17Z</time>
      </trkpt>
      <trkpt lat="43.50416" lon="6.75758">
        <ele>42</ele>
        <time>2012-11-01T10:20:18Z</time>
      </trkpt>
      <trkpt lat="43.50418" lon="6.75752">
        <ele>42</ele>
        <time>2012-11-01T10:20:19Z</time>
      </trkpt>
      <trkpt lat="43.5042" lon="6.75747">
        <ele>42</ele>
        <time>2012-11-01T10:20:20Z</time>
      </trkpt>
      <trkpt lat="43.50422" lon="6.75742">
        <ele>42</ele>
        <time>2012-11-01T10:20:21Z</time>
      </trkpt>
      <trkpt lat="43.50424" lon="6.75737">
        <ele>42</ele>
        <time>2012-11-01T10:20:22Z</time>
      </trkpt>
      <trkpt lat="43.50426" lon="6.75734">
        <ele>42</ele>
        <time>2012-11-01T10:20:23Z</time>
      </trkpt>
      <trkpt lat="43.50428" lon="6.7573">
        <ele>42</ele>
        <time>2012-11-01T10:20:24Z</time>
      </trkpt>
      <trkpt lat="43.50431" lon="6.75726">
        <ele>42</ele>
        <time>2012-11-01T10:20:25Z</time>
      </trkpt>
      <trkpt lat="43.50433" lon="6.75722">
        <ele>42</ele>
        <time>2012-11-01T10:20:26Z</time>
      </trkpt>
      <trkpt lat="43.50435" lon="6.75719">
        <ele>42</ele>
        <time>2012-11-01T10:20:27Z</time>
      </trkpt>
      <trkpt lat="43.50438" lon="6.75715">
        <ele>42</ele>
        <time>2012-11-01T10:20:28Z</time>
      </trkpt>
      <trkpt lat="43.50439" lon="6.75711">
        <ele>42</ele>
        <time>2012-11-01T10:20:29Z</time>
      </trkpt>
      <trkpt lat="43.50441" lon="6.75707">
        <ele>42</ele>
        <time>2012-11-01T10:20:30Z</time>
      </trkpt>
      <trkpt lat="43.50443" lon="6.75703">
        <ele>42</ele>
        <time>2012-11-01T10:20:31Z</time>
      </trkpt>
      <trkpt lat="43.50445" lon="6.75699">
        <ele>42</ele>
        <time>2012-11-01T10:20:32Z</time>
      </trkpt>
      <trkpt lat="43.50446" lon="6.75695">
        <ele>42</ele>
        <time>2012-11-01T10:20:33Z</time>
      </trkpt>
      <trkpt lat="43.50448" lon="6.75691">
        <ele>42</ele>
        <time>2012-11-01T10:20:34Z</time>
      </trkpt>
      <trkpt lat="43.5045" lon="6.75687">
        <ele>42</ele>
        <time>2012-11-01T10:20:35Z</time>
      </trkpt>
      <trkpt lat="43.50452" lon="6.75683">
        <ele>42</ele>
        <time>2012-11-01T10:20:36Z</time>
      </trkpt>
      <trkpt lat="43.50454" lon="6.7568">
        <ele>42</ele>
        <time>2012-11-01T10:20:37Z</time>
      </trkpt>
      <trkpt lat="43.50457" lon="6.75676">
        <ele>42</ele>
        <time>2012-11-01T10:20:38Z</time>
      </trkpt>
      <trkpt lat="43.50458" lon="6.75672">
        <ele>42</ele>
        <time>2012-11-01T10:20:39Z</time>
      </trkpt>
      <trkpt lat="43.5046" lon="6.75669">
        <ele>42</ele>
        <time>2012-11-01T10:20:40Z</time>
      </trkpt>
      <trkpt lat="43.50462" lon="6.75666">
        <ele>42</ele>
        <time>2012-11-01T10:20:41Z</time>
      </trkpt>
      <trkpt lat="43.50464" lon="6.75662">
        <ele>42</ele>
        <time>2012-11-01T10:20:42Z</time>
      </trkpt>
      <trkpt lat="43.50466" lon="6.75659">
        <ele>42</ele>
        <time>2012-11-01T10:20:43Z</time>
      </trkpt>
      <trkpt lat="43.50468" lon="6.75656">
        <ele>42</ele>
        <time>2012-11-01T10:20:44Z</time>
      </trkpt>
      <trkpt lat="43.5047" lon="6.75652">
        <ele>42</ele>
        <time>2012-11-01T10:20:45Z</time>
      </trkpt>
      <trkpt lat="43.50471" lon="6.75649">
        <ele>42</ele>
        <time>2012-11-01T10:20:46Z</time>
      </trkpt>
      <trkpt lat="43.50473" lon="6.75646">
        <ele>42</ele>
        <time>2012-11-01T10:20:47Z</time>
      </trkpt>
      <trkpt lat="43.50475" lon="6.75643">
        <ele>42</ele>
        <time>2012-11-01T10:20:48Z</time>
      </trkpt>
      <trkpt lat="43.50477" lon="6.7564">
        <ele>42</ele>
        <time>2012-11-01T10:20:49Z</time>
      </trkpt>
      <trkpt lat="43.50479" lon="6.75638">
        <ele>42</ele>
        <time>2012-11-01T10:20:50Z</time>
      </trkpt>
      <trkpt lat="43.50481" lon="6.75636">
        <ele>42</ele>
        <time>2012-11-01T10:20:51Z</time>
      </trkpt>
      <trkpt lat="43.50481" lon="6.75635">
        <ele>42</ele>
        <time>2012-11-01T10:20:52Z</time>
      </trkpt>
      <trkpt lat="43.50483" lon="6.75632">
        <ele>42</ele>
        <time>2012-11-01T10:20:54Z</time>
      </trkpt>
      <trkpt lat="43.50483" lon="6.75631">
        <ele>42</ele>
        <time>2012-11-01T10:20:56Z</time>
      </trkpt>
      <trkpt lat="43.50483" lon="6.75628">
        <ele>42</ele>
        <time>2012-11-01T10:20:58Z</time>
      </trkpt>
      <trkpt lat="43.50483" lon="6.75626">
        <ele>42</ele>
        <time>2012-11-01T10:20:59Z</time>
      </trkpt>
      <trkpt lat="43.50484" lon="6.75623">
        <ele>42</ele>
        <time>2012-11-01T10:21:00Z</time>
      </trkpt>
      <trkpt lat="43.50485" lon="6.75619">
        <ele>42</ele>
        <time>2012-11-01T10:21:01Z</time>
      </trkpt>
      <trkpt lat="43.50486" lon="6.75616">
        <ele>42</ele>
        <time>2012-11-01T10:21:02Z</time>
      </trkpt>
      <trkpt lat="43.50488" lon="6.75612">
        <ele>42</ele>
        <time>2012-11-01T10:21:03Z</time>
      </trkpt>
      <trkpt lat="43.50489" lon="6.75608">
        <ele>42</ele>
        <time>2012-11-01T10:21:04Z</time>
      </trkpt>
      <trkpt lat="43.50491" lon="6.75604">
        <ele>42</ele>
        <time>2012-11-01T10:21:05Z</time>
      </trkpt>
      <trkpt lat="43.50492" lon="6.756">
        <ele>42</ele>
        <time>2012-11-01T10:21:06Z</time>
      </trkpt>
      <trkpt lat="43.50494" lon="6.75596">
        <ele>43</ele>
        <time>2012-11-01T10:21:07Z</time>
      </trkpt>
      <trkpt lat="43.50495" lon="6.75592">
        <ele>43</ele>
        <time>2012-11-01T10:21:08Z</time>
      </trkpt>
      <trkpt lat="43.50497" lon="6.75589">
        <ele>43</ele>
        <time>2012-11-01T10:21:09Z</time>
      </trkpt>
      <trkpt lat="43.50498" lon="6.75585">
        <ele>43</ele>
        <time>2012-11-01T10:21:10Z</time>
      </trkpt>
      <trkpt lat="43.505" lon="6.75582">
        <ele>43</ele>
        <time>2012-11-01T10:21:11Z</time>
      </trkpt>
      <trkpt lat="43.50502" lon="6.75578">
        <ele>43</ele>
        <time>2012-11-01T10:21:12Z</time>
      </trkpt>
      <trkpt lat="43.50503" lon="6.75574">
        <ele>43</ele>
        <time>2012-11-01T10:21:13Z</time>
      </trkpt>
      <trkpt lat="43.50505" lon="6.7557">
        <ele>43</ele>
        <time>2012-11-01T10:21:14Z</time>
      </trkpt>
      <trkpt lat="43.50507" lon="6.75566">
        <ele>43</ele>
        <time>2012-11-01T10:21:15Z</time>
      </trkpt>
      <trkpt lat="43.50509" lon="6.75563">
        <ele>43</ele>
        <time>2012-11-01T10:21:16Z</time>
      </trkpt>
      <trkpt lat="43.50512" lon="6.7556">
        <ele>43</ele>
        <time>2012-11-01T10:21:17Z</time>
      </trkpt>
      <trkpt lat="43.50515" lon="6.75557">
        <ele>43</ele>
        <time>2012-11-01T10:21:18Z</time>
      </trkpt>
      <trkpt lat="43.50519" lon="6.75554">
        <ele>43</ele>
        <time>2012-11-01T10:21:19Z</time>
      </trkpt>
      <trkpt lat="43.50522" lon="6.7555">
        <ele>43</ele>
        <time>2012-11-01T10:21:20Z</time>
      </trkpt>
      <trkpt lat="43.50526" lon="6.75547">
        <ele>43</ele>
        <time>2012-11-01T10:21:21Z</time>
      </trkpt>
      <trkpt lat="43.50529" lon="6.75544">
        <ele>43</ele>
        <time>2012-11-01T10:21:22Z</time>
      </trkpt>
      <trkpt lat="43.50533" lon="6.75541">
        <ele>44</ele>
        <time>2012-11-01T10:21:23Z</time>
      </trkpt>
      <trkpt lat="43.50537" lon="6.75538">
        <ele>44</ele>
        <time>2012-11-01T10:21:24Z</time>
      </trkpt>
      <trkpt lat="43.50541" lon="6.75535">
        <ele>44</ele>
        <time>2012-11-01T10:21:25Z</time>
      </trkpt>
      <trkpt lat="43.50545" lon="6.75532">
        <ele>44</ele>
        <time>2012-11-01T10:21:26Z</time>
      </trkpt>
      <trkpt lat="43.5055" lon="6.75529">
        <ele>44</ele>
        <time>2012-11-01T10:21:27Z</time>
      </trkpt>
      <trkpt lat="43.50555" lon="6.75526">
        <ele>44</ele>
        <time>2012-11-01T10:21:28Z</time>
      </trkpt>
      <trkpt lat="43.50559" lon="6.75522">
        <ele>44</ele>
        <time>2012-11-01T10:21:29Z</time>
      </trkpt>
      <trkpt lat="43.50564" lon="6.75518">
        <ele>44</ele>
        <time>2012-11-01T10:21:30Z</time>
      </trkpt>
      <trkpt lat="43.50568" lon="6.75514">
        <ele>44</ele>
        <time>2012-11-01T10:21:31Z</time>
      </trkpt>
      <trkpt lat="43.50573" lon="6.75511">
        <ele>44</ele>
        <time>2012-11-01T10:21:32Z</time>
      </trkpt>
      <trkpt lat="43.50578" lon="6.75508">
        <ele>44</ele>
        <time>2012-11-01T10:21:33Z</time>
      </trkpt>
      <trkpt lat="43.50583" lon="6.75505">
        <ele>44</ele>
        <time>2012-11-01T10:21:34Z</time>
      </trkpt>
      <trkpt lat="43.50587" lon="6.75502">
        <ele>44</ele>
        <time>2012-11-01T10:21:35Z</time>
      </trkpt>
      <trkpt lat="43.50592" lon="6.75499">
        <ele>44</ele>
        <time>2012-11-01T10:21:36Z</time>
      </trkpt>
      <trkpt lat="43.50597" lon="6.75496">
        <ele>44</ele>
        <time>2012-11-01T10:21:37Z</time>
      </trkpt>
      <trkpt lat="43.50602" lon="6.75494">
        <ele>44</ele>
        <time>2012-11-01T10:21:38Z</time>
      </trkpt>
      <trkpt lat="43.50606" lon="6.75492">
        <ele>44</ele>
        <time>2012-11-01T10:21:39Z</time>
      </trkpt>
      <trkpt lat="43.5061" lon="6.75491">
        <ele>44</ele>
        <time>2012-11-01T10:21:40Z</time>
      </trkpt>
      <trkpt lat="43.50614" lon="6.75489">
        <ele>44</ele>
        <time>2012-11-01T10:21:41Z</time>
      </trkpt>
      <trkpt lat="43.50618" lon="6.75488">
        <ele>44</ele>
        <time>2012-11-01T10:21:42Z</time>
      </trkpt>
      <trkpt lat="43.50622" lon="6.75487">
        <ele>44</ele>
        <time>2012-11-01T10:21:43Z</time>
      </trkpt>
      <trkpt lat="43.50625" lon="6.75486">
        <ele>44</ele>
        <time>2012-11-01T10:21:44Z</time>
      </trkpt>
      <trkpt lat="43.50629" lon="6.75485">
        <ele>44</ele>
        <time>2012-11-01T10:21:45Z</time>
      </trkpt>
      <trkpt lat="43.50632" lon="6.75484">
        <ele>44</ele>
        <time>2012-11-01T10:21:46Z</time>
      </trkpt>
      <trkpt lat="43.50636" lon="6.75484">
        <ele>44</ele>
        <time>2012-11-01T10:21:47Z</time>
      </trkpt>
      <trkpt lat="43.5064" lon="6.75483">
        <ele>44</ele>
        <time>2012-11-01T10:21:48Z</time>
      </trkpt>
      <trkpt lat="43.50643" lon="6.75482">
        <ele>44</ele>
        <time>2012-11-01T10:21:49Z</time>
      </trkpt>
      <trkpt lat="43.50646" lon="6.75482">
        <ele>44</ele>
        <time>2012-11-01T10:21:50Z</time>
      </trkpt>
      <trkpt lat="43.50649" lon="6.75481">
        <ele>44</ele>
        <time>2012-11-01T10:21:51Z</time>
      </trkpt>
      <trkpt lat="43.50652" lon="6.75481">
        <ele>44</ele>
        <time>2012-11-01T10:21:52Z</time>
      </trkpt>
      <trkpt lat="43.50655" lon="6.7548">
        <ele>44</ele>
        <time>2012-11-01T10:21:54Z</time>
      </trkpt>
      <trkpt lat="43.50658" lon="6.7548">
        <ele>44</ele>
        <time>2012-11-01T10:21:54Z</time>
      </trkpt>
      <trkpt lat="43.50661" lon="6.75479">
        <ele>44</ele>
        <time>2012-11-01T10:21:55Z</time>
      </trkpt>
      <trkpt lat="43.50664" lon="6.75479">
        <ele>44</ele>
        <time>2012-11-01T10:21:56Z</time>
      </trkpt>
      <trkpt lat="43.50666" lon="6.75478">
        <ele>44</ele>
        <time>2012-11-01T10:21:57Z</time>
      </trkpt>
      <trkpt lat="43.50669" lon="6.75478">
        <ele>44</ele>
        <time>2012-11-01T10:21:58Z</time>
      </trkpt>
      <trkpt lat="43.50671" lon="6.75478">
        <ele>44</ele>
        <time>2012-11-01T10:21:59Z</time>
      </trkpt>
      <trkpt lat="43.50674" lon="6.75477">
        <ele>44</ele>
        <time>2012-11-01T10:22:00Z</time>
      </trkpt>
      <trkpt lat="43.50675" lon="6.75477">
        <ele>44</ele>
        <time>2012-11-01T10:22:01Z</time>
      </trkpt>
      <trkpt lat="43.50677" lon="6.75476">
        <ele>44</ele>
        <time>2012-11-01T10:22:02Z</time>
      </trkpt>
      <trkpt lat="43.50679" lon="6.75475">
        <ele>44</ele>
        <time>2012-11-01T10:22:03Z</time>
      </trkpt>
      <trkpt lat="43.50682" lon="6.75474">
        <ele>44</ele>
        <time>2012-11-01T10:22:04Z</time>
      </trkpt>
      <trkpt lat="43.50683" lon="6.75473">
        <ele>44</ele>
        <time>2012-11-01T10:22:05Z</time>
      </trkpt>
      <trkpt lat="43.50686" lon="6.75472">
        <ele>44</ele>
        <time>2012-11-01T10:22:06Z</time>
      </trkpt>
      <trkpt lat="43.50687" lon="6.75471">
        <ele>44</ele>
        <time>2012-11-01T10:22:07Z</time>
      </trkpt>
      <trkpt lat="43.50689" lon="6.7547">
        <ele>44</ele>
        <time>2012-11-01T10:22:08Z</time>
      </trkpt>
      <trkpt lat="43.50692" lon="6.75468">
        <ele>44</ele>
        <time>2012-11-01T10:22:09Z</time>
      </trkpt>
      <trkpt lat="43.50693" lon="6.75467">
        <ele>44</ele>
        <time>2012-11-01T10:22:10Z</time>
      </trkpt>
      <trkpt lat="43.50695" lon="6.75466">
        <ele>44</ele>
        <time>2012-11-01T10:22:11Z</time>
      </trkpt>
      <trkpt lat="43.50697" lon="6.75464">
        <ele>44</ele>
        <time>2012-11-01T10:22:12Z</time>
      </trkpt>
      <trkpt lat="43.50698" lon="6.75462">
        <ele>44</ele>
        <time>2012-11-01T10:22:13Z</time>
      </trkpt>
      <trkpt lat="43.507" lon="6.75461">
        <ele>44</ele>
        <time>2012-11-01T10:22:14Z</time>
      </trkpt>
      <trkpt lat="43.50702" lon="6.7546">
        <ele>44</ele>
        <time>2012-11-01T10:22:15Z</time>
      </trkpt>
      <trkpt lat="43.50703" lon="6.75459">
        <ele>44</ele>
        <time>2012-11-01T10:22:16Z</time>
      </trkpt>
      <trkpt lat="43.50705" lon="6.75457">
        <ele>44</ele>
        <time>2012-11-01T10:22:17Z</time>
      </trkpt>
      <trkpt lat="43.50706" lon="6.75456">
        <ele>44</ele>
        <time>2012-11-01T10:22:18Z</time>
      </trkpt>
      <trkpt lat="43.50708" lon="6.75454">
        <ele>44</ele>
        <time>2012-11-01T10:22:19Z</time>
      </trkpt>
      <trkpt lat="43.5071" lon="6.75453">
        <ele>44</ele>
        <time>2012-11-01T10:22:20Z</time>
      </trkpt>
      <trkpt lat="43.50712" lon="6.75452">
        <ele>44</ele>
        <time>2012-11-01T10:22:21Z</time>
      </trkpt>
      <trkpt lat="43.50713" lon="6.75451">
        <ele>44</ele>
        <time>2012-11-01T10:22:22Z</time>
      </trkpt>
      <trkpt lat="43.50715" lon="6.7545">
        <ele>44</ele>
        <time>2012-11-01T10:22:23Z</time>
      </trkpt>
      <trkpt lat="43.50717" lon="6.75449">
        <ele>44</ele>
        <time>2012-11-01T10:22:24Z</time>
      </trkpt>
      <trkpt lat="43.50719" lon="6.75447">
        <ele>44</ele>
        <time>2012-11-01T10:22:25Z</time>
      </trkpt>
      <trkpt lat="43.50721" lon="6.75446">
        <ele>44</ele>
        <time>2012-11-01T10:22:26Z</time>
      </trkpt>
      <trkpt lat="43.50723" lon="6.75445">
        <ele>44</ele>
        <time>2012-11-01T10:22:27Z</time>
      </trkpt>
      <trkpt lat="43.50725" lon="6.75444">
        <ele>45</ele>
        <time>2012-11-01T10:22:28Z</time>
      </trkpt>
      <trkpt lat="43.50727" lon="6.75442">
        <ele>45</ele>
        <time>2012-11-01T10:22:29Z</time>
      </trkpt>
      <trkpt lat="43.50729" lon="6.75441">
        <ele>45</ele>
        <time>2012-11-01T10:22:30Z</time>
      </trkpt>
      <trkpt lat="43.50731" lon="6.7544">
        <ele>45</ele>
        <time>2012-11-01T10:22:31Z</time>
      </trkpt>
      <trkpt lat="43.50733" lon="6.75439">
        <ele>45</ele>
        <time>2012-11-01T10:22:32Z</time>
      </trkpt>
      <trkpt lat="43.50735" lon="6.75438">
        <ele>45</ele>
        <time>2012-11-01T10:22:33Z</time>
      </trkpt>
      <trkpt lat="43.50737" lon="6.75437">
        <ele>46</ele>
        <time>2012-11-01T10:22:34Z</time>
      </trkpt>
      <trkpt lat="43.50738" lon="6.75435">
        <ele>46</ele>
        <time>2012-11-01T10:22:35Z</time>
      </trkpt>
      <trkpt lat="43.5074" lon="6.75434">
        <ele>46</ele>
        <time>2012-11-01T10:22:36Z</time>
      </trkpt>
      <trkpt lat="43.50741" lon="6.75432">
        <ele>46</ele>
        <time>2012-11-01T10:22:37Z</time>
      </trkpt>
      <trkpt lat="43.50743" lon="6.75431">
        <ele>46</ele>
        <time>2012-11-01T10:22:38Z</time>
      </trkpt>
      <trkpt lat="43.50744" lon="6.75429">
        <ele>46</ele>
        <time>2012-11-01T10:22:39Z</time>
      </trkpt>
      <trkpt lat="43.50746" lon="6.75427">
        <ele>46</ele>
        <time>2012-11-01T10:22:40Z</time>
      </trkpt>
      <trkpt lat="43.50748" lon="6.75425">
        <ele>46</ele>
        <time>2012-11-01T10:22:41Z</time>
      </trkpt>
      <trkpt lat="43.50749" lon="6.75425">
        <ele>46</ele>
        <time>2012-11-01T10:22:42Z</time>
      </trkpt>
      <trkpt lat="43.5075" lon="6.75424">
        <ele>47</ele>
        <time>2012-11-01T10:22:45Z</time>
      </trkpt>
      <trkpt lat="43.50751" lon="6.75425">
        <ele>47</ele>
        <time>2012-11-01T10:22:49Z</time>
      </trkpt>
      <trkpt lat="43.50752" lon="6.75423">
        <ele>49</ele>
        <time>2012-11-01T10:23:13Z</time>
      </trkpt>
      <trkpt lat="43.50753" lon="6.7542">
        <ele>50</ele>
        <time>2012-11-01T10:23:15Z</time>
      </trkpt>
      <trkpt lat="43.50754" lon="6.75419">
        <ele>50</ele>
        <time>2012-11-01T10:23:16Z</time>
      </trkpt>
      <trkpt lat="43.50755" lon="6.75417">
        <ele>51</ele>
        <time>2012-11-01T10:23:17Z</time>
      </trkpt>
      <trkpt lat="43.50756" lon="6.75415">
        <ele>51</ele>
        <time>2012-11-01T10:23:18Z</time>
      </trkpt>
      <trkpt lat="43.50758" lon="6.75412">
        <ele>51</ele>
        <time>2012-11-01T10:23:19Z</time>
      </trkpt>
      <trkpt lat="43.50759" lon="6.7541">
        <ele>51</ele>
        <time>2012-11-01T10:23:20Z</time>
      </trkpt>
      <trkpt lat="43.50761" lon="6.75407">
        <ele>52</ele>
        <time>2012-11-01T10:23:21Z</time>
      </trkpt>
      <trkpt lat="43.50762" lon="6.75405">
        <ele>52</ele>
        <time>2012-11-01T10:23:22Z</time>
      </trkpt>
      <trkpt lat="43.50764" lon="6.75402">
        <ele>52</ele>
        <time>2012-11-01T10:23:23Z</time>
      </trkpt>
      <trkpt lat="43.50765" lon="6.75399">
        <ele>52</ele>
        <time>2012-11-01T10:23:24Z</time>
      </trkpt>
      <trkpt lat="43.50767" lon="6.75397">
        <ele>52</ele>
        <time>2012-11-01T10:23:25Z</time>
      </trkpt>
      <trkpt lat="43.50769" lon="6.75394">
        <ele>52</ele>
        <time>2012-11-01T10:23:26Z</time>
      </trkpt>
      <trkpt lat="43.50771" lon="6.75392">
        <ele>52</ele>
        <time>2012-11-01T10:23:27Z</time>
      </trkpt>
      <trkpt lat="43.50773" lon="6.7539">
        <ele>52</ele>
        <time>2012-11-01T10:23:28Z</time>
      </trkpt>
      <trkpt lat="43.50775" lon="6.75388">
        <ele>52</ele>
        <time>2012-11-01T10:23:29Z</time>
      </trkpt>
      <trkpt lat="43.50778" lon="6.75386">
        <ele>52</ele>
        <time>2012-11-01T10:23:30Z</time>
      </trkpt>
      <trkpt lat="43.5078" lon="6.75384">
        <ele>52</ele>
        <time>2012-11-01T10:23:31Z</time>
      </trkpt>
      <trkpt lat="43.50783" lon="6.75383">
        <ele>52</ele>
        <time>2012-11-01T10:23:32Z</time>
      </trkpt>
      <trkpt lat="43.50786" lon="6.75382">
        <ele>52</ele>
        <time>2012-11-01T10:23:33Z</time>
      </trkpt>
      <trkpt lat="43.5079" lon="6.75382">
        <ele>52</ele>
        <time>2012-11-01T10:23:34Z</time>
      </trkpt>
      <trkpt lat="43.50792" lon="6.75381">
        <ele>52</ele>
        <time>2012-11-01T10:23:35Z</time>
      </trkpt>
      <trkpt lat="43.50795" lon="6.75381">
        <ele>52</ele>
        <time>2012-11-01T10:23:36Z</time>
      </trkpt>
      <trkpt lat="43.50798" lon="6.75381">
        <ele>53</ele>
        <time>2012-11-01T10:23:37Z</time>
      </trkpt>
      <trkpt lat="43.508" lon="6.7538">
        <ele>54</ele>
        <time>2012-11-01T10:23:38Z</time>
      </trkpt>
      <trkpt lat="43.50803" lon="6.7538">
        <ele>54</ele>
        <time>2012-11-01T10:23:39Z</time>
      </trkpt>
      <trkpt lat="43.50806" lon="6.7538">
        <ele>55</ele>
        <time>2012-11-01T10:23:40Z</time>
      </trkpt>
      <trkpt lat="43.50809" lon="6.7538">
        <ele>55</ele>
        <time>2012-11-01T10:23:41Z</time>
      </trkpt>
      <trkpt lat="43.50811" lon="6.75381">
        <ele>56</ele>
        <time>2012-11-01T10:23:42Z</time>
      </trkpt>
      <trkpt lat="43.50814" lon="6.75381">
        <ele>56</ele>
        <time>2012-11-01T10:23:43Z</time>
      </trkpt>
      <trkpt lat="43.50816" lon="6.7538">
        <ele>56</ele>
        <time>2012-11-01T10:23:44Z</time>
      </trkpt>
      <trkpt lat="43.50819" lon="6.7538">
        <ele>56</ele>
        <time>2012-11-01T10:23:45Z</time>
      </trkpt>
      <trkpt lat="43.50822" lon="6.75379">
        <ele>56</ele>
        <time>2012-11-01T10:23:46Z</time>
      </trkpt>
      <trkpt lat="43.50824" lon="6.75379">
        <ele>56</ele>
        <time>2012-11-01T10:23:47Z</time>
      </trkpt>
      <trkpt lat="43.50827" lon="6.75379">
        <ele>56</ele>
        <time>2012-11-01T10:23:48Z</time>
      </trkpt>
      <trkpt lat="43.50829" lon="6.75378">
        <ele>56</ele>
        <time>2012-11-01T10:23:49Z</time>
      </trkpt>
      <trkpt lat="43.50831" lon="6.75377">
        <ele>56</ele>
        <time>2012-11-01T10:23:50Z</time>
      </trkpt>
      <trkpt lat="43.50834" lon="6.75376">
        <ele>56</ele>
        <time>2012-11-01T10:23:51Z</time>
      </trkpt>
      <trkpt lat="43.50835" lon="6.75375">
        <ele>56</ele>
        <time>2012-11-01T10:23:52Z</time>
      </trkpt>
      <trkpt lat="43.50838" lon="6.75374">
        <ele>57</ele>
        <time>2012-11-01T10:23:54Z</time>
      </trkpt>
      <trkpt lat="43.5084" lon="6.75373">
        <ele>57</ele>
        <time>2012-11-01T10:23:54Z</time>
      </trkpt>
      <trkpt lat="43.50842" lon="6.75372">
        <ele>57</ele>
        <time>2012-11-01T10:23:55Z</time>
      </trkpt>
      <trkpt lat="43.50845" lon="6.75371">
        <ele>57</ele>
        <time>2012-11-01T10:23:57Z</time>
      </trkpt>
      <trkpt lat="43.50847" lon="6.7537">
        <ele>58</ele>
        <time>2012-11-01T10:23:57Z</time>
      </trkpt>
      <trkpt lat="43.5085" lon="6.75369">
        <ele>58</ele>
        <time>2012-11-01T10:23:58Z</time>
      </trkpt>
      <trkpt lat="43.50852" lon="6.75368">
        <ele>58</ele>
        <time>2012-11-01T10:23:59Z</time>
      </trkpt>
      <trkpt lat="43.50854" lon="6.75368">
        <ele>58</ele>
        <time>2012-11-01T10:24:00Z</time>
      </trkpt>
      <trkpt lat="43.50856" lon="6.75367">
        <ele>59</ele>
        <time>2012-11-01T10:24:01Z</time>
      </trkpt>
      <trkpt lat="43.50858" lon="6.75367">
        <ele>59</ele>
        <time>2012-11-01T10:24:02Z</time>
      </trkpt>
      <trkpt lat="43.50861" lon="6.75368">
        <ele>59</ele>
        <time>2012-11-01T10:24:03Z</time>
      </trkpt>
      <trkpt lat="43.50863" lon="6.75368">
        <ele>59</ele>
        <time>2012-11-01T10:24:04Z</time>
      </trkpt>
      <trkpt lat="43.50866" lon="6.75368">
        <ele>60</ele>
        <time>2012-11-01T10:24:05Z</time>
      </trkpt>
      <trkpt lat="43.50868" lon="6.75368">
        <ele>60</ele>
        <time>2012-11-01T10:24:06Z</time>
      </trkpt>
      <trkpt lat="43.50871" lon="6.75369">
        <ele>60</ele>
        <time>2012-11-01T10:24:07Z</time>
      </trkpt>
      <trkpt lat="43.50873" lon="6.7537">
        <ele>60</ele>
        <time>2012-11-01T10:24:08Z</time>
      </trkpt>
      <trkpt lat="43.50875" lon="6.75371">
        <ele>60</ele>
        <time>2012-11-01T10:24:09Z</time>
      </trkpt>
      <trkpt lat="43.50877" lon="6.75373">
        <ele>61</ele>
        <time>2012-11-01T10:24:10Z</time>
      </trkpt>
      <trkpt lat="43.5088" lon="6.75375">
        <ele>61</ele>
        <time>2012-11-01T10:24:11Z</time>
      </trkpt>
      <trkpt lat="43.50881" lon="6.75377">
        <ele>61</ele>
        <time>2012-11-01T10:24:12Z</time>
      </trkpt>
      <trkpt lat="43.50882" lon="6.7538">
        <ele>62</ele>
        <time>2012-11-01T10:24:13Z</time>
      </trkpt>
      <trkpt lat="43.50884" lon="6.75383">
        <ele>62</ele>
        <time>2012-11-01T10:24:14Z</time>
      </trkpt>
      <trkpt lat="43.50886" lon="6.75386">
        <ele>62</ele>
        <time>2012-11-01T10:24:15Z</time>
      </trkpt>
      <trkpt lat="43.50887" lon="6.75388">
        <ele>63</ele>
        <time>2012-11-01T10:24:16Z</time>
      </trkpt>
      <trkpt lat="43.50889" lon="6.75391">
        <ele>63</ele>
        <time>2012-11-01T10:24:17Z</time>
      </trkpt>
      <trkpt lat="43.5089" lon="6.75394">
        <ele>63</ele>
        <time>2012-11-01T10:24:18Z</time>
      </trkpt>
      <trkpt lat="43.50892" lon="6.75397">
        <ele>63</ele>
        <time>2012-11-01T10:24:19Z</time>
      </trkpt>
      <trkpt lat="43.50894" lon="6.754">
        <ele>64</ele>
        <time>2012-11-01T10:24:20Z</time>
      </trkpt>
      <trkpt lat="43.50896" lon="6.75403">
        <ele>64</ele>
        <time>2012-11-01T10:24:21Z</time>
      </trkpt>
      <trkpt lat="43.50898" lon="6.75405">
        <ele>64</ele>
        <time>2012-11-01T10:24:22Z</time>
      </trkpt>
      <trkpt lat="43.50901" lon="6.75408">
        <ele>64</ele>
        <time>2012-11-01T10:24:23Z</time>
      </trkpt>
      <trkpt lat="43.50903" lon="6.7541">
        <ele>64</ele>
        <time>2012-11-01T10:24:24Z</time>
      </trkpt>
      <trkpt lat="43.50906" lon="6.75413">
        <ele>64</ele>
        <time>2012-11-01T10:24:25Z</time>
      </trkpt>
      <trkpt lat="43.50909" lon="6.75415">
        <ele>64</ele>
        <time>2012-11-01T10:24:26Z</time>
      </trkpt>
      <trkpt lat="43.50912" lon="6.75417">
        <ele>64</ele>
        <time>2012-11-01T10:24:27Z</time>
      </trkpt>
      <trkpt lat="43.50916" lon="6.75419">
        <ele>65</ele>
        <time>2012-11-01T10:24:28Z</time>
      </trkpt>
      <trkpt lat="43.50919" lon="6.75421">
        <ele>65</ele>
        <time>2012-11-01T10:24:29Z</time>
      </trkpt>
      <trkpt lat="43.50923" lon="6.75423">
        <ele>65</ele>
        <time>2012-11-01T10:24:30Z</time>
      </trkpt>
      <trkpt lat="43.50927" lon="6.75426">
        <ele>65</ele>
        <time>2012-11-01T10:24:31Z</time>
      </trkpt>
      <trkpt lat="43.5093" lon="6.75428">
        <ele>65</ele>
        <time>2012-11-01T10:24:32Z</time>
      </trkpt>
      <trkpt lat="43.50935" lon="6.75431">
        <ele>65</ele>
        <time>2012-11-01T10:24:33Z</time>
      </trkpt>
      <trkpt lat="43.50938" lon="6.75435">
        <ele>65</ele>
        <time>2012-11-01T10:24:34Z</time>
      </trkpt>
      <trkpt lat="43.50941" lon="6.75438">
        <ele>65</ele>
        <time>2012-11-01T10:24:35Z</time>
      </trkpt>
      <trkpt lat="43.50945" lon="6.75442">
        <ele>65</ele>
        <time>2012-11-01T10:24:36Z</time>
      </trkpt>
      <trkpt lat="43.50948" lon="6.75446">
        <ele>65</ele>
        <time>2012-11-01T10:24:37Z</time>
      </trkpt>
      <trkpt lat="43.50951" lon="6.75449">
        <ele>65</ele>
        <time>2012-11-01T10:24:38Z</time>
      </trkpt>
      <trkpt lat="43.50953" lon="6.75452">
        <ele>66</ele>
        <time>2012-11-01T10:24:39Z</time>
      </trkpt>
      <trkpt lat="43.50955" lon="6.75456">
        <ele>66</ele>
        <time>2012-11-01T10:24:40Z</time>
      </trkpt>
      <trkpt lat="43.50957" lon="6.75459">
        <ele>66</ele>
        <time>2012-11-01T10:24:41Z</time>
      </trkpt>
      <trkpt lat="43.50959" lon="6.75462">
        <ele>66</ele>
        <time>2012-11-01T10:24:42Z</time>
      </trkpt>
      <trkpt lat="43.5096" lon="6.75465">
        <ele>66</ele>
        <time>2012-11-01T10:24:43Z</time>
      </trkpt>
      <trkpt lat="43.50961" lon="6.75468">
        <ele>67</ele>
        <time>2012-11-01T10:24:44Z</time>
      </trkpt>
      <trkpt lat="43.50961" lon="6.75472">
        <ele>67</ele>
        <time>2012-11-01T10:24:45Z</time>
      </trkpt>
      <trkpt lat="43.50961" lon="6.75475">
        <ele>68</ele>
        <time>2012-11-01T10:24:46Z</time>
      </trkpt>
      <trkpt lat="43.50962" lon="6.75478">
        <ele>68</ele>
        <time>2012-11-01T10:24:47Z</time>
      </trkpt>
      <trkpt lat="43.50962" lon="6.75481">
        <ele>68</ele>
        <time>2012-11-01T10:24:48Z</time>
      </trkpt>
      <trkpt lat="43.50962" lon="6.75485">
        <ele>68</ele>
        <time>2012-11-01T10:24:49Z</time>
      </trkpt>
      <trkpt lat="43.50962" lon="6.75488">
        <ele>68</ele>
        <time>2012-11-01T10:24:50Z</time>
      </trkpt>
      <trkpt lat="43.50963" lon="6.75492">
        <ele>68</ele>
        <time>2012-11-01T10:24:51Z</time>
      </trkpt>
      <trkpt lat="43.50963" lon="6.75495">
        <ele>69</ele>
        <time>2012-11-01T10:24:52Z</time>
      </trkpt>
      <trkpt lat="43.50964" lon="6.75499">
        <ele>69</ele>
        <time>2012-11-01T10:24:53Z</time>
      </trkpt>
      <trkpt lat="43.50964" lon="6.75503">
        <ele>69</ele>
        <time>2012-11-01T10:24:54Z</time>
      </trkpt>
      <trkpt lat="43.50965" lon="6.75507">
        <ele>69</ele>
        <time>2012-11-01T10:24:55Z</time>
      </trkpt>
      <trkpt lat="43.50965" lon="6.7551">
        <ele>70</ele>
        <time>2012-11-01T10:24:56Z</time>
      </trkpt>
      <trkpt lat="43.50967" lon="6.75514">
        <ele>70</ele>
        <time>2012-11-01T10:24:57Z</time>
      </trkpt>
      <trkpt lat="43.50967" lon="6.75517">
        <ele>70</ele>
        <time>2012-11-01T10:24:58Z</time>
      </trkpt>
      <trkpt lat="43.50968" lon="6.75521">
        <ele>70</ele>
        <time>2012-11-01T10:24:59Z</time>
      </trkpt>
      <trkpt lat="43.50968" lon="6.75524">
        <ele>71</ele>
        <time>2012-11-01T10:25:00Z</time>
      </trkpt>
      <trkpt lat="43.50969" lon="6.75527">
        <ele>71</ele>
        <time>2012-11-01T10:25:01Z</time>
      </trkpt>
      <trkpt lat="43.50969" lon="6.7553">
        <ele>71</ele>
        <time>2012-11-01T10:25:02Z</time>
      </trkpt>
      <trkpt lat="43.50969" lon="6.75533">
        <ele>71</ele>
        <time>2012-11-01T10:25:03Z</time>
      </trkpt>
      <trkpt lat="43.50969" lon="6.75537">
        <ele>71</ele>
        <time>2012-11-01T10:25:04Z</time>
      </trkpt>
      <trkpt lat="43.5097" lon="6.7554">
        <ele>72</ele>
        <time>2012-11-01T10:25:05Z</time>
      </trkpt>
      <trkpt lat="43.5097" lon="6.75543">
        <ele>72</ele>
        <time>2012-11-01T10:25:06Z</time>
      </trkpt>
      <trkpt lat="43.50971" lon="6.75546">
        <ele>72</ele>
        <time>2012-11-01T10:25:07Z</time>
      </trkpt>
      <trkpt lat="43.50971" lon="6.75549">
        <ele>72</ele>
        <time>2012-11-01T10:25:08Z</time>
      </trkpt>
      <trkpt lat="43.50972" lon="6.75552">
        <ele>72</ele>
        <time>2012-11-01T10:25:09Z</time>
      </trkpt>
      <trkpt lat="43.50972" lon="6.75555">
        <ele>72</ele>
        <time>2012-11-01T10:25:10Z</time>
      </trkpt>
      <trkpt lat="43.50972" lon="6.75558">
        <ele>73</ele>
        <time>2012-11-01T10:25:11Z</time>
      </trkpt>
      <trkpt lat="43.50972" lon="6.75561">
        <ele>73</ele>
        <time>2012-11-01T10:25:12Z</time>
      </trkpt>
      <trkpt lat="43.50972" lon="6.75564">
        <ele>73</ele>
        <time>2012-11-01T10:25:13Z</time>
      </trkpt>
      <trkpt lat="43.50973" lon="6.75567">
        <ele>73</ele>
        <time>2012-11-01T10:25:14Z</time>
      </trkpt>
      <trkpt lat="43.50973" lon="6.7557">
        <ele>73</ele>
        <time>2012-11-01T10:25:15Z</time>
      </trkpt>
      <trkpt lat="43.50973" lon="6.75573">
        <ele>73</ele>
        <time>2012-11-01T10:25:16Z</time>
      </trkpt>
      <trkpt lat="43.50973" lon="6.75576">
        <ele>73</ele>
        <time>2012-11-01T10:25:17Z</time>
      </trkpt>
      <trkpt lat="43.50973" lon="6.75579">
        <ele>73</ele>
        <time>2012-11-01T10:25:18Z</time>
      </trkpt>
      <trkpt lat="43.50973" lon="6.75582">
        <ele>74</ele>
        <time>2012-11-01T10:25:19Z</time>
      </trkpt>
      <trkpt lat="43.50973" lon="6.75585">
        <ele>74</ele>
        <time>2012-11-01T10:25:20Z</time>
      </trkpt>
      <trkpt lat="43.50973" lon="6.75588">
        <ele>74</ele>
        <time>2012-11-01T10:25:21Z</time>
      </trkpt>
      <trkpt lat="43.50974" lon="6.75591">
        <ele>74</ele>
        <time>2012-11-01T10:25:22Z</time>
      </trkpt>
      <trkpt lat="43.50974" lon="6.75594">
        <ele>74</ele>
        <time>2012-11-01T10:25:23Z</time>
      </trkpt>
      <trkpt lat="43.50974" lon="6.75596">
        <ele>75</ele>
        <time>2012-11-01T10:25:24Z</time>
      </trkpt>
      <trkpt lat="43.50975" lon="6.75599">
        <ele>75</ele>
        <time>2012-11-01T10:25:25Z</time>
      </trkpt>
      <trkpt lat="43.50975" lon="6.75601">
        <ele>75</ele>
        <time>2012-11-01T10:25:26Z</time>
      </trkpt>
      <trkpt lat="43.50976" lon="6.75603">
        <ele>75</ele>
        <time>2012-11-01T10:25:27Z</time>
      </trkpt>
      <trkpt lat="43.50977" lon="6.75605">
        <ele>76</ele>
        <time>2012-11-01T10:25:28Z</time>
      </trkpt>
      <trkpt lat="43.50978" lon="6.75607">
        <ele>76</ele>
        <time>2012-11-01T10:25:29Z</time>
      </trkpt>
      <trkpt lat="43.50979" lon="6.75608">
        <ele>76</ele>
        <time>2012-11-01T10:25:30Z</time>
      </trkpt>
      <trkpt lat="43.5098" lon="6.7561">
        <ele>76</ele>
        <time>2012-11-01T10:25:31Z</time>
      </trkpt>
      <trkpt lat="43.50982" lon="6.75611">
        <ele>76</ele>
        <time>2012-11-01T10:25:32Z</time>
      </trkpt>
      <trkpt lat="43.50983" lon="6.75611">
        <ele>76</ele>
        <time>2012-11-01T10:25:33Z</time>
      </trkpt>
      <trkpt lat="43.50985" lon="6.75612">
        <ele>76</ele>
        <time>2012-11-01T10:25:34Z</time>
      </trkpt>
      <trkpt lat="43.50986" lon="6.75611">
        <ele>77</ele>
        <time>2012-11-01T10:25:36Z</time>
      </trkpt>
      <trkpt lat="43.50988" lon="6.7561">
        <ele>77</ele>
        <time>2012-11-01T10:25:39Z</time>
      </trkpt>
      <trkpt lat="43.50989" lon="6.75609">
        <ele>77</ele>
        <time>2012-11-01T10:25:40Z</time>
      </trkpt>
      <trkpt lat="43.5099" lon="6.75607">
        <ele>77</ele>
        <time>2012-11-01T10:25:41Z</time>
      </trkpt>
      <trkpt lat="43.50991" lon="6.75605">
        <ele>77</ele>
        <time>2012-11-01T10:25:42Z</time>
      </trkpt>
      <trkpt lat="43.50991" lon="6.75603">
        <ele>77</ele>
        <time>2012-11-01T10:25:43Z</time>
      </trkpt>
      <trkpt lat="43.50992" lon="6.75601">
        <ele>77</ele>
        <time>2012-11-01T10:25:44Z</time>
      </trkpt>
      <trkpt lat="43.50993" lon="6.75598">
        <ele>77</ele>
        <time>2012-11-01T10:25:45Z</time>
      </trkpt>
      <trkpt lat="43.50993" lon="6.75596">
        <ele>77</ele>
        <time>2012-11-01T10:25:46Z</time>
      </trkpt>
      <trkpt lat="43.50994" lon="6.75594">
        <ele>77</ele>
        <time>2012-11-01T10:25:47Z</time>
      </trkpt>
      <trkpt lat="43.50995" lon="6.75591">
        <ele>77</ele>
        <time>2012-11-01T10:25:48Z</time>
      </trkpt>
      <trkpt lat="43.50996" lon="6.75589">
        <ele>77</ele>
        <time>2012-11-01T10:25:49Z</time>
      </trkpt>
      <trkpt lat="43.50996" lon="6.75586">
        <ele>77</ele>
        <time>2012-11-01T10:25:50Z</time>
      </trkpt>
      <trkpt lat="43.50997" lon="6.75583">
        <ele>77</ele>
        <time>2012-11-01T10:25:51Z</time>
      </trkpt>
      <trkpt lat="43.50998" lon="6.75581">
        <ele>77</ele>
        <time>2012-11-01T10:25:52Z</time>
      </trkpt>
      <trkpt lat="43.50998" lon="6.75578">
        <ele>77</ele>
        <time>2012-11-01T10:25:54Z</time>
      </trkpt>
      <trkpt lat="43.50999" lon="6.75575">
        <ele>77</ele>
        <time>2012-11-01T10:25:54Z</time>
      </trkpt>
      <trkpt lat="43.50999" lon="6.75573">
        <ele>77</ele>
        <time>2012-11-01T10:25:55Z</time>
      </trkpt>
      <trkpt lat="43.51" lon="6.7557">
        <ele>77</ele>
        <time>2012-11-01T10:25:56Z</time>
      </trkpt>
      <trkpt lat="43.51001" lon="6.75568">
        <ele>78</ele>
        <time>2012-11-01T10:25:57Z</time>
      </trkpt>
      <trkpt lat="43.51002" lon="6.75566">
        <ele>78</ele>
        <time>2012-11-01T10:25:58Z</time>
      </trkpt>
      <trkpt lat="43.51003" lon="6.75564">
        <ele>78</ele>
        <time>2012-11-01T10:25:59Z</time>
      </trkpt>
      <trkpt lat="43.51004" lon="6.75562">
        <ele>79</ele>
        <time>2012-11-01T10:26:00Z</time>
      </trkpt>
      <trkpt lat="43.51005" lon="6.7556">
        <ele>79</ele>
        <time>2012-11-01T10:26:01Z</time>
      </trkpt>
      <trkpt lat="43.51006" lon="6.75557">
        <ele>79</ele>
        <time>2012-11-01T10:26:02Z</time>
      </trkpt>
      <trkpt lat="43.51007" lon="6.75555">
        <ele>79</ele>
        <time>2012-11-01T10:26:03Z</time>
      </trkpt>
      <trkpt lat="43.51008" lon="6.75553">
        <ele>80</ele>
        <time>2012-11-01T10:26:04Z</time>
      </trkpt>
      <trkpt lat="43.51009" lon="6.75551">
        <ele>80</ele>
        <time>2012-11-01T10:26:05Z</time>
      </trkpt>
      <trkpt lat="43.5101" lon="6.75549">
        <ele>80</ele>
        <time>2012-11-01T10:26:06Z</time>
      </trkpt>
      <trkpt lat="43.51012" lon="6.75547">
        <ele>80</ele>
        <time>2012-11-01T10:26:07Z</time>
      </trkpt>
      <trkpt lat="43.51013" lon="6.75545">
        <ele>80</ele>
        <time>2012-11-01T10:26:08Z</time>
      </trkpt>
      <trkpt lat="43.51014" lon="6.75543">
        <ele>81</ele>
        <time>2012-11-01T10:26:09Z</time>
      </trkpt>
      <trkpt lat="43.51015" lon="6.75541">
        <ele>81</ele>
        <time>2012-11-01T10:26:10Z</time>
      </trkpt>
      <trkpt lat="43.51017" lon="6.75539">
        <ele>81</ele>
        <time>2012-11-01T10:26:11Z</time>
      </trkpt>
      <trkpt lat="43.51018" lon="6.75537">
        <ele>81</ele>
        <time>2012-11-01T10:26:12Z</time>
      </trkpt>
      <trkpt lat="43.51019" lon="6.75535">
        <ele>81</ele>
        <time>2012-11-01T10:26:13Z</time>
      </trkpt>
      <trkpt lat="43.5102" lon="6.75534">
        <ele>81</ele>
        <time>2012-11-01T10:26:14Z</time>
      </trkpt>
      <trkpt lat="43.51022" lon="6.75532">
        <ele>82</ele>
        <time>2012-11-01T10:26:15Z</time>
      </trkpt>
      <trkpt lat="43.51023" lon="6.7553">
        <ele>82</ele>
        <time>2012-11-01T10:26:16Z</time>
      </trkpt>
      <trkpt lat="43.51024" lon="6.75528">
        <ele>82</ele>
        <time>2012-11-01T10:26:17Z</time>
      </trkpt>
      <trkpt lat="43.51025" lon="6.75527">
        <ele>82</ele>
        <time>2012-11-01T10:26:18Z</time>
      </trkpt>
      <trkpt lat="43.51026" lon="6.75525">
        <ele>82</ele>
        <time>2012-11-01T10:26:19Z</time>
      </trkpt>
      <trkpt lat="43.51028" lon="6.75524">
        <ele>83</ele>
        <time>2012-11-01T10:26:20Z</time>
      </trkpt>
      <trkpt lat="43.51029" lon="6.75522">
        <ele>83</ele>
        <time>2012-11-01T10:26:21Z</time>
      </trkpt>
      <trkpt lat="43.5103" lon="6.75521">
        <ele>83</ele>
        <time>2012-11-01T10:26:22Z</time>
      </trkpt>
      <trkpt lat="43.51031" lon="6.75519">
        <ele>83</ele>
        <time>2012-11-01T10:26:23Z</time>
      </trkpt>
      <trkpt lat="43.51032" lon="6.75518">
        <ele>84</ele>
        <time>2012-11-01T10:26:24Z</time>
      </trkpt>
      <trkpt lat="43.51033" lon="6.75516">
        <ele>84</ele>
        <time>2012-11-01T10:26:25Z</time>
      </trkpt>
      <trkpt lat="43.51035" lon="6.75515">
        <ele>84</ele>
        <time>2012-11-01T10:26:26Z</time>
      </trkpt>
      <trkpt lat="43.51036" lon="6.75513">
        <ele>85</ele>
        <time>2012-11-01T10:26:27Z</time>
      </trkpt>
      <trkpt lat="43.51037" lon="6.75511">
        <ele>85</ele>
        <time>2012-11-01T10:26:28Z</time>
      </trkpt>
      <trkpt lat="43.51038" lon="6.75509">
        <ele>86</ele>
        <time>2012-11-01T10:26:29Z</time>
      </trkpt>
      <trkpt lat="43.51039" lon="6.75507">
        <ele>86</ele>
        <time>2012-11-01T10:26:30Z</time>
      </trkpt>
      <trkpt lat="43.5104" lon="6.75506">
        <ele>86</ele>
        <time>2012-11-01T10:26:31Z</time>
      </trkpt>
      <trkpt lat="43.51041" lon="6.75504">
        <ele>87</ele>
        <time>2012-11-01T10:26:32Z</time>
      </trkpt>
      <trkpt lat="43.51043" lon="6.75503">
        <ele>87</ele>
        <time>2012-11-01T10:26:33Z</time>
      </trkpt>
      <trkpt lat="43.51044" lon="6.75501">
        <ele>88</ele>
        <time>2012-11-01T10:26:34Z</time>
      </trkpt>
      <trkpt lat="43.51045" lon="6.75499">
        <ele>88</ele>
        <time>2012-11-01T10:26:35Z</time>
      </trkpt>
      <trkpt lat="43.51046" lon="6.75498">
        <ele>89</ele>
        <time>2012-11-01T10:26:36Z</time>
      </trkpt>
      <trkpt lat="43.51048" lon="6.75497">
        <ele>89</ele>
        <time>2012-11-01T10:26:37Z</time>
      </trkpt>
      <trkpt lat="43.51049" lon="6.75495">
        <ele>89</ele>
        <time>2012-11-01T10:26:38Z</time>
      </trkpt>
      <trkpt lat="43.5105" lon="6.75494">
        <ele>90</ele>
        <time>2012-11-01T10:26:39Z</time>
      </trkpt>
      <trkpt lat="43.51051" lon="6.75493">
        <ele>90</ele>
        <time>2012-11-01T10:26:40Z</time>
      </trkpt>
      <trkpt lat="43.51052" lon="6.75492">
        <ele>91</ele>
        <time>2012-11-01T10:26:41Z</time>
      </trkpt>
      <trkpt lat="43.51054" lon="6.7549">
        <ele>91</ele>
        <time>2012-11-01T10:26:42Z</time>
      </trkpt>
      <trkpt lat="43.51055" lon="6.75489">
        <ele>91</ele>
        <time>2012-11-01T10:26:43Z</time>
      </trkpt>
      <trkpt lat="43.51057" lon="6.75488">
        <ele>92</ele>
        <time>2012-11-01T10:26:44Z</time>
      </trkpt>
      <trkpt lat="43.51059" lon="6.75487">
        <ele>92</ele>
        <time>2012-11-01T10:26:45Z</time>
      </trkpt>
      <trkpt lat="43.5106" lon="6.75486">
        <ele>92</ele>
        <time>2012-11-01T10:26:46Z</time>
      </trkpt>
      <trkpt lat="43.51062" lon="6.75485">
        <ele>92</ele>
        <time>2012-11-01T10:26:47Z</time>
      </trkpt>
      <trkpt lat="43.51064" lon="6.75484">
        <ele>93</ele>
        <time>2012-11-01T10:26:48Z</time>
      </trkpt>
      <trkpt lat="43.51065" lon="6.75483">
        <ele>93</ele>
        <time>2012-11-01T10:26:49Z</time>
      </trkpt>
      <trkpt lat="43.51067" lon="6.75482">
        <ele>93</ele>
        <time>2012-11-01T10:26:50Z</time>
      </trkpt>
      <trkpt lat="43.51069" lon="6.75481">
        <ele>93</ele>
        <time>2012-11-01T10:26:51Z</time>
      </trkpt>
      <trkpt lat="43.5107" lon="6.75479">
        <ele>94</ele>
        <time>2012-11-01T10:26:52Z</time>
      </trkpt>
      <trkpt lat="43.51072" lon="6.75478">
        <ele>94</ele>
        <time>2012-11-01T10:26:53Z</time>
      </trkpt>
      <trkpt lat="43.51074" lon="6.75477">
        <ele>94</ele>
        <time>2012-11-01T10:26:54Z</time>
      </trkpt>
      <trkpt lat="43.51075" lon="6.75476">
        <ele>94</ele>
        <time>2012-11-01T10:26:55Z</time>
      </trkpt>
      <trkpt lat="43.51077" lon="6.75475">
        <ele>95</ele>
        <time>2012-11-01T10:26:56Z</time>
      </trkpt>
      <trkpt lat="43.51079" lon="6.75473">
        <ele>95</ele>
        <time>2012-11-01T10:26:57Z</time>
      </trkpt>
      <trkpt lat="43.51081" lon="6.75472">
        <ele>95</ele>
        <time>2012-11-01T10:26:58Z</time>
      </trkpt>
      <trkpt lat="43.51082" lon="6.7547">
        <ele>95</ele>
        <time>2012-11-01T10:26:59Z</time>
      </trkpt>
      <trkpt lat="43.51084" lon="6.75469">
        <ele>95</ele>
        <time>2012-11-01T10:27:00Z</time>
      </trkpt>
      <trkpt lat="43.51085" lon="6.75467">
        <ele>95</ele>
        <time>2012-11-01T10:27:01Z</time>
      </trkpt>
      <trkpt lat="43.51086" lon="6.75465">
        <ele>95</ele>
        <time>2012-11-01T10:27:02Z</time>
      </trkpt>
      <trkpt lat="43.51087" lon="6.75463">
        <ele>96</ele>
        <time>2012-11-01T10:27:03Z</time>
      </trkpt>
      <trkpt lat="43.51087" lon="6.75461">
        <ele>96</ele>
        <time>2012-11-01T10:27:04Z</time>
      </trkpt>
      <trkpt lat="43.51087" lon="6.75459">
        <ele>96</ele>
        <time>2012-11-01T10:27:05Z</time>
      </trkpt>
      <trkpt lat="43.51086" lon="6.75456">
        <ele>97</ele>
        <time>2012-11-01T10:27:06Z</time>
      </trkpt>
      <trkpt lat="43.51086" lon="6.75454">
        <ele>97</ele>
        <time>2012-11-01T10:27:07Z</time>
      </trkpt>
      <trkpt lat="43.51086" lon="6.75452">
        <ele>97</ele>
        <time>2012-11-01T10:27:08Z</time>
      </trkpt>
      <trkpt lat="43.51085" lon="6.75449">
        <ele>97</ele>
        <time>2012-11-01T10:27:09Z</time>
      </trkpt>
      <trkpt lat="43.51085" lon="6.75446">
        <ele>98</ele>
        <time>2012-11-01T10:27:10Z</time>
      </trkpt>
      <trkpt lat="43.51084" lon="6.75443">
        <ele>98</ele>
        <time>2012-11-01T10:27:11Z</time>
      </trkpt>
      <trkpt lat="43.51084" lon="6.75441">
        <ele>98</ele>
        <time>2012-11-01T10:27:12Z</time>
      </trkpt>
      <trkpt lat="43.51083" lon="6.75438">
        <ele>98</ele>
        <time>2012-11-01T10:27:13Z</time>
      </trkpt>
      <trkpt lat="43.51083" lon="6.75435">
        <ele>99</ele>
        <time>2012-11-01T10:27:14Z</time>
      </trkpt>
      <trkpt lat="43.51083" lon="6.75433">
        <ele>99</ele>
        <time>2012-11-01T10:27:15Z</time>
      </trkpt>
      <trkpt lat="43.51082" lon="6.7543">
        <ele>99</ele>
        <time>2012-11-01T10:27:16Z</time>
      </trkpt>
      <trkpt lat="43.51081" lon="6.75428">
        <ele>100</ele>
        <time>2012-11-01T10:27:17Z</time>
      </trkpt>
      <trkpt lat="43.51081" lon="6.75425">
        <ele>100</ele>
        <time>2012-11-01T10:27:18Z</time>
      </trkpt>
      <trkpt lat="43.51081" lon="6.75422">
        <ele>100</ele>
        <time>2012-11-01T10:27:19Z</time>
      </trkpt>
      <trkpt lat="43.51081" lon="6.7542">
        <ele>100</ele>
        <time>2012-11-01T10:27:20Z</time>
      </trkpt>
      <trkpt lat="43.5108" lon="6.75417">
        <ele>101</ele>
        <time>2012-11-01T10:27:21Z</time>
      </trkpt>
      <trkpt lat="43.5108" lon="6.75415">
        <ele>101</ele>
        <time>2012-11-01T10:27:22Z</time>
      </trkpt>
      <trkpt lat="43.5108" lon="6.75412">
        <ele>101</ele>
        <time>2012-11-01T10:27:23Z</time>
      </trkpt>
      <trkpt lat="43.5108" lon="6.7541">
        <ele>101</ele>
        <time>2012-11-01T10:27:24Z</time>
      </trkpt>
      <trkpt lat="43.5108" lon="6.75407">
        <ele>102</ele>
        <time>2012-11-01T10:27:25Z</time>
      </trkpt>
      <trkpt lat="43.5108" lon="6.75405">
        <ele>102</ele>
        <time>2012-11-01T10:27:26Z</time>
      </trkpt>
      <trkpt lat="43.5108" lon="6.75402">
        <ele>102</ele>
        <time>2012-11-01T10:27:27Z</time>
      </trkpt>
      <trkpt lat="43.5108" lon="6.754">
        <ele>102</ele>
        <time>2012-11-01T10:27:28Z</time>
      </trkpt>
      <trkpt lat="43.5108" lon="6.75397">
        <ele>103</ele>
        <time>2012-11-01T10:27:29Z</time>
      </trkpt>
      <trkpt lat="43.5108" lon="6.75395">
        <ele>103</ele>
        <time>2012-11-01T10:27:30Z</time>
      </trkpt>
      <trkpt lat="43.5108" lon="6.75392">
        <ele>103</ele>
        <time>2012-11-01T10:27:31Z</time>
      </trkpt>
      <trkpt lat="43.5108" lon="6.7539">
        <ele>104</ele>
        <time>2012-11-01T10:27:32Z</time>
      </trkpt>
      <trkpt lat="43.51081" lon="6.75387">
        <ele>104</ele>
        <time>2012-11-01T10:27:33Z</time>
      </trkpt>
      <trkpt lat="43.51081" lon="6.75385">
        <ele>104</ele>
        <time>2012-11-01T10:27:34Z</time>
      </trkpt>
      <trkpt lat="43.51081" lon="6.75383">
        <ele>105</ele>
        <time>2012-11-01T10:27:35Z</time>
      </trkpt>
      <trkpt lat="43.51081" lon="6.7538">
        <ele>105</ele>
        <time>2012-11-01T10:27:36Z</time>
      </trkpt>
      <trkpt lat="43.51081" lon="6.75378">
        <ele>105</ele>
        <time>2012-11-01T10:27:37Z</time>
      </trkpt>
      <trkpt lat="43.51082" lon="6.75375">
        <ele>105</ele>
        <time>2012-11-01T10:27:38Z</time>
      </trkpt>
      <trkpt lat="43.51082" lon="6.75373">
        <ele>106</ele>
        <time>2012-11-01T10:27:39Z</time>
      </trkpt>
      <trkpt lat="43.51083" lon="6.75371">
        <ele>106</ele>
        <time>2012-11-01T10:27:40Z</time>
      </trkpt>
      <trkpt lat="43.51083" lon="6.75368">
        <ele>106</ele>
        <time>2012-11-01T10:27:41Z</time>
      </trkpt>
      <trkpt lat="43.51083" lon="6.75366">
        <ele>107</ele>
        <time>2012-11-01T10:27:42Z</time>
      </trkpt>
      <trkpt lat="43.51084" lon="6.75364">
        <ele>107</ele>
        <time>2012-11-01T10:27:43Z</time>
      </trkpt>
      <trkpt lat="43.51084" lon="6.75361">
        <ele>107</ele>
        <time>2012-11-01T10:27:44Z</time>
      </trkpt>
      <trkpt lat="43.51085" lon="6.75359">
        <ele>108</ele>
        <time>2012-11-01T10:27:45Z</time>
      </trkpt>
      <trkpt lat="43.51085" lon="6.75357">
        <ele>108</ele>
        <time>2012-11-01T10:27:46Z</time>
      </trkpt>
      <trkpt lat="43.51086" lon="6.75354">
        <ele>109</ele>
        <time>2012-11-01T10:27:47Z</time>
      </trkpt>
      <trkpt lat="43.51086" lon="6.75352">
        <ele>109</ele>
        <time>2012-11-01T10:27:48Z</time>
      </trkpt>
      <trkpt lat="43.51086" lon="6.7535">
        <ele>109</ele>
        <time>2012-11-01T10:27:49Z</time>
      </trkpt>
      <trkpt lat="43.51086" lon="6.75348">
        <ele>110</ele>
        <time>2012-11-01T10:27:50Z</time>
      </trkpt>
      <trkpt lat="43.51086" lon="6.75345">
        <ele>110</ele>
        <time>2012-11-01T10:27:51Z</time>
      </trkpt>
      <trkpt lat="43.51086" lon="6.75343">
        <ele>110</ele>
        <time>2012-11-01T10:27:52Z</time>
      </trkpt>
      <trkpt lat="43.51086" lon="6.75341">
        <ele>111</ele>
        <time>2012-11-01T10:27:54Z</time>
      </trkpt>
      <trkpt lat="43.51087" lon="6.75339">
        <ele>111</ele>
        <time>2012-11-01T10:27:54Z</time>
      </trkpt>
      <trkpt lat="43.51088" lon="6.75337">
        <ele>111</ele>
        <time>2012-11-01T10:27:55Z</time>
      </trkpt>
      <trkpt lat="43.51089" lon="6.75336">
        <ele>111</ele>
        <time>2012-11-01T10:27:56Z</time>
      </trkpt>
      <trkpt lat="43.51091" lon="6.75335">
        <ele>112</ele>
        <time>2012-11-01T10:27:57Z</time>
      </trkpt>
      <trkpt lat="43.51093" lon="6.75335">
        <ele>112</ele>
        <time>2012-11-01T10:27:58Z</time>
      </trkpt>
      <trkpt lat="43.51095" lon="6.75335">
        <ele>112</ele>
        <time>2012-11-01T10:27:59Z</time>
      </trkpt>
      <trkpt lat="43.51096" lon="6.75336">
        <ele>112</ele>
        <time>2012-11-01T10:28:00Z</time>
      </trkpt>
      <trkpt lat="43.51098" lon="6.75338">
        <ele>112</ele>
        <time>2012-11-01T10:28:01Z</time>
      </trkpt>
      <trkpt lat="43.51099" lon="6.7534">
        <ele>112</ele>
        <time>2012-11-01T10:28:02Z</time>
      </trkpt>
      <trkpt lat="43.511" lon="6.75342">
        <ele>112</ele>
        <time>2012-11-01T10:28:03Z</time>
      </trkpt>
      <trkpt lat="43.511" lon="6.75344">
        <ele>112</ele>
        <time>2012-11-01T10:28:04Z</time>
      </trkpt>
      <trkpt lat="43.51101" lon="6.75347">
        <ele>112</ele>
        <time>2012-11-01T10:28:05Z</time>
      </trkpt>
      <trkpt lat="43.51101" lon="6.75349">
        <ele>112</ele>
        <time>2012-11-01T10:28:06Z</time>
      </trkpt>
      <trkpt lat="43.51101" lon="6.75352">
        <ele>113</ele>
        <time>2012-11-01T10:28:07Z</time>
      </trkpt>
      <trkpt lat="43.51101" lon="6.75354">
        <ele>113</ele>
        <time>2012-11-01T10:28:08Z</time>
      </trkpt>
      <trkpt lat="43.51101" lon="6.75357">
        <ele>113</ele>
        <time>2012-11-01T10:28:09Z</time>
      </trkpt>
      <trkpt lat="43.51102" lon="6.75359">
        <ele>113</ele>
        <time>2012-11-01T10:28:10Z</time>
      </trkpt>
      <trkpt lat="43.51102" lon="6.75362">
        <ele>113</ele>
        <time>2012-11-01T10:28:11Z</time>
      </trkpt>
      <trkpt lat="43.51102" lon="6.75364">
        <ele>113</ele>
        <time>2012-11-01T10:28:12Z</time>
      </trkpt>
      <trkpt lat="43.51101" lon="6.75366">
        <ele>113</ele>
        <time>2012-11-01T10:28:13Z</time>
      </trkpt>
      <trkpt lat="43.51101" lon="6.75369">
        <ele>114</ele>
        <time>2012-11-01T10:28:14Z</time>
      </trkpt>
      <trkpt lat="43.51101" lon="6.75371">
        <ele>114</ele>
        <time>2012-11-01T10:28:15Z</time>
      </trkpt>
      <trkpt lat="43.51102" lon="6.75374">
        <ele>114</ele>
        <time>2012-11-01T10:28:16Z</time>
      </trkpt>
      <trkpt lat="43.51102" lon="6.75376">
        <ele>114</ele>
        <time>2012-11-01T10:28:17Z</time>
      </trkpt>
      <trkpt lat="43.51102" lon="6.75378">
        <ele>114</ele>
        <time>2012-11-01T10:28:18Z</time>
      </trkpt>
      <trkpt lat="43.51102" lon="6.7538">
        <ele>114</ele>
        <time>2012-11-01T10:28:19Z</time>
      </trkpt>
      <trkpt lat="43.51103" lon="6.75383">
        <ele>114</ele>
        <time>2012-11-01T10:28:20Z</time>
      </trkpt>
      <trkpt lat="43.51103" lon="6.75384">
        <ele>114</ele>
        <time>2012-11-01T10:28:21Z</time>
      </trkpt>
      <trkpt lat="43.51103" lon="6.75386">
        <ele>115</ele>
        <time>2012-11-01T10:28:27Z</time>
      </trkpt>
      <trkpt lat="43.51102" lon="6.75387">
        <ele>117</ele>
        <time>2012-11-01T10:28:32Z</time>
      </trkpt>
      <trkpt lat="43.51103" lon="6.75389">
        <ele>118</ele>
        <time>2012-11-01T10:28:35Z</time>
      </trkpt>
      <trkpt lat="43.51103" lon="6.75392">
        <ele>118</ele>
        <time>2012-11-01T10:28:37Z</time>
      </trkpt>
      <trkpt lat="43.51103" lon="6.75394">
        <ele>118</ele>
        <time>2012-11-01T10:28:38Z</time>
      </trkpt>
      <trkpt lat="43.51104" lon="6.75397">
        <ele>118</ele>
        <time>2012-11-01T10:28:39Z</time>
      </trkpt>
      <trkpt lat="43.51105" lon="6.75399">
        <ele>118</ele>
        <time>2012-11-01T10:28:40Z</time>
      </trkpt>
      <trkpt lat="43.51106" lon="6.75402">
        <ele>118</ele>
        <time>2012-11-01T10:28:41Z</time>
      </trkpt>
      <trkpt lat="43.51107" lon="6.75404">
        <ele>118</ele>
        <time>2012-11-01T10:28:42Z</time>
      </trkpt>
      <trkpt lat="43.51107" lon="6.75406">
        <ele>118</ele>
        <time>2012-11-01T10:28:43Z</time>
      </trkpt>
      <trkpt lat="43.51109" lon="6.75409">
        <ele>118</ele>
        <time>2012-11-01T10:28:44Z</time>
      </trkpt>
      <trkpt lat="43.5111" lon="6.75411">
        <ele>119</ele>
        <time>2012-11-01T10:28:45Z</time>
      </trkpt>
      <trkpt lat="43.51111" lon="6.75413">
        <ele>119</ele>
        <time>2012-11-01T10:28:46Z</time>
      </trkpt>
      <trkpt lat="43.51112" lon="6.75416">
        <ele>119</ele>
        <time>2012-11-01T10:28:47Z</time>
      </trkpt>
      <trkpt lat="43.51113" lon="6.75418">
        <ele>119</ele>
        <time>2012-11-01T10:28:48Z</time>
      </trkpt>
      <trkpt lat="43.51114" lon="6.7542">
        <ele>120</ele>
        <time>2012-11-01T10:28:49Z</time>
      </trkpt>
      <trkpt lat="43.51115" lon="6.75422">
        <ele>120</ele>
        <time>2012-11-01T10:28:50Z</time>
      </trkpt>
      <trkpt lat="43.51116" lon="6.75425">
        <ele>120</ele>
        <time>2012-11-01T10:28:51Z</time>
      </trkpt>
      <trkpt lat="43.51117" lon="6.75427">
        <ele>120</ele>
        <time>2012-11-01T10:28:52Z</time>
      </trkpt>
      <trkpt lat="43.51119" lon="6.75429">
        <ele>120</ele>
        <time>2012-11-01T10:28:53Z</time>
      </trkpt>
      <trkpt lat="43.5112" lon="6.75431">
        <ele>121</ele>
        <time>2012-11-01T10:28:54Z</time>
      </trkpt>
      <trkpt lat="43.51122" lon="6.75434">
        <ele>121</ele>
        <time>2012-11-01T10:28:55Z</time>
      </trkpt>
      <trkpt lat="43.51123" lon="6.75436">
        <ele>121</ele>
        <time>2012-11-01T10:28:56Z</time>
      </trkpt>
      <trkpt lat="43.51125" lon="6.75438">
        <ele>121</ele>
        <time>2012-11-01T10:28:57Z</time>
      </trkpt>
      <trkpt lat="43.51126" lon="6.75439">
        <ele>121</ele>
        <time>2012-11-01T10:28:58Z</time>
      </trkpt>
      <trkpt lat="43.51127" lon="6.75439">
        <ele>121</ele>
        <time>2012-11-01T10:29:02Z</time>
      </trkpt>
      <trkpt lat="43.51128" lon="6.75437">
        <ele>121</ele>
        <time>2012-11-01T10:29:36Z</time>
      </trkpt>
      <trkpt lat="43.5113" lon="6.75437">
        <ele>121</ele>
        <time>2012-11-01T10:29:42Z</time>
      </trkpt>
      <trkpt lat="43.51138" lon="6.75454">
        <ele>121</ele>
        <time>2012-11-01T10:30:07Z</time>
      </trkpt>
      <trkpt lat="43.51139" lon="6.75456">
        <ele>121</ele>
        <time>2012-11-01T10:30:08Z</time>
      </trkpt>
      <trkpt lat="43.5114" lon="6.75457">
        <ele>121</ele>
        <time>2012-11-01T10:30:10Z</time>
      </trkpt>
      <trkpt lat="43.51141" lon="6.75459">
        <ele>121</ele>
        <time>2012-11-01T10:30:10Z</time>
      </trkpt>
      <trkpt lat="43.51143" lon="6.75461">
        <ele>121</ele>
        <time>2012-11-01T10:30:12Z</time>
      </trkpt>
      <trkpt lat="43.51144" lon="6.75463">
        <ele>121</ele>
        <time>2012-11-01T10:30:13Z</time>
      </trkpt>
      <trkpt lat="43.51146" lon="6.75465">
        <ele>121</ele>
        <time>2012-11-01T10:30:14Z</time>
      </trkpt>
      <trkpt lat="43.51147" lon="6.75468">
        <ele>121</ele>
        <time>2012-11-01T10:30:15Z</time>
      </trkpt>
      <trkpt lat="43.51148" lon="6.75471">
        <ele>121</ele>
        <time>2012-11-01T10:30:15Z</time>
      </trkpt>
      <trkpt lat="43.51149" lon="6.75474">
        <ele>121</ele>
        <time>2012-11-01T10:30:16Z</time>
      </trkpt>
      <trkpt lat="43.51149" lon="6.75478">
        <ele>122</ele>
        <time>2012-11-01T10:30:17Z</time>
      </trkpt>
      <trkpt lat="43.51148" lon="6.75481">
        <ele>122</ele>
        <time>2012-11-01T10:30:19Z</time>
      </trkpt>
      <trkpt lat="43.51147" lon="6.75484">
        <ele>122</ele>
        <time>2012-11-01T10:30:20Z</time>
      </trkpt>
      <trkpt lat="43.51146" lon="6.75487">
        <ele>122</ele>
        <time>2012-11-01T10:30:20Z</time>
      </trkpt>
      <trkpt lat="43.51144" lon="6.7549">
        <ele>123</ele>
        <time>2012-11-01T10:30:21Z</time>
      </trkpt>
      <trkpt lat="43.51142" lon="6.75492">
        <ele>123</ele>
        <time>2012-11-01T10:30:22Z</time>
      </trkpt>
      <trkpt lat="43.51141" lon="6.75495">
        <ele>123</ele>
        <time>2012-11-01T10:30:23Z</time>
      </trkpt>
      <trkpt lat="43.51139" lon="6.75497">
        <ele>123</ele>
        <time>2012-11-01T10:30:25Z</time>
      </trkpt>
      <trkpt lat="43.51138" lon="6.755">
        <ele>124</ele>
        <time>2012-11-01T10:30:26Z</time>
      </trkpt>
      <trkpt lat="43.51137" lon="6.75503">
        <ele>124</ele>
        <time>2012-11-01T10:30:26Z</time>
      </trkpt>
      <trkpt lat="43.51135" lon="6.75505">
        <ele>124</ele>
        <time>2012-11-01T10:30:27Z</time>
      </trkpt>
      <trkpt lat="43.51134" lon="6.75508">
        <ele>124</ele>
        <time>2012-11-01T10:30:29Z</time>
      </trkpt>
      <trkpt lat="43.51132" lon="6.75511">
        <ele>124</ele>
        <time>2012-11-01T10:30:29Z</time>
      </trkpt>
      <trkpt lat="43.51131" lon="6.75514">
        <ele>124</ele>
        <time>2012-11-01T10:30:31Z</time>
      </trkpt>
      <trkpt lat="43.51131" lon="6.75517">
        <ele>124</ele>
        <time>2012-11-01T10:30:32Z</time>
      </trkpt>
      <trkpt lat="43.5113" lon="6.7552">
        <ele>124</ele>
        <time>2012-11-01T10:30:32Z</time>
      </trkpt>
      <trkpt lat="43.51129" lon="6.75523">
        <ele>124</ele>
        <time>2012-11-01T10:30:33Z</time>
      </trkpt>
      <trkpt lat="43.51129" lon="6.75526">
        <ele>124</ele>
        <time>2012-11-01T10:30:35Z</time>
      </trkpt>
      <trkpt lat="43.51129" lon="6.75529">
        <ele>124</ele>
        <time>2012-11-01T10:30:35Z</time>
      </trkpt>
      <trkpt lat="43.51128" lon="6.75532">
        <ele>124</ele>
        <time>2012-11-01T10:30:36Z</time>
      </trkpt>
      <trkpt lat="43.51128" lon="6.75535">
        <ele>124</ele>
        <time>2012-11-01T10:30:37Z</time>
      </trkpt>
      <trkpt lat="43.51128" lon="6.75538">
        <ele>124</ele>
        <time>2012-11-01T10:30:39Z</time>
      </trkpt>
      <trkpt lat="43.51128" lon="6.75541">
        <ele>124</ele>
        <time>2012-11-01T10:30:40Z</time>
      </trkpt>
      <trkpt lat="43.51129" lon="6.75543">
        <ele>124</ele>
        <time>2012-11-01T10:30:40Z</time>
      </trkpt>
      <trkpt lat="43.51129" lon="6.75546">
        <ele>124</ele>
        <time>2012-11-01T10:30:42Z</time>
      </trkpt>
      <trkpt lat="43.51129" lon="6.75548">
        <ele>125</ele>
        <time>2012-11-01T10:30:43Z</time>
      </trkpt>
      <trkpt lat="43.5113" lon="6.7555">
        <ele>125</ele>
        <time>2012-11-01T10:30:44Z</time>
      </trkpt>
      <trkpt lat="43.51131" lon="6.75551">
        <ele>125</ele>
        <time>2012-11-01T10:30:46Z</time>
      </trkpt>
      <trkpt lat="43.51133" lon="6.75551">
        <ele>125</ele>
        <time>2012-11-01T10:30:48Z</time>
      </trkpt>
      <trkpt lat="43.51134" lon="6.75551">
        <ele>125</ele>
        <time>2012-11-01T10:30:48Z</time>
      </trkpt>
      <trkpt lat="43.51136" lon="6.75551">
        <ele>125</ele>
        <time>2012-11-01T10:30:50Z</time>
      </trkpt>
      <trkpt lat="43.51138" lon="6.75552">
        <ele>125</ele>
        <time>2012-11-01T10:30:51Z</time>
      </trkpt>
      <trkpt lat="43.51139" lon="6.75553">
        <ele>125</ele>
        <time>2012-11-01T10:30:51Z</time>
      </trkpt>
      <trkpt lat="43.51141" lon="6.75554">
        <ele>125</ele>
        <time>2012-11-01T10:30:52Z</time>
      </trkpt>
      <trkpt lat="43.51143" lon="6.75555">
        <ele>125</ele>
        <time>2012-11-01T10:30:54Z</time>
      </trkpt>
      <trkpt lat="43.51144" lon="6.75556">
        <ele>125</ele>
        <time>2012-11-01T10:30:54Z</time>
      </trkpt>
      <trkpt lat="43.51146" lon="6.75556">
        <ele>125</ele>
        <time>2012-11-01T10:30:56Z</time>
      </trkpt>
      <trkpt lat="43.51148" lon="6.75557">
        <ele>125</ele>
        <time>2012-11-01T10:30:56Z</time>
      </trkpt>
      <trkpt lat="43.51149" lon="6.75558">
        <ele>125</ele>
        <time>2012-11-01T10:30:58Z</time>
      </trkpt>
      <trkpt lat="43.54319" lon="6.77742">
        <ele>94</ele>
        <time>2012-11-01T10:31:04Z</time>
      </trkpt>
      <trkpt lat="43.5432" lon="6.77744">
        <ele>94</ele>
        <time>2012-11-01T10:31:06Z</time>
      </trkpt>
      <trkpt lat="43.54322" lon="6.77747">
        <ele>94</ele>
        <time>2012-11-01T10:31:06Z</time>
      </trkpt>
      <trkpt lat="43.54323" lon="6.77749">
        <ele>94</ele>
        <time>2012-11-01T10:31:08Z</time>
      </trkpt>
      <trkpt lat="43.54324" lon="6.77751">
        <ele>94</ele>
        <time>2012-11-01T10:31:09Z</time>
      </trkpt>
      <trkpt lat="43.54326" lon="6.77753">
        <ele>94</ele>
        <time>2012-11-01T10:31:09Z</time>
      </trkpt>
      <trkpt lat="43.54329" lon="6.77755">
        <ele>94</ele>
        <time>2012-11-01T10:31:10Z</time>
      </trkpt>
      <trkpt lat="43.54331" lon="6.77758">
        <ele>94</ele>
        <time>2012-11-01T10:31:12Z</time>
      </trkpt>
      <trkpt lat="43.54333" lon="6.77759">
        <ele>95</ele>
        <time>2012-11-01T10:31:13Z</time>
      </trkpt>
      <trkpt lat="43.54334" lon="6.77761">
        <ele>95</ele>
        <time>2012-11-01T10:31:14Z</time>
      </trkpt>
      <trkpt lat="43.54336" lon="6.77763">
        <ele>95</ele>
        <time>2012-11-01T10:31:14Z</time>
      </trkpt>
      <trkpt lat="43.54338" lon="6.77764">
        <ele>95</ele>
        <time>2012-11-01T10:31:15Z</time>
      </trkpt>
      <trkpt lat="43.5434" lon="6.77765">
        <ele>95</ele>
        <time>2012-11-01T10:31:16Z</time>
      </trkpt>
      <trkpt lat="43.54342" lon="6.77767">
        <ele>95</ele>
        <time>2012-11-01T10:31:17Z</time>
      </trkpt>
      <trkpt lat="43.54345" lon="6.77768">
        <ele>95</ele>
        <time>2012-11-01T10:31:19Z</time>
      </trkpt>
      <trkpt lat="43.54347" lon="6.77768">
        <ele>95</ele>
        <time>2012-11-01T10:31:19Z</time>
      </trkpt>
      <trkpt lat="43.54349" lon="6.77769">
        <ele>95</ele>
        <time>2012-11-01T10:31:21Z</time>
      </trkpt>
      <trkpt lat="43.54352" lon="6.77769">
        <ele>95</ele>
        <time>2012-11-01T10:31:21Z</time>
      </trkpt>
      <trkpt lat="43.54354" lon="6.77769">
        <ele>95</ele>
        <time>2012-11-01T10:31:22Z</time>
      </trkpt>
      <trkpt lat="43.54356" lon="6.77769">
        <ele>95</ele>
        <time>2012-11-01T10:31:24Z</time>
      </trkpt>
      <trkpt lat="43.54359" lon="6.77769">
        <ele>95</ele>
        <time>2012-11-01T10:31:24Z</time>
      </trkpt>
      <trkpt lat="43.54362" lon="6.77768">
        <ele>95</ele>
        <time>2012-11-01T10:31:26Z</time>
      </trkpt>
      <trkpt lat="43.54364" lon="6.77767">
        <ele>95</ele>
        <time>2012-11-01T10:31:26Z</time>
      </trkpt>
      <trkpt lat="43.54367" lon="6.77766">
        <ele>95</ele>
        <time>2012-11-01T10:31:28Z</time>
      </trkpt>
      <trkpt lat="43.5437" lon="6.77766">
        <ele>95</ele>
        <time>2012-11-01T10:31:28Z</time>
      </trkpt>
      <trkpt lat="43.54372" lon="6.77765">
        <ele>95</ele>
        <time>2012-11-01T10:31:29Z</time>
      </trkpt>
      <trkpt lat="43.54375" lon="6.77765">
        <ele>95</ele>
        <time>2012-11-01T10:31:30Z</time>
      </trkpt>
      <trkpt lat="43.54379" lon="6.77765">
        <ele>95</ele>
        <time>2012-11-01T10:31:31Z</time>
      </trkpt>
      <trkpt lat="43.54382" lon="6.77765">
        <ele>95</ele>
        <time>2012-11-01T10:31:33Z</time>
      </trkpt>
      <trkpt lat="43.54385" lon="6.77765">
        <ele>95</ele>
        <time>2012-11-01T10:31:34Z</time>
      </trkpt>
      <trkpt lat="43.54388" lon="6.77764">
        <ele>96</ele>
        <time>2012-11-01T10:31:34Z</time>
      </trkpt>
      <trkpt lat="43.54391" lon="6.77764">
        <ele>96</ele>
        <time>2012-11-01T10:31:35Z</time>
      </trkpt>
      <trkpt lat="43.54395" lon="6.77764">
        <ele>96</ele>
        <time>2012-11-01T10:31:37Z</time>
      </trkpt>
      <trkpt lat="43.54398" lon="6.77764">
        <ele>96</ele>
        <time>2012-11-01T10:31:37Z</time>
      </trkpt>
      <trkpt lat="43.54401" lon="6.77764">
        <ele>96</ele>
        <time>2012-11-01T10:31:39Z</time>
      </trkpt>
      <trkpt lat="43.54405" lon="6.77764">
        <ele>96</ele>
        <time>2012-11-01T10:31:39Z</time>
      </trkpt>
      <trkpt lat="43.54408" lon="6.77764">
        <ele>96</ele>
        <time>2012-11-01T10:31:41Z</time>
      </trkpt>
      <trkpt lat="43.54411" lon="6.77764">
        <ele>96</ele>
        <time>2012-11-01T10:31:42Z</time>
      </trkpt>
      <trkpt lat="43.54415" lon="6.77764">
        <ele>96</ele>
        <time>2012-11-01T10:31:43Z</time>
      </trkpt>
      <trkpt lat="43.54418" lon="6.77764">
        <ele>96</ele>
        <time>2012-11-01T10:31:44Z</time>
      </trkpt>
      <trkpt lat="43.54421" lon="6.77764">
        <ele>96</ele>
        <time>2012-11-01T10:31:44Z</time>
      </trkpt>
      <trkpt lat="43.54424" lon="6.77764">
        <ele>96</ele>
        <time>2012-11-01T10:31:46Z</time>
      </trkpt>
      <trkpt lat="43.54428" lon="6.77763">
        <ele>96</ele>
        <time>2012-11-01T10:31:46Z</time>
      </trkpt>
      <trkpt lat="43.54431" lon="6.77763">
        <ele>96</ele>
        <time>2012-11-01T10:31:47Z</time>
      </trkpt>
      <trkpt lat="43.54435" lon="6.77762">
        <ele>96</ele>
        <time>2012-11-01T10:31:48Z</time>
      </trkpt>
      <trkpt lat="43.54438" lon="6.77762">
        <ele>96</ele>
        <time>2012-11-01T10:31:50Z</time>
      </trkpt>
      <trkpt lat="43.54441" lon="6.77761">
        <ele>96</ele>
        <time>2012-11-01T10:31:50Z</time>
      </trkpt>
      <trkpt lat="43.54445" lon="6.77761">
        <ele>96</ele>
        <time>2012-11-01T10:31:52Z</time>
      </trkpt>
      <trkpt lat="43.54448" lon="6.77761">
        <ele>96</ele>
        <time>2012-11-01T10:31:52Z</time>
      </trkpt>
      <trkpt lat="43.54452" lon="6.77761">
        <ele>96</ele>
        <time>2012-11-01T10:31:54Z</time>
      </trkpt>
      <trkpt lat="43.54456" lon="6.7776">
        <ele>97</ele>
        <time>2012-11-01T10:31:54Z</time>
      </trkpt>
      <trkpt lat="43.54459" lon="6.77759">
        <ele>97</ele>
        <time>2012-11-01T10:31:56Z</time>
      </trkpt>
      <trkpt lat="43.54463" lon="6.77759">
        <ele>97</ele>
        <time>2012-11-01T10:31:57Z</time>
      </trkpt>
      <trkpt lat="43.54467" lon="6.77759">
        <ele>97</ele>
        <time>2012-11-01T10:31:57Z</time>
      </trkpt>
      <trkpt lat="43.54471" lon="6.77759">
        <ele>97</ele>
        <time>2012-11-01T10:31:59Z</time>
      </trkpt>
      <trkpt lat="43.54474" lon="6.77759">
        <ele>97</ele>
        <time>2012-11-01T10:32:00Z</time>
      </trkpt>
      <trkpt lat="43.54478" lon="6.77759">
        <ele>97</ele>
        <time>2012-11-01T10:32:00Z</time>
      </trkpt>
      <trkpt lat="43.54481" lon="6.77758">
        <ele>97</ele>
        <time>2012-11-01T10:32:02Z</time>
      </trkpt>
      <trkpt lat="43.54485" lon="6.77758">
        <ele>97</ele>
        <time>2012-11-01T10:32:02Z</time>
      </trkpt>
      <trkpt lat="43.54489" lon="6.77758">
        <ele>97</ele>
        <time>2012-11-01T10:32:03Z</time>
      </trkpt>
      <trkpt lat="43.54492" lon="6.77758">
        <ele>97</ele>
        <time>2012-11-01T10:32:05Z</time>
      </trkpt>
      <trkpt lat="43.54496" lon="6.77758">
        <ele>97</ele>
        <time>2012-11-01T10:32:06Z</time>
      </trkpt>
      <trkpt lat="43.545" lon="6.77758">
        <ele>97</ele>
        <time>2012-11-01T10:32:06Z</time>
      </trkpt>
      <trkpt lat="43.54504" lon="6.77759">
        <ele>97</ele>
        <time>2012-11-01T10:32:08Z</time>
      </trkpt>
      <trkpt lat="43.54507" lon="6.77759">
        <ele>98</ele>
        <time>2012-11-01T10:32:09Z</time>
      </trkpt>
      <trkpt lat="43.54512" lon="6.7776">
        <ele>98</ele>
        <time>2012-11-01T10:32:10Z</time>
      </trkpt>
      <trkpt lat="43.54515" lon="6.77761">
        <ele>98</ele>
        <time>2012-11-01T10:32:10Z</time>
      </trkpt>
      <trkpt lat="43.54519" lon="6.77762">
        <ele>98</ele>
        <time>2012-11-01T10:32:11Z</time>
      </trkpt>
      <trkpt lat="43.54523" lon="6.77764">
        <ele>99</ele>
        <time>2012-11-01T10:32:13Z</time>
      </trkpt>
      <trkpt lat="43.54527" lon="6.77765">
        <ele>99</ele>
        <time>2012-11-01T10:32:14Z</time>
      </trkpt>
      <trkpt lat="43.5453" lon="6.77767">
        <ele>99</ele>
        <time>2012-11-01T10:32:14Z</time>
      </trkpt>
      <trkpt lat="43.54534" lon="6.7777">
        <ele>99</ele>
        <time>2012-11-01T10:32:16Z</time>
      </trkpt>
      <trkpt lat="43.54538" lon="6.77772">
        <ele>99</ele>
        <time>2012-11-01T10:32:16Z</time>
      </trkpt>
      <trkpt lat="43.54541" lon="6.77775">
        <ele>99</ele>
        <time>2012-11-01T10:32:18Z</time>
      </trkpt>
      <trkpt lat="43.54545" lon="6.77778">
        <ele>99</ele>
        <time>2012-11-01T10:32:18Z</time>
      </trkpt>
      <trkpt lat="43.54549" lon="6.77781">
        <ele>99</ele>
        <time>2012-11-01T10:32:20Z</time>
      </trkpt>
      <trkpt lat="43.54552" lon="6.77783">
        <ele>99</ele>
        <time>2012-11-01T10:32:21Z</time>
      </trkpt>
      <trkpt lat="43.54556" lon="6.77786">
        <ele>99</ele>
        <time>2012-11-01T10:32:21Z</time>
      </trkpt>
      <trkpt lat="43.5456" lon="6.77789">
        <ele>100</ele>
        <time>2012-11-01T10:32:23Z</time>
      </trkpt>
      <trkpt lat="43.54564" lon="6.77791">
        <ele>100</ele>
        <time>2012-11-01T10:32:24Z</time>
      </trkpt>
      <trkpt lat="43.54567" lon="6.77794">
        <ele>100</ele>
        <time>2012-11-01T10:32:24Z</time>
      </trkpt>
      <trkpt lat="43.54571" lon="6.77796">
        <ele>100</ele>
        <time>2012-11-01T10:32:25Z</time>
      </trkpt>
      <trkpt lat="43.54575" lon="6.77799">
        <ele>100</ele>
        <time>2012-11-01T10:32:27Z</time>
      </trkpt>
      <trkpt lat="43.54578" lon="6.77801">
        <ele>100</ele>
        <time>2012-11-01T10:32:28Z</time>
      </trkpt>
      <trkpt lat="43.54581" lon="6.77804">
        <ele>100</ele>
        <time>2012-11-01T10:32:28Z</time>
      </trkpt>
      <trkpt lat="43.54585" lon="6.77806">
        <ele>100</ele>
        <time>2012-11-01T10:32:30Z</time>
      </trkpt>
      <trkpt lat="43.54589" lon="6.77809">
        <ele>100</ele>
        <time>2012-11-01T10:32:30Z</time>
      </trkpt>
      <trkpt lat="43.54593" lon="6.77811">
        <ele>100</ele>
        <time>2012-11-01T10:32:32Z</time>
      </trkpt>
      <trkpt lat="43.54597" lon="6.77814">
        <ele>100</ele>
        <time>2012-11-01T10:32:33Z</time>
      </trkpt>
      <trkpt lat="43.54601" lon="6.77817">
        <ele>100</ele>
        <time>2012-11-01T10:32:34Z</time>
      </trkpt>
      <trkpt lat="43.54604" lon="6.77819">
        <ele>100</ele>
        <time>2012-11-01T10:32:34Z</time>
      </trkpt>
      <trkpt lat="43.54608" lon="6.77822">
        <ele>100</ele>
        <time>2012-11-01T10:32:36Z</time>
      </trkpt>
      <trkpt lat="43.54612" lon="6.77825">
        <ele>100</ele>
        <time>2012-11-01T10:32:37Z</time>
      </trkpt>
      <trkpt lat="43.54616" lon="6.77828">
        <ele>100</ele>
        <time>2012-11-01T10:32:37Z</time>
      </trkpt>
      <trkpt lat="43.5462" lon="6.7783">
        <ele>100</ele>
        <time>2012-11-01T10:32:38Z</time>
      </trkpt>
      <trkpt lat="43.54624" lon="6.77834">
        <ele>101</ele>
        <time>2012-11-01T10:32:39Z</time>
      </trkpt>
      <trkpt lat="43.54627" lon="6.77837">
        <ele>101</ele>
        <time>2012-11-01T10:32:41Z</time>
      </trkpt>
      <trkpt lat="43.54631" lon="6.7784">
        <ele>101</ele>
        <time>2012-11-01T10:32:41Z</time>
      </trkpt>
      <trkpt lat="43.54634" lon="6.77843">
        <ele>101</ele>
        <time>2012-11-01T10:32:42Z</time>
      </trkpt>
      <trkpt lat="43.54637" lon="6.77846">
        <ele>101</ele>
        <time>2012-11-01T10:32:43Z</time>
      </trkpt>
      <trkpt lat="43.54641" lon="6.77848">
        <ele>101</ele>
        <time>2012-11-01T10:32:45Z</time>
      </trkpt>
      <trkpt lat="43.54644" lon="6.7785">
        <ele>101</ele>
        <time>2012-11-01T10:32:45Z</time>
      </trkpt>
      <trkpt lat="43.54648" lon="6.77853">
        <ele>102</ele>
        <time>2012-11-01T10:32:46Z</time>
      </trkpt>
      <trkpt lat="43.54652" lon="6.77855">
        <ele>102</ele>
        <time>2012-11-01T10:32:47Z</time>
      </trkpt>
      <trkpt lat="43.54656" lon="6.77858">
        <ele>102</ele>
        <time>2012-11-01T10:32:49Z</time>
      </trkpt>
      <trkpt lat="43.5466" lon="6.77861">
        <ele>102</ele>
        <time>2012-11-01T10:32:50Z</time>
      </trkpt>
      <trkpt lat="43.54664" lon="6.77863">
        <ele>102</ele>
        <time>2012-11-01T10:32:50Z</time>
      </trkpt>
      <trkpt lat="43.54668" lon="6.77866">
        <ele>102</ele>
        <time>2012-11-01T10:32:51Z</time>
      </trkpt>
      <trkpt lat="43.54671" lon="6.77869">
        <ele>102</ele>
        <time>2012-11-01T10:32:53Z</time>
      </trkpt>
      <trkpt lat="43.54674" lon="6.77872">
        <ele>102</ele>
        <time>2012-11-01T10:32:53Z</time>
      </trkpt>
      <trkpt lat="43.54678" lon="6.77876">
        <ele>102</ele>
        <time>2012-11-01T10:32:55Z</time>
      </trkpt>
      <trkpt lat="43.54681" lon="6.7788">
        <ele>103</ele>
        <time>2012-11-01T10:32:56Z</time>
      </trkpt>
      <trkpt lat="43.54684" lon="6.77883">
        <ele>103</ele>
        <time>2012-11-01T10:32:57Z</time>
      </trkpt>
      <trkpt lat="43.54687" lon="6.77888">
        <ele>103</ele>
        <time>2012-11-01T10:32:58Z</time>
      </trkpt>
      <trkpt lat="43.5469" lon="6.77893">
        <ele>104</ele>
        <time>2012-11-01T10:32:59Z</time>
      </trkpt>
      <trkpt lat="43.54693" lon="6.77898">
        <ele>104</ele>
        <time>2012-11-01T10:32:59Z</time>
      </trkpt>
      <trkpt lat="43.54695" lon="6.77903">
        <ele>104</ele>
        <time>2012-11-01T10:33:01Z</time>
      </trkpt>
      <trkpt lat="43.54698" lon="6.77908">
        <ele>104</ele>
        <time>2012-11-01T10:33:02Z</time>
      </trkpt>
      <trkpt lat="43.547" lon="6.77914">
        <ele>104</ele>
        <time>2012-11-01T10:33:02Z</time>
      </trkpt>
      <trkpt lat="43.54702" lon="6.77919">
        <ele>104</ele>
        <time>2012-11-01T10:33:04Z</time>
      </trkpt>
      <trkpt lat="43.54705" lon="6.77925">
        <ele>104</ele>
        <time>2012-11-01T10:33:04Z</time>
      </trkpt>
      <trkpt lat="43.54707" lon="6.77931">
        <ele>104</ele>
        <time>2012-11-01T10:33:06Z</time>
      </trkpt>
      <trkpt lat="43.54709" lon="6.77936">
        <ele>104</ele>
        <time>2012-11-01T10:33:07Z</time>
      </trkpt>
      <trkpt lat="43.54711" lon="6.77942">
        <ele>104</ele>
        <time>2012-11-01T10:33:08Z</time>
      </trkpt>
      <trkpt lat="43.54713" lon="6.77947">
        <ele>104</ele>
        <time>2012-11-01T10:33:08Z</time>
      </trkpt>
      <trkpt lat="43.54716" lon="6.77952">
        <ele>104</ele>
        <time>2012-11-01T10:33:10Z</time>
      </trkpt>
      <trkpt lat="43.54718" lon="6.77956">
        <ele>104</ele>
        <time>2012-11-01T10:33:10Z</time>
      </trkpt>
      <trkpt lat="43.54721" lon="6.77961">
        <ele>104</ele>
        <time>2012-11-01T10:33:12Z</time>
      </trkpt>
      <trkpt lat="43.54723" lon="6.77965">
        <ele>104</ele>
        <time>2012-11-01T10:33:12Z</time>
      </trkpt>
      <trkpt lat="43.54725" lon="6.7797">
        <ele>104</ele>
        <time>2012-11-01T10:33:14Z</time>
      </trkpt>
      <trkpt lat="43.54727" lon="6.77974">
        <ele>104</ele>
        <time>2012-11-01T10:33:14Z</time>
      </trkpt>
      <trkpt lat="43.54729" lon="6.77979">
        <ele>105</ele>
        <time>2012-11-01T10:33:16Z</time>
      </trkpt>
      <trkpt lat="43.54731" lon="6.77983">
        <ele>105</ele>
        <time>2012-11-01T10:33:17Z</time>
      </trkpt>
      <trkpt lat="43.54734" lon="6.77987">
        <ele>105</ele>
        <time>2012-11-01T10:33:18Z</time>
      </trkpt>
      <trkpt lat="43.54737" lon="6.77991">
        <ele>105</ele>
        <time>2012-11-01T10:33:19Z</time>
      </trkpt>
      <trkpt lat="43.54739" lon="6.77995">
        <ele>106</ele>
        <time>2012-11-01T10:33:20Z</time>
      </trkpt>
      <trkpt lat="43.54741" lon="6.78">
        <ele>106</ele>
        <time>2012-11-01T10:33:20Z</time>
      </trkpt>
      <trkpt lat="43.54744" lon="6.78004">
        <ele>106</ele>
        <time>2012-11-01T10:33:21Z</time>
      </trkpt>
      <trkpt lat="43.54747" lon="6.78008">
        <ele>106</ele>
        <time>2012-11-01T10:33:22Z</time>
      </trkpt>
      <trkpt lat="43.54749" lon="6.78012">
        <ele>106</ele>
        <time>2012-11-01T10:33:23Z</time>
      </trkpt>
      <trkpt lat="43.54752" lon="6.78016">
        <ele>106</ele>
        <time>2012-11-01T10:33:25Z</time>
      </trkpt>
      <trkpt lat="43.54755" lon="6.7802">
        <ele>106</ele>
        <time>2012-11-01T10:33:26Z</time>
      </trkpt>
      <trkpt lat="43.54758" lon="6.78024">
        <ele>106</ele>
        <time>2012-11-01T10:33:27Z</time>
      </trkpt>
      <trkpt lat="43.54762" lon="6.78027">
        <ele>106</ele>
        <time>2012-11-01T10:33:27Z</time>
      </trkpt>
      <trkpt lat="43.54765" lon="6.78031">
        <ele>107</ele>
        <time>2012-11-01T10:33:29Z</time>
      </trkpt>
      <trkpt lat="43.54768" lon="6.78034">
        <ele>107</ele>
        <time>2012-11-01T10:33:30Z</time>
      </trkpt>
      <trkpt lat="43.54772" lon="6.78037">
        <ele>108</ele>
        <time>2012-11-01T10:33:30Z</time>
      </trkpt>
      <trkpt lat="43.54776" lon="6.78039">
        <ele>109</ele>
        <time>2012-11-01T10:33:31Z</time>
      </trkpt>
      <trkpt lat="43.54779" lon="6.78043">
        <ele>109</ele>
        <time>2012-11-01T10:33:33Z</time>
      </trkpt>
      <trkpt lat="43.54782" lon="6.78046">
        <ele>110</ele>
        <time>2012-11-01T10:33:34Z</time>
      </trkpt>
      <trkpt lat="43.54785" lon="6.78049">
        <ele>110</ele>
        <time>2012-11-01T10:33:34Z</time>
      </trkpt>
      <trkpt lat="43.54788" lon="6.78053">
        <ele>111</ele>
        <time>2012-11-01T10:33:36Z</time>
      </trkpt>
      <trkpt lat="43.54791" lon="6.78056">
        <ele>111</ele>
        <time>2012-11-01T10:33:36Z</time>
      </trkpt>
      <trkpt lat="43.54794" lon="6.78059">
        <ele>111</ele>
        <time>2012-11-01T10:33:37Z</time>
      </trkpt>
      <trkpt lat="43.54798" lon="6.78062">
        <ele>111</ele>
        <time>2012-11-01T10:33:39Z</time>
      </trkpt>
      <trkpt lat="43.54801" lon="6.78065">
        <ele>111</ele>
        <time>2012-11-01T10:33:40Z</time>
      </trkpt>
      <trkpt lat="43.54805" lon="6.78068">
        <ele>111</ele>
        <time>2012-11-01T10:33:40Z</time>
      </trkpt>
      <trkpt lat="43.54808" lon="6.78071">
        <ele>112</ele>
        <time>2012-11-01T10:33:42Z</time>
      </trkpt>
      <trkpt lat="43.54811" lon="6.78075">
        <ele>112</ele>
        <time>2012-11-01T10:33:42Z</time>
      </trkpt>
      <trkpt lat="43.54814" lon="6.78078">
        <ele>112</ele>
        <time>2012-11-01T10:33:44Z</time>
      </trkpt>
      <trkpt lat="43.54818" lon="6.78082">
        <ele>113</ele>
        <time>2012-11-01T10:33:45Z</time>
      </trkpt>
      <trkpt lat="43.54821" lon="6.78085">
        <ele>113</ele>
        <time>2012-11-01T10:33:46Z</time>
      </trkpt>
      <trkpt lat="43.54824" lon="6.78088">
        <ele>113</ele>
        <time>2012-11-01T10:33:47Z</time>
      </trkpt>
      <trkpt lat="43.54827" lon="6.78091">
        <ele>113</ele>
        <time>2012-11-01T10:33:48Z</time>
      </trkpt>
      <trkpt lat="43.54831" lon="6.78094">
        <ele>113</ele>
        <time>2012-11-01T10:33:48Z</time>
      </trkpt>
      <trkpt lat="43.54834" lon="6.78098">
        <ele>113</ele>
        <time>2012-11-01T10:33:49Z</time>
      </trkpt>
      <trkpt lat="43.54838" lon="6.78101">
        <ele>113</ele>
        <time>2012-11-01T10:33:50Z</time>
      </trkpt>
      <trkpt lat="43.54841" lon="6.78104">
        <ele>113</ele>
        <time>2012-11-01T10:33:51Z</time>
      </trkpt>
      <trkpt lat="43.54845" lon="6.78107">
        <ele>113</ele>
        <time>2012-11-01T10:33:53Z</time>
      </trkpt>
      <trkpt lat="43.54848" lon="6.7811">
        <ele>113</ele>
        <time>2012-11-01T10:33:53Z</time>
      </trkpt>
      <trkpt lat="43.54852" lon="6.78112">
        <ele>113</ele>
        <time>2012-11-01T10:33:54Z</time>
      </trkpt>
      <trkpt lat="43.54855" lon="6.78114">
        <ele>113</ele>
        <time>2012-11-01T10:33:55Z</time>
      </trkpt>
      <trkpt lat="43.54859" lon="6.78116">
        <ele>113</ele>
        <time>2012-11-01T10:33:57Z</time>
      </trkpt>
      <trkpt lat="43.54863" lon="6.78117">
        <ele>113</ele>
        <time>2012-11-01T10:33:57Z</time>
      </trkpt>
      <trkpt lat="43.54867" lon="6.78119">
        <ele>113</ele>
        <time>2012-11-01T10:33:59Z</time>
      </trkpt>
      <trkpt lat="43.54872" lon="6.7812">
        <ele>113</ele>
        <time>2012-11-01T10:34:00Z</time>
      </trkpt>
      <trkpt lat="43.54876" lon="6.78121">
        <ele>113</ele>
        <time>2012-11-01T10:34:01Z</time>
      </trkpt>
      <trkpt lat="43.5488" lon="6.78122">
        <ele>113</ele>
        <time>2012-11-01T10:34:01Z</time>
      </trkpt>
      <trkpt lat="43.54884" lon="6.78124">
        <ele>113</ele>
        <time>2012-11-01T10:34:02Z</time>
      </trkpt>
      <trkpt lat="43.54888" lon="6.78125">
        <ele>113</ele>
        <time>2012-11-01T10:34:04Z</time>
      </trkpt>
      <trkpt lat="43.54892" lon="6.78126">
        <ele>113</ele>
        <time>2012-11-01T10:34:04Z</time>
      </trkpt>
      <trkpt lat="43.54895" lon="6.78127">
        <ele>113</ele>
        <time>2012-11-01T10:34:05Z</time>
      </trkpt>
      <trkpt lat="43.54899" lon="6.78129">
        <ele>113</ele>
        <time>2012-11-01T10:34:06Z</time>
      </trkpt>
      <trkpt lat="43.54903" lon="6.78131">
        <ele>113</ele>
        <time>2012-11-01T10:34:08Z</time>
      </trkpt>
      <trkpt lat="43.54907" lon="6.78132">
        <ele>113</ele>
        <time>2012-11-01T10:34:08Z</time>
      </trkpt>
      <trkpt lat="43.54911" lon="6.78134">
        <ele>113</ele>
        <time>2012-11-01T10:34:09Z</time>
      </trkpt>
      <trkpt lat="43.54914" lon="6.78137">
        <ele>113</ele>
        <time>2012-11-01T10:34:10Z</time>
      </trkpt>
      <trkpt lat="43.54917" lon="6.7814">
        <ele>113</ele>
        <time>2012-11-01T10:34:11Z</time>
      </trkpt>
      <trkpt lat="43.5492" lon="6.78143">
        <ele>113</ele>
        <time>2012-11-01T10:34:13Z</time>
      </trkpt>
      <trkpt lat="43.54924" lon="6.78146">
        <ele>113</ele>
        <time>2012-11-01T10:34:14Z</time>
      </trkpt>
      <trkpt lat="43.54926" lon="6.78149">
        <ele>113</ele>
        <time>2012-11-01T10:34:14Z</time>
      </trkpt>
      <trkpt lat="43.54929" lon="6.78152">
        <ele>113</ele>
        <time>2012-11-01T10:34:15Z</time>
      </trkpt>
      <trkpt lat="43.54932" lon="6.78156">
        <ele>113</ele>
        <time>2012-11-01T10:34:16Z</time>
      </trkpt>
      <trkpt lat="43.54934" lon="6.7816">
        <ele>113</ele>
        <time>2012-11-01T10:34:18Z</time>
      </trkpt>
      <trkpt lat="43.54937" lon="6.78163">
        <ele>113</ele>
        <time>2012-11-01T10:34:18Z</time>
      </trkpt>
      <trkpt lat="43.5494" lon="6.78167">
        <ele>113</ele>
        <time>2012-11-01T10:34:20Z</time>
      </trkpt>
      <trkpt lat="43.54943" lon="6.7817">
        <ele>114</ele>
        <time>2012-11-01T10:34:20Z</time>
      </trkpt>
      <trkpt lat="43.54946" lon="6.78174">
        <ele>114</ele>
        <time>2012-11-01T10:34:21Z</time>
      </trkpt>
      <trkpt lat="43.54949" lon="6.78178">
        <ele>114</ele>
        <time>2012-11-01T10:34:23Z</time>
      </trkpt>
      <trkpt lat="43.54952" lon="6.78182">
        <ele>114</ele>
        <time>2012-11-01T10:34:24Z</time>
      </trkpt>
      <trkpt lat="43.54954" lon="6.78185">
        <ele>114</ele>
        <time>2012-11-01T10:34:24Z</time>
      </trkpt>
      <trkpt lat="43.54957" lon="6.78189">
        <ele>115</ele>
        <time>2012-11-01T10:34:26Z</time>
      </trkpt>
      <trkpt lat="43.54959" lon="6.78193">
        <ele>115</ele>
        <time>2012-11-01T10:34:26Z</time>
      </trkpt>
      <trkpt lat="43.54962" lon="6.78196">
        <ele>115</ele>
        <time>2012-11-01T10:34:28Z</time>
      </trkpt>
      <trkpt lat="43.54964" lon="6.782">
        <ele>115</ele>
        <time>2012-11-01T10:34:28Z</time>
      </trkpt>
      <trkpt lat="43.54966" lon="6.78204">
        <ele>116</ele>
        <time>2012-11-01T10:34:30Z</time>
      </trkpt>
      <trkpt lat="43.54969" lon="6.78208">
        <ele>116</ele>
        <time>2012-11-01T10:34:31Z</time>
      </trkpt>
      <trkpt lat="43.54971" lon="6.78211">
        <ele>116</ele>
        <time>2012-11-01T10:34:32Z</time>
      </trkpt>
      <trkpt lat="43.54973" lon="6.78215">
        <ele>116</ele>
        <time>2012-11-01T10:34:33Z</time>
      </trkpt>
      <trkpt lat="43.54975" lon="6.78219">
        <ele>117</ele>
        <time>2012-11-01T10:34:33Z</time>
      </trkpt>
      <trkpt lat="43.54977" lon="6.78223">
        <ele>117</ele>
        <time>2012-11-01T10:34:35Z</time>
      </trkpt>
      <trkpt lat="43.54979" lon="6.78227">
        <ele>117</ele>
        <time>2012-11-01T10:34:35Z</time>
      </trkpt>
      <trkpt lat="43.54982" lon="6.78231">
        <ele>117</ele>
        <time>2012-11-01T10:34:37Z</time>
      </trkpt>
      <trkpt lat="43.54984" lon="6.78235">
        <ele>117</ele>
        <time>2012-11-01T10:34:37Z</time>
      </trkpt>
      <trkpt lat="43.54986" lon="6.78239">
        <ele>117</ele>
        <time>2012-11-01T10:34:38Z</time>
      </trkpt>
      <trkpt lat="43.54988" lon="6.78243">
        <ele>118</ele>
        <time>2012-11-01T10:34:40Z</time>
      </trkpt>
      <trkpt lat="43.54991" lon="6.78247">
        <ele>118</ele>
        <time>2012-11-01T10:34:40Z</time>
      </trkpt>
      <trkpt lat="43.54993" lon="6.7825">
        <ele>118</ele>
        <time>2012-11-01T10:34:41Z</time>
      </trkpt>
      <trkpt lat="43.54995" lon="6.78254">
        <ele>118</ele>
        <time>2012-11-01T10:34:42Z</time>
      </trkpt>
      <trkpt lat="43.54997" lon="6.78257">
        <ele>118</ele>
        <time>2012-11-01T10:34:44Z</time>
      </trkpt>
      <trkpt lat="43.55" lon="6.7826">
        <ele>118</ele>
        <time>2012-11-01T10:34:44Z</time>
      </trkpt>
      <trkpt lat="43.55003" lon="6.78263">
        <ele>118</ele>
        <time>2012-11-01T10:34:46Z</time>
      </trkpt>
      <trkpt lat="43.55006" lon="6.78266">
        <ele>118</ele>
        <time>2012-11-01T10:34:46Z</time>
      </trkpt>
      <trkpt lat="43.55009" lon="6.78268">
        <ele>119</ele>
        <time>2012-11-01T10:34:48Z</time>
      </trkpt>
      <trkpt lat="43.55012" lon="6.7827">
        <ele>119</ele>
        <time>2012-11-01T10:34:49Z</time>
      </trkpt>
      <trkpt lat="43.55015" lon="6.78273">
        <ele>119</ele>
        <time>2012-11-01T10:34:49Z</time>
      </trkpt>
      <trkpt lat="43.55018" lon="6.78275">
        <ele>119</ele>
        <time>2012-11-01T10:34:51Z</time>
      </trkpt>
      <trkpt lat="43.55022" lon="6.78277">
        <ele>119</ele>
        <time>2012-11-01T10:34:52Z</time>
      </trkpt>
      <trkpt lat="43.55025" lon="6.78278">
        <ele>119</ele>
        <time>2012-11-01T10:34:52Z</time>
      </trkpt>
      <trkpt lat="43.55027" lon="6.7828">
        <ele>119</ele>
        <time>2012-11-01T10:34:54Z</time>
      </trkpt>
      <trkpt lat="43.5503" lon="6.78281">
        <ele>119</ele>
        <time>2012-11-01T10:34:55Z</time>
      </trkpt>
      <trkpt lat="43.55033" lon="6.78282">
        <ele>120</ele>
        <time>2012-11-01T10:34:56Z</time>
      </trkpt>
      <trkpt lat="43.55037" lon="6.78283">
        <ele>120</ele>
        <time>2012-11-01T10:34:56Z</time>
      </trkpt>
      <trkpt lat="43.5504" lon="6.78284">
        <ele>120</ele>
        <time>2012-11-01T10:34:58Z</time>
      </trkpt>
      <trkpt lat="43.55043" lon="6.78285">
        <ele>120</ele>
        <time>2012-11-01T10:34:58Z</time>
      </trkpt>
      <trkpt lat="43.55045" lon="6.78287">
        <ele>120</ele>
        <time>2012-11-01T10:35:00Z</time>
      </trkpt>
      <trkpt lat="43.55048" lon="6.78287">
        <ele>120</ele>
        <time>2012-11-01T10:35:00Z</time>
      </trkpt>
      <trkpt lat="43.55051" lon="6.78288">
        <ele>121</ele>
        <time>2012-11-01T10:35:01Z</time>
      </trkpt>
      <trkpt lat="43.55054" lon="6.78289">
        <ele>121</ele>
        <time>2012-11-01T10:35:02Z</time>
      </trkpt>
      <trkpt lat="43.55057" lon="6.7829">
        <ele>121</ele>
        <time>2012-11-01T10:35:04Z</time>
      </trkpt>
      <trkpt lat="43.5506" lon="6.78291">
        <ele>121</ele>
        <time>2012-11-01T10:35:04Z</time>
      </trkpt>
      <trkpt lat="43.55064" lon="6.78293">
        <ele>121</ele>
        <time>2012-11-01T10:35:05Z</time>
      </trkpt>
      <trkpt lat="43.55067" lon="6.78294">
        <ele>121</ele>
        <time>2012-11-01T10:35:06Z</time>
      </trkpt>
      <trkpt lat="43.55071" lon="6.78295">
        <ele>121</ele>
        <time>2012-11-01T10:35:08Z</time>
      </trkpt>
      <trkpt lat="43.55075" lon="6.78296">
        <ele>121</ele>
        <time>2012-11-01T10:35:08Z</time>
      </trkpt>
      <trkpt lat="43.55079" lon="6.78297">
        <ele>121</ele>
        <time>2012-11-01T10:35:09Z</time>
      </trkpt>
      <trkpt lat="43.55083" lon="6.78298">
        <ele>121</ele>
        <time>2012-11-01T10:35:10Z</time>
      </trkpt>
      <trkpt lat="43.55087" lon="6.783">
        <ele>121</ele>
        <time>2012-11-01T10:35:12Z</time>
      </trkpt>
      <trkpt lat="43.55091" lon="6.78301">
        <ele>121</ele>
        <time>2012-11-01T10:35:12Z</time>
      </trkpt>
      <trkpt lat="43.55095" lon="6.78303">
        <ele>121</ele>
        <time>2012-11-01T10:35:13Z</time>
      </trkpt>
      <trkpt lat="43.55099" lon="6.78306">
        <ele>121</ele>
        <time>2012-11-01T10:35:14Z</time>
      </trkpt>
      <trkpt lat="43.55103" lon="6.78309">
        <ele>121</ele>
        <time>2012-11-01T10:35:15Z</time>
      </trkpt>
      <trkpt lat="43.55107" lon="6.78312">
        <ele>121</ele>
        <time>2012-11-01T10:35:16Z</time>
      </trkpt>
      <trkpt lat="43.55111" lon="6.78316">
        <ele>121</ele>
        <time>2012-11-01T10:35:17Z</time>
      </trkpt>
      <trkpt lat="43.55114" lon="6.7832">
        <ele>121</ele>
        <time>2012-11-01T10:35:19Z</time>
      </trkpt>
      <trkpt lat="43.55118" lon="6.78325">
        <ele>121</ele>
        <time>2012-11-01T10:35:19Z</time>
      </trkpt>
      <trkpt lat="43.55121" lon="6.7833">
        <ele>121</ele>
        <time>2012-11-01T10:35:20Z</time>
      </trkpt>
      <trkpt lat="43.55124" lon="6.78336">
        <ele>121</ele>
        <time>2012-11-01T10:35:21Z</time>
      </trkpt>
      <trkpt lat="43.55126" lon="6.78343">
        <ele>121</ele>
        <time>2012-11-01T10:35:22Z</time>
      </trkpt>
      <trkpt lat="43.55127" lon="6.7835">
        <ele>121</ele>
        <time>2012-11-01T10:35:24Z</time>
      </trkpt>
      <trkpt lat="43.55128" lon="6.78357">
        <ele>121</ele>
        <time>2012-11-01T10:35:24Z</time>
      </trkpt>
      <trkpt lat="43.55129" lon="6.78365">
        <ele>121</ele>
        <time>2012-11-01T10:35:26Z</time>
      </trkpt>
      <trkpt lat="43.5513" lon="6.78372">
        <ele>121</ele>
        <time>2012-11-01T10:35:26Z</time>
      </trkpt>
      <trkpt lat="43.5513" lon="6.7838">
        <ele>121</ele>
        <time>2012-11-01T10:35:28Z</time>
      </trkpt>
      <trkpt lat="43.55129" lon="6.78387">
        <ele>121</ele>
        <time>2012-11-01T10:35:28Z</time>
      </trkpt>
      <trkpt lat="43.55129" lon="6.78395">
        <ele>121</ele>
        <time>2012-11-01T10:35:30Z</time>
      </trkpt>
      <trkpt lat="43.55128" lon="6.78403">
        <ele>121</ele>
        <time>2012-11-01T10:35:30Z</time>
      </trkpt>
      <trkpt lat="43.55126" lon="6.7841">
        <ele>121</ele>
        <time>2012-11-01T10:35:32Z</time>
      </trkpt>
      <trkpt lat="43.55124" lon="6.78417">
        <ele>121</ele>
        <time>2012-11-01T10:35:33Z</time>
      </trkpt>
      <trkpt lat="43.55122" lon="6.78423">
        <ele>121</ele>
        <time>2012-11-01T10:35:33Z</time>
      </trkpt>
      <trkpt lat="43.5512" lon="6.7843">
        <ele>121</ele>
        <time>2012-11-01T10:35:34Z</time>
      </trkpt>
      <trkpt lat="43.55117" lon="6.78436">
        <ele>121</ele>
        <time>2012-11-01T10:35:35Z</time>
      </trkpt>
      <trkpt lat="43.55115" lon="6.78442">
        <ele>121</ele>
        <time>2012-11-01T10:35:37Z</time>
      </trkpt>
      <trkpt lat="43.55113" lon="6.78449">
        <ele>121</ele>
        <time>2012-11-01T10:35:37Z</time>
      </trkpt>
      <trkpt lat="43.55111" lon="6.78455">
        <ele>121</ele>
        <time>2012-11-01T10:35:38Z</time>
      </trkpt>
      <trkpt lat="43.55109" lon="6.78461">
        <ele>121</ele>
        <time>2012-11-01T10:35:39Z</time>
      </trkpt>
      <trkpt lat="43.55106" lon="6.78467">
        <ele>121</ele>
        <time>2012-11-01T10:35:41Z</time>
      </trkpt>
      <trkpt lat="43.55104" lon="6.78473">
        <ele>121</ele>
        <time>2012-11-01T10:35:41Z</time>
      </trkpt>
      <trkpt lat="43.55102" lon="6.78479">
        <ele>121</ele>
        <time>2012-11-01T10:35:42Z</time>
      </trkpt>
      <trkpt lat="43.551" lon="6.78486">
        <ele>121</ele>
        <time>2012-11-01T10:35:44Z</time>
      </trkpt>
      <trkpt lat="43.55098" lon="6.78492">
        <ele>121</ele>
        <time>2012-11-01T10:35:44Z</time>
      </trkpt>
      <trkpt lat="43.55096" lon="6.78498">
        <ele>122</ele>
        <time>2012-11-01T10:35:45Z</time>
      </trkpt>
      <trkpt lat="43.55094" lon="6.78504">
        <ele>122</ele>
        <time>2012-11-01T10:35:47Z</time>
      </trkpt>
      <trkpt lat="43.55092" lon="6.7851">
        <ele>122</ele>
        <time>2012-11-01T10:35:47Z</time>
      </trkpt>
      <trkpt lat="43.5509" lon="6.78516">
        <ele>122</ele>
        <time>2012-11-01T10:35:48Z</time>
      </trkpt>
      <trkpt lat="43.55088" lon="6.78522">
        <ele>123</ele>
        <time>2012-11-01T10:35:50Z</time>
      </trkpt>
      <trkpt lat="43.55085" lon="6.78528">
        <ele>123</ele>
        <time>2012-11-01T10:35:50Z</time>
      </trkpt>
      <trkpt lat="43.55083" lon="6.78534">
        <ele>123</ele>
        <time>2012-11-01T10:35:52Z</time>
      </trkpt>
      <trkpt lat="43.55081" lon="6.7854">
        <ele>123</ele>
        <time>2012-11-01T10:35:52Z</time>
      </trkpt>
      <trkpt lat="43.55079" lon="6.78545">
        <ele>123</ele>
        <time>2012-11-01T10:35:54Z</time>
      </trkpt>
      <trkpt lat="43.55077" lon="6.78551">
        <ele>124</ele>
        <time>2012-11-01T10:35:54Z</time>
      </trkpt>
      <trkpt lat="43.55075" lon="6.78557">
        <ele>124</ele>
        <time>2012-11-01T10:35:55Z</time>
      </trkpt>
      <trkpt lat="43.55073" lon="6.78562">
        <ele>124</ele>
        <time>2012-11-01T10:35:57Z</time>
      </trkpt>
      <trkpt lat="43.55071" lon="6.78568">
        <ele>125</ele>
        <time>2012-11-01T10:35:57Z</time>
      </trkpt>
      <trkpt lat="43.5507" lon="6.78573">
        <ele>125</ele>
        <time>2012-11-01T10:35:58Z</time>
      </trkpt>
      <trkpt lat="43.55069" lon="6.78579">
        <ele>125</ele>
        <time>2012-11-01T10:36:00Z</time>
      </trkpt>
      <trkpt lat="43.55068" lon="6.78585">
        <ele>125</ele>
        <time>2012-11-01T10:36:01Z</time>
      </trkpt>
      <trkpt lat="43.55067" lon="6.78591">
        <ele>126</ele>
        <time>2012-11-01T10:36:01Z</time>
      </trkpt>
      <trkpt lat="43.55065" lon="6.78597">
        <ele>126</ele>
        <time>2012-11-01T10:36:02Z</time>
      </trkpt>
      <trkpt lat="43.55064" lon="6.78603">
        <ele>126</ele>
        <time>2012-11-01T10:36:03Z</time>
      </trkpt>
      <trkpt lat="43.55062" lon="6.78609">
        <ele>126</ele>
        <time>2012-11-01T10:36:05Z</time>
      </trkpt>
      <trkpt lat="43.55061" lon="6.78615">
        <ele>126</ele>
        <time>2012-11-01T10:36:05Z</time>
      </trkpt>
      <trkpt lat="43.5506" lon="6.78621">
        <ele>126</ele>
        <time>2012-11-01T10:36:06Z</time>
      </trkpt>
      <trkpt lat="43.55059" lon="6.78628">
        <ele>127</ele>
        <time>2012-11-01T10:36:08Z</time>
      </trkpt>
      <trkpt lat="43.55058" lon="6.78634">
        <ele>127</ele>
        <time>2012-11-01T10:36:08Z</time>
      </trkpt>
      <trkpt lat="43.55056" lon="6.7864">
        <ele>127</ele>
        <time>2012-11-01T10:36:10Z</time>
      </trkpt>
      <trkpt lat="43.55055" lon="6.78646">
        <ele>127</ele>
        <time>2012-11-01T10:36:10Z</time>
      </trkpt>
      <trkpt lat="43.55054" lon="6.78653">
        <ele>128</ele>
        <time>2012-11-01T10:36:11Z</time>
      </trkpt>
      <trkpt lat="43.55053" lon="6.78659">
        <ele>128</ele>
        <time>2012-11-01T10:36:12Z</time>
      </trkpt>
      <trkpt lat="43.55051" lon="6.78665">
        <ele>128</ele>
        <time>2012-11-01T10:36:13Z</time>
      </trkpt>
      <trkpt lat="43.55049" lon="6.78671">
        <ele>128</ele>
        <time>2012-11-01T10:36:15Z</time>
      </trkpt>
      <trkpt lat="43.55047" lon="6.78677">
        <ele>128</ele>
        <time>2012-11-01T10:36:15Z</time>
      </trkpt>
      <trkpt lat="43.55045" lon="6.78683">
        <ele>129</ele>
        <time>2012-11-01T10:36:17Z</time>
      </trkpt>
      <trkpt lat="43.55043" lon="6.78688">
        <ele>129</ele>
        <time>2012-11-01T10:36:18Z</time>
      </trkpt>
      <trkpt lat="43.55041" lon="6.78694">
        <ele>129</ele>
        <time>2012-11-01T10:36:18Z</time>
      </trkpt>
      <trkpt lat="43.55038" lon="6.78699">
        <ele>129</ele>
        <time>2012-11-01T10:36:20Z</time>
      </trkpt>
      <trkpt lat="43.55035" lon="6.78704">
        <ele>130</ele>
        <time>2012-11-01T10:36:21Z</time>
      </trkpt>
      <trkpt lat="43.55032" lon="6.78709">
        <ele>130</ele>
        <time>2012-11-01T10:36:21Z</time>
      </trkpt>
      <trkpt lat="43.55029" lon="6.78713">
        <ele>130</ele>
        <time>2012-11-01T10:36:22Z</time>
      </trkpt>
      <trkpt lat="43.55025" lon="6.78718">
        <ele>130</ele>
        <time>2012-11-01T10:36:24Z</time>
      </trkpt>
      <trkpt lat="43.55022" lon="6.78723">
        <ele>131</ele>
        <time>2012-11-01T10:36:24Z</time>
      </trkpt>
      <trkpt lat="43.55019" lon="6.78727">
        <ele>131</ele>
        <time>2012-11-01T10:36:26Z</time>
      </trkpt>
      <trkpt lat="43.55016" lon="6.78731">
        <ele>131</ele>
        <time>2012-11-01T10:36:26Z</time>
      </trkpt>
      <trkpt lat="43.55012" lon="6.78735">
        <ele>131</ele>
        <time>2012-11-01T10:36:28Z</time>
      </trkpt>
      <trkpt lat="43.55009" lon="6.7874">
        <ele>132</ele>
        <time>2012-11-01T10:36:29Z</time>
      </trkpt>
      <trkpt lat="43.55006" lon="6.78744">
        <ele>132</ele>
        <time>2012-11-01T10:36:30Z</time>
      </trkpt>
      <trkpt lat="43.55003" lon="6.78748">
        <ele>132</ele>
        <time>2012-11-01T10:36:30Z</time>
      </trkpt>
      <trkpt lat="43.55" lon="6.78752">
        <ele>132</ele>
        <time>2012-11-01T10:36:32Z</time>
      </trkpt>
      <trkpt lat="43.54997" lon="6.78756">
        <ele>132</ele>
        <time>2012-11-01T10:36:32Z</time>
      </trkpt>
      <trkpt lat="43.54994" lon="6.7876">
        <ele>132</ele>
        <time>2012-11-01T10:36:34Z</time>
      </trkpt>
      <trkpt lat="43.54991" lon="6.78764">
        <ele>132</ele>
        <time>2012-11-01T10:36:35Z</time>
      </trkpt>
      <trkpt lat="43.54988" lon="6.78768">
        <ele>132</ele>
        <time>2012-11-01T10:36:36Z</time>
      </trkpt>
      <trkpt lat="43.54985" lon="6.78772">
        <ele>132</ele>
        <time>2012-11-01T10:36:36Z</time>
      </trkpt>
      <trkpt lat="43.54982" lon="6.78777">
        <ele>132</ele>
        <time>2012-11-01T10:36:38Z</time>
      </trkpt>
      <trkpt lat="43.5498" lon="6.78781">
        <ele>132</ele>
        <time>2012-11-01T10:36:38Z</time>
      </trkpt>
      <trkpt lat="43.54978" lon="6.78787">
        <ele>132</ele>
        <time>2012-11-01T10:36:40Z</time>
      </trkpt>
      <trkpt lat="43.54976" lon="6.78792">
        <ele>132</ele>
        <time>2012-11-01T10:36:40Z</time>
      </trkpt>
      <trkpt lat="43.54974" lon="6.78797">
        <ele>132</ele>
        <time>2012-11-01T10:36:41Z</time>
      </trkpt>
      <trkpt lat="43.54972" lon="6.78802">
        <ele>132</ele>
        <time>2012-11-01T10:36:42Z</time>
      </trkpt>
      <trkpt lat="43.54971" lon="6.78808">
        <ele>132</ele>
        <time>2012-11-01T10:36:44Z</time>
      </trkpt>
      <trkpt lat="43.5497" lon="6.78814">
        <ele>132</ele>
        <time>2012-11-01T10:36:44Z</time>
      </trkpt>
      <trkpt lat="43.54968" lon="6.7882">
        <ele>132</ele>
        <time>2012-11-01T10:36:45Z</time>
      </trkpt>
      <trkpt lat="43.54967" lon="6.78825">
        <ele>132</ele>
        <time>2012-11-01T10:36:46Z</time>
      </trkpt>
      <trkpt lat="43.54966" lon="6.78831">
        <ele>132</ele>
        <time>2012-11-01T10:36:47Z</time>
      </trkpt>
      <trkpt lat="43.54965" lon="6.78837">
        <ele>132</ele>
        <time>2012-11-01T10:36:48Z</time>
      </trkpt>
      <trkpt lat="43.54964" lon="6.78843">
        <ele>133</ele>
        <time>2012-11-01T10:36:49Z</time>
      </trkpt>
      <trkpt lat="43.54963" lon="6.7885">
        <ele>133</ele>
        <time>2012-11-01T10:36:51Z</time>
      </trkpt>
      <trkpt lat="43.54962" lon="6.78856">
        <ele>133</ele>
        <time>2012-11-01T10:36:51Z</time>
      </trkpt>
      <trkpt lat="43.54962" lon="6.78862">
        <ele>133</ele>
        <time>2012-11-01T10:36:53Z</time>
      </trkpt>
      <trkpt lat="43.54962" lon="6.78868">
        <ele>134</ele>
        <time>2012-11-01T10:36:54Z</time>
      </trkpt>
      <trkpt lat="43.54962" lon="6.78875">
        <ele>134</ele>
        <time>2012-11-01T10:36:55Z</time>
      </trkpt>
      <trkpt lat="43.54962" lon="6.78881">
        <ele>134</ele>
        <time>2012-11-01T10:36:56Z</time>
      </trkpt>
      <trkpt lat="43.54964" lon="6.78888">
        <ele>134</ele>
        <time>2012-11-01T10:36:56Z</time>
      </trkpt>
      <trkpt lat="43.54965" lon="6.78894">
        <ele>135</ele>
        <time>2012-11-01T10:36:58Z</time>
      </trkpt>
      <trkpt lat="43.54966" lon="6.789">
        <ele>135</ele>
        <time>2012-11-01T10:36:58Z</time>
      </trkpt>
      <trkpt lat="43.54968" lon="6.78907">
        <ele>135</ele>
        <time>2012-11-01T10:37:00Z</time>
      </trkpt>
      <trkpt lat="43.5497" lon="6.78913">
        <ele>135</ele>
        <time>2012-11-01T10:37:00Z</time>
      </trkpt>
      <trkpt lat="43.54972" lon="6.7892">
        <ele>135</ele>
        <time>2012-11-01T10:37:01Z</time>
      </trkpt>
      <trkpt lat="43.54974" lon="6.78926">
        <ele>135</ele>
        <time>2012-11-01T10:37:03Z</time>
      </trkpt>
      <trkpt lat="43.54976" lon="6.78932">
        <ele>135</ele>
        <time>2012-11-01T10:37:03Z</time>
      </trkpt>
      <trkpt lat="43.54979" lon="6.78938">
        <ele>135</ele>
        <time>2012-11-01T10:37:04Z</time>
      </trkpt>
      <trkpt lat="43.54981" lon="6.78944">
        <ele>135</ele>
        <time>2012-11-01T10:37:06Z</time>
      </trkpt>
      <trkpt lat="43.54983" lon="6.7895">
        <ele>135</ele>
        <time>2012-11-01T10:37:06Z</time>
      </trkpt>
      <trkpt lat="43.54986" lon="6.78956">
        <ele>135</ele>
        <time>2012-11-01T10:37:08Z</time>
      </trkpt>
      <trkpt lat="43.54989" lon="6.78961">
        <ele>135</ele>
        <time>2012-11-01T10:37:08Z</time>
      </trkpt>
      <trkpt lat="43.54992" lon="6.78967">
        <ele>135</ele>
        <time>2012-11-01T10:37:10Z</time>
      </trkpt>
      <trkpt lat="43.54995" lon="6.78972">
        <ele>135</ele>
        <time>2012-11-01T10:37:10Z</time>
      </trkpt>
      <trkpt lat="43.54998" lon="6.78977">
        <ele>135</ele>
        <time>2012-11-01T10:37:11Z</time>
      </trkpt>
      <trkpt lat="43.55001" lon="6.78982">
        <ele>135</ele>
        <time>2012-11-01T10:37:12Z</time>
      </trkpt>
      <trkpt lat="43.55005" lon="6.78987">
        <ele>135</ele>
        <time>2012-11-01T10:37:13Z</time>
      </trkpt>
      <trkpt lat="43.55008" lon="6.78991">
        <ele>135</ele>
        <time>2012-11-01T10:37:14Z</time>
      </trkpt>
      <trkpt lat="43.55012" lon="6.78995">
        <ele>135</ele>
        <time>2012-11-01T10:37:15Z</time>
      </trkpt>
      <trkpt lat="43.55016" lon="6.78999">
        <ele>135</ele>
        <time>2012-11-01T10:37:16Z</time>
      </trkpt>
      <trkpt lat="43.5502" lon="6.79003">
        <ele>136</ele>
        <time>2012-11-01T10:37:18Z</time>
      </trkpt>
      <trkpt lat="43.55024" lon="6.79006">
        <ele>136</ele>
        <time>2012-11-01T10:37:18Z</time>
      </trkpt>
      <trkpt lat="43.55029" lon="6.79009">
        <ele>136</ele>
        <time>2012-11-01T10:37:19Z</time>
      </trkpt>
      <trkpt lat="43.55033" lon="6.79012">
        <ele>136</ele>
        <time>2012-11-01T10:37:20Z</time>
      </trkpt>
      <trkpt lat="43.55038" lon="6.79015">
        <ele>136</ele>
        <time>2012-11-01T10:37:21Z</time>
      </trkpt>
      <trkpt lat="43.55043" lon="6.79018">
        <ele>136</ele>
        <time>2012-11-01T10:37:23Z</time>
      </trkpt>
      <trkpt lat="43.55048" lon="6.79021">
        <ele>136</ele>
        <time>2012-11-01T10:37:24Z</time>
      </trkpt>
      <trkpt lat="43.55053" lon="6.79024">
        <ele>136</ele>
        <time>2012-11-01T10:37:24Z</time>
      </trkpt>
      <trkpt lat="43.55058" lon="6.79027">
        <ele>136</ele>
        <time>2012-11-01T10:37:25Z</time>
      </trkpt>
      <trkpt lat="43.55062" lon="6.79029">
        <ele>136</ele>
        <time>2012-11-01T10:37:27Z</time>
      </trkpt>
      <trkpt lat="43.55067" lon="6.79032">
        <ele>136</ele>
        <time>2012-11-01T10:37:28Z</time>
      </trkpt>
      <trkpt lat="43.55072" lon="6.79035">
        <ele>136</ele>
        <time>2012-11-01T10:37:28Z</time>
      </trkpt>
      <trkpt lat="43.55077" lon="6.79038">
        <ele>136</ele>
        <time>2012-11-01T10:37:29Z</time>
      </trkpt>
      <trkpt lat="43.55082" lon="6.79041">
        <ele>136</ele>
        <time>2012-11-01T10:37:30Z</time>
      </trkpt>
      <trkpt lat="43.55087" lon="6.79044">
        <ele>136</ele>
        <time>2012-11-01T10:37:31Z</time>
      </trkpt>
      <trkpt lat="43.55091" lon="6.79047">
        <ele>136</ele>
        <time>2012-11-01T10:37:32Z</time>
      </trkpt>
      <trkpt lat="43.55096" lon="6.7905">
        <ele>136</ele>
        <time>2012-11-01T10:37:33Z</time>
      </trkpt>
      <trkpt lat="43.551" lon="6.79053">
        <ele>136</ele>
        <time>2012-11-01T10:37:34Z</time>
      </trkpt>
      <trkpt lat="43.55105" lon="6.79055">
        <ele>136</ele>
        <time>2012-11-01T10:37:36Z</time>
      </trkpt>
      <trkpt lat="43.55109" lon="6.79058">
        <ele>136</ele>
        <time>2012-11-01T10:37:36Z</time>
      </trkpt>
      <trkpt lat="43.55114" lon="6.79061">
        <ele>137</ele>
        <time>2012-11-01T10:37:38Z</time>
      </trkpt>
      <trkpt lat="43.55118" lon="6.79064">
        <ele>137</ele>
        <time>2012-11-01T10:37:38Z</time>
      </trkpt>
      <trkpt lat="43.55122" lon="6.79067">
        <ele>137</ele>
        <time>2012-11-01T10:37:39Z</time>
      </trkpt>
      <trkpt lat="43.55127" lon="6.7907">
        <ele>137</ele>
        <time>2012-11-01T10:37:40Z</time>
      </trkpt>
      <trkpt lat="43.55131" lon="6.79073">
        <ele>138</ele>
        <time>2012-11-01T10:37:41Z</time>
      </trkpt>
      <trkpt lat="43.55135" lon="6.79076">
        <ele>138</ele>
        <time>2012-11-01T10:37:43Z</time>
      </trkpt>
      <trkpt lat="43.5514" lon="6.79079">
        <ele>138</ele>
        <time>2012-11-01T10:37:43Z</time>
      </trkpt>
      <trkpt lat="43.55144" lon="6.79083">
        <ele>138</ele>
        <time>2012-11-01T10:37:44Z</time>
      </trkpt>
      <trkpt lat="43.55148" lon="6.79087">
        <ele>138</ele>
        <time>2012-11-01T10:37:45Z</time>
      </trkpt>
      <trkpt lat="43.55152" lon="6.79091">
        <ele>138</ele>
        <time>2012-11-01T10:37:46Z</time>
      </trkpt>
      <trkpt lat="43.55156" lon="6.79096">
        <ele>138</ele>
        <time>2012-11-01T10:37:48Z</time>
      </trkpt>
      <trkpt lat="43.55159" lon="6.791">
        <ele>139</ele>
        <time>2012-11-01T10:37:48Z</time>
      </trkpt>
      <trkpt lat="43.55162" lon="6.79105">
        <ele>139</ele>
        <time>2012-11-01T10:37:49Z</time>
      </trkpt>
      <trkpt lat="43.55165" lon="6.79111">
        <ele>140</ele>
        <time>2012-11-01T10:37:50Z</time>
      </trkpt>
      <trkpt lat="43.55167" lon="6.79116">
        <ele>140</ele>
        <time>2012-11-01T10:37:51Z</time>
      </trkpt>
      <trkpt lat="43.5517" lon="6.79121">
        <ele>140</ele>
        <time>2012-11-01T10:37:52Z</time>
      </trkpt>
      <trkpt lat="43.55172" lon="6.79126">
        <ele>140</ele>
        <time>2012-11-01T10:37:53Z</time>
      </trkpt>
      <trkpt lat="43.55174" lon="6.79132">
        <ele>141</ele>
        <time>2012-11-01T10:37:54Z</time>
      </trkpt>
      <trkpt lat="43.55176" lon="6.79137">
        <ele>141</ele>
        <time>2012-11-01T10:37:55Z</time>
      </trkpt>
      <trkpt lat="43.55178" lon="6.79142">
        <ele>141</ele>
        <time>2012-11-01T10:37:56Z</time>
      </trkpt>
      <trkpt lat="43.55179" lon="6.79147">
        <ele>141</ele>
        <time>2012-11-01T10:37:57Z</time>
      </trkpt>
      <trkpt lat="43.55181" lon="6.79152">
        <ele>142</ele>
        <time>2012-11-01T10:37:58Z</time>
      </trkpt>
      <trkpt lat="43.55183" lon="6.79157">
        <ele>142</ele>
        <time>2012-11-01T10:38:00Z</time>
      </trkpt>
      <trkpt lat="43.55184" lon="6.79163">
        <ele>142</ele>
        <time>2012-11-01T10:38:00Z</time>
      </trkpt>
      <trkpt lat="43.55186" lon="6.79168">
        <ele>142</ele>
        <time>2012-11-01T10:38:01Z</time>
      </trkpt>
      <trkpt lat="43.55188" lon="6.79173">
        <ele>142</ele>
        <time>2012-11-01T10:38:02Z</time>
      </trkpt>
      <trkpt lat="43.5519" lon="6.79178">
        <ele>142</ele>
        <time>2012-11-01T10:38:03Z</time>
      </trkpt>
      <trkpt lat="43.55191" lon="6.79183">
        <ele>143</ele>
        <time>2012-11-01T10:38:05Z</time>
      </trkpt>
      <trkpt lat="43.55193" lon="6.79188">
        <ele>143</ele>
        <time>2012-11-01T10:38:05Z</time>
      </trkpt>
      <trkpt lat="43.55194" lon="6.79193">
        <ele>143</ele>
        <time>2012-11-01T10:38:06Z</time>
      </trkpt>
      <trkpt lat="43.55196" lon="6.79199">
        <ele>143</ele>
        <time>2012-11-01T10:38:07Z</time>
      </trkpt>
      <trkpt lat="43.55197" lon="6.79204">
        <ele>143</ele>
        <time>2012-11-01T10:38:08Z</time>
      </trkpt>
      <trkpt lat="43.55198" lon="6.79209">
        <ele>143</ele>
        <time>2012-11-01T10:38:09Z</time>
      </trkpt>
      <trkpt lat="43.55198" lon="6.79214">
        <ele>143</ele>
        <time>2012-11-01T10:38:10Z</time>
      </trkpt>
      <trkpt lat="43.55199" lon="6.79218">
        <ele>143</ele>
        <time>2012-11-01T10:38:11Z</time>
      </trkpt>
      <trkpt lat="43.55199" lon="6.79223">
        <ele>144</ele>
        <time>2012-11-01T10:38:12Z</time>
      </trkpt>
      <trkpt lat="43.55199" lon="6.79228">
        <ele>144</ele>
        <time>2012-11-01T10:38:13Z</time>
      </trkpt>
      <trkpt lat="43.55199" lon="6.79232">
        <ele>144</ele>
        <time>2012-11-01T10:38:14Z</time>
      </trkpt>
      <trkpt lat="43.552" lon="6.79237">
        <ele>145</ele>
        <time>2012-11-01T10:38:15Z</time>
      </trkpt>
      <trkpt lat="43.552" lon="6.79241">
        <ele>145</ele>
        <time>2012-11-01T10:38:16Z</time>
      </trkpt>
      <trkpt lat="43.552" lon="6.79245">
        <ele>145</ele>
        <time>2012-11-01T10:38:17Z</time>
      </trkpt>
      <trkpt lat="43.55201" lon="6.79249">
        <ele>145</ele>
        <time>2012-11-01T10:38:18Z</time>
      </trkpt>
      <trkpt lat="43.55201" lon="6.79253">
        <ele>146</ele>
        <time>2012-11-01T10:38:19Z</time>
      </trkpt>
      <trkpt lat="43.55201" lon="6.79257">
        <ele>146</ele>
        <time>2012-11-01T10:38:20Z</time>
      </trkpt>
      <trkpt lat="43.55202" lon="6.79261">
        <ele>146</ele>
        <time>2012-11-01T10:38:22Z</time>
      </trkpt>
      <trkpt lat="43.55203" lon="6.79265">
        <ele>146</ele>
        <time>2012-11-01T10:38:22Z</time>
      </trkpt>
      <trkpt lat="43.55203" lon="6.79269">
        <ele>146</ele>
        <time>2012-11-01T10:38:23Z</time>
      </trkpt>
      <trkpt lat="43.55204" lon="6.79273">
        <ele>146</ele>
        <time>2012-11-01T10:38:24Z</time>
      </trkpt>
      <trkpt lat="43.55205" lon="6.79277">
        <ele>146</ele>
        <time>2012-11-01T10:38:25Z</time>
      </trkpt>
      <trkpt lat="43.55206" lon="6.79281">
        <ele>146</ele>
        <time>2012-11-01T10:38:26Z</time>
      </trkpt>
      <trkpt lat="43.55207" lon="6.79284">
        <ele>146</ele>
        <time>2012-11-01T10:38:27Z</time>
      </trkpt>
      <trkpt lat="43.55207" lon="6.79288">
        <ele>146</ele>
        <time>2012-11-01T10:38:28Z</time>
      </trkpt>
      <trkpt lat="43.55208" lon="6.79292">
        <ele>146</ele>
        <time>2012-11-01T10:38:29Z</time>
      </trkpt>
      <trkpt lat="43.55209" lon="6.79295">
        <ele>146</ele>
        <time>2012-11-01T10:38:30Z</time>
      </trkpt>
      <trkpt lat="43.5521" lon="6.79299">
        <ele>146</ele>
        <time>2012-11-01T10:38:32Z</time>
      </trkpt>
      <trkpt lat="43.55211" lon="6.79303">
        <ele>146</ele>
        <time>2012-11-01T10:38:32Z</time>
      </trkpt>
      <trkpt lat="43.55212" lon="6.79307">
        <ele>147</ele>
        <time>2012-11-01T10:38:33Z</time>
      </trkpt>
      <trkpt lat="43.55212" lon="6.79311">
        <ele>147</ele>
        <time>2012-11-01T10:38:34Z</time>
      </trkpt>
      <trkpt lat="43.55213" lon="6.79314">
        <ele>147</ele>
        <time>2012-11-01T10:38:35Z</time>
      </trkpt>
      <trkpt lat="43.55213" lon="6.79318">
        <ele>147</ele>
        <time>2012-11-01T10:38:37Z</time>
      </trkpt>
      <trkpt lat="43.55214" lon="6.79322">
        <ele>147</ele>
        <time>2012-11-01T10:38:37Z</time>
      </trkpt>
      <trkpt lat="43.55214" lon="6.79326">
        <ele>147</ele>
        <time>2012-11-01T10:38:38Z</time>
      </trkpt>
      <trkpt lat="43.55215" lon="6.79331">
        <ele>147</ele>
        <time>2012-11-01T10:38:39Z</time>
      </trkpt>
      <trkpt lat="43.55215" lon="6.79335">
        <ele>148</ele>
        <time>2012-11-01T10:38:40Z</time>
      </trkpt>
      <trkpt lat="43.55215" lon="6.79339">
        <ele>148</ele>
        <time>2012-11-01T10:38:41Z</time>
      </trkpt>
      <trkpt lat="43.55215" lon="6.79343">
        <ele>149</ele>
        <time>2012-11-01T10:38:43Z</time>
      </trkpt>
      <trkpt lat="43.55214" lon="6.79347">
        <ele>149</ele>
        <time>2012-11-01T10:38:44Z</time>
      </trkpt>
      <trkpt lat="43.55214" lon="6.79351">
        <ele>149</ele>
        <time>2012-11-01T10:38:44Z</time>
      </trkpt>
      <trkpt lat="43.55214" lon="6.79354">
        <ele>149</ele>
        <time>2012-11-01T10:38:45Z</time>
      </trkpt>
      <trkpt lat="43.55214" lon="6.79358">
        <ele>150</ele>
        <time>2012-11-01T10:38:46Z</time>
      </trkpt>
      <trkpt lat="43.55213" lon="6.79362">
        <ele>150</ele>
        <time>2012-11-01T10:38:47Z</time>
      </trkpt>
      <trkpt lat="43.55212" lon="6.79366">
        <ele>150</ele>
        <time>2012-11-01T10:38:48Z</time>
      </trkpt>
      <trkpt lat="43.55212" lon="6.7937">
        <ele>151</ele>
        <time>2012-11-01T10:38:49Z</time>
      </trkpt>
      <trkpt lat="43.55211" lon="6.79375">
        <ele>151</ele>
        <time>2012-11-01T10:38:50Z</time>
      </trkpt>
      <trkpt lat="43.5521" lon="6.79378">
        <ele>152</ele>
        <time>2012-11-01T10:38:51Z</time>
      </trkpt>
      <trkpt lat="43.5521" lon="6.79382">
        <ele>152</ele>
        <time>2012-11-01T10:38:52Z</time>
      </trkpt>
      <trkpt lat="43.55209" lon="6.79387">
        <ele>152</ele>
        <time>2012-11-01T10:38:54Z</time>
      </trkpt>
      <trkpt lat="43.55208" lon="6.79391">
        <ele>153</ele>
        <time>2012-11-01T10:38:55Z</time>
      </trkpt>
      <trkpt lat="43.55207" lon="6.79395">
        <ele>153</ele>
        <time>2012-11-01T10:38:55Z</time>
      </trkpt>
      <trkpt lat="43.55206" lon="6.79399">
        <ele>154</ele>
        <time>2012-11-01T10:38:56Z</time>
      </trkpt>
      <trkpt lat="43.55204" lon="6.79403">
        <ele>154</ele>
        <time>2012-11-01T10:38:57Z</time>
      </trkpt>
      <trkpt lat="43.55203" lon="6.79407">
        <ele>155</ele>
        <time>2012-11-01T10:38:58Z</time>
      </trkpt>
      <trkpt lat="43.55202" lon="6.79411">
        <ele>155</ele>
        <time>2012-11-01T10:38:59Z</time>
      </trkpt>
      <trkpt lat="43.55201" lon="6.79415">
        <ele>155</ele>
        <time>2012-11-01T10:39:00Z</time>
      </trkpt>
      <trkpt lat="43.552" lon="6.7942">
        <ele>156</ele>
        <time>2012-11-01T10:39:01Z</time>
      </trkpt>
      <trkpt lat="43.55199" lon="6.79424">
        <ele>157</ele>
        <time>2012-11-01T10:39:02Z</time>
      </trkpt>
      <trkpt lat="43.55198" lon="6.79428">
        <ele>157</ele>
        <time>2012-11-01T10:39:04Z</time>
      </trkpt>
      <trkpt lat="43.55196" lon="6.79433">
        <ele>158</ele>
        <time>2012-11-01T10:39:04Z</time>
      </trkpt>
      <trkpt lat="43.55195" lon="6.79437">
        <ele>158</ele>
        <time>2012-11-01T10:39:05Z</time>
      </trkpt>
      <trkpt lat="43.55194" lon="6.79442">
        <ele>159</ele>
        <time>2012-11-01T10:39:06Z</time>
      </trkpt>
      <trkpt lat="43.55193" lon="6.79447">
        <ele>159</ele>
        <time>2012-11-01T10:39:07Z</time>
      </trkpt>
      <trkpt lat="43.55192" lon="6.79452">
        <ele>159</ele>
        <time>2012-11-01T10:39:08Z</time>
      </trkpt>
      <trkpt lat="43.55192" lon="6.79456">
        <ele>159</ele>
        <time>2012-11-01T10:39:09Z</time>
      </trkpt>
      <trkpt lat="43.55191" lon="6.79461">
        <ele>160</ele>
        <time>2012-11-01T10:39:10Z</time>
      </trkpt>
      <trkpt lat="43.55191" lon="6.79467">
        <ele>160</ele>
        <time>2012-11-01T10:39:11Z</time>
      </trkpt>
      <trkpt lat="43.55191" lon="6.79472">
        <ele>160</ele>
        <time>2012-11-01T10:39:12Z</time>
      </trkpt>
      <trkpt lat="43.55191" lon="6.79476">
        <ele>160</ele>
        <time>2012-11-01T10:39:13Z</time>
      </trkpt>
      <trkpt lat="43.55191" lon="6.79481">
        <ele>160</ele>
        <time>2012-11-01T10:39:14Z</time>
      </trkpt>
      <trkpt lat="43.55191" lon="6.79486">
        <ele>160</ele>
        <time>2012-11-01T10:39:15Z</time>
      </trkpt>
      <trkpt lat="43.55192" lon="6.79492">
        <ele>161</ele>
        <time>2012-11-01T10:39:16Z</time>
      </trkpt>
      <trkpt lat="43.55193" lon="6.79497">
        <ele>161</ele>
        <time>2012-11-01T10:39:17Z</time>
      </trkpt>
      <trkpt lat="43.55194" lon="6.79503">
        <ele>161</ele>
        <time>2012-11-01T10:39:18Z</time>
      </trkpt>
      <trkpt lat="43.55196" lon="6.79509">
        <ele>161</ele>
        <time>2012-11-01T10:39:19Z</time>
      </trkpt>
      <trkpt lat="43.55197" lon="6.79515">
        <ele>161</ele>
        <time>2012-11-01T10:39:20Z</time>
      </trkpt>
      <trkpt lat="43.55199" lon="6.79521">
        <ele>161</ele>
        <time>2012-11-01T10:39:21Z</time>
      </trkpt>
      <trkpt lat="43.55201" lon="6.79527">
        <ele>161</ele>
        <time>2012-11-01T10:39:22Z</time>
      </trkpt>
      <trkpt lat="43.55202" lon="6.79533">
        <ele>161</ele>
        <time>2012-11-01T10:39:24Z</time>
      </trkpt>
      <trkpt lat="43.55204" lon="6.79539">
        <ele>161</ele>
        <time>2012-11-01T10:39:24Z</time>
      </trkpt>
      <trkpt lat="43.55205" lon="6.79545">
        <ele>161</ele>
        <time>2012-11-01T10:39:26Z</time>
      </trkpt>
      <trkpt lat="43.55207" lon="6.79551">
        <ele>161</ele>
        <time>2012-11-01T10:39:26Z</time>
      </trkpt>
      <trkpt lat="43.55209" lon="6.79558">
        <ele>161</ele>
        <time>2012-11-01T10:39:27Z</time>
      </trkpt>
      <trkpt lat="43.5521" lon="6.79564">
        <ele>161</ele>
        <time>2012-11-01T10:39:28Z</time>
      </trkpt>
      <trkpt lat="43.55212" lon="6.79571">
        <ele>161</ele>
        <time>2012-11-01T10:39:29Z</time>
      </trkpt>
      <trkpt lat="43.55213" lon="6.79577">
        <ele>161</ele>
        <time>2012-11-01T10:39:31Z</time>
      </trkpt>
      <trkpt lat="43.55215" lon="6.79584">
        <ele>161</ele>
        <time>2012-11-01T10:39:31Z</time>
      </trkpt>
      <trkpt lat="43.55216" lon="6.7959">
        <ele>161</ele>
        <time>2012-11-01T10:39:32Z</time>
      </trkpt>
      <trkpt lat="43.55217" lon="6.79596">
        <ele>161</ele>
        <time>2012-11-01T10:39:33Z</time>
      </trkpt>
      <trkpt lat="43.55218" lon="6.79601">
        <ele>161</ele>
        <time>2012-11-01T10:39:34Z</time>
      </trkpt>
      <trkpt lat="43.5522" lon="6.79607">
        <ele>161</ele>
        <time>2012-11-01T10:39:35Z</time>
      </trkpt>
      <trkpt lat="43.5522" lon="6.79613">
        <ele>161</ele>
        <time>2012-11-01T10:39:37Z</time>
      </trkpt>
      <trkpt lat="43.55221" lon="6.79619">
        <ele>161</ele>
        <time>2012-11-01T10:39:37Z</time>
      </trkpt>
      <trkpt lat="43.55222" lon="6.79625">
        <ele>161</ele>
        <time>2012-11-01T10:39:38Z</time>
      </trkpt>
      <trkpt lat="43.55222" lon="6.79631">
        <ele>161</ele>
        <time>2012-11-01T10:39:39Z</time>
      </trkpt>
      <trkpt lat="43.55221" lon="6.79636">
        <ele>161</ele>
        <time>2012-11-01T10:39:40Z</time>
      </trkpt>
      <trkpt lat="43.5522" lon="6.79641">
        <ele>161</ele>
        <time>2012-11-01T10:39:41Z</time>
      </trkpt>
      <trkpt lat="43.55219" lon="6.79645">
        <ele>161</ele>
        <time>2012-11-01T10:39:43Z</time>
      </trkpt>
      <trkpt lat="43.55218" lon="6.79647">
        <ele>161</ele>
        <time>2012-11-01T10:39:43Z</time>
      </trkpt>
      <trkpt lat="43.55216" lon="6.79649">
        <ele>161</ele>
        <time>2012-11-01T10:39:44Z</time>
      </trkpt>
      <trkpt lat="43.55213" lon="6.79652">
        <ele>161</ele>
        <time>2012-11-01T10:39:45Z</time>
      </trkpt>
      <trkpt lat="43.5521" lon="6.79655">
        <ele>161</ele>
        <time>2012-11-01T10:39:46Z</time>
      </trkpt>
      <trkpt lat="43.55207" lon="6.79657">
        <ele>161</ele>
        <time>2012-11-01T10:39:48Z</time>
      </trkpt>
      <trkpt lat="43.55203" lon="6.7966">
        <ele>161</ele>
        <time>2012-11-01T10:39:48Z</time>
      </trkpt>
      <trkpt lat="43.55199" lon="6.79663">
        <ele>161</ele>
        <time>2012-11-01T10:39:49Z</time>
      </trkpt>
      <trkpt lat="43.55195" lon="6.79667">
        <ele>161</ele>
        <time>2012-11-01T10:39:50Z</time>
      </trkpt>
      <trkpt lat="43.55191" lon="6.7967">
        <ele>161</ele>
        <time>2012-11-01T10:39:51Z</time>
      </trkpt>
      <trkpt lat="43.55186" lon="6.79673">
        <ele>161</ele>
        <time>2012-11-01T10:39:52Z</time>
      </trkpt>
      <trkpt lat="43.55182" lon="6.79677">
        <ele>161</ele>
        <time>2012-11-01T10:39:54Z</time>
      </trkpt>
      <trkpt lat="43.55178" lon="6.7968">
        <ele>161</ele>
        <time>2012-11-01T10:39:54Z</time>
      </trkpt>
      <trkpt lat="43.55173" lon="6.79685">
        <ele>161</ele>
        <time>2012-11-01T10:39:55Z</time>
      </trkpt>
      <trkpt lat="43.55169" lon="6.79689">
        <ele>161</ele>
        <time>2012-11-01T10:39:56Z</time>
      </trkpt>
      <trkpt lat="43.55165" lon="6.79694">
        <ele>161</ele>
        <time>2012-11-01T10:39:58Z</time>
      </trkpt>
      <trkpt lat="43.55161" lon="6.79699">
        <ele>161</ele>
        <time>2012-11-01T10:39:58Z</time>
      </trkpt>
      <trkpt lat="43.55156" lon="6.79704">
        <ele>161</ele>
        <time>2012-11-01T10:40:00Z</time>
      </trkpt>
      <trkpt lat="43.55152" lon="6.79709">
        <ele>161</ele>
        <time>2012-11-01T10:40:00Z</time>
      </trkpt>
      <trkpt lat="43.55148" lon="6.79715">
        <ele>161</ele>
        <time>2012-11-01T10:40:02Z</time>
      </trkpt>
      <trkpt lat="43.55144" lon="6.7972">
        <ele>161</ele>
        <time>2012-11-01T10:40:02Z</time>
      </trkpt>
      <trkpt lat="43.5514" lon="6.79726">
        <ele>161</ele>
        <time>2012-11-01T10:40:03Z</time>
      </trkpt>
      <trkpt lat="43.55136" lon="6.79731">
        <ele>161</ele>
        <time>2012-11-01T10:40:04Z</time>
      </trkpt>
      <trkpt lat="43.55132" lon="6.79737">
        <ele>161</ele>
        <time>2012-11-01T10:40:06Z</time>
      </trkpt>
      <trkpt lat="43.55128" lon="6.79742">
        <ele>162</ele>
        <time>2012-11-01T10:40:06Z</time>
      </trkpt>
      <trkpt lat="43.55124" lon="6.79748">
        <ele>162</ele>
        <time>2012-11-01T10:40:07Z</time>
      </trkpt>
      <trkpt lat="43.5512" lon="6.79754">
        <ele>162</ele>
        <time>2012-11-01T10:40:08Z</time>
      </trkpt>
      <trkpt lat="43.55116" lon="6.7976">
        <ele>162</ele>
        <time>2012-11-01T10:40:09Z</time>
      </trkpt>
      <trkpt lat="43.55112" lon="6.79767">
        <ele>162</ele>
        <time>2012-11-01T10:40:10Z</time>
      </trkpt>
      <trkpt lat="43.55109" lon="6.79773">
        <ele>162</ele>
        <time>2012-11-01T10:40:12Z</time>
      </trkpt>
      <trkpt lat="43.55105" lon="6.7978">
        <ele>162</ele>
        <time>2012-11-01T10:40:12Z</time>
      </trkpt>
      <trkpt lat="43.55101" lon="6.79786">
        <ele>162</ele>
        <time>2012-11-01T10:40:13Z</time>
      </trkpt>
      <trkpt lat="43.55097" lon="6.79792">
        <ele>162</ele>
        <time>2012-11-01T10:40:14Z</time>
      </trkpt>
      <trkpt lat="43.55093" lon="6.79799">
        <ele>162</ele>
        <time>2012-11-01T10:40:15Z</time>
      </trkpt>
      <trkpt lat="43.5509" lon="6.79806">
        <ele>162</ele>
        <time>2012-11-01T10:40:16Z</time>
      </trkpt>
      <trkpt lat="43.55085" lon="6.79814">
        <ele>162</ele>
        <time>2012-11-01T10:40:18Z</time>
      </trkpt>
      <trkpt lat="43.55081" lon="6.79821">
        <ele>162</ele>
        <time>2012-11-01T10:40:18Z</time>
      </trkpt>
      <trkpt lat="43.55077" lon="6.79829">
        <ele>162</ele>
        <time>2012-11-01T10:40:19Z</time>
      </trkpt>
      <trkpt lat="43.55073" lon="6.79837">
        <ele>162</ele>
        <time>2012-11-01T10:40:20Z</time>
      </trkpt>
      <trkpt lat="43.55069" lon="6.79844">
        <ele>162</ele>
        <time>2012-11-01T10:40:21Z</time>
      </trkpt>
      <trkpt lat="43.55066" lon="6.79851">
        <ele>162</ele>
        <time>2012-11-01T10:40:22Z</time>
      </trkpt>
      <trkpt lat="43.55062" lon="6.79859">
        <ele>162</ele>
        <time>2012-11-01T10:40:23Z</time>
      </trkpt>
      <trkpt lat="43.55059" lon="6.79866">
        <ele>162</ele>
        <time>2012-11-01T10:40:24Z</time>
      </trkpt>
      <trkpt lat="43.55055" lon="6.79874">
        <ele>162</ele>
        <time>2012-11-01T10:40:25Z</time>
      </trkpt>
      <trkpt lat="43.55052" lon="6.79882">
        <ele>162</ele>
        <time>2012-11-01T10:40:26Z</time>
      </trkpt>
      <trkpt lat="43.55049" lon="6.7989">
        <ele>162</ele>
        <time>2012-11-01T10:40:28Z</time>
      </trkpt>
      <trkpt lat="43.55046" lon="6.79899">
        <ele>162</ele>
        <time>2012-11-01T10:40:28Z</time>
      </trkpt>
      <trkpt lat="43.55042" lon="6.79907">
        <ele>162</ele>
        <time>2012-11-01T10:40:29Z</time>
      </trkpt>
      <trkpt lat="43.55039" lon="6.79915">
        <ele>162</ele>
        <time>2012-11-01T10:40:30Z</time>
      </trkpt>
      <trkpt lat="43.55036" lon="6.79924">
        <ele>162</ele>
        <time>2012-11-01T10:40:31Z</time>
      </trkpt>
      <trkpt lat="43.55032" lon="6.79932">
        <ele>162</ele>
        <time>2012-11-01T10:40:33Z</time>
      </trkpt>
      <trkpt lat="43.55029" lon="6.79941">
        <ele>162</ele>
        <time>2012-11-01T10:40:33Z</time>
      </trkpt>
      <trkpt lat="43.55025" lon="6.79949">
        <ele>162</ele>
        <time>2012-11-01T10:40:34Z</time>
      </trkpt>
      <trkpt lat="43.55021" lon="6.79957">
        <ele>162</ele>
        <time>2012-11-01T10:40:35Z</time>
      </trkpt>
      <trkpt lat="43.55017" lon="6.79964">
        <ele>162</ele>
        <time>2012-11-01T10:40:36Z</time>
      </trkpt>
      <trkpt lat="43.55013" lon="6.79972">
        <ele>162</ele>
        <time>2012-11-01T10:40:38Z</time>
      </trkpt>
      <trkpt lat="43.55008" lon="6.79979">
        <ele>162</ele>
        <time>2012-11-01T10:40:38Z</time>
      </trkpt>
      <trkpt lat="43.55004" lon="6.79986">
        <ele>162</ele>
        <time>2012-11-01T10:40:39Z</time>
      </trkpt>
      <trkpt lat="43.55" lon="6.79992">
        <ele>162</ele>
        <time>2012-11-01T10:40:40Z</time>
      </trkpt>
      <trkpt lat="43.54995" lon="6.79998">
        <ele>162</ele>
        <time>2012-11-01T10:40:41Z</time>
      </trkpt>
      <trkpt lat="43.54991" lon="6.80005">
        <ele>162</ele>
        <time>2012-11-01T10:40:42Z</time>
      </trkpt>
      <trkpt lat="43.54986" lon="6.80011">
        <ele>162</ele>
        <time>2012-11-01T10:40:44Z</time>
      </trkpt>
      <trkpt lat="43.54981" lon="6.80016">
        <ele>162</ele>
        <time>2012-11-01T10:40:44Z</time>
      </trkpt>
      <trkpt lat="43.54977" lon="6.80022">
        <ele>162</ele>
        <time>2012-11-01T10:40:45Z</time>
      </trkpt>
      <trkpt lat="43.54972" lon="6.80027">
        <ele>162</ele>
        <time>2012-11-01T10:40:46Z</time>
      </trkpt>
      <trkpt lat="43.54967" lon="6.80033">
        <ele>162</ele>
        <time>2012-11-01T10:40:47Z</time>
      </trkpt>
      <trkpt lat="43.54963" lon="6.80039">
        <ele>162</ele>
        <time>2012-11-01T10:40:49Z</time>
      </trkpt>
      <trkpt lat="43.54959" lon="6.80045">
        <ele>162</ele>
        <time>2012-11-01T10:40:49Z</time>
      </trkpt>
      <trkpt lat="43.54955" lon="6.80051">
        <ele>162</ele>
        <time>2012-11-01T10:40:50Z</time>
      </trkpt>
      <trkpt lat="43.54951" lon="6.80057">
        <ele>162</ele>
        <time>2012-11-01T10:40:51Z</time>
      </trkpt>
      <trkpt lat="43.54947" lon="6.80063">
        <ele>162</ele>
        <time>2012-11-01T10:40:52Z</time>
      </trkpt>
      <trkpt lat="43.54944" lon="6.80069">
        <ele>162</ele>
        <time>2012-11-01T10:40:54Z</time>
      </trkpt>
      <trkpt lat="43.54941" lon="6.80075">
        <ele>162</ele>
        <time>2012-11-01T10:40:54Z</time>
      </trkpt>
      <trkpt lat="43.54938" lon="6.80081">
        <ele>162</ele>
        <time>2012-11-01T10:40:55Z</time>
      </trkpt>
      <trkpt lat="43.54935" lon="6.80088">
        <ele>162</ele>
        <time>2012-11-01T10:40:56Z</time>
      </trkpt>
      <trkpt lat="43.54932" lon="6.80094">
        <ele>162</ele>
        <time>2012-11-01T10:40:57Z</time>
      </trkpt>
      <trkpt lat="43.5493" lon="6.80101">
        <ele>162</ele>
        <time>2012-11-01T10:40:58Z</time>
      </trkpt>
      <trkpt lat="43.54927" lon="6.80108">
        <ele>162</ele>
        <time>2012-11-01T10:41:00Z</time>
      </trkpt>
      <trkpt lat="43.54924" lon="6.80115">
        <ele>162</ele>
        <time>2012-11-01T10:41:00Z</time>
      </trkpt>
      <trkpt lat="43.54922" lon="6.80122">
        <ele>162</ele>
        <time>2012-11-01T10:41:01Z</time>
      </trkpt>
      <trkpt lat="43.54919" lon="6.80128">
        <ele>162</ele>
        <time>2012-11-01T10:41:02Z</time>
      </trkpt>
      <trkpt lat="43.54917" lon="6.80135">
        <ele>162</ele>
        <time>2012-11-01T10:41:03Z</time>
      </trkpt>
      <trkpt lat="43.54915" lon="6.80142">
        <ele>162</ele>
        <time>2012-11-01T10:41:05Z</time>
      </trkpt>
      <trkpt lat="43.54912" lon="6.80149">
        <ele>162</ele>
        <time>2012-11-01T10:41:06Z</time>
      </trkpt>
      <trkpt lat="43.5491" lon="6.80156">
        <ele>162</ele>
        <time>2012-11-01T10:41:06Z</time>
      </trkpt>
      <trkpt lat="43.54908" lon="6.80163">
        <ele>162</ele>
        <time>2012-11-01T10:41:07Z</time>
      </trkpt>
      <trkpt lat="43.54906" lon="6.8017">
        <ele>162</ele>
        <time>2012-11-01T10:41:08Z</time>
      </trkpt>
      <trkpt lat="43.54903" lon="6.80177">
        <ele>162</ele>
        <time>2012-11-01T10:41:09Z</time>
      </trkpt>
      <trkpt lat="43.54901" lon="6.80184">
        <ele>162</ele>
        <time>2012-11-01T10:41:11Z</time>
      </trkpt>
      <trkpt lat="43.54899" lon="6.80191">
        <ele>162</ele>
        <time>2012-11-01T10:41:11Z</time>
      </trkpt>
      <trkpt lat="43.54897" lon="6.80197">
        <ele>162</ele>
        <time>2012-11-01T10:41:12Z</time>
      </trkpt>
      <trkpt lat="43.54895" lon="6.80204">
        <ele>162</ele>
        <time>2012-11-01T10:41:13Z</time>
      </trkpt>
      <trkpt lat="43.54893" lon="6.80211">
        <ele>162</ele>
        <time>2012-11-01T10:41:14Z</time>
      </trkpt>
      <trkpt lat="43.5489" lon="6.80217">
        <ele>162</ele>
        <time>2012-11-01T10:41:16Z</time>
      </trkpt>
      <trkpt lat="43.54888" lon="6.80224">
        <ele>162</ele>
        <time>2012-11-01T10:41:16Z</time>
      </trkpt>
      <trkpt lat="43.54886" lon="6.8023">
        <ele>162</ele>
        <time>2012-11-01T10:41:17Z</time>
      </trkpt>
      <trkpt lat="43.54883" lon="6.80236">
        <ele>162</ele>
        <time>2012-11-01T10:41:18Z</time>
      </trkpt>
      <trkpt lat="43.54881" lon="6.80242">
        <ele>162</ele>
        <time>2012-11-01T10:41:19Z</time>
      </trkpt>
      <trkpt lat="43.54879" lon="6.80248">
        <ele>162</ele>
        <time>2012-11-01T10:41:20Z</time>
      </trkpt>
      <trkpt lat="43.54877" lon="6.80255">
        <ele>162</ele>
        <time>2012-11-01T10:41:21Z</time>
      </trkpt>
      <trkpt lat="43.54875" lon="6.80261">
        <ele>162</ele>
        <time>2012-11-01T10:41:22Z</time>
      </trkpt>
      <trkpt lat="43.54874" lon="6.80266">
        <ele>162</ele>
        <time>2012-11-01T10:41:23Z</time>
      </trkpt>
      <trkpt lat="43.54872" lon="6.80272">
        <ele>163</ele>
        <time>2012-11-01T10:41:24Z</time>
      </trkpt>
      <trkpt lat="43.5487" lon="6.80277">
        <ele>163</ele>
        <time>2012-11-01T10:41:25Z</time>
      </trkpt>
      <trkpt lat="43.54868" lon="6.80282">
        <ele>164</ele>
        <time>2012-11-01T10:41:26Z</time>
      </trkpt>
      <trkpt lat="43.54866" lon="6.80287">
        <ele>164</ele>
        <time>2012-11-01T10:41:27Z</time>
      </trkpt>
      <trkpt lat="43.54864" lon="6.80292">
        <ele>165</ele>
        <time>2012-11-01T10:41:28Z</time>
      </trkpt>
      <trkpt lat="43.54862" lon="6.80297">
        <ele>165</ele>
        <time>2012-11-01T10:41:29Z</time>
      </trkpt>
      <trkpt lat="43.5486" lon="6.80302">
        <ele>166</ele>
        <time>2012-11-01T10:41:30Z</time>
      </trkpt>
      <trkpt lat="43.54858" lon="6.80306">
        <ele>166</ele>
        <time>2012-11-01T10:41:32Z</time>
      </trkpt>
      <trkpt lat="43.54856" lon="6.80311">
        <ele>167</ele>
        <time>2012-11-01T10:41:32Z</time>
      </trkpt>
      <trkpt lat="43.54854" lon="6.80315">
        <ele>167</ele>
        <time>2012-11-01T10:41:33Z</time>
      </trkpt>
      <trkpt lat="43.54852" lon="6.80319">
        <ele>168</ele>
        <time>2012-11-01T10:41:34Z</time>
      </trkpt>
      <trkpt lat="43.5485" lon="6.80323">
        <ele>168</ele>
        <time>2012-11-01T10:41:35Z</time>
      </trkpt>
      <trkpt lat="43.54849" lon="6.80327">
        <ele>169</ele>
        <time>2012-11-01T10:41:36Z</time>
      </trkpt>
      <trkpt lat="43.54847" lon="6.80332">
        <ele>169</ele>
        <time>2012-11-01T10:41:38Z</time>
      </trkpt>
      <trkpt lat="43.54845" lon="6.80335">
        <ele>169</ele>
        <time>2012-11-01T10:41:38Z</time>
      </trkpt>
      <trkpt lat="43.54844" lon="6.80339">
        <ele>169</ele>
        <time>2012-11-01T10:41:39Z</time>
      </trkpt>
      <trkpt lat="43.54842" lon="6.80343">
        <ele>170</ele>
        <time>2012-11-01T10:41:40Z</time>
      </trkpt>
      <trkpt lat="43.5484" lon="6.80347">
        <ele>170</ele>
        <time>2012-11-01T10:41:41Z</time>
      </trkpt>
      <trkpt lat="43.54837" lon="6.8035">
        <ele>170</ele>
        <time>2012-11-01T10:41:42Z</time>
      </trkpt>
      <trkpt lat="43.54835" lon="6.80354">
        <ele>170</ele>
        <time>2012-11-01T10:41:44Z</time>
      </trkpt>
      <trkpt lat="43.54833" lon="6.80358">
        <ele>170</ele>
        <time>2012-11-01T10:41:44Z</time>
      </trkpt>
      <trkpt lat="43.5483" lon="6.80362">
        <ele>170</ele>
        <time>2012-11-01T10:41:45Z</time>
      </trkpt>
      <trkpt lat="43.54828" lon="6.80366">
        <ele>171</ele>
        <time>2012-11-01T10:41:46Z</time>
      </trkpt>
      <trkpt lat="43.54826" lon="6.8037">
        <ele>171</ele>
        <time>2012-11-01T10:41:47Z</time>
      </trkpt>
      <trkpt lat="43.54824" lon="6.80374">
        <ele>171</ele>
        <time>2012-11-01T10:41:48Z</time>
      </trkpt>
      <trkpt lat="43.54821" lon="6.80378">
        <ele>171</ele>
        <time>2012-11-01T10:41:50Z</time>
      </trkpt>
      <trkpt lat="43.54819" lon="6.80382">
        <ele>171</ele>
        <time>2012-11-01T10:41:50Z</time>
      </trkpt>
      <trkpt lat="43.54817" lon="6.80385">
        <ele>171</ele>
        <time>2012-11-01T10:41:51Z</time>
      </trkpt>
      <trkpt lat="43.54814" lon="6.80389">
        <ele>171</ele>
        <time>2012-11-01T10:41:52Z</time>
      </trkpt>
      <trkpt lat="43.54812" lon="6.80393">
        <ele>172</ele>
        <time>2012-11-01T10:41:54Z</time>
      </trkpt>
      <trkpt lat="43.5481" lon="6.80397">
        <ele>172</ele>
        <time>2012-11-01T10:41:54Z</time>
      </trkpt>
      <trkpt lat="43.54808" lon="6.804">
        <ele>172</ele>
        <time>2012-11-01T10:41:55Z</time>
      </trkpt>
      <trkpt lat="43.54805" lon="6.80404">
        <ele>172</ele>
        <time>2012-11-01T10:41:56Z</time>
      </trkpt>
      <trkpt lat="43.54803" lon="6.80407">
        <ele>173</ele>
        <time>2012-11-01T10:41:57Z</time>
      </trkpt>
      <trkpt lat="43.54801" lon="6.8041">
        <ele>173</ele>
        <time>2012-11-01T10:41:58Z</time>
      </trkpt>
      <trkpt lat="43.54799" lon="6.80414">
        <ele>174</ele>
        <time>2012-11-01T10:42:00Z</time>
      </trkpt>
      <trkpt lat="43.54796" lon="6.80417">
        <ele>174</ele>
        <time>2012-11-01T10:42:00Z</time>
      </trkpt>
      <trkpt lat="43.54793" lon="6.80421">
        <ele>175</ele>
        <time>2012-11-01T10:42:01Z</time>
      </trkpt>
      <trkpt lat="43.54791" lon="6.80424">
        <ele>175</ele>
        <time>2012-11-01T10:42:02Z</time>
      </trkpt>
      <trkpt lat="43.54789" lon="6.80428">
        <ele>176</ele>
        <time>2012-11-01T10:42:03Z</time>
      </trkpt>
      <trkpt lat="43.54786" lon="6.80432">
        <ele>176</ele>
        <time>2012-11-01T10:42:04Z</time>
      </trkpt>
      <trkpt lat="43.54784" lon="6.80436">
        <ele>176</ele>
        <time>2012-11-01T10:42:05Z</time>
      </trkpt>
      <trkpt lat="43.54782" lon="6.8044">
        <ele>177</ele>
        <time>2012-11-01T10:42:06Z</time>
      </trkpt>
      <trkpt lat="43.54779" lon="6.80444">
        <ele>177</ele>
        <time>2012-11-01T10:42:07Z</time>
      </trkpt>
      <trkpt lat="43.54777" lon="6.80448">
        <ele>177</ele>
        <time>2012-11-01T10:42:08Z</time>
      </trkpt>
      <trkpt lat="43.54775" lon="6.80452">
        <ele>178</ele>
        <time>2012-11-01T10:42:09Z</time>
      </trkpt>
      <trkpt lat="43.54773" lon="6.80456">
        <ele>178</ele>
        <time>2012-11-01T10:42:10Z</time>
      </trkpt>
      <trkpt lat="43.54771" lon="6.8046">
        <ele>178</ele>
        <time>2012-11-01T10:42:11Z</time>
      </trkpt>
      <trkpt lat="43.54769" lon="6.80465">
        <ele>178</ele>
        <time>2012-11-01T10:42:13Z</time>
      </trkpt>
      <trkpt lat="43.54767" lon="6.80469">
        <ele>178</ele>
        <time>2012-11-01T10:42:13Z</time>
      </trkpt>
      <trkpt lat="43.54765" lon="6.80473">
        <ele>178</ele>
        <time>2012-11-01T10:42:14Z</time>
      </trkpt>
      <trkpt lat="43.54763" lon="6.80478">
        <ele>179</ele>
        <time>2012-11-01T10:42:15Z</time>
      </trkpt>
      <trkpt lat="43.54761" lon="6.80482">
        <ele>179</ele>
        <time>2012-11-01T10:42:16Z</time>
      </trkpt>
      <trkpt lat="43.54759" lon="6.80487">
        <ele>179</ele>
        <time>2012-11-01T10:42:17Z</time>
      </trkpt>
      <trkpt lat="43.54757" lon="6.80491">
        <ele>179</ele>
        <time>2012-11-01T10:42:18Z</time>
      </trkpt>
      <trkpt lat="43.54755" lon="6.80496">
        <ele>179</ele>
        <time>2012-11-01T10:42:19Z</time>
      </trkpt>
      <trkpt lat="43.54753" lon="6.80501">
        <ele>179</ele>
        <time>2012-11-01T10:42:20Z</time>
      </trkpt>
      <trkpt lat="43.5475" lon="6.80506">
        <ele>179</ele>
        <time>2012-11-01T10:42:21Z</time>
      </trkpt>
      <trkpt lat="43.54748" lon="6.80511">
        <ele>179</ele>
        <time>2012-11-01T10:42:22Z</time>
      </trkpt>
      <trkpt lat="43.54746" lon="6.80516">
        <ele>179</ele>
        <time>2012-11-01T10:42:23Z</time>
      </trkpt>
      <trkpt lat="43.54744" lon="6.80521">
        <ele>179</ele>
        <time>2012-11-01T10:42:24Z</time>
      </trkpt>
      <trkpt lat="43.54742" lon="6.80526">
        <ele>180</ele>
        <time>2012-11-01T10:42:25Z</time>
      </trkpt>
      <trkpt lat="43.54739" lon="6.80532">
        <ele>180</ele>
        <time>2012-11-01T10:42:26Z</time>
      </trkpt>
      <trkpt lat="43.54737" lon="6.80537">
        <ele>180</ele>
        <time>2012-11-01T10:42:27Z</time>
      </trkpt>
      <trkpt lat="43.54735" lon="6.80543">
        <ele>180</ele>
        <time>2012-11-01T10:42:28Z</time>
      </trkpt>
      <trkpt lat="43.54733" lon="6.80548">
        <ele>180</ele>
        <time>2012-11-01T10:42:29Z</time>
      </trkpt>
      <trkpt lat="43.5473" lon="6.80553">
        <ele>180</ele>
        <time>2012-11-01T10:42:30Z</time>
      </trkpt>
      <trkpt lat="43.54728" lon="6.80559">
        <ele>180</ele>
        <time>2012-11-01T10:42:31Z</time>
      </trkpt>
      <trkpt lat="43.54726" lon="6.80565">
        <ele>180</ele>
        <time>2012-11-01T10:42:32Z</time>
      </trkpt>
      <trkpt lat="43.54723" lon="6.8057">
        <ele>180</ele>
        <time>2012-11-01T10:42:33Z</time>
      </trkpt>
      <trkpt lat="43.54721" lon="6.80576">
        <ele>180</ele>
        <time>2012-11-01T10:42:34Z</time>
      </trkpt>
      <trkpt lat="43.54719" lon="6.80582">
        <ele>180</ele>
        <time>2012-11-01T10:42:35Z</time>
      </trkpt>
      <trkpt lat="43.54717" lon="6.80588">
        <ele>180</ele>
        <time>2012-11-01T10:42:36Z</time>
      </trkpt>
      <trkpt lat="43.54714" lon="6.80594">
        <ele>180</ele>
        <time>2012-11-01T10:42:37Z</time>
      </trkpt>
      <trkpt lat="43.54712" lon="6.806">
        <ele>180</ele>
        <time>2012-11-01T10:42:38Z</time>
      </trkpt>
      <trkpt lat="43.5471" lon="6.80606">
        <ele>181</ele>
        <time>2012-11-01T10:42:39Z</time>
      </trkpt>
      <trkpt lat="43.54708" lon="6.80612">
        <ele>181</ele>
        <time>2012-11-01T10:42:40Z</time>
      </trkpt>
      <trkpt lat="43.54705" lon="6.80618">
        <ele>181</ele>
        <time>2012-11-01T10:42:41Z</time>
      </trkpt>
      <trkpt lat="43.54703" lon="6.80624">
        <ele>181</ele>
        <time>2012-11-01T10:42:42Z</time>
      </trkpt>
      <trkpt lat="43.54701" lon="6.8063">
        <ele>181</ele>
        <time>2012-11-01T10:42:43Z</time>
      </trkpt>
      <trkpt lat="43.54699" lon="6.80636">
        <ele>181</ele>
        <time>2012-11-01T10:42:44Z</time>
      </trkpt>
      <trkpt lat="43.54697" lon="6.80642">
        <ele>181</ele>
        <time>2012-11-01T10:42:45Z</time>
      </trkpt>
      <trkpt lat="43.54695" lon="6.80648">
        <ele>181</ele>
        <time>2012-11-01T10:42:46Z</time>
      </trkpt>
      <trkpt lat="43.54692" lon="6.80654">
        <ele>181</ele>
        <time>2012-11-01T10:42:47Z</time>
      </trkpt>
      <trkpt lat="43.5469" lon="6.80661">
        <ele>181</ele>
        <time>2012-11-01T10:42:48Z</time>
      </trkpt>
      <trkpt lat="43.54688" lon="6.80668">
        <ele>181</ele>
        <time>2012-11-01T10:42:49Z</time>
      </trkpt>
      <trkpt lat="43.54686" lon="6.80675">
        <ele>181</ele>
        <time>2012-11-01T10:42:50Z</time>
      </trkpt>
      <trkpt lat="43.54684" lon="6.80681">
        <ele>182</ele>
        <time>2012-11-01T10:42:51Z</time>
      </trkpt>
      <trkpt lat="43.54682" lon="6.80688">
        <ele>182</ele>
        <time>2012-11-01T10:42:52Z</time>
      </trkpt>
      <trkpt lat="43.5468" lon="6.80694">
        <ele>182</ele>
        <time>2012-11-01T10:42:54Z</time>
      </trkpt>
      <trkpt lat="43.54678" lon="6.80701">
        <ele>182</ele>
        <time>2012-11-01T10:42:54Z</time>
      </trkpt>
      <trkpt lat="43.54677" lon="6.80708">
        <ele>182</ele>
        <time>2012-11-01T10:42:55Z</time>
      </trkpt>
      <trkpt lat="43.54675" lon="6.80715">
        <ele>182</ele>
        <time>2012-11-01T10:42:56Z</time>
      </trkpt>
      <trkpt lat="43.54673" lon="6.80722">
        <ele>182</ele>
        <time>2012-11-01T10:42:57Z</time>
      </trkpt>
      <trkpt lat="43.54672" lon="6.80729">
        <ele>182</ele>
        <time>2012-11-01T10:42:58Z</time>
      </trkpt>
      <trkpt lat="43.54671" lon="6.80736">
        <ele>182</ele>
        <time>2012-11-01T10:42:59Z</time>
      </trkpt>
      <trkpt lat="43.5467" lon="6.80744">
        <ele>182</ele>
        <time>2012-11-01T10:43:00Z</time>
      </trkpt>
      <trkpt lat="43.54668" lon="6.80752">
        <ele>182</ele>
        <time>2012-11-01T10:43:01Z</time>
      </trkpt>
      <trkpt lat="43.54668" lon="6.8076">
        <ele>182</ele>
        <time>2012-11-01T10:43:02Z</time>
      </trkpt>
      <trkpt lat="43.54667" lon="6.80768">
        <ele>182</ele>
        <time>2012-11-01T10:43:03Z</time>
      </trkpt>
      <trkpt lat="43.54667" lon="6.80777">
        <ele>182</ele>
        <time>2012-11-01T10:43:04Z</time>
      </trkpt>
      <trkpt lat="43.54667" lon="6.80786">
        <ele>182</ele>
        <time>2012-11-01T10:43:05Z</time>
      </trkpt>
      <trkpt lat="43.54666" lon="6.80794">
        <ele>182</ele>
        <time>2012-11-01T10:43:06Z</time>
      </trkpt>
      <trkpt lat="43.54666" lon="6.80804">
        <ele>182</ele>
        <time>2012-11-01T10:43:07Z</time>
      </trkpt>
      <trkpt lat="43.54666" lon="6.80813">
        <ele>182</ele>
        <time>2012-11-01T10:43:08Z</time>
      </trkpt>
      <trkpt lat="43.54666" lon="6.80822">
        <ele>182</ele>
        <time>2012-11-01T10:43:09Z</time>
      </trkpt>
      <trkpt lat="43.54665" lon="6.80831">
        <ele>182</ele>
        <time>2012-11-01T10:43:10Z</time>
      </trkpt>
      <trkpt lat="43.54664" lon="6.80841">
        <ele>182</ele>
        <time>2012-11-01T10:43:11Z</time>
      </trkpt>
      <trkpt lat="43.54662" lon="6.8085">
        <ele>182</ele>
        <time>2012-11-01T10:43:12Z</time>
      </trkpt>
      <trkpt lat="43.54661" lon="6.80858">
        <ele>182</ele>
        <time>2012-11-01T10:43:13Z</time>
      </trkpt>
      <trkpt lat="43.54659" lon="6.80867">
        <ele>182</ele>
        <time>2012-11-01T10:43:14Z</time>
      </trkpt>
      <trkpt lat="43.54657" lon="6.80875">
        <ele>182</ele>
        <time>2012-11-01T10:43:15Z</time>
      </trkpt>
      <trkpt lat="43.54654" lon="6.80883">
        <ele>182</ele>
        <time>2012-11-01T10:43:16Z</time>
      </trkpt>
      <trkpt lat="43.54652" lon="6.80891">
        <ele>182</ele>
        <time>2012-11-01T10:43:17Z</time>
      </trkpt>
      <trkpt lat="43.54649" lon="6.80898">
        <ele>182</ele>
        <time>2012-11-01T10:43:18Z</time>
      </trkpt>
      <trkpt lat="43.54646" lon="6.80905">
        <ele>183</ele>
        <time>2012-11-01T10:43:19Z</time>
      </trkpt>
      <trkpt lat="43.54643" lon="6.80912">
        <ele>183</ele>
        <time>2012-11-01T10:43:20Z</time>
      </trkpt>
      <trkpt lat="43.54639" lon="6.80918">
        <ele>183</ele>
        <time>2012-11-01T10:43:21Z</time>
      </trkpt>
      <trkpt lat="43.54636" lon="6.80924">
        <ele>183</ele>
        <time>2012-11-01T10:43:22Z</time>
      </trkpt>
      <trkpt lat="43.54632" lon="6.80929">
        <ele>183</ele>
        <time>2012-11-01T10:43:23Z</time>
      </trkpt>
      <trkpt lat="43.54629" lon="6.80934">
        <ele>184</ele>
        <time>2012-11-01T10:43:24Z</time>
      </trkpt>
      <trkpt lat="43.54625" lon="6.80939">
        <ele>184</ele>
        <time>2012-11-01T10:43:25Z</time>
      </trkpt>
      <trkpt lat="43.54622" lon="6.80943">
        <ele>184</ele>
        <time>2012-11-01T10:43:26Z</time>
      </trkpt>
      <trkpt lat="43.54618" lon="6.80947">
        <ele>184</ele>
        <time>2012-11-01T10:43:27Z</time>
      </trkpt>
      <trkpt lat="43.54615" lon="6.80951">
        <ele>184</ele>
        <time>2012-11-01T10:43:28Z</time>
      </trkpt>
      <trkpt lat="43.54612" lon="6.80954">
        <ele>184</ele>
        <time>2012-11-01T10:43:29Z</time>
      </trkpt>
      <trkpt lat="43.54608" lon="6.80957">
        <ele>184</ele>
        <time>2012-11-01T10:43:30Z</time>
      </trkpt>
      <trkpt lat="43.54604" lon="6.80961">
        <ele>184</ele>
        <time>2012-11-01T10:43:31Z</time>
      </trkpt>
      <trkpt lat="43.54601" lon="6.80964">
        <ele>184</ele>
        <time>2012-11-01T10:43:32Z</time>
      </trkpt>
      <trkpt lat="43.54597" lon="6.80967">
        <ele>184</ele>
        <time>2012-11-01T10:43:33Z</time>
      </trkpt>
      <trkpt lat="43.54593" lon="6.80969">
        <ele>184</ele>
        <time>2012-11-01T10:43:34Z</time>
      </trkpt>
      <trkpt lat="43.54589" lon="6.80972">
        <ele>184</ele>
        <time>2012-11-01T10:43:35Z</time>
      </trkpt>
      <trkpt lat="43.54585" lon="6.80974">
        <ele>184</ele>
        <time>2012-11-01T10:43:36Z</time>
      </trkpt>
      <trkpt lat="43.54581" lon="6.80977">
        <ele>184</ele>
        <time>2012-11-01T10:43:37Z</time>
      </trkpt>
      <trkpt lat="43.54576" lon="6.8098">
        <ele>184</ele>
        <time>2012-11-01T10:43:38Z</time>
      </trkpt>
      <trkpt lat="43.54572" lon="6.80983">
        <ele>184</ele>
        <time>2012-11-01T10:43:39Z</time>
      </trkpt>
      <trkpt lat="43.54568" lon="6.80986">
        <ele>185</ele>
        <time>2012-11-01T10:43:40Z</time>
      </trkpt>
      <trkpt lat="43.54564" lon="6.80988">
        <ele>185</ele>
        <time>2012-11-01T10:43:41Z</time>
      </trkpt>
      <trkpt lat="43.5456" lon="6.80991">
        <ele>185</ele>
        <time>2012-11-01T10:43:42Z</time>
      </trkpt>
      <trkpt lat="43.54556" lon="6.80994">
        <ele>185</ele>
        <time>2012-11-01T10:43:43Z</time>
      </trkpt>
      <trkpt lat="43.54552" lon="6.80996">
        <ele>185</ele>
        <time>2012-11-01T10:43:44Z</time>
      </trkpt>
      <trkpt lat="43.54548" lon="6.80999">
        <ele>185</ele>
        <time>2012-11-01T10:43:45Z</time>
      </trkpt>
      <trkpt lat="43.54544" lon="6.81002">
        <ele>185</ele>
        <time>2012-11-01T10:43:46Z</time>
      </trkpt>
      <trkpt lat="43.54539" lon="6.81005">
        <ele>185</ele>
        <time>2012-11-01T10:43:47Z</time>
      </trkpt>
      <trkpt lat="43.54535" lon="6.81008">
        <ele>185</ele>
        <time>2012-11-01T10:43:48Z</time>
      </trkpt>
      <trkpt lat="43.54531" lon="6.81011">
        <ele>185</ele>
        <time>2012-11-01T10:43:49Z</time>
      </trkpt>
      <trkpt lat="43.54527" lon="6.81014">
        <ele>186</ele>
        <time>2012-11-01T10:43:50Z</time>
      </trkpt>
      <trkpt lat="43.54523" lon="6.81017">
        <ele>186</ele>
        <time>2012-11-01T10:43:51Z</time>
      </trkpt>
      <trkpt lat="43.54519" lon="6.81019">
        <ele>186</ele>
        <time>2012-11-01T10:43:52Z</time>
      </trkpt>
      <trkpt lat="43.54514" lon="6.81022">
        <ele>186</ele>
        <time>2012-11-01T10:43:53Z</time>
      </trkpt>
      <trkpt lat="43.5451" lon="6.81025">
        <ele>186</ele>
        <time>2012-11-01T10:43:54Z</time>
      </trkpt>
      <trkpt lat="43.54506" lon="6.81028">
        <ele>186</ele>
        <time>2012-11-01T10:43:55Z</time>
      </trkpt>
      <trkpt lat="43.54501" lon="6.81031">
        <ele>186</ele>
        <time>2012-11-01T10:43:56Z</time>
      </trkpt>
      <trkpt lat="43.54497" lon="6.81033">
        <ele>186</ele>
        <time>2012-11-01T10:43:57Z</time>
      </trkpt>
      <trkpt lat="43.54492" lon="6.81036">
        <ele>186</ele>
        <time>2012-11-01T10:43:58Z</time>
      </trkpt>
      <trkpt lat="43.54488" lon="6.81039">
        <ele>186</ele>
        <time>2012-11-01T10:43:59Z</time>
      </trkpt>
      <trkpt lat="43.54483" lon="6.81042">
        <ele>186</ele>
        <time>2012-11-01T10:44:00Z</time>
      </trkpt>
      <trkpt lat="43.54479" lon="6.81045">
        <ele>186</ele>
        <time>2012-11-01T10:44:01Z</time>
      </trkpt>
      <trkpt lat="43.54475" lon="6.81048">
        <ele>186</ele>
        <time>2012-11-01T10:44:02Z</time>
      </trkpt>
      <trkpt lat="43.5447" lon="6.81051">
        <ele>186</ele>
        <time>2012-11-01T10:44:03Z</time>
      </trkpt>
      <trkpt lat="43.54466" lon="6.81055">
        <ele>186</ele>
        <time>2012-11-01T10:44:04Z</time>
      </trkpt>
      <trkpt lat="43.54462" lon="6.81058">
        <ele>186</ele>
        <time>2012-11-01T10:44:05Z</time>
      </trkpt>
      <trkpt lat="43.54457" lon="6.81061">
        <ele>186</ele>
        <time>2012-11-01T10:44:06Z</time>
      </trkpt>
      <trkpt lat="43.54452" lon="6.81064">
        <ele>186</ele>
        <time>2012-11-01T10:44:07Z</time>
      </trkpt>
      <trkpt lat="43.54448" lon="6.81066">
        <ele>186</ele>
        <time>2012-11-01T10:44:08Z</time>
      </trkpt>
      <trkpt lat="43.54443" lon="6.81069">
        <ele>187</ele>
        <time>2012-11-01T10:44:09Z</time>
      </trkpt>
      <trkpt lat="43.54438" lon="6.81073">
        <ele>187</ele>
        <time>2012-11-01T10:44:10Z</time>
      </trkpt>
      <trkpt lat="43.54434" lon="6.81075">
        <ele>187</ele>
        <time>2012-11-01T10:44:11Z</time>
      </trkpt>
      <trkpt lat="43.54429" lon="6.81078">
        <ele>187</ele>
        <time>2012-11-01T10:44:12Z</time>
      </trkpt>
      <trkpt lat="43.54424" lon="6.81081">
        <ele>188</ele>
        <time>2012-11-01T10:44:13Z</time>
      </trkpt>
      <trkpt lat="43.5442" lon="6.81084">
        <ele>188</ele>
        <time>2012-11-01T10:44:14Z</time>
      </trkpt>
      <trkpt lat="43.54415" lon="6.81088">
        <ele>188</ele>
        <time>2012-11-01T10:44:15Z</time>
      </trkpt>
      <trkpt lat="43.54411" lon="6.81092">
        <ele>188</ele>
        <time>2012-11-01T10:44:16Z</time>
      </trkpt>
      <trkpt lat="43.54407" lon="6.81096">
        <ele>188</ele>
        <time>2012-11-01T10:44:17Z</time>
      </trkpt>
      <trkpt lat="43.54403" lon="6.811">
        <ele>188</ele>
        <time>2012-11-01T10:44:18Z</time>
      </trkpt>
      <trkpt lat="43.544" lon="6.81104">
        <ele>188</ele>
        <time>2012-11-01T10:44:19Z</time>
      </trkpt>
      <trkpt lat="43.54396" lon="6.81108">
        <ele>189</ele>
        <time>2012-11-01T10:44:20Z</time>
      </trkpt>
      <trkpt lat="43.54393" lon="6.81113">
        <ele>189</ele>
        <time>2012-11-01T10:44:21Z</time>
      </trkpt>
      <trkpt lat="43.54389" lon="6.81117">
        <ele>189</ele>
        <time>2012-11-01T10:44:22Z</time>
      </trkpt>
      <trkpt lat="43.54385" lon="6.81123">
        <ele>189</ele>
        <time>2012-11-01T10:44:24Z</time>
      </trkpt>
      <trkpt lat="43.54382" lon="6.81128">
        <ele>189</ele>
        <time>2012-11-01T10:44:25Z</time>
      </trkpt>
      <trkpt lat="43.54379" lon="6.81133">
        <ele>190</ele>
        <time>2012-11-01T10:44:25Z</time>
      </trkpt>
      <trkpt lat="43.54376" lon="6.81138">
        <ele>190</ele>
        <time>2012-11-01T10:44:26Z</time>
      </trkpt>
      <trkpt lat="43.54373" lon="6.81144">
        <ele>190</ele>
        <time>2012-11-01T10:44:27Z</time>
      </trkpt>
      <trkpt lat="43.54371" lon="6.81149">
        <ele>190</ele>
        <time>2012-11-01T10:44:28Z</time>
      </trkpt>
      <trkpt lat="43.54368" lon="6.81154">
        <ele>190</ele>
        <time>2012-11-01T10:44:29Z</time>
      </trkpt>
      <trkpt lat="43.54366" lon="6.81159">
        <ele>190</ele>
        <time>2012-11-01T10:44:30Z</time>
      </trkpt>
      <trkpt lat="43.54364" lon="6.81164">
        <ele>190</ele>
        <time>2012-11-01T10:44:31Z</time>
      </trkpt>
      <trkpt lat="43.54362" lon="6.81169">
        <ele>190</ele>
        <time>2012-11-01T10:44:32Z</time>
      </trkpt>
      <trkpt lat="43.5436" lon="6.81175">
        <ele>191</ele>
        <time>2012-11-01T10:44:33Z</time>
      </trkpt>
      <trkpt lat="43.54358" lon="6.8118">
        <ele>191</ele>
        <time>2012-11-01T10:44:34Z</time>
      </trkpt>
      <trkpt lat="43.54355" lon="6.81185">
        <ele>191</ele>
        <time>2012-11-01T10:44:35Z</time>
      </trkpt>
      <trkpt lat="43.54353" lon="6.8119">
        <ele>191</ele>
        <time>2012-11-01T10:44:36Z</time>
      </trkpt>
      <trkpt lat="43.5435" lon="6.81194">
        <ele>191</ele>
        <time>2012-11-01T10:44:37Z</time>
      </trkpt>
      <trkpt lat="43.54348" lon="6.81199">
        <ele>191</ele>
        <time>2012-11-01T10:44:38Z</time>
      </trkpt>
      <trkpt lat="43.54346" lon="6.81203">
        <ele>192</ele>
        <time>2012-11-01T10:44:39Z</time>
      </trkpt>
      <trkpt lat="43.54344" lon="6.81208">
        <ele>192</ele>
        <time>2012-11-01T10:44:40Z</time>
      </trkpt>
      <trkpt lat="43.54342" lon="6.81212">
        <ele>192</ele>
        <time>2012-11-01T10:44:41Z</time>
      </trkpt>
      <trkpt lat="43.5434" lon="6.81217">
        <ele>193</ele>
        <time>2012-11-01T10:44:42Z</time>
      </trkpt>
      <trkpt lat="43.54337" lon="6.81221">
        <ele>193</ele>
        <time>2012-11-01T10:44:43Z</time>
      </trkpt>
      <trkpt lat="43.54335" lon="6.81225">
        <ele>193</ele>
        <time>2012-11-01T10:44:44Z</time>
      </trkpt>
      <trkpt lat="43.54333" lon="6.81228">
        <ele>194</ele>
        <time>2012-11-01T10:44:45Z</time>
      </trkpt>
      <trkpt lat="43.54332" lon="6.81232">
        <ele>194</ele>
        <time>2012-11-01T10:44:46Z</time>
      </trkpt>
      <trkpt lat="43.5433" lon="6.81235">
        <ele>194</ele>
        <time>2012-11-01T10:44:47Z</time>
      </trkpt>
      <trkpt lat="43.54329" lon="6.81239">
        <ele>194</ele>
        <time>2012-11-01T10:44:48Z</time>
      </trkpt>
      <trkpt lat="43.54327" lon="6.81242">
        <ele>195</ele>
        <time>2012-11-01T10:44:49Z</time>
      </trkpt>
      <trkpt lat="43.54325" lon="6.81246">
        <ele>195</ele>
        <time>2012-11-01T10:44:50Z</time>
      </trkpt>
      <trkpt lat="43.54324" lon="6.81249">
        <ele>195</ele>
        <time>2012-11-01T10:44:51Z</time>
      </trkpt>
      <trkpt lat="43.54322" lon="6.81252">
        <ele>195</ele>
        <time>2012-11-01T10:44:52Z</time>
      </trkpt>
      <trkpt lat="43.5432" lon="6.81255">
        <ele>195</ele>
        <time>2012-11-01T10:44:53Z</time>
      </trkpt>
      <trkpt lat="43.54319" lon="6.81258">
        <ele>196</ele>
        <time>2012-11-01T10:44:54Z</time>
      </trkpt>
      <trkpt lat="43.54318" lon="6.8126">
        <ele>196</ele>
        <time>2012-11-01T10:44:55Z</time>
      </trkpt>
      <trkpt lat="43.54316" lon="6.81263">
        <ele>196</ele>
        <time>2012-11-01T10:44:56Z</time>
      </trkpt>
      <trkpt lat="43.54315" lon="6.81265">
        <ele>196</ele>
        <time>2012-11-01T10:44:57Z</time>
      </trkpt>
      <trkpt lat="43.54314" lon="6.81267">
        <ele>196</ele>
        <time>2012-11-01T10:44:58Z</time>
      </trkpt>
      <trkpt lat="43.54313" lon="6.8127">
        <ele>196</ele>
        <time>2012-11-01T10:44:59Z</time>
      </trkpt>
      <trkpt lat="43.54311" lon="6.81273">
        <ele>196</ele>
        <time>2012-11-01T10:45:00Z</time>
      </trkpt>
      <trkpt lat="43.5431" lon="6.81276">
        <ele>196</ele>
        <time>2012-11-01T10:45:01Z</time>
      </trkpt>
      <trkpt lat="43.54308" lon="6.81279">
        <ele>196</ele>
        <time>2012-11-01T10:45:02Z</time>
      </trkpt>
      <trkpt lat="43.54307" lon="6.81282">
        <ele>197</ele>
        <time>2012-11-01T10:45:03Z</time>
      </trkpt>
      <trkpt lat="43.54306" lon="6.81285">
        <ele>197</ele>
        <time>2012-11-01T10:45:04Z</time>
      </trkpt>
      <trkpt lat="43.54304" lon="6.81288">
        <ele>197</ele>
        <time>2012-11-01T10:45:06Z</time>
      </trkpt>
      <trkpt lat="43.54303" lon="6.81291">
        <ele>197</ele>
        <time>2012-11-01T10:45:06Z</time>
      </trkpt>
      <trkpt lat="43.54301" lon="6.81295">
        <ele>197</ele>
        <time>2012-11-01T10:45:07Z</time>
      </trkpt>
      <trkpt lat="43.543" lon="6.81298">
        <ele>197</ele>
        <time>2012-11-01T10:45:08Z</time>
      </trkpt>
      <trkpt lat="43.54298" lon="6.81302">
        <ele>197</ele>
        <time>2012-11-01T10:45:09Z</time>
      </trkpt>
      <trkpt lat="43.54297" lon="6.81306">
        <ele>198</ele>
        <time>2012-11-01T10:45:10Z</time>
      </trkpt>
      <trkpt lat="43.54295" lon="6.8131">
        <ele>198</ele>
        <time>2012-11-01T10:45:11Z</time>
      </trkpt>
      <trkpt lat="43.54294" lon="6.81314">
        <ele>198</ele>
        <time>2012-11-01T10:45:12Z</time>
      </trkpt>
      <trkpt lat="43.54293" lon="6.81317">
        <ele>198</ele>
        <time>2012-11-01T10:45:13Z</time>
      </trkpt>
      <trkpt lat="43.54291" lon="6.81321">
        <ele>199</ele>
        <time>2012-11-01T10:45:14Z</time>
      </trkpt>
      <trkpt lat="43.5429" lon="6.81325">
        <ele>199</ele>
        <time>2012-11-01T10:45:15Z</time>
      </trkpt>
      <trkpt lat="43.54289" lon="6.81328">
        <ele>199</ele>
        <time>2012-11-01T10:45:16Z</time>
      </trkpt>
      <trkpt lat="43.54287" lon="6.81332">
        <ele>200</ele>
        <time>2012-11-01T10:45:17Z</time>
      </trkpt>
      <trkpt lat="43.54286" lon="6.81335">
        <ele>200</ele>
        <time>2012-11-01T10:45:18Z</time>
      </trkpt>
      <trkpt lat="43.54285" lon="6.81339">
        <ele>200</ele>
        <time>2012-11-01T10:45:19Z</time>
      </trkpt>
      <trkpt lat="43.54283" lon="6.81343">
        <ele>201</ele>
        <time>2012-11-01T10:45:20Z</time>
      </trkpt>
      <trkpt lat="43.54282" lon="6.81346">
        <ele>201</ele>
        <time>2012-11-01T10:45:21Z</time>
      </trkpt>
      <trkpt lat="43.5428" lon="6.81349">
        <ele>202</ele>
        <time>2012-11-01T10:45:22Z</time>
      </trkpt>
      <trkpt lat="43.54279" lon="6.81353">
        <ele>202</ele>
        <time>2012-11-01T10:45:23Z</time>
      </trkpt>
      <trkpt lat="43.54278" lon="6.81356">
        <ele>202</ele>
        <time>2012-11-01T10:45:24Z</time>
      </trkpt>
      <trkpt lat="43.54277" lon="6.81359">
        <ele>203</ele>
        <time>2012-11-01T10:45:25Z</time>
      </trkpt>
      <trkpt lat="43.54275" lon="6.81362">
        <ele>203</ele>
        <time>2012-11-01T10:45:26Z</time>
      </trkpt>
      <trkpt lat="43.54274" lon="6.81366">
        <ele>204</ele>
        <time>2012-11-01T10:45:27Z</time>
      </trkpt>
      <trkpt lat="43.54272" lon="6.81369">
        <ele>204</ele>
        <time>2012-11-01T10:45:28Z</time>
      </trkpt>
      <trkpt lat="43.54271" lon="6.81372">
        <ele>205</ele>
        <time>2012-11-01T10:45:29Z</time>
      </trkpt>
      <trkpt lat="43.54269" lon="6.81374">
        <ele>205</ele>
        <time>2012-11-01T10:45:30Z</time>
      </trkpt>
      <trkpt lat="43.54268" lon="6.81377">
        <ele>206</ele>
        <time>2012-11-01T10:45:31Z</time>
      </trkpt>
      <trkpt lat="43.54267" lon="6.8138">
        <ele>206</ele>
        <time>2012-11-01T10:45:32Z</time>
      </trkpt>
      <trkpt lat="43.54266" lon="6.81383">
        <ele>206</ele>
        <time>2012-11-01T10:45:33Z</time>
      </trkpt>
      <trkpt lat="43.54265" lon="6.81386">
        <ele>207</ele>
        <time>2012-11-01T10:45:34Z</time>
      </trkpt>
      <trkpt lat="43.54263" lon="6.81389">
        <ele>207</ele>
        <time>2012-11-01T10:45:35Z</time>
      </trkpt>
      <trkpt lat="43.54262" lon="6.81392">
        <ele>207</ele>
        <time>2012-11-01T10:45:36Z</time>
      </trkpt>
      <trkpt lat="43.5426" lon="6.81394">
        <ele>207</ele>
        <time>2012-11-01T10:45:37Z</time>
      </trkpt>
      <trkpt lat="43.54258" lon="6.81396">
        <ele>207</ele>
        <time>2012-11-01T10:45:38Z</time>
      </trkpt>
      <trkpt lat="43.54256" lon="6.81399">
        <ele>207</ele>
        <time>2012-11-01T10:45:39Z</time>
      </trkpt>
      <trkpt lat="43.54255" lon="6.81402">
        <ele>208</ele>
        <time>2012-11-01T10:45:40Z</time>
      </trkpt>
      <trkpt lat="43.54253" lon="6.81405">
        <ele>208</ele>
        <time>2012-11-01T10:45:41Z</time>
      </trkpt>
      <trkpt lat="43.54252" lon="6.81408">
        <ele>208</ele>
        <time>2012-11-01T10:45:42Z</time>
      </trkpt>
      <trkpt lat="43.5425" lon="6.81411">
        <ele>208</ele>
        <time>2012-11-01T10:45:43Z</time>
      </trkpt>
      <trkpt lat="43.54249" lon="6.81413">
        <ele>208</ele>
        <time>2012-11-01T10:45:44Z</time>
      </trkpt>
      <trkpt lat="43.54247" lon="6.81416">
        <ele>209</ele>
        <time>2012-11-01T10:45:45Z</time>
      </trkpt>
      <trkpt lat="43.54245" lon="6.81419">
        <ele>209</ele>
        <time>2012-11-01T10:45:47Z</time>
      </trkpt>
      <trkpt lat="43.54243" lon="6.81422">
        <ele>209</ele>
        <time>2012-11-01T10:45:47Z</time>
      </trkpt>
      <trkpt lat="43.54242" lon="6.81425">
        <ele>209</ele>
        <time>2012-11-01T10:45:48Z</time>
      </trkpt>
      <trkpt lat="43.5424" lon="6.81428">
        <ele>209</ele>
        <time>2012-11-01T10:45:50Z</time>
      </trkpt>
      <trkpt lat="43.54239" lon="6.81431">
        <ele>209</ele>
        <time>2012-11-01T10:45:51Z</time>
      </trkpt>
      <trkpt lat="43.54237" lon="6.81434">
        <ele>209</ele>
        <time>2012-11-01T10:45:52Z</time>
      </trkpt>
      <trkpt lat="43.54235" lon="6.81437">
        <ele>209</ele>
        <time>2012-11-01T10:45:52Z</time>
      </trkpt>
      <trkpt lat="43.54234" lon="6.8144">
        <ele>209</ele>
        <time>2012-11-01T10:45:54Z</time>
      </trkpt>
      <trkpt lat="43.54232" lon="6.81443">
        <ele>209</ele>
        <time>2012-11-01T10:45:54Z</time>
      </trkpt>
      <trkpt lat="43.54231" lon="6.81446">
        <ele>209</ele>
        <time>2012-11-01T10:45:55Z</time>
      </trkpt>
      <trkpt lat="43.54229" lon="6.81448">
        <ele>209</ele>
        <time>2012-11-01T10:45:56Z</time>
      </trkpt>
      <trkpt lat="43.54227" lon="6.81451">
        <ele>209</ele>
        <time>2012-11-01T10:45:57Z</time>
      </trkpt>
      <trkpt lat="43.54225" lon="6.81454">
        <ele>210</ele>
        <time>2012-11-01T10:45:58Z</time>
      </trkpt>
      <trkpt lat="43.54224" lon="6.81457">
        <ele>210</ele>
        <time>2012-11-01T10:45:59Z</time>
      </trkpt>
      <trkpt lat="43.54222" lon="6.8146">
        <ele>210</ele>
        <time>2012-11-01T10:46:00Z</time>
      </trkpt>
      <trkpt lat="43.5422" lon="6.81462">
        <ele>210</ele>
        <time>2012-11-01T10:46:01Z</time>
      </trkpt>
      <trkpt lat="43.54218" lon="6.81465">
        <ele>210</ele>
        <time>2012-11-01T10:46:02Z</time>
      </trkpt>
      <trkpt lat="43.54216" lon="6.81468">
        <ele>210</ele>
        <time>2012-11-01T10:46:03Z</time>
      </trkpt>
      <trkpt lat="43.54215" lon="6.81472">
        <ele>210</ele>
        <time>2012-11-01T10:46:04Z</time>
      </trkpt>
      <trkpt lat="43.54213" lon="6.81475">
        <ele>210</ele>
        <time>2012-11-01T10:46:05Z</time>
      </trkpt>
      <trkpt lat="43.54211" lon="6.81478">
        <ele>210</ele>
        <time>2012-11-01T10:46:06Z</time>
      </trkpt>
      <trkpt lat="43.5421" lon="6.81481">
        <ele>211</ele>
        <time>2012-11-01T10:46:07Z</time>
      </trkpt>
      <trkpt lat="43.54208" lon="6.81484">
        <ele>211</ele>
        <time>2012-11-01T10:46:08Z</time>
      </trkpt>
      <trkpt lat="43.54206" lon="6.81488">
        <ele>211</ele>
        <time>2012-11-01T10:46:09Z</time>
      </trkpt>
      <trkpt lat="43.54204" lon="6.81491">
        <ele>211</ele>
        <time>2012-11-01T10:46:10Z</time>
      </trkpt>
      <trkpt lat="43.54203" lon="6.81495">
        <ele>212</ele>
        <time>2012-11-01T10:46:11Z</time>
      </trkpt>
      <trkpt lat="43.54201" lon="6.81498">
        <ele>212</ele>
        <time>2012-11-01T10:46:12Z</time>
      </trkpt>
      <trkpt lat="43.54199" lon="6.81502">
        <ele>212</ele>
        <time>2012-11-01T10:46:13Z</time>
      </trkpt>
      <trkpt lat="43.54197" lon="6.81506">
        <ele>213</ele>
        <time>2012-11-01T10:46:14Z</time>
      </trkpt>
      <trkpt lat="43.54196" lon="6.81509">
        <ele>213</ele>
        <time>2012-11-01T10:46:15Z</time>
      </trkpt>
      <trkpt lat="43.54194" lon="6.81513">
        <ele>213</ele>
        <time>2012-11-01T10:46:16Z</time>
      </trkpt>
      <trkpt lat="43.54193" lon="6.81517">
        <ele>214</ele>
        <time>2012-11-01T10:46:17Z</time>
      </trkpt>
      <trkpt lat="43.54191" lon="6.81521">
        <ele>214</ele>
        <time>2012-11-01T10:46:18Z</time>
      </trkpt>
      <trkpt lat="43.5419" lon="6.81526">
        <ele>214</ele>
        <time>2012-11-01T10:46:19Z</time>
      </trkpt>
      <trkpt lat="43.54189" lon="6.8153">
        <ele>215</ele>
        <time>2012-11-01T10:46:20Z</time>
      </trkpt>
      <trkpt lat="43.54188" lon="6.81535">
        <ele>215</ele>
        <time>2012-11-01T10:46:21Z</time>
      </trkpt>
      <trkpt lat="43.54187" lon="6.8154">
        <ele>215</ele>
        <time>2012-11-01T10:46:22Z</time>
      </trkpt>
      <trkpt lat="43.54186" lon="6.81545">
        <ele>216</ele>
        <time>2012-11-01T10:46:23Z</time>
      </trkpt>
      <trkpt lat="43.54185" lon="6.8155">
        <ele>216</ele>
        <time>2012-11-01T10:46:24Z</time>
      </trkpt>
      <trkpt lat="43.54184" lon="6.81555">
        <ele>216</ele>
        <time>2012-11-01T10:46:25Z</time>
      </trkpt>
      <trkpt lat="43.54183" lon="6.81561">
        <ele>216</ele>
        <time>2012-11-01T10:46:26Z</time>
      </trkpt>
      <trkpt lat="43.54182" lon="6.81566">
        <ele>217</ele>
        <time>2012-11-01T10:46:27Z</time>
      </trkpt>
      <trkpt lat="43.54181" lon="6.81572">
        <ele>217</ele>
        <time>2012-11-01T10:46:28Z</time>
      </trkpt>
      <trkpt lat="43.5418" lon="6.81578">
        <ele>217</ele>
        <time>2012-11-01T10:46:29Z</time>
      </trkpt>
      <trkpt lat="43.54179" lon="6.81584">
        <ele>217</ele>
        <time>2012-11-01T10:46:30Z</time>
      </trkpt>
      <trkpt lat="43.54178" lon="6.8159">
        <ele>217</ele>
        <time>2012-11-01T10:46:31Z</time>
      </trkpt>
      <trkpt lat="43.54177" lon="6.81597">
        <ele>217</ele>
        <time>2012-11-01T10:46:32Z</time>
      </trkpt>
      <trkpt lat="43.54176" lon="6.81603">
        <ele>217</ele>
        <time>2012-11-01T10:46:33Z</time>
      </trkpt>
      <trkpt lat="43.54175" lon="6.8161">
        <ele>217</ele>
        <time>2012-11-01T10:46:34Z</time>
      </trkpt>
      <trkpt lat="43.54173" lon="6.81616">
        <ele>218</ele>
        <time>2012-11-01T10:46:35Z</time>
      </trkpt>
      <trkpt lat="43.54171" lon="6.81623">
        <ele>218</ele>
        <time>2012-11-01T10:46:36Z</time>
      </trkpt>
      <trkpt lat="43.54169" lon="6.8163">
        <ele>218</ele>
        <time>2012-11-01T10:46:37Z</time>
      </trkpt>
      <trkpt lat="43.54166" lon="6.81636">
        <ele>218</ele>
        <time>2012-11-01T10:46:38Z</time>
      </trkpt>
      <trkpt lat="43.54163" lon="6.81641">
        <ele>218</ele>
        <time>2012-11-01T10:46:39Z</time>
      </trkpt>
      <trkpt lat="43.54159" lon="6.81647">
        <ele>218</ele>
        <time>2012-11-01T10:46:40Z</time>
      </trkpt>
      <trkpt lat="43.54155" lon="6.81652">
        <ele>218</ele>
        <time>2012-11-01T10:46:41Z</time>
      </trkpt>
      <trkpt lat="43.5415" lon="6.81657">
        <ele>218</ele>
        <time>2012-11-01T10:46:42Z</time>
      </trkpt>
      <trkpt lat="43.54146" lon="6.81662">
        <ele>218</ele>
        <time>2012-11-01T10:46:43Z</time>
      </trkpt>
      <trkpt lat="43.54142" lon="6.81667">
        <ele>218</ele>
        <time>2012-11-01T10:46:44Z</time>
      </trkpt>
      <trkpt lat="43.54137" lon="6.81671">
        <ele>218</ele>
        <time>2012-11-01T10:46:45Z</time>
      </trkpt>
      <trkpt lat="43.54133" lon="6.81674">
        <ele>218</ele>
        <time>2012-11-01T10:46:46Z</time>
      </trkpt>
      <trkpt lat="43.54128" lon="6.81678">
        <ele>218</ele>
        <time>2012-11-01T10:46:47Z</time>
      </trkpt>
      <trkpt lat="43.54124" lon="6.81682">
        <ele>218</ele>
        <time>2012-11-01T10:46:48Z</time>
      </trkpt>
      <trkpt lat="43.54119" lon="6.81685">
        <ele>218</ele>
        <time>2012-11-01T10:46:49Z</time>
      </trkpt>
      <trkpt lat="43.54115" lon="6.81688">
        <ele>218</ele>
        <time>2012-11-01T10:46:50Z</time>
      </trkpt>
      <trkpt lat="43.54111" lon="6.81691">
        <ele>218</ele>
        <time>2012-11-01T10:46:51Z</time>
      </trkpt>
      <trkpt lat="43.54107" lon="6.81694">
        <ele>218</ele>
        <time>2012-11-01T10:46:52Z</time>
      </trkpt>
      <trkpt lat="43.54103" lon="6.81697">
        <ele>218</ele>
        <time>2012-11-01T10:46:54Z</time>
      </trkpt>
      <trkpt lat="43.54099" lon="6.81698">
        <ele>218</ele>
        <time>2012-11-01T10:46:54Z</time>
      </trkpt>
      <trkpt lat="43.54095" lon="6.81698">
        <ele>218</ele>
        <time>2012-11-01T10:46:55Z</time>
      </trkpt>
      <trkpt lat="43.54092" lon="6.81699">
        <ele>218</ele>
        <time>2012-11-01T10:46:57Z</time>
      </trkpt>
      <trkpt lat="43.54089" lon="6.81698">
        <ele>218</ele>
        <time>2012-11-01T10:46:58Z</time>
      </trkpt>
      <trkpt lat="43.54086" lon="6.81698">
        <ele>219</ele>
        <time>2012-11-01T10:46:58Z</time>
      </trkpt>
      <trkpt lat="43.54083" lon="6.81696">
        <ele>219</ele>
        <time>2012-11-01T10:46:59Z</time>
      </trkpt>
      <trkpt lat="43.5408" lon="6.81694">
        <ele>219</ele>
        <time>2012-11-01T10:47:00Z</time>
      </trkpt>
      <trkpt lat="43.54077" lon="6.81693">
        <ele>219</ele>
        <time>2012-11-01T10:47:01Z</time>
      </trkpt>
      <trkpt lat="43.54074" lon="6.81691">
        <ele>219</ele>
        <time>2012-11-01T10:47:02Z</time>
      </trkpt>
      <trkpt lat="43.54071" lon="6.81688">
        <ele>219</ele>
        <time>2012-11-01T10:47:03Z</time>
      </trkpt>
      <trkpt lat="43.54068" lon="6.81686">
        <ele>219</ele>
        <time>2012-11-01T10:47:04Z</time>
      </trkpt>
      <trkpt lat="43.54066" lon="6.81685">
        <ele>220</ele>
        <time>2012-11-01T10:47:05Z</time>
      </trkpt>
      <trkpt lat="43.54063" lon="6.81683">
        <ele>220</ele>
        <time>2012-11-01T10:47:06Z</time>
      </trkpt>
      <trkpt lat="43.5406" lon="6.81681">
        <ele>220</ele>
        <time>2012-11-01T10:47:07Z</time>
      </trkpt>
      <trkpt lat="43.54057" lon="6.8168">
        <ele>220</ele>
        <time>2012-11-01T10:47:08Z</time>
      </trkpt>
      <trkpt lat="43.54054" lon="6.81679">
        <ele>220</ele>
        <time>2012-11-01T10:47:09Z</time>
      </trkpt>
      <trkpt lat="43.54051" lon="6.81679">
        <ele>221</ele>
        <time>2012-11-01T10:47:10Z</time>
      </trkpt>
      <trkpt lat="43.54048" lon="6.81678">
        <ele>221</ele>
        <time>2012-11-01T10:47:11Z</time>
      </trkpt>
      <trkpt lat="43.54045" lon="6.81678">
        <ele>221</ele>
        <time>2012-11-01T10:47:12Z</time>
      </trkpt>
      <trkpt lat="43.54042" lon="6.81677">
        <ele>221</ele>
        <time>2012-11-01T10:47:13Z</time>
      </trkpt>
      <trkpt lat="43.54038" lon="6.81677">
        <ele>221</ele>
        <time>2012-11-01T10:47:14Z</time>
      </trkpt>
      <trkpt lat="43.54035" lon="6.81676">
        <ele>222</ele>
        <time>2012-11-01T10:47:15Z</time>
      </trkpt>
      <trkpt lat="43.54032" lon="6.81675">
        <ele>222</ele>
        <time>2012-11-01T10:47:16Z</time>
      </trkpt>
      <trkpt lat="43.54029" lon="6.81673">
        <ele>222</ele>
        <time>2012-11-01T10:47:18Z</time>
      </trkpt>
      <trkpt lat="43.54027" lon="6.81671">
        <ele>222</ele>
        <time>2012-11-01T10:47:18Z</time>
      </trkpt>
      <trkpt lat="43.54024" lon="6.81669">
        <ele>223</ele>
        <time>2012-11-01T10:47:19Z</time>
      </trkpt>
      <trkpt lat="43.54022" lon="6.81667">
        <ele>223</ele>
        <time>2012-11-01T10:47:20Z</time>
      </trkpt>
      <trkpt lat="43.5402" lon="6.81663">
        <ele>224</ele>
        <time>2012-11-01T10:47:21Z</time>
      </trkpt>
      <trkpt lat="43.54019" lon="6.8166">
        <ele>224</ele>
        <time>2012-11-01T10:47:22Z</time>
      </trkpt>
      <trkpt lat="43.54017" lon="6.81655">
        <ele>225</ele>
        <time>2012-11-01T10:47:23Z</time>
      </trkpt>
      <trkpt lat="43.54016" lon="6.81651">
        <ele>225</ele>
        <time>2012-11-01T10:47:24Z</time>
      </trkpt>
      <trkpt lat="43.54015" lon="6.81646">
        <ele>225</ele>
        <time>2012-11-01T10:47:25Z</time>
      </trkpt>
      <trkpt lat="43.54014" lon="6.81642">
        <ele>226</ele>
        <time>2012-11-01T10:47:26Z</time>
      </trkpt>
      <trkpt lat="43.54013" lon="6.81637">
        <ele>226</ele>
        <time>2012-11-01T10:47:27Z</time>
      </trkpt>
      <trkpt lat="43.54013" lon="6.81633">
        <ele>226</ele>
        <time>2012-11-01T10:47:28Z</time>
      </trkpt>
      <trkpt lat="43.54012" lon="6.81628">
        <ele>226</ele>
        <time>2012-11-01T10:47:29Z</time>
      </trkpt>
      <trkpt lat="43.54011" lon="6.81624">
        <ele>226</ele>
        <time>2012-11-01T10:47:30Z</time>
      </trkpt>
      <trkpt lat="43.54011" lon="6.81619">
        <ele>227</ele>
        <time>2012-11-01T10:47:31Z</time>
      </trkpt>
      <trkpt lat="43.5401" lon="6.81615">
        <ele>227</ele>
        <time>2012-11-01T10:47:32Z</time>
      </trkpt>
      <trkpt lat="43.5401" lon="6.81611">
        <ele>227</ele>
        <time>2012-11-01T10:47:33Z</time>
      </trkpt>
      <trkpt lat="43.54009" lon="6.81607">
        <ele>227</ele>
        <time>2012-11-01T10:47:34Z</time>
      </trkpt>
      <trkpt lat="43.54008" lon="6.81603">
        <ele>228</ele>
        <time>2012-11-01T10:47:35Z</time>
      </trkpt>
      <trkpt lat="43.54007" lon="6.81599">
        <ele>228</ele>
        <time>2012-11-01T10:47:36Z</time>
      </trkpt>
      <trkpt lat="43.54006" lon="6.81595">
        <ele>228</ele>
        <time>2012-11-01T10:47:37Z</time>
      </trkpt>
      <trkpt lat="43.54006" lon="6.81591">
        <ele>228</ele>
        <time>2012-11-01T10:47:38Z</time>
      </trkpt>
      <trkpt lat="43.54005" lon="6.81587">
        <ele>229</ele>
        <time>2012-11-01T10:47:39Z</time>
      </trkpt>
      <trkpt lat="43.54005" lon="6.81583">
        <ele>229</ele>
        <time>2012-11-01T10:47:40Z</time>
      </trkpt>
      <trkpt lat="43.54004" lon="6.81579">
        <ele>229</ele>
        <time>2012-11-01T10:47:41Z</time>
      </trkpt>
      <trkpt lat="43.54003" lon="6.81575">
        <ele>229</ele>
        <time>2012-11-01T10:47:42Z</time>
      </trkpt>
      <trkpt lat="43.54003" lon="6.81572">
        <ele>230</ele>
        <time>2012-11-01T10:47:43Z</time>
      </trkpt>
      <trkpt lat="43.54002" lon="6.81568">
        <ele>230</ele>
        <time>2012-11-01T10:47:44Z</time>
      </trkpt>
      <trkpt lat="43.54002" lon="6.81564">
        <ele>231</ele>
        <time>2012-11-01T10:47:45Z</time>
      </trkpt>
      <trkpt lat="43.54002" lon="6.81561">
        <ele>231</ele>
        <time>2012-11-01T10:47:46Z</time>
      </trkpt>
      <trkpt lat="43.54" lon="6.81558">
        <ele>232</ele>
        <time>2012-11-01T10:47:47Z</time>
      </trkpt>
      <trkpt lat="43.53999" lon="6.81555">
        <ele>232</ele>
        <time>2012-11-01T10:47:48Z</time>
      </trkpt>
      <trkpt lat="43.53997" lon="6.81553">
        <ele>232</ele>
        <time>2012-11-01T10:47:49Z</time>
      </trkpt>
      <trkpt lat="43.53994" lon="6.81552">
        <ele>232</ele>
        <time>2012-11-01T10:47:50Z</time>
      </trkpt>
      <trkpt lat="43.53992" lon="6.81553">
        <ele>233</ele>
        <time>2012-11-01T10:47:51Z</time>
      </trkpt>
      <trkpt lat="43.53989" lon="6.81555">
        <ele>233</ele>
        <time>2012-11-01T10:47:52Z</time>
      </trkpt>
      <trkpt lat="43.53987" lon="6.81558">
        <ele>233</ele>
        <time>2012-11-01T10:47:54Z</time>
      </trkpt>
      <trkpt lat="43.53986" lon="6.81562">
        <ele>234</ele>
        <time>2012-11-01T10:47:54Z</time>
      </trkpt>
      <trkpt lat="43.53985" lon="6.81566">
        <ele>234</ele>
        <time>2012-11-01T10:47:55Z</time>
      </trkpt>
      <trkpt lat="43.53985" lon="6.8157">
        <ele>234</ele>
        <time>2012-11-01T10:47:56Z</time>
      </trkpt>
      <trkpt lat="43.53984" lon="6.81575">
        <ele>235</ele>
        <time>2012-11-01T10:47:57Z</time>
      </trkpt>
      <trkpt lat="43.53984" lon="6.81579">
        <ele>235</ele>
        <time>2012-11-01T10:47:58Z</time>
      </trkpt>
      <trkpt lat="43.53984" lon="6.81583">
        <ele>235</ele>
        <time>2012-11-01T10:47:59Z</time>
      </trkpt>
      <trkpt lat="43.53984" lon="6.81588">
        <ele>236</ele>
        <time>2012-11-01T10:48:00Z</time>
      </trkpt>
      <trkpt lat="43.53983" lon="6.81592">
        <ele>236</ele>
        <time>2012-11-01T10:48:01Z</time>
      </trkpt>
      <trkpt lat="43.53983" lon="6.81596">
        <ele>236</ele>
        <time>2012-11-01T10:48:02Z</time>
      </trkpt>
      <trkpt lat="43.53981" lon="6.816">
        <ele>237</ele>
        <time>2012-11-01T10:48:03Z</time>
      </trkpt>
      <trkpt lat="43.5398" lon="6.81603">
        <ele>237</ele>
        <time>2012-11-01T10:48:04Z</time>
      </trkpt>
      <trkpt lat="43.53979" lon="6.81607">
        <ele>238</ele>
        <time>2012-11-01T10:48:05Z</time>
      </trkpt>
      <trkpt lat="43.53978" lon="6.8161">
        <ele>238</ele>
        <time>2012-11-01T10:48:06Z</time>
      </trkpt>
      <trkpt lat="43.53976" lon="6.81614">
        <ele>239</ele>
        <time>2012-11-01T10:48:07Z</time>
      </trkpt>
      <trkpt lat="43.53975" lon="6.81617">
        <ele>239</ele>
        <time>2012-11-01T10:48:08Z</time>
      </trkpt>
      <trkpt lat="43.53973" lon="6.81621">
        <ele>240</ele>
        <time>2012-11-01T10:48:09Z</time>
      </trkpt>
      <trkpt lat="43.53971" lon="6.81624">
        <ele>240</ele>
        <time>2012-11-01T10:48:10Z</time>
      </trkpt>
      <trkpt lat="43.5397" lon="6.81627">
        <ele>240</ele>
        <time>2012-11-01T10:48:11Z</time>
      </trkpt>
      <trkpt lat="43.53968" lon="6.8163">
        <ele>241</ele>
        <time>2012-11-01T10:48:12Z</time>
      </trkpt>
      <trkpt lat="43.53967" lon="6.81633">
        <ele>241</ele>
        <time>2012-11-01T10:48:13Z</time>
      </trkpt>
      <trkpt lat="43.53965" lon="6.81636">
        <ele>241</ele>
        <time>2012-11-01T10:48:14Z</time>
      </trkpt>
      <trkpt lat="43.53964" lon="6.81639">
        <ele>241</ele>
        <time>2012-11-01T10:48:15Z</time>
      </trkpt>
      <trkpt lat="43.53963" lon="6.81642">
        <ele>242</ele>
        <time>2012-11-01T10:48:16Z</time>
      </trkpt>
      <trkpt lat="43.53962" lon="6.81646">
        <ele>242</ele>
        <time>2012-11-01T10:48:17Z</time>
      </trkpt>
      <trkpt lat="43.53961" lon="6.81649">
        <ele>242</ele>
        <time>2012-11-01T10:48:18Z</time>
      </trkpt>
      <trkpt lat="43.5396" lon="6.81653">
        <ele>242</ele>
        <time>2012-11-01T10:48:19Z</time>
      </trkpt>
      <trkpt lat="43.53959" lon="6.81657">
        <ele>242</ele>
        <time>2012-11-01T10:48:20Z</time>
      </trkpt>
      <trkpt lat="43.53958" lon="6.8166">
        <ele>242</ele>
        <time>2012-11-01T10:48:21Z</time>
      </trkpt>
      <trkpt lat="43.53956" lon="6.81664">
        <ele>242</ele>
        <time>2012-11-01T10:48:22Z</time>
      </trkpt>
      <trkpt lat="43.53955" lon="6.81668">
        <ele>242</ele>
        <time>2012-11-01T10:48:23Z</time>
      </trkpt>
      <trkpt lat="43.53954" lon="6.81671">
        <ele>242</ele>
        <time>2012-11-01T10:48:24Z</time>
      </trkpt>
      <trkpt lat="43.53954" lon="6.81676">
        <ele>242</ele>
        <time>2012-11-01T10:48:25Z</time>
      </trkpt>
      <trkpt lat="43.53953" lon="6.8168">
        <ele>242</ele>
        <time>2012-11-01T10:48:26Z</time>
      </trkpt>
      <trkpt lat="43.53952" lon="6.81684">
        <ele>243</ele>
        <time>2012-11-01T10:48:27Z</time>
      </trkpt>
      <trkpt lat="43.5395" lon="6.81687">
        <ele>243</ele>
        <time>2012-11-01T10:48:28Z</time>
      </trkpt>
      <trkpt lat="43.53949" lon="6.81691">
        <ele>243</ele>
        <time>2012-11-01T10:48:29Z</time>
      </trkpt>
      <trkpt lat="43.53948" lon="6.81694">
        <ele>243</ele>
        <time>2012-11-01T10:48:30Z</time>
      </trkpt>
      <trkpt lat="43.53946" lon="6.81698">
        <ele>243</ele>
        <time>2012-11-01T10:48:31Z</time>
      </trkpt>
      <trkpt lat="43.53944" lon="6.81701">
        <ele>244</ele>
        <time>2012-11-01T10:48:32Z</time>
      </trkpt>
      <trkpt lat="43.53942" lon="6.81705">
        <ele>244</ele>
        <time>2012-11-01T10:48:33Z</time>
      </trkpt>
      <trkpt lat="43.53941" lon="6.81707">
        <ele>244</ele>
        <time>2012-11-01T10:48:34Z</time>
      </trkpt>
      <trkpt lat="43.53939" lon="6.8171">
        <ele>244</ele>
        <time>2012-11-01T10:48:35Z</time>
      </trkpt>
      <trkpt lat="43.53936" lon="6.81711">
        <ele>245</ele>
        <time>2012-11-01T10:48:36Z</time>
      </trkpt>
      <trkpt lat="43.53934" lon="6.81712">
        <ele>245</ele>
        <time>2012-11-01T10:48:37Z</time>
      </trkpt>
      <trkpt lat="43.53931" lon="6.81713">
        <ele>246</ele>
        <time>2012-11-01T10:48:38Z</time>
      </trkpt>
      <trkpt lat="43.53929" lon="6.81712">
        <ele>246</ele>
        <time>2012-11-01T10:48:39Z</time>
      </trkpt>
      <trkpt lat="43.53927" lon="6.81711">
        <ele>246</ele>
        <time>2012-11-01T10:48:40Z</time>
      </trkpt>
      <trkpt lat="43.53925" lon="6.81709">
        <ele>247</ele>
        <time>2012-11-01T10:48:41Z</time>
      </trkpt>
      <trkpt lat="43.53923" lon="6.81706">
        <ele>247</ele>
        <time>2012-11-01T10:48:42Z</time>
      </trkpt>
      <trkpt lat="43.53922" lon="6.81704">
        <ele>247</ele>
        <time>2012-11-01T10:48:43Z</time>
      </trkpt>
      <trkpt lat="43.53921" lon="6.817">
        <ele>248</ele>
        <time>2012-11-01T10:48:44Z</time>
      </trkpt>
      <trkpt lat="43.5392" lon="6.81697">
        <ele>248</ele>
        <time>2012-11-01T10:48:45Z</time>
      </trkpt>
      <trkpt lat="43.53919" lon="6.81694">
        <ele>248</ele>
        <time>2012-11-01T10:48:46Z</time>
      </trkpt>
      <trkpt lat="43.53918" lon="6.8169">
        <ele>249</ele>
        <time>2012-11-01T10:48:47Z</time>
      </trkpt>
      <trkpt lat="43.53917" lon="6.81687">
        <ele>249</ele>
        <time>2012-11-01T10:48:48Z</time>
      </trkpt>
      <trkpt lat="43.53916" lon="6.81683">
        <ele>249</ele>
        <time>2012-11-01T10:48:49Z</time>
      </trkpt>
      <trkpt lat="43.53915" lon="6.81679">
        <ele>249</ele>
        <time>2012-11-01T10:48:50Z</time>
      </trkpt>
      <trkpt lat="43.53913" lon="6.81676">
        <ele>250</ele>
        <time>2012-11-01T10:48:51Z</time>
      </trkpt>
      <trkpt lat="43.53912" lon="6.81672">
        <ele>250</ele>
        <time>2012-11-01T10:48:52Z</time>
      </trkpt>
      <trkpt lat="43.5391" lon="6.81669">
        <ele>250</ele>
        <time>2012-11-01T10:48:54Z</time>
      </trkpt>
      <trkpt lat="43.53908" lon="6.81666">
        <ele>250</ele>
        <time>2012-11-01T10:48:54Z</time>
      </trkpt>
      <trkpt lat="43.53906" lon="6.81663">
        <ele>250</ele>
        <time>2012-11-01T10:48:56Z</time>
      </trkpt>
      <trkpt lat="43.53904" lon="6.81661">
        <ele>251</ele>
        <time>2012-11-01T10:48:57Z</time>
      </trkpt>
      <trkpt lat="43.53901" lon="6.81659">
        <ele>251</ele>
        <time>2012-11-01T10:48:57Z</time>
      </trkpt>
      <trkpt lat="43.53898" lon="6.81658">
        <ele>252</ele>
        <time>2012-11-01T10:48:58Z</time>
      </trkpt>
      <trkpt lat="43.53895" lon="6.81658">
        <ele>252</ele>
        <time>2012-11-01T10:49:00Z</time>
      </trkpt>
      <trkpt lat="43.53892" lon="6.81659">
        <ele>252</ele>
        <time>2012-11-01T10:49:01Z</time>
      </trkpt>
      <trkpt lat="43.53889" lon="6.8166">
        <ele>252</ele>
        <time>2012-11-01T10:49:02Z</time>
      </trkpt>
      <trkpt lat="43.53886" lon="6.81662">
        <ele>253</ele>
        <time>2012-11-01T10:49:02Z</time>
      </trkpt>
      <trkpt lat="43.53884" lon="6.81664">
        <ele>253</ele>
        <time>2012-11-01T10:49:03Z</time>
      </trkpt>
      <trkpt lat="43.53881" lon="6.81667">
        <ele>253</ele>
        <time>2012-11-01T10:49:04Z</time>
      </trkpt>
      <trkpt lat="43.53879" lon="6.8167">
        <ele>253</ele>
        <time>2012-11-01T10:49:06Z</time>
      </trkpt>
      <trkpt lat="43.53877" lon="6.81673">
        <ele>254</ele>
        <time>2012-11-01T10:49:06Z</time>
      </trkpt>
      <trkpt lat="43.53875" lon="6.81676">
        <ele>254</ele>
        <time>2012-11-01T10:49:07Z</time>
      </trkpt>
      <trkpt lat="43.53873" lon="6.8168">
        <ele>254</ele>
        <time>2012-11-01T10:49:09Z</time>
      </trkpt>
      <trkpt lat="43.53872" lon="6.81684">
        <ele>254</ele>
        <time>2012-11-01T10:49:09Z</time>
      </trkpt>
      <trkpt lat="43.5387" lon="6.81688">
        <ele>254</ele>
        <time>2012-11-01T10:49:10Z</time>
      </trkpt>
      <trkpt lat="43.53868" lon="6.81692">
        <ele>255</ele>
        <time>2012-11-01T10:49:11Z</time>
      </trkpt>
      <trkpt lat="43.53866" lon="6.81696">
        <ele>255</ele>
        <time>2012-11-01T10:49:12Z</time>
      </trkpt>
      <trkpt lat="43.53864" lon="6.817">
        <ele>255</ele>
        <time>2012-11-01T10:49:13Z</time>
      </trkpt>
      <trkpt lat="43.53862" lon="6.81703">
        <ele>255</ele>
        <time>2012-11-01T10:49:14Z</time>
      </trkpt>
      <trkpt lat="43.5386" lon="6.81707">
        <ele>256</ele>
        <time>2012-11-01T10:49:15Z</time>
      </trkpt>
      <trkpt lat="43.53859" lon="6.8171">
        <ele>256</ele>
        <time>2012-11-01T10:49:16Z</time>
      </trkpt>
      <trkpt lat="43.53857" lon="6.81713">
        <ele>256</ele>
        <time>2012-11-01T10:49:17Z</time>
      </trkpt>
      <trkpt lat="43.53855" lon="6.81716">
        <ele>256</ele>
        <time>2012-11-01T10:49:18Z</time>
      </trkpt>
      <trkpt lat="43.53853" lon="6.81719">
        <ele>256</ele>
        <time>2012-11-01T10:49:19Z</time>
      </trkpt>
      <trkpt lat="43.53851" lon="6.81722">
        <ele>256</ele>
        <time>2012-11-01T10:49:20Z</time>
      </trkpt>
      <trkpt lat="43.53849" lon="6.81724">
        <ele>256</ele>
        <time>2012-11-01T10:49:21Z</time>
      </trkpt>
      <trkpt lat="43.53846" lon="6.81725">
        <ele>256</ele>
        <time>2012-11-01T10:49:22Z</time>
      </trkpt>
      <trkpt lat="43.53843" lon="6.81727">
        <ele>256</ele>
        <time>2012-11-01T10:49:23Z</time>
      </trkpt>
      <trkpt lat="43.5384" lon="6.81728">
        <ele>256</ele>
        <time>2012-11-01T10:49:24Z</time>
      </trkpt>
      <trkpt lat="43.53837" lon="6.81729">
        <ele>256</ele>
        <time>2012-11-01T10:49:25Z</time>
      </trkpt>
      <trkpt lat="43.53835" lon="6.81731">
        <ele>256</ele>
        <time>2012-11-01T10:49:26Z</time>
      </trkpt>
      <trkpt lat="43.53832" lon="6.81732">
        <ele>256</ele>
        <time>2012-11-01T10:49:27Z</time>
      </trkpt>
      <trkpt lat="43.53829" lon="6.81733">
        <ele>257</ele>
        <time>2012-11-01T10:49:28Z</time>
      </trkpt>
      <trkpt lat="43.53826" lon="6.81734">
        <ele>257</ele>
        <time>2012-11-01T10:49:29Z</time>
      </trkpt>
      <trkpt lat="43.53823" lon="6.81734">
        <ele>257</ele>
        <time>2012-11-01T10:49:30Z</time>
      </trkpt>
      <trkpt lat="43.53821" lon="6.81735">
        <ele>258</ele>
        <time>2012-11-01T10:49:31Z</time>
      </trkpt>
      <trkpt lat="43.53818" lon="6.81736">
        <ele>258</ele>
        <time>2012-11-01T10:49:32Z</time>
      </trkpt>
      <trkpt lat="43.53815" lon="6.81737">
        <ele>258</ele>
        <time>2012-11-01T10:49:33Z</time>
      </trkpt>
      <trkpt lat="43.53812" lon="6.81738">
        <ele>258</ele>
        <time>2012-11-01T10:49:34Z</time>
      </trkpt>
      <trkpt lat="43.53809" lon="6.81738">
        <ele>259</ele>
        <time>2012-11-01T10:49:35Z</time>
      </trkpt>
      <trkpt lat="43.53807" lon="6.81738">
        <ele>259</ele>
        <time>2012-11-01T10:49:36Z</time>
      </trkpt>
      <trkpt lat="43.53804" lon="6.81738">
        <ele>259</ele>
        <time>2012-11-01T10:49:37Z</time>
      </trkpt>
      <trkpt lat="43.53802" lon="6.81738">
        <ele>259</ele>
        <time>2012-11-01T10:49:38Z</time>
      </trkpt>
      <trkpt lat="43.53799" lon="6.81738">
        <ele>260</ele>
        <time>2012-11-01T10:49:39Z</time>
      </trkpt>
      <trkpt lat="43.53796" lon="6.81738">
        <ele>260</ele>
        <time>2012-11-01T10:49:40Z</time>
      </trkpt>
      <trkpt lat="43.53793" lon="6.81737">
        <ele>260</ele>
        <time>2012-11-01T10:49:41Z</time>
      </trkpt>
      <trkpt lat="43.53791" lon="6.81736">
        <ele>260</ele>
        <time>2012-11-01T10:49:42Z</time>
      </trkpt>
      <trkpt lat="43.53788" lon="6.81735">
        <ele>260</ele>
        <time>2012-11-01T10:49:43Z</time>
      </trkpt>
      <trkpt lat="43.53786" lon="6.81733">
        <ele>260</ele>
        <time>2012-11-01T10:49:44Z</time>
      </trkpt>
      <trkpt lat="43.53784" lon="6.81732">
        <ele>260</ele>
        <time>2012-11-01T10:49:45Z</time>
      </trkpt>
      <trkpt lat="43.53782" lon="6.8173">
        <ele>260</ele>
        <time>2012-11-01T10:49:46Z</time>
      </trkpt>
      <trkpt lat="43.53779" lon="6.81729">
        <ele>260</ele>
        <time>2012-11-01T10:49:47Z</time>
      </trkpt>
      <trkpt lat="43.53777" lon="6.81727">
        <ele>260</ele>
        <time>2012-11-01T10:49:48Z</time>
      </trkpt>
      <trkpt lat="43.53775" lon="6.81726">
        <ele>261</ele>
        <time>2012-11-01T10:49:49Z</time>
      </trkpt>
      <trkpt lat="43.53772" lon="6.81726">
        <ele>261</ele>
        <time>2012-11-01T10:49:50Z</time>
      </trkpt>
      <trkpt lat="43.5377" lon="6.81725">
        <ele>262</ele>
        <time>2012-11-01T10:49:51Z</time>
      </trkpt>
      <trkpt lat="43.53767" lon="6.81724">
        <ele>262</ele>
        <time>2012-11-01T10:49:52Z</time>
      </trkpt>
      <trkpt lat="43.53764" lon="6.81724">
        <ele>262</ele>
        <time>2012-11-01T10:49:53Z</time>
      </trkpt>
      <trkpt lat="43.53761" lon="6.81724">
        <ele>263</ele>
        <time>2012-11-01T10:49:54Z</time>
      </trkpt>
      <trkpt lat="43.53758" lon="6.81724">
        <ele>263</ele>
        <time>2012-11-01T10:49:55Z</time>
      </trkpt>
      <trkpt lat="43.53755" lon="6.81724">
        <ele>263</ele>
        <time>2012-11-01T10:49:56Z</time>
      </trkpt>
      <trkpt lat="43.53752" lon="6.81724">
        <ele>263</ele>
        <time>2012-11-01T10:49:57Z</time>
      </trkpt>
      <trkpt lat="43.53749" lon="6.81725">
        <ele>263</ele>
        <time>2012-11-01T10:49:58Z</time>
      </trkpt>
      <trkpt lat="43.53747" lon="6.81726">
        <ele>263</ele>
        <time>2012-11-01T10:49:59Z</time>
      </trkpt>
      <trkpt lat="43.53744" lon="6.81726">
        <ele>263</ele>
        <time>2012-11-01T10:50:00Z</time>
      </trkpt>
      <trkpt lat="43.53741" lon="6.81726">
        <ele>263</ele>
        <time>2012-11-01T10:50:01Z</time>
      </trkpt>
      <trkpt lat="43.53738" lon="6.81727">
        <ele>263</ele>
        <time>2012-11-01T10:50:02Z</time>
      </trkpt>
      <trkpt lat="43.53735" lon="6.81727">
        <ele>263</ele>
        <time>2012-11-01T10:50:03Z</time>
      </trkpt>
      <trkpt lat="43.53733" lon="6.81728">
        <ele>263</ele>
        <time>2012-11-01T10:50:04Z</time>
      </trkpt>
      <trkpt lat="43.5373" lon="6.81729">
        <ele>264</ele>
        <time>2012-11-01T10:50:05Z</time>
      </trkpt>
      <trkpt lat="43.53727" lon="6.81729">
        <ele>264</ele>
        <time>2012-11-01T10:50:06Z</time>
      </trkpt>
      <trkpt lat="43.53724" lon="6.8173">
        <ele>264</ele>
        <time>2012-11-01T10:50:07Z</time>
      </trkpt>
      <trkpt lat="43.53721" lon="6.81731">
        <ele>265</ele>
        <time>2012-11-01T10:50:08Z</time>
      </trkpt>
      <trkpt lat="43.53719" lon="6.81731">
        <ele>265</ele>
        <time>2012-11-01T10:50:09Z</time>
      </trkpt>
      <trkpt lat="43.53716" lon="6.81732">
        <ele>265</ele>
        <time>2012-11-01T10:50:10Z</time>
      </trkpt>
      <trkpt lat="43.53714" lon="6.81732">
        <ele>266</ele>
        <time>2012-11-01T10:50:11Z</time>
      </trkpt>
      <trkpt lat="43.53711" lon="6.81733">
        <ele>266</ele>
        <time>2012-11-01T10:50:12Z</time>
      </trkpt>
      <trkpt lat="43.53708" lon="6.81734">
        <ele>266</ele>
        <time>2012-11-01T10:50:13Z</time>
      </trkpt>
      <trkpt lat="43.53705" lon="6.81735">
        <ele>266</ele>
        <time>2012-11-01T10:50:14Z</time>
      </trkpt>
      <trkpt lat="43.53703" lon="6.81736">
        <ele>267</ele>
        <time>2012-11-01T10:50:15Z</time>
      </trkpt>
      <trkpt lat="43.537" lon="6.81737">
        <ele>267</ele>
        <time>2012-11-01T10:50:16Z</time>
      </trkpt>
      <trkpt lat="43.53697" lon="6.81738">
        <ele>267</ele>
        <time>2012-11-01T10:50:17Z</time>
      </trkpt>
      <trkpt lat="43.53694" lon="6.81739">
        <ele>268</ele>
        <time>2012-11-01T10:50:18Z</time>
      </trkpt>
      <trkpt lat="43.53691" lon="6.8174">
        <ele>268</ele>
        <time>2012-11-01T10:50:19Z</time>
      </trkpt>
      <trkpt lat="43.53689" lon="6.81741">
        <ele>269</ele>
        <time>2012-11-01T10:50:20Z</time>
      </trkpt>
      <trkpt lat="43.53686" lon="6.81742">
        <ele>269</ele>
        <time>2012-11-01T10:50:21Z</time>
      </trkpt>
      <trkpt lat="43.53683" lon="6.81743">
        <ele>270</ele>
        <time>2012-11-01T10:50:22Z</time>
      </trkpt>
      <trkpt lat="43.5368" lon="6.81744">
        <ele>270</ele>
        <time>2012-11-01T10:50:23Z</time>
      </trkpt>
      <trkpt lat="43.53677" lon="6.81745">
        <ele>271</ele>
        <time>2012-11-01T10:50:24Z</time>
      </trkpt>
      <trkpt lat="43.53674" lon="6.81746">
        <ele>271</ele>
        <time>2012-11-01T10:50:25Z</time>
      </trkpt>
      <trkpt lat="43.53672" lon="6.81747">
        <ele>272</ele>
        <time>2012-11-01T10:50:26Z</time>
      </trkpt>
      <trkpt lat="43.53669" lon="6.81748">
        <ele>272</ele>
        <time>2012-11-01T10:50:27Z</time>
      </trkpt>
      <trkpt lat="43.53666" lon="6.81749">
        <ele>273</ele>
        <time>2012-11-01T10:50:28Z</time>
      </trkpt>
      <trkpt lat="43.53663" lon="6.81749">
        <ele>273</ele>
        <time>2012-11-01T10:50:29Z</time>
      </trkpt>
      <trkpt lat="43.53661" lon="6.8175">
        <ele>273</ele>
        <time>2012-11-01T10:50:30Z</time>
      </trkpt>
      <trkpt lat="43.53658" lon="6.81751">
        <ele>274</ele>
        <time>2012-11-01T10:50:31Z</time>
      </trkpt>
      <trkpt lat="43.53655" lon="6.81752">
        <ele>274</ele>
        <time>2012-11-01T10:50:32Z</time>
      </trkpt>
      <trkpt lat="43.53653" lon="6.81752">
        <ele>275</ele>
        <time>2012-11-01T10:50:33Z</time>
      </trkpt>
      <trkpt lat="43.5365" lon="6.81753">
        <ele>275</ele>
        <time>2012-11-01T10:50:34Z</time>
      </trkpt>
      <trkpt lat="43.53647" lon="6.81754">
        <ele>275</ele>
        <time>2012-11-01T10:50:35Z</time>
      </trkpt>
      <trkpt lat="43.53645" lon="6.81755">
        <ele>276</ele>
        <time>2012-11-01T10:50:36Z</time>
      </trkpt>
      <trkpt lat="43.53642" lon="6.81755">
        <ele>276</ele>
        <time>2012-11-01T10:50:37Z</time>
      </trkpt>
      <trkpt lat="43.53639" lon="6.81756">
        <ele>276</ele>
        <time>2012-11-01T10:50:38Z</time>
      </trkpt>
      <trkpt lat="43.53637" lon="6.81757">
        <ele>277</ele>
        <time>2012-11-01T10:50:39Z</time>
      </trkpt>
      <trkpt lat="43.53634" lon="6.81758">
        <ele>277</ele>
        <time>2012-11-01T10:50:40Z</time>
      </trkpt>
      <trkpt lat="43.53631" lon="6.81759">
        <ele>278</ele>
        <time>2012-11-01T10:50:41Z</time>
      </trkpt>
      <trkpt lat="43.53629" lon="6.8176">
        <ele>278</ele>
        <time>2012-11-01T10:50:42Z</time>
      </trkpt>
      <trkpt lat="43.53626" lon="6.8176">
        <ele>279</ele>
        <time>2012-11-01T10:50:43Z</time>
      </trkpt>
      <trkpt lat="43.53624" lon="6.81761">
        <ele>279</ele>
        <time>2012-11-01T10:50:44Z</time>
      </trkpt>
      <trkpt lat="43.53621" lon="6.81762">
        <ele>279</ele>
        <time>2012-11-01T10:50:45Z</time>
      </trkpt>
      <trkpt lat="43.53619" lon="6.81762">
        <ele>279</ele>
        <time>2012-11-01T10:50:46Z</time>
      </trkpt>
      <trkpt lat="43.53616" lon="6.81763">
        <ele>280</ele>
        <time>2012-11-01T10:50:47Z</time>
      </trkpt>
      <trkpt lat="43.53614" lon="6.81764">
        <ele>280</ele>
        <time>2012-11-01T10:50:48Z</time>
      </trkpt>
      <trkpt lat="43.53611" lon="6.81765">
        <ele>280</ele>
        <time>2012-11-01T10:50:49Z</time>
      </trkpt>
      <trkpt lat="43.53608" lon="6.81766">
        <ele>281</ele>
        <time>2012-11-01T10:50:50Z</time>
      </trkpt>
      <trkpt lat="43.53606" lon="6.81767">
        <ele>281</ele>
        <time>2012-11-01T10:50:51Z</time>
      </trkpt>
      <trkpt lat="43.53603" lon="6.81768">
        <ele>281</ele>
        <time>2012-11-01T10:50:52Z</time>
      </trkpt>
      <trkpt lat="43.536" lon="6.81769">
        <ele>282</ele>
        <time>2012-11-01T10:50:54Z</time>
      </trkpt>
      <trkpt lat="43.53598" lon="6.8177">
        <ele>282</ele>
        <time>2012-11-01T10:50:54Z</time>
      </trkpt>
      <trkpt lat="43.53596" lon="6.81771">
        <ele>282</ele>
        <time>2012-11-01T10:50:55Z</time>
      </trkpt>
      <trkpt lat="43.53593" lon="6.81772">
        <ele>283</ele>
        <time>2012-11-01T10:50:56Z</time>
      </trkpt>
      <trkpt lat="43.53591" lon="6.81773">
        <ele>283</ele>
        <time>2012-11-01T10:50:57Z</time>
      </trkpt>
      <trkpt lat="43.53589" lon="6.81774">
        <ele>283</ele>
        <time>2012-11-01T10:50:58Z</time>
      </trkpt>
      <trkpt lat="43.53587" lon="6.81775">
        <ele>284</ele>
        <time>2012-11-01T10:50:59Z</time>
      </trkpt>
      <trkpt lat="43.53585" lon="6.81776">
        <ele>284</ele>
        <time>2012-11-01T10:51:00Z</time>
      </trkpt>
      <trkpt lat="43.53582" lon="6.81777">
        <ele>284</ele>
        <time>2012-11-01T10:51:01Z</time>
      </trkpt>
      <trkpt lat="43.53581" lon="6.81778">
        <ele>284</ele>
        <time>2012-11-01T10:51:02Z</time>
      </trkpt>
      <trkpt lat="43.53579" lon="6.8178">
        <ele>284</ele>
        <time>2012-11-01T10:51:03Z</time>
      </trkpt>
      <trkpt lat="43.53577" lon="6.81781">
        <ele>284</ele>
        <time>2012-11-01T10:51:04Z</time>
      </trkpt>
      <trkpt lat="43.53575" lon="6.81783">
        <ele>284</ele>
        <time>2012-11-01T10:51:05Z</time>
      </trkpt>
      <trkpt lat="43.53573" lon="6.81784">
        <ele>284</ele>
        <time>2012-11-01T10:51:06Z</time>
      </trkpt>
      <trkpt lat="43.53571" lon="6.81786">
        <ele>285</ele>
        <time>2012-11-01T10:51:07Z</time>
      </trkpt>
      <trkpt lat="43.5357" lon="6.81787">
        <ele>285</ele>
        <time>2012-11-01T10:51:08Z</time>
      </trkpt>
      <trkpt lat="43.53567" lon="6.81788">
        <ele>285</ele>
        <time>2012-11-01T10:51:09Z</time>
      </trkpt>
      <trkpt lat="43.53566" lon="6.8179">
        <ele>285</ele>
        <time>2012-11-01T10:51:10Z</time>
      </trkpt>
      <trkpt lat="43.53563" lon="6.81791">
        <ele>285</ele>
        <time>2012-11-01T10:51:11Z</time>
      </trkpt>
      <trkpt lat="43.53561" lon="6.81793">
        <ele>285</ele>
        <time>2012-11-01T10:51:12Z</time>
      </trkpt>
      <trkpt lat="43.53559" lon="6.81795">
        <ele>285</ele>
        <time>2012-11-01T10:51:13Z</time>
      </trkpt>
      <trkpt lat="43.53556" lon="6.81796">
        <ele>286</ele>
        <time>2012-11-01T10:51:14Z</time>
      </trkpt>
      <trkpt lat="43.53554" lon="6.81798">
        <ele>286</ele>
        <time>2012-11-01T10:51:15Z</time>
      </trkpt>
      <trkpt lat="43.53552" lon="6.818">
        <ele>287</ele>
        <time>2012-11-01T10:51:16Z</time>
      </trkpt>
      <trkpt lat="43.5355" lon="6.81803">
        <ele>288</ele>
        <time>2012-11-01T10:51:17Z</time>
      </trkpt>
      <trkpt lat="43.53548" lon="6.81805">
        <ele>288</ele>
        <time>2012-11-01T10:51:18Z</time>
      </trkpt>
      <trkpt lat="43.53545" lon="6.81807">
        <ele>289</ele>
        <time>2012-11-01T10:51:19Z</time>
      </trkpt>
      <trkpt lat="43.53543" lon="6.81809">
        <ele>289</ele>
        <time>2012-11-01T10:51:20Z</time>
      </trkpt>
      <trkpt lat="43.53541" lon="6.8181">
        <ele>290</ele>
        <time>2012-11-01T10:51:21Z</time>
      </trkpt>
      <trkpt lat="43.53539" lon="6.81812">
        <ele>290</ele>
        <time>2012-11-01T10:51:22Z</time>
      </trkpt>
      <trkpt lat="43.53537" lon="6.81813">
        <ele>291</ele>
        <time>2012-11-01T10:51:24Z</time>
      </trkpt>
      <trkpt lat="43.53534" lon="6.81815">
        <ele>291</ele>
        <time>2012-11-01T10:51:24Z</time>
      </trkpt>
      <trkpt lat="43.53532" lon="6.81817">
        <ele>292</ele>
        <time>2012-11-01T10:51:25Z</time>
      </trkpt>
      <trkpt lat="43.53531" lon="6.81819">
        <ele>292</ele>
        <time>2012-11-01T10:51:26Z</time>
      </trkpt>
      <trkpt lat="43.53529" lon="6.81821">
        <ele>292</ele>
        <time>2012-11-01T10:51:27Z</time>
      </trkpt>
      <trkpt lat="43.53526" lon="6.81823">
        <ele>293</ele>
        <time>2012-11-01T10:51:28Z</time>
      </trkpt>
      <trkpt lat="43.53524" lon="6.81824">
        <ele>293</ele>
        <time>2012-11-01T10:51:29Z</time>
      </trkpt>
      <trkpt lat="43.53522" lon="6.81826">
        <ele>294</ele>
        <time>2012-11-01T10:51:30Z</time>
      </trkpt>
      <trkpt lat="43.5352" lon="6.81829">
        <ele>294</ele>
        <time>2012-11-01T10:51:31Z</time>
      </trkpt>
      <trkpt lat="43.53518" lon="6.81831">
        <ele>295</ele>
        <time>2012-11-01T10:51:32Z</time>
      </trkpt>
      <trkpt lat="43.53515" lon="6.81833">
        <ele>295</ele>
        <time>2012-11-01T10:51:33Z</time>
      </trkpt>
      <trkpt lat="43.53513" lon="6.81834">
        <ele>295</ele>
        <time>2012-11-01T10:51:34Z</time>
      </trkpt>
      <trkpt lat="43.53511" lon="6.81836">
        <ele>296</ele>
        <time>2012-11-01T10:51:35Z</time>
      </trkpt>
      <trkpt lat="43.53508" lon="6.81838">
        <ele>296</ele>
        <time>2012-11-01T10:51:36Z</time>
      </trkpt>
      <trkpt lat="43.53506" lon="6.8184">
        <ele>296</ele>
        <time>2012-11-01T10:51:37Z</time>
      </trkpt>
      <trkpt lat="43.53504" lon="6.81842">
        <ele>297</ele>
        <time>2012-11-01T10:51:38Z</time>
      </trkpt>
      <trkpt lat="43.53502" lon="6.81845">
        <ele>297</ele>
        <time>2012-11-01T10:51:39Z</time>
      </trkpt>
      <trkpt lat="43.535" lon="6.81847">
        <ele>297</ele>
        <time>2012-11-01T10:51:40Z</time>
      </trkpt>
      <trkpt lat="43.53497" lon="6.81849">
        <ele>297</ele>
        <time>2012-11-01T10:51:41Z</time>
      </trkpt>
      <trkpt lat="43.53495" lon="6.81851">
        <ele>298</ele>
        <time>2012-11-01T10:51:42Z</time>
      </trkpt>
      <trkpt lat="43.53493" lon="6.81854">
        <ele>298</ele>
        <time>2012-11-01T10:51:43Z</time>
      </trkpt>
      <trkpt lat="43.53491" lon="6.81857">
        <ele>298</ele>
        <time>2012-11-01T10:51:44Z</time>
      </trkpt>
      <trkpt lat="43.53489" lon="6.81859">
        <ele>298</ele>
        <time>2012-11-01T10:51:45Z</time>
      </trkpt>
      <trkpt lat="43.53486" lon="6.81862">
        <ele>299</ele>
        <time>2012-11-01T10:51:46Z</time>
      </trkpt>
      <trkpt lat="43.53484" lon="6.81865">
        <ele>299</ele>
        <time>2012-11-01T10:51:47Z</time>
      </trkpt>
      <trkpt lat="43.53482" lon="6.81869">
        <ele>299</ele>
        <time>2012-11-01T10:51:48Z</time>
      </trkpt>
      <trkpt lat="43.5348" lon="6.81872">
        <ele>299</ele>
        <time>2012-11-01T10:51:49Z</time>
      </trkpt>
      <trkpt lat="43.53477" lon="6.81875">
        <ele>300</ele>
        <time>2012-11-01T10:51:50Z</time>
      </trkpt>
      <trkpt lat="43.53475" lon="6.81878">
        <ele>300</ele>
        <time>2012-11-01T10:51:51Z</time>
      </trkpt>
      <trkpt lat="43.53473" lon="6.81881">
        <ele>300</ele>
        <time>2012-11-01T10:51:52Z</time>
      </trkpt>
      <trkpt lat="43.53471" lon="6.81884">
        <ele>300</ele>
        <time>2012-11-01T10:51:53Z</time>
      </trkpt>
      <trkpt lat="43.53469" lon="6.81887">
        <ele>300</ele>
        <time>2012-11-01T10:51:54Z</time>
      </trkpt>
      <trkpt lat="43.53466" lon="6.8189">
        <ele>301</ele>
        <time>2012-11-01T10:51:55Z</time>
      </trkpt>
      <trkpt lat="43.53464" lon="6.81894">
        <ele>301</ele>
        <time>2012-11-01T10:51:56Z</time>
      </trkpt>
      <trkpt lat="43.53462" lon="6.81897">
        <ele>301</ele>
        <time>2012-11-01T10:51:57Z</time>
      </trkpt>
      <trkpt lat="43.5346" lon="6.81901">
        <ele>301</ele>
        <time>2012-11-01T10:51:58Z</time>
      </trkpt>
      <trkpt lat="43.53458" lon="6.81906">
        <ele>301</ele>
        <time>2012-11-01T10:51:59Z</time>
      </trkpt>
      <trkpt lat="43.53456" lon="6.8191">
        <ele>301</ele>
        <time>2012-11-01T10:52:00Z</time>
      </trkpt>
      <trkpt lat="43.53453" lon="6.81914">
        <ele>301</ele>
        <time>2012-11-01T10:52:01Z</time>
      </trkpt>
      <trkpt lat="43.53449" lon="6.81918">
        <ele>301</ele>
        <time>2012-11-01T10:52:02Z</time>
      </trkpt>
      <trkpt lat="43.53445" lon="6.8192">
        <ele>301</ele>
        <time>2012-11-01T10:52:03Z</time>
      </trkpt>
      <trkpt lat="43.53441" lon="6.81922">
        <ele>301</ele>
        <time>2012-11-01T10:52:04Z</time>
      </trkpt>
      <trkpt lat="43.53437" lon="6.81923">
        <ele>301</ele>
        <time>2012-11-01T10:52:05Z</time>
      </trkpt>
      <trkpt lat="43.53433" lon="6.81925">
        <ele>301</ele>
        <time>2012-11-01T10:52:06Z</time>
      </trkpt>
      <trkpt lat="43.53429" lon="6.81926">
        <ele>301</ele>
        <time>2012-11-01T10:52:07Z</time>
      </trkpt>
      <trkpt lat="43.53426" lon="6.81928">
        <ele>301</ele>
        <time>2012-11-01T10:52:08Z</time>
      </trkpt>
      <trkpt lat="43.53423" lon="6.81929">
        <ele>301</ele>
        <time>2012-11-01T10:52:09Z</time>
      </trkpt>
      <trkpt lat="43.53419" lon="6.8193">
        <ele>301</ele>
        <time>2012-11-01T10:52:10Z</time>
      </trkpt>
      <trkpt lat="43.53415" lon="6.81932">
        <ele>301</ele>
        <time>2012-11-01T10:52:11Z</time>
      </trkpt>
      <trkpt lat="43.53412" lon="6.81933">
        <ele>301</ele>
        <time>2012-11-01T10:52:12Z</time>
      </trkpt>
      <trkpt lat="43.53408" lon="6.81934">
        <ele>301</ele>
        <time>2012-11-01T10:52:13Z</time>
      </trkpt>
      <trkpt lat="43.53405" lon="6.81936">
        <ele>301</ele>
        <time>2012-11-01T10:52:14Z</time>
      </trkpt>
      <trkpt lat="43.534" lon="6.81936">
        <ele>301</ele>
        <time>2012-11-01T10:52:15Z</time>
      </trkpt>
      <trkpt lat="43.53397" lon="6.81935">
        <ele>301</ele>
        <time>2012-11-01T10:52:16Z</time>
      </trkpt>
      <trkpt lat="43.53393" lon="6.81933">
        <ele>301</ele>
        <time>2012-11-01T10:52:17Z</time>
      </trkpt>
      <trkpt lat="43.5339" lon="6.81929">
        <ele>301</ele>
        <time>2012-11-01T10:52:18Z</time>
      </trkpt>
      <trkpt lat="43.53387" lon="6.81926">
        <ele>301</ele>
        <time>2012-11-01T10:52:19Z</time>
      </trkpt>
      <trkpt lat="43.53385" lon="6.81922">
        <ele>301</ele>
        <time>2012-11-01T10:52:20Z</time>
      </trkpt>
      <trkpt lat="43.53382" lon="6.81918">
        <ele>301</ele>
        <time>2012-11-01T10:52:21Z</time>
      </trkpt>
      <trkpt lat="43.5338" lon="6.81914">
        <ele>301</ele>
        <time>2012-11-01T10:52:22Z</time>
      </trkpt>
      <trkpt lat="43.53378" lon="6.81911">
        <ele>301</ele>
        <time>2012-11-01T10:52:23Z</time>
      </trkpt>
      <trkpt lat="43.53376" lon="6.81908">
        <ele>301</ele>
        <time>2012-11-01T10:52:24Z</time>
      </trkpt>
      <trkpt lat="43.53373" lon="6.81905">
        <ele>301</ele>
        <time>2012-11-01T10:52:25Z</time>
      </trkpt>
      <trkpt lat="43.53371" lon="6.81903">
        <ele>302</ele>
        <time>2012-11-01T10:52:26Z</time>
      </trkpt>
      <trkpt lat="43.53368" lon="6.81901">
        <ele>302</ele>
        <time>2012-11-01T10:52:27Z</time>
      </trkpt>
      <trkpt lat="43.53364" lon="6.819">
        <ele>302</ele>
        <time>2012-11-01T10:52:28Z</time>
      </trkpt>
      <trkpt lat="43.53361" lon="6.819">
        <ele>302</ele>
        <time>2012-11-01T10:52:29Z</time>
      </trkpt>
      <trkpt lat="43.53358" lon="6.819">
        <ele>302</ele>
        <time>2012-11-01T10:52:30Z</time>
      </trkpt>
      <trkpt lat="43.53355" lon="6.81901">
        <ele>303</ele>
        <time>2012-11-01T10:52:31Z</time>
      </trkpt>
      <trkpt lat="43.53351" lon="6.81902">
        <ele>303</ele>
        <time>2012-11-01T10:52:32Z</time>
      </trkpt>
      <trkpt lat="43.53348" lon="6.81903">
        <ele>303</ele>
        <time>2012-11-01T10:52:33Z</time>
      </trkpt>
      <trkpt lat="43.53345" lon="6.81905">
        <ele>303</ele>
        <time>2012-11-01T10:52:34Z</time>
      </trkpt>
      <trkpt lat="43.53341" lon="6.81906">
        <ele>304</ele>
        <time>2012-11-01T10:52:35Z</time>
      </trkpt>
      <trkpt lat="43.53338" lon="6.81907">
        <ele>304</ele>
        <time>2012-11-01T10:52:36Z</time>
      </trkpt>
      <trkpt lat="43.53334" lon="6.81907">
        <ele>304</ele>
        <time>2012-11-01T10:52:37Z</time>
      </trkpt>
      <trkpt lat="43.53331" lon="6.81907">
        <ele>304</ele>
        <time>2012-11-01T10:52:38Z</time>
      </trkpt>
      <trkpt lat="43.53327" lon="6.81908">
        <ele>305</ele>
        <time>2012-11-01T10:52:39Z</time>
      </trkpt>
      <trkpt lat="43.53323" lon="6.81908">
        <ele>305</ele>
        <time>2012-11-01T10:52:40Z</time>
      </trkpt>
      <trkpt lat="43.53319" lon="6.81909">
        <ele>305</ele>
        <time>2012-11-01T10:52:41Z</time>
      </trkpt>
      <trkpt lat="43.53315" lon="6.81909">
        <ele>305</ele>
        <time>2012-11-01T10:52:42Z</time>
      </trkpt>
      <trkpt lat="43.53311" lon="6.81908">
        <ele>306</ele>
        <time>2012-11-01T10:52:43Z</time>
      </trkpt>
      <trkpt lat="43.53307" lon="6.81909">
        <ele>306</ele>
        <time>2012-11-01T10:52:44Z</time>
      </trkpt>
      <trkpt lat="43.53303" lon="6.81908">
        <ele>306</ele>
        <time>2012-11-01T10:52:45Z</time>
      </trkpt>
      <trkpt lat="43.53299" lon="6.81908">
        <ele>306</ele>
        <time>2012-11-01T10:52:46Z</time>
      </trkpt>
      <trkpt lat="43.53294" lon="6.81907">
        <ele>306</ele>
        <time>2012-11-01T10:52:47Z</time>
      </trkpt>
      <trkpt lat="43.5329" lon="6.81906">
        <ele>306</ele>
        <time>2012-11-01T10:52:48Z</time>
      </trkpt>
      <trkpt lat="43.53286" lon="6.81904">
        <ele>306</ele>
        <time>2012-11-01T10:52:49Z</time>
      </trkpt>
      <trkpt lat="43.53281" lon="6.81902">
        <ele>306</ele>
        <time>2012-11-01T10:52:50Z</time>
      </trkpt>
      <trkpt lat="43.53277" lon="6.819">
        <ele>306</ele>
        <time>2012-11-01T10:52:51Z</time>
      </trkpt>
      <trkpt lat="43.53273" lon="6.81898">
        <ele>306</ele>
        <time>2012-11-01T10:52:52Z</time>
      </trkpt>
      <trkpt lat="43.53269" lon="6.81896">
        <ele>306</ele>
        <time>2012-11-01T10:52:53Z</time>
      </trkpt>
      <trkpt lat="43.53265" lon="6.81894">
        <ele>306</ele>
        <time>2012-11-01T10:52:54Z</time>
      </trkpt>
      <trkpt lat="43.5326" lon="6.81892">
        <ele>306</ele>
        <time>2012-11-01T10:52:55Z</time>
      </trkpt>
      <trkpt lat="43.53256" lon="6.8189">
        <ele>306</ele>
        <time>2012-11-01T10:52:56Z</time>
      </trkpt>
      <trkpt lat="43.53252" lon="6.81888">
        <ele>306</ele>
        <time>2012-11-01T10:52:57Z</time>
      </trkpt>
      <trkpt lat="43.53248" lon="6.81887">
        <ele>306</ele>
        <time>2012-11-01T10:52:58Z</time>
      </trkpt>
      <trkpt lat="43.53244" lon="6.81885">
        <ele>307</ele>
        <time>2012-11-01T10:52:59Z</time>
      </trkpt>
      <trkpt lat="43.53239" lon="6.81885">
        <ele>307</ele>
        <time>2012-11-01T10:53:00Z</time>
      </trkpt>
      <trkpt lat="43.53235" lon="6.81884">
        <ele>307</ele>
        <time>2012-11-01T10:53:01Z</time>
      </trkpt>
      <trkpt lat="43.53231" lon="6.81884">
        <ele>307</ele>
        <time>2012-11-01T10:53:02Z</time>
      </trkpt>
      <trkpt lat="43.53227" lon="6.81885">
        <ele>307</ele>
        <time>2012-11-01T10:53:03Z</time>
      </trkpt>
      <trkpt lat="43.53224" lon="6.81886">
        <ele>307</ele>
        <time>2012-11-01T10:53:04Z</time>
      </trkpt>
      <trkpt lat="43.5322" lon="6.81887">
        <ele>307</ele>
        <time>2012-11-01T10:53:05Z</time>
      </trkpt>
      <trkpt lat="43.53216" lon="6.81889">
        <ele>307</ele>
        <time>2012-11-01T10:53:06Z</time>
      </trkpt>
      <trkpt lat="43.53212" lon="6.81891">
        <ele>307</ele>
        <time>2012-11-01T10:53:07Z</time>
      </trkpt>
      <trkpt lat="43.53208" lon="6.81894">
        <ele>307</ele>
        <time>2012-11-01T10:53:08Z</time>
      </trkpt>
      <trkpt lat="43.53205" lon="6.81897">
        <ele>307</ele>
        <time>2012-11-01T10:53:09Z</time>
      </trkpt>
      <trkpt lat="43.53201" lon="6.81901">
        <ele>307</ele>
        <time>2012-11-01T10:53:10Z</time>
      </trkpt>
      <trkpt lat="43.53197" lon="6.81904">
        <ele>307</ele>
        <time>2012-11-01T10:53:11Z</time>
      </trkpt>
      <trkpt lat="43.53194" lon="6.81908">
        <ele>307</ele>
        <time>2012-11-01T10:53:12Z</time>
      </trkpt>
      <trkpt lat="43.53191" lon="6.81911">
        <ele>307</ele>
        <time>2012-11-01T10:53:13Z</time>
      </trkpt>
      <trkpt lat="43.53188" lon="6.81915">
        <ele>307</ele>
        <time>2012-11-01T10:53:14Z</time>
      </trkpt>
      <trkpt lat="43.53184" lon="6.81918">
        <ele>307</ele>
        <time>2012-11-01T10:53:15Z</time>
      </trkpt>
      <trkpt lat="43.5318" lon="6.81922">
        <ele>307</ele>
        <time>2012-11-01T10:53:16Z</time>
      </trkpt>
      <trkpt lat="43.53176" lon="6.81925">
        <ele>307</ele>
        <time>2012-11-01T10:53:17Z</time>
      </trkpt>
      <trkpt lat="43.53172" lon="6.81929">
        <ele>307</ele>
        <time>2012-11-01T10:53:18Z</time>
      </trkpt>
      <trkpt lat="43.53168" lon="6.81933">
        <ele>307</ele>
        <time>2012-11-01T10:53:19Z</time>
      </trkpt>
      <trkpt lat="43.53165" lon="6.81937">
        <ele>307</ele>
        <time>2012-11-01T10:53:20Z</time>
      </trkpt>
      <trkpt lat="43.53162" lon="6.81941">
        <ele>307</ele>
        <time>2012-11-01T10:53:21Z</time>
      </trkpt>
      <trkpt lat="43.53158" lon="6.81946">
        <ele>307</ele>
        <time>2012-11-01T10:53:22Z</time>
      </trkpt>
      <trkpt lat="43.53154" lon="6.8195">
        <ele>307</ele>
        <time>2012-11-01T10:53:23Z</time>
      </trkpt>
      <trkpt lat="43.53151" lon="6.81955">
        <ele>307</ele>
        <time>2012-11-01T10:53:24Z</time>
      </trkpt>
      <trkpt lat="43.53147" lon="6.8196">
        <ele>307</ele>
        <time>2012-11-01T10:53:25Z</time>
      </trkpt>
      <trkpt lat="43.53143" lon="6.81965">
        <ele>307</ele>
        <time>2012-11-01T10:53:26Z</time>
      </trkpt>
      <trkpt lat="43.53139" lon="6.81969">
        <ele>307</ele>
        <time>2012-11-01T10:53:27Z</time>
      </trkpt>
      <trkpt lat="43.53136" lon="6.81974">
        <ele>307</ele>
        <time>2012-11-01T10:53:28Z</time>
      </trkpt>
      <trkpt lat="43.53132" lon="6.81979">
        <ele>307</ele>
        <time>2012-11-01T10:53:29Z</time>
      </trkpt>
      <trkpt lat="43.53128" lon="6.81985">
        <ele>307</ele>
        <time>2012-11-01T10:53:30Z</time>
      </trkpt>
      <trkpt lat="43.53125" lon="6.8199">
        <ele>307</ele>
        <time>2012-11-01T10:53:31Z</time>
      </trkpt>
      <trkpt lat="43.53121" lon="6.81995">
        <ele>307</ele>
        <time>2012-11-01T10:53:32Z</time>
      </trkpt>
      <trkpt lat="43.53117" lon="6.82001">
        <ele>307</ele>
        <time>2012-11-01T10:53:33Z</time>
      </trkpt>
      <trkpt lat="43.53112" lon="6.82006">
        <ele>307</ele>
        <time>2012-11-01T10:53:34Z</time>
      </trkpt>
      <trkpt lat="43.53107" lon="6.82011">
        <ele>307</ele>
        <time>2012-11-01T10:53:35Z</time>
      </trkpt>
      <trkpt lat="43.53102" lon="6.82015">
        <ele>307</ele>
        <time>2012-11-01T10:53:36Z</time>
      </trkpt>
      <trkpt lat="43.53096" lon="6.82021">
        <ele>307</ele>
        <time>2012-11-01T10:53:37Z</time>
      </trkpt>
      <trkpt lat="43.5309" lon="6.82027">
        <ele>307</ele>
        <time>2012-11-01T10:53:38Z</time>
      </trkpt>
      <trkpt lat="43.53085" lon="6.82034">
        <ele>307</ele>
        <time>2012-11-01T10:53:39Z</time>
      </trkpt>
      <trkpt lat="43.53079" lon="6.82043">
        <ele>307</ele>
        <time>2012-11-01T10:53:40Z</time>
      </trkpt>
      <trkpt lat="43.53073" lon="6.8205">
        <ele>307</ele>
        <time>2012-11-01T10:53:41Z</time>
      </trkpt>
      <trkpt lat="43.53067" lon="6.82056">
        <ele>307</ele>
        <time>2012-11-01T10:53:42Z</time>
      </trkpt>
      <trkpt lat="43.5306" lon="6.8206">
        <ele>307</ele>
        <time>2012-11-01T10:53:43Z</time>
      </trkpt>
      <trkpt lat="43.53053" lon="6.82063">
        <ele>307</ele>
        <time>2012-11-01T10:53:44Z</time>
      </trkpt>
      <trkpt lat="43.53046" lon="6.82065">
        <ele>307</ele>
        <time>2012-11-01T10:53:45Z</time>
      </trkpt>
      <trkpt lat="43.5304" lon="6.82067">
        <ele>307</ele>
        <time>2012-11-01T10:53:46Z</time>
      </trkpt>
      <trkpt lat="43.53033" lon="6.8207">
        <ele>307</ele>
        <time>2012-11-01T10:53:47Z</time>
      </trkpt>
      <trkpt lat="43.53027" lon="6.82072">
        <ele>307</ele>
        <time>2012-11-01T10:53:48Z</time>
      </trkpt>
      <trkpt lat="43.5302" lon="6.82076">
        <ele>307</ele>
        <time>2012-11-01T10:53:49Z</time>
      </trkpt>
      <trkpt lat="43.53013" lon="6.8208">
        <ele>307</ele>
        <time>2012-11-01T10:53:50Z</time>
      </trkpt>
      <trkpt lat="43.53006" lon="6.82083">
        <ele>307</ele>
        <time>2012-11-01T10:53:51Z</time>
      </trkpt>
      <trkpt lat="43.52999" lon="6.82086">
        <ele>307</ele>
        <time>2012-11-01T10:53:52Z</time>
      </trkpt>
      <trkpt lat="43.52992" lon="6.82089">
        <ele>307</ele>
        <time>2012-11-01T10:53:54Z</time>
      </trkpt>
      <trkpt lat="43.52985" lon="6.82092">
        <ele>307</ele>
        <time>2012-11-01T10:53:54Z</time>
      </trkpt>
      <trkpt lat="43.52978" lon="6.82094">
        <ele>307</ele>
        <time>2012-11-01T10:53:55Z</time>
      </trkpt>
      <trkpt lat="43.52971" lon="6.82095">
        <ele>306</ele>
        <time>2012-11-01T10:53:56Z</time>
      </trkpt>
      <trkpt lat="43.52964" lon="6.82096">
        <ele>306</ele>
        <time>2012-11-01T10:53:57Z</time>
      </trkpt>
      <trkpt lat="43.52956" lon="6.82094">
        <ele>306</ele>
        <time>2012-11-01T10:53:58Z</time>
      </trkpt>
      <trkpt lat="43.52949" lon="6.82093">
        <ele>306</ele>
        <time>2012-11-01T10:53:59Z</time>
      </trkpt>
      <trkpt lat="43.52941" lon="6.82094">
        <ele>305</ele>
        <time>2012-11-01T10:54:00Z</time>
      </trkpt>
      <trkpt lat="43.52935" lon="6.82099">
        <ele>305</ele>
        <time>2012-11-01T10:54:01Z</time>
      </trkpt>
      <trkpt lat="43.52931" lon="6.82107">
        <ele>305</ele>
        <time>2012-11-01T10:54:02Z</time>
      </trkpt>
      <trkpt lat="43.52929" lon="6.82117">
        <ele>304</ele>
        <time>2012-11-01T10:54:03Z</time>
      </trkpt>
      <trkpt lat="43.52927" lon="6.82128">
        <ele>304</ele>
        <time>2012-11-01T10:54:04Z</time>
      </trkpt>
      <trkpt lat="43.52924" lon="6.82137">
        <ele>304</ele>
        <time>2012-11-01T10:54:05Z</time>
      </trkpt>
      <trkpt lat="43.52923" lon="6.82148">
        <ele>304</ele>
        <time>2012-11-01T10:54:06Z</time>
      </trkpt>
      <trkpt lat="43.52921" lon="6.82158">
        <ele>304</ele>
        <time>2012-11-01T10:54:07Z</time>
      </trkpt>
      <trkpt lat="43.52919" lon="6.82168">
        <ele>304</ele>
        <time>2012-11-01T10:54:08Z</time>
      </trkpt>
      <trkpt lat="43.52919" lon="6.82179">
        <ele>304</ele>
        <time>2012-11-01T10:54:09Z</time>
      </trkpt>
      <trkpt lat="43.5292" lon="6.8219">
        <ele>304</ele>
        <time>2012-11-01T10:54:10Z</time>
      </trkpt>
      <trkpt lat="43.52922" lon="6.82201">
        <ele>304</ele>
        <time>2012-11-01T10:54:11Z</time>
      </trkpt>
      <trkpt lat="43.52924" lon="6.82212">
        <ele>304</ele>
        <time>2012-11-01T10:54:12Z</time>
      </trkpt>
      <trkpt lat="43.52925" lon="6.82224">
        <ele>303</ele>
        <time>2012-11-01T10:54:13Z</time>
      </trkpt>
      <trkpt lat="43.52926" lon="6.82235">
        <ele>303</ele>
        <time>2012-11-01T10:54:14Z</time>
      </trkpt>
      <trkpt lat="43.52926" lon="6.82246">
        <ele>303</ele>
        <time>2012-11-01T10:54:15Z</time>
      </trkpt>
      <trkpt lat="43.52926" lon="6.82258">
        <ele>303</ele>
        <time>2012-11-01T10:54:16Z</time>
      </trkpt>
      <trkpt lat="43.52925" lon="6.8227">
        <ele>302</ele>
        <time>2012-11-01T10:54:17Z</time>
      </trkpt>
      <trkpt lat="43.52924" lon="6.82282">
        <ele>302</ele>
        <time>2012-11-01T10:54:18Z</time>
      </trkpt>
      <trkpt lat="43.52922" lon="6.82295">
        <ele>302</ele>
        <time>2012-11-01T10:54:19Z</time>
      </trkpt>
      <trkpt lat="43.52921" lon="6.82308">
        <ele>301</ele>
        <time>2012-11-01T10:54:20Z</time>
      </trkpt>
      <trkpt lat="43.52918" lon="6.82321">
        <ele>301</ele>
        <time>2012-11-01T10:54:21Z</time>
      </trkpt>
      <trkpt lat="43.52915" lon="6.82335">
        <ele>301</ele>
        <time>2012-11-01T10:54:22Z</time>
      </trkpt>
      <trkpt lat="43.52912" lon="6.82348">
        <ele>300</ele>
        <time>2012-11-01T10:54:23Z</time>
      </trkpt>
      <trkpt lat="43.52909" lon="6.82362">
        <ele>299</ele>
        <time>2012-11-01T10:54:24Z</time>
      </trkpt>
      <trkpt lat="43.52906" lon="6.82376">
        <ele>299</ele>
        <time>2012-11-01T10:54:25Z</time>
      </trkpt>
      <trkpt lat="43.52904" lon="6.82391">
        <ele>298</ele>
        <time>2012-11-01T10:54:26Z</time>
      </trkpt>
      <trkpt lat="43.52904" lon="6.82407">
        <ele>297</ele>
        <time>2012-11-01T10:54:27Z</time>
      </trkpt>
      <trkpt lat="43.52905" lon="6.82422">
        <ele>296</ele>
        <time>2012-11-01T10:54:28Z</time>
      </trkpt>
      <trkpt lat="43.52906" lon="6.82439">
        <ele>295</ele>
        <time>2012-11-01T10:54:29Z</time>
      </trkpt>
      <trkpt lat="43.52908" lon="6.82455">
        <ele>294</ele>
        <time>2012-11-01T10:54:30Z</time>
      </trkpt>
      <trkpt lat="43.52911" lon="6.82472">
        <ele>293</ele>
        <time>2012-11-01T10:54:31Z</time>
      </trkpt>
      <trkpt lat="43.52913" lon="6.82488">
        <ele>292</ele>
        <time>2012-11-01T10:54:32Z</time>
      </trkpt>
      <trkpt lat="43.52915" lon="6.82505">
        <ele>291</ele>
        <time>2012-11-01T10:54:33Z</time>
      </trkpt>
      <trkpt lat="43.52917" lon="6.82523">
        <ele>290</ele>
        <time>2012-11-01T10:54:34Z</time>
      </trkpt>
      <trkpt lat="43.52918" lon="6.8254">
        <ele>289</ele>
        <time>2012-11-01T10:54:35Z</time>
      </trkpt>
      <trkpt lat="43.52918" lon="6.82558">
        <ele>288</ele>
        <time>2012-11-01T10:54:36Z</time>
      </trkpt>
      <trkpt lat="43.52917" lon="6.82575">
        <ele>287</ele>
        <time>2012-11-01T10:54:37Z</time>
      </trkpt>
      <trkpt lat="43.52916" lon="6.82592">
        <ele>286</ele>
        <time>2012-11-01T10:54:38Z</time>
      </trkpt>
      <trkpt lat="43.52914" lon="6.8261">
        <ele>285</ele>
        <time>2012-11-01T10:54:39Z</time>
      </trkpt>
      <trkpt lat="43.52913" lon="6.82627">
        <ele>284</ele>
        <time>2012-11-01T10:54:40Z</time>
      </trkpt>
      <trkpt lat="43.52911" lon="6.82644">
        <ele>283</ele>
        <time>2012-11-01T10:54:41Z</time>
      </trkpt>
      <trkpt lat="43.52908" lon="6.8266">
        <ele>282</ele>
        <time>2012-11-01T10:54:42Z</time>
      </trkpt>
      <trkpt lat="43.52905" lon="6.82676">
        <ele>281</ele>
        <time>2012-11-01T10:54:43Z</time>
      </trkpt>
      <trkpt lat="43.52902" lon="6.82691">
        <ele>281</ele>
        <time>2012-11-01T10:54:44Z</time>
      </trkpt>
      <trkpt lat="43.52898" lon="6.82707">
        <ele>281</ele>
        <time>2012-11-01T10:54:45Z</time>
      </trkpt>
      <trkpt lat="43.52895" lon="6.82721">
        <ele>280</ele>
        <time>2012-11-01T10:54:46Z</time>
      </trkpt>
      <trkpt lat="43.52892" lon="6.82736">
        <ele>280</ele>
        <time>2012-11-01T10:54:47Z</time>
      </trkpt>
      <trkpt lat="43.5289" lon="6.82751">
        <ele>279</ele>
        <time>2012-11-01T10:54:48Z</time>
      </trkpt>
      <trkpt lat="43.5289" lon="6.82766">
        <ele>279</ele>
        <time>2012-11-01T10:54:49Z</time>
      </trkpt>
      <trkpt lat="43.52889" lon="6.8278">
        <ele>278</ele>
        <time>2012-11-01T10:54:50Z</time>
      </trkpt>
      <trkpt lat="43.52888" lon="6.82795">
        <ele>278</ele>
        <time>2012-11-01T10:54:51Z</time>
      </trkpt>
      <trkpt lat="43.52888" lon="6.8281">
        <ele>277</ele>
        <time>2012-11-01T10:54:52Z</time>
      </trkpt>
      <trkpt lat="43.5289" lon="6.82825">
        <ele>277</ele>
        <time>2012-11-01T10:54:54Z</time>
      </trkpt>
      <trkpt lat="43.52893" lon="6.82839">
        <ele>276</ele>
        <time>2012-11-01T10:54:54Z</time>
      </trkpt>
      <trkpt lat="43.52897" lon="6.82855">
        <ele>276</ele>
        <time>2012-11-01T10:54:55Z</time>
      </trkpt>
      <trkpt lat="43.52901" lon="6.8287">
        <ele>275</ele>
        <time>2012-11-01T10:54:56Z</time>
      </trkpt>
      <trkpt lat="43.52905" lon="6.82886">
        <ele>274</ele>
        <time>2012-11-01T10:54:57Z</time>
      </trkpt>
      <trkpt lat="43.52909" lon="6.82901">
        <ele>274</ele>
        <time>2012-11-01T10:54:58Z</time>
      </trkpt>
      <trkpt lat="43.52914" lon="6.82916">
        <ele>273</ele>
        <time>2012-11-01T10:54:59Z</time>
      </trkpt>
      <trkpt lat="43.52919" lon="6.82931">
        <ele>272</ele>
        <time>2012-11-01T10:55:00Z</time>
      </trkpt>
      <trkpt lat="43.52924" lon="6.82944">
        <ele>271</ele>
        <time>2012-11-01T10:55:01Z</time>
      </trkpt>
      <trkpt lat="43.52931" lon="6.82957">
        <ele>270</ele>
        <time>2012-11-01T10:55:02Z</time>
      </trkpt>
      <trkpt lat="43.52937" lon="6.82969">
        <ele>270</ele>
        <time>2012-11-01T10:55:03Z</time>
      </trkpt>
      <trkpt lat="43.52943" lon="6.82981">
        <ele>269</ele>
        <time>2012-11-01T10:55:04Z</time>
      </trkpt>
      <trkpt lat="43.52946" lon="6.82996">
        <ele>268</ele>
        <time>2012-11-01T10:55:05Z</time>
      </trkpt>
      <trkpt lat="43.52945" lon="6.83012">
        <ele>267</ele>
        <time>2012-11-01T10:55:06Z</time>
      </trkpt>
      <trkpt lat="43.52941" lon="6.83027">
        <ele>266</ele>
        <time>2012-11-01T10:55:07Z</time>
      </trkpt>
      <trkpt lat="43.52934" lon="6.83038">
        <ele>266</ele>
        <time>2012-11-01T10:55:08Z</time>
      </trkpt>
      <trkpt lat="43.52924" lon="6.83044">
        <ele>265</ele>
        <time>2012-11-01T10:55:09Z</time>
      </trkpt>
      <trkpt lat="43.52913" lon="6.83049">
        <ele>264</ele>
        <time>2012-11-01T10:55:10Z</time>
      </trkpt>
      <trkpt lat="43.52903" lon="6.83053">
        <ele>263</ele>
        <time>2012-11-01T10:55:11Z</time>
      </trkpt>
      <trkpt lat="43.52893" lon="6.83056">
        <ele>263</ele>
        <time>2012-11-01T10:55:12Z</time>
      </trkpt>
      <trkpt lat="43.52883" lon="6.83059">
        <ele>263</ele>
        <time>2012-11-01T10:55:13Z</time>
      </trkpt>
      <trkpt lat="43.52874" lon="6.83063">
        <ele>263</ele>
        <time>2012-11-01T10:55:14Z</time>
      </trkpt>
      <trkpt lat="43.52867" lon="6.8307">
        <ele>263</ele>
        <time>2012-11-01T10:55:15Z</time>
      </trkpt>
      <trkpt lat="43.5286" lon="6.83078">
        <ele>262</ele>
        <time>2012-11-01T10:55:16Z</time>
      </trkpt>
      <trkpt lat="43.52856" lon="6.83088">
        <ele>262</ele>
        <time>2012-11-01T10:55:17Z</time>
      </trkpt>
      <trkpt lat="43.52855" lon="6.83101">
        <ele>262</ele>
        <time>2012-11-01T10:55:18Z</time>
      </trkpt>
      <trkpt lat="43.52856" lon="6.83114">
        <ele>262</ele>
        <time>2012-11-01T10:55:19Z</time>
      </trkpt>
      <trkpt lat="43.5286" lon="6.83127">
        <ele>261</ele>
        <time>2012-11-01T10:55:20Z</time>
      </trkpt>
      <trkpt lat="43.52864" lon="6.83141">
        <ele>261</ele>
        <time>2012-11-01T10:55:21Z</time>
      </trkpt>
      <trkpt lat="43.52866" lon="6.83155">
        <ele>260</ele>
        <time>2012-11-01T10:55:22Z</time>
      </trkpt>
      <trkpt lat="43.52865" lon="6.83169">
        <ele>260</ele>
        <time>2012-11-01T10:55:23Z</time>
      </trkpt>
      <trkpt lat="43.52862" lon="6.83182">
        <ele>259</ele>
        <time>2012-11-01T10:55:24Z</time>
      </trkpt>
      <trkpt lat="43.52858" lon="6.83194">
        <ele>259</ele>
        <time>2012-11-01T10:55:25Z</time>
      </trkpt>
      <trkpt lat="43.52855" lon="6.83206">
        <ele>259</ele>
        <time>2012-11-01T10:55:26Z</time>
      </trkpt>
      <trkpt lat="43.52851" lon="6.83218">
        <ele>259</ele>
        <time>2012-11-01T10:55:27Z</time>
      </trkpt>
      <trkpt lat="43.52847" lon="6.8323">
        <ele>259</ele>
        <time>2012-11-01T10:55:28Z</time>
      </trkpt>
      <trkpt lat="43.52842" lon="6.83241">
        <ele>259</ele>
        <time>2012-11-01T10:55:29Z</time>
      </trkpt>
      <trkpt lat="43.52836" lon="6.8325">
        <ele>258</ele>
        <time>2012-11-01T10:55:30Z</time>
      </trkpt>
      <trkpt lat="43.5283" lon="6.83257">
        <ele>258</ele>
        <time>2012-11-01T10:55:31Z</time>
      </trkpt>
      <trkpt lat="43.52822" lon="6.83257">
        <ele>258</ele>
        <time>2012-11-01T10:55:32Z</time>
      </trkpt>
      <trkpt lat="43.52814" lon="6.83248">
        <ele>257</ele>
        <time>2012-11-01T10:55:33Z</time>
      </trkpt>
      <trkpt lat="43.52806" lon="6.8324">
        <ele>257</ele>
        <time>2012-11-01T10:55:34Z</time>
      </trkpt>
      <trkpt lat="43.52798" lon="6.83234">
        <ele>257</ele>
        <time>2012-11-01T10:55:35Z</time>
      </trkpt>
      <trkpt lat="43.5279" lon="6.83231">
        <ele>256</ele>
        <time>2012-11-01T10:55:36Z</time>
      </trkpt>
      <trkpt lat="43.52782" lon="6.83228">
        <ele>256</ele>
        <time>2012-11-01T10:55:37Z</time>
      </trkpt>
      <trkpt lat="43.52774" lon="6.83226">
        <ele>256</ele>
        <time>2012-11-01T10:55:38Z</time>
      </trkpt>
      <trkpt lat="43.52766" lon="6.83226">
        <ele>256</ele>
        <time>2012-11-01T10:55:39Z</time>
      </trkpt>
      <trkpt lat="43.52758" lon="6.83227">
        <ele>256</ele>
        <time>2012-11-01T10:55:40Z</time>
      </trkpt>
      <trkpt lat="43.5275" lon="6.83231">
        <ele>255</ele>
        <time>2012-11-01T10:55:41Z</time>
      </trkpt>
      <trkpt lat="43.52742" lon="6.83235">
        <ele>255</ele>
        <time>2012-11-01T10:55:42Z</time>
      </trkpt>
      <trkpt lat="43.52734" lon="6.83238">
        <ele>255</ele>
        <time>2012-11-01T10:55:43Z</time>
      </trkpt>
      <trkpt lat="43.52725" lon="6.83242">
        <ele>255</ele>
        <time>2012-11-01T10:55:44Z</time>
      </trkpt>
      <trkpt lat="43.52717" lon="6.83245">
        <ele>254</ele>
        <time>2012-11-01T10:55:45Z</time>
      </trkpt>
      <trkpt lat="43.52709" lon="6.83248">
        <ele>254</ele>
        <time>2012-11-01T10:55:46Z</time>
      </trkpt>
      <trkpt lat="43.52701" lon="6.83252">
        <ele>254</ele>
        <time>2012-11-01T10:55:47Z</time>
      </trkpt>
      <trkpt lat="43.52693" lon="6.83253">
        <ele>254</ele>
        <time>2012-11-01T10:55:48Z</time>
      </trkpt>
      <trkpt lat="43.52685" lon="6.83253">
        <ele>253</ele>
        <time>2012-11-01T10:55:49Z</time>
      </trkpt>
      <trkpt lat="43.52676" lon="6.83252">
        <ele>253</ele>
        <time>2012-11-01T10:55:50Z</time>
      </trkpt>
      <trkpt lat="43.52668" lon="6.8325">
        <ele>253</ele>
        <time>2012-11-01T10:55:51Z</time>
      </trkpt>
      <trkpt lat="43.52659" lon="6.83247">
        <ele>253</ele>
        <time>2012-11-01T10:55:52Z</time>
      </trkpt>
      <trkpt lat="43.5265" lon="6.83245">
        <ele>253</ele>
        <time>2012-11-01T10:55:53Z</time>
      </trkpt>
      <trkpt lat="43.52642" lon="6.83243">
        <ele>253</ele>
        <time>2012-11-01T10:55:54Z</time>
      </trkpt>
      <trkpt lat="43.52633" lon="6.83241">
        <ele>252</ele>
        <time>2012-11-01T10:55:55Z</time>
      </trkpt>
      <trkpt lat="43.52624" lon="6.8324">
        <ele>252</ele>
        <time>2012-11-01T10:55:56Z</time>
      </trkpt>
      <trkpt lat="43.52616" lon="6.83242">
        <ele>252</ele>
        <time>2012-11-01T10:55:57Z</time>
      </trkpt>
      <trkpt lat="43.52608" lon="6.83248">
        <ele>251</ele>
        <time>2012-11-01T10:55:58Z</time>
      </trkpt>
      <trkpt lat="43.52602" lon="6.83256">
        <ele>251</ele>
        <time>2012-11-01T10:55:59Z</time>
      </trkpt>
      <trkpt lat="43.52596" lon="6.83266">
        <ele>251</ele>
        <time>2012-11-01T10:56:00Z</time>
      </trkpt>
      <trkpt lat="43.52589" lon="6.83276">
        <ele>250</ele>
        <time>2012-11-01T10:56:01Z</time>
      </trkpt>
      <trkpt lat="43.52582" lon="6.83285">
        <ele>250</ele>
        <time>2012-11-01T10:56:02Z</time>
      </trkpt>
      <trkpt lat="43.52575" lon="6.83294">
        <ele>250</ele>
        <time>2012-11-01T10:56:03Z</time>
      </trkpt>
      <trkpt lat="43.52568" lon="6.83304">
        <ele>249</ele>
        <time>2012-11-01T10:56:04Z</time>
      </trkpt>
      <trkpt lat="43.52564" lon="6.83317">
        <ele>249</ele>
        <time>2012-11-01T10:56:05Z</time>
      </trkpt>
      <trkpt lat="43.5256" lon="6.8333">
        <ele>249</ele>
        <time>2012-11-01T10:56:06Z</time>
      </trkpt>
      <trkpt lat="43.52557" lon="6.83344">
        <ele>248</ele>
        <time>2012-11-01T10:56:07Z</time>
      </trkpt>
      <trkpt lat="43.52554" lon="6.83358">
        <ele>248</ele>
        <time>2012-11-01T10:56:08Z</time>
      </trkpt>
      <trkpt lat="43.52552" lon="6.83373">
        <ele>248</ele>
        <time>2012-11-01T10:56:09Z</time>
      </trkpt>
      <trkpt lat="43.52551" lon="6.83387">
        <ele>248</ele>
        <time>2012-11-01T10:56:10Z</time>
      </trkpt>
      <trkpt lat="43.52551" lon="6.83402">
        <ele>247</ele>
        <time>2012-11-01T10:56:11Z</time>
      </trkpt>
      <trkpt lat="43.52552" lon="6.83417">
        <ele>247</ele>
        <time>2012-11-01T10:56:12Z</time>
      </trkpt>
      <trkpt lat="43.52554" lon="6.83432">
        <ele>247</ele>
        <time>2012-11-01T10:56:13Z</time>
      </trkpt>
      <trkpt lat="43.52555" lon="6.83446">
        <ele>247</ele>
        <time>2012-11-01T10:56:14Z</time>
      </trkpt>
      <trkpt lat="43.52556" lon="6.83461">
        <ele>246</ele>
        <time>2012-11-01T10:56:15Z</time>
      </trkpt>
      <trkpt lat="43.52556" lon="6.83475">
        <ele>246</ele>
        <time>2012-11-01T10:56:16Z</time>
      </trkpt>
      <trkpt lat="43.52556" lon="6.8349">
        <ele>246</ele>
        <time>2012-11-01T10:56:17Z</time>
      </trkpt>
      <trkpt lat="43.52557" lon="6.83504">
        <ele>246</ele>
        <time>2012-11-01T10:56:18Z</time>
      </trkpt>
      <trkpt lat="43.52559" lon="6.83518">
        <ele>245</ele>
        <time>2012-11-01T10:56:19Z</time>
      </trkpt>
      <trkpt lat="43.52563" lon="6.83531">
        <ele>245</ele>
        <time>2012-11-01T10:56:20Z</time>
      </trkpt>
      <trkpt lat="43.52569" lon="6.83542">
        <ele>244</ele>
        <time>2012-11-01T10:56:21Z</time>
      </trkpt>
      <trkpt lat="43.52576" lon="6.83552">
        <ele>244</ele>
        <time>2012-11-01T10:56:22Z</time>
      </trkpt>
      <trkpt lat="43.52583" lon="6.83562">
        <ele>243</ele>
        <time>2012-11-01T10:56:23Z</time>
      </trkpt>
      <trkpt lat="43.5259" lon="6.83572">
        <ele>243</ele>
        <time>2012-11-01T10:56:24Z</time>
      </trkpt>
      <trkpt lat="43.52597" lon="6.83582">
        <ele>242</ele>
        <time>2012-11-01T10:56:25Z</time>
      </trkpt>
      <trkpt lat="43.52605" lon="6.83592">
        <ele>242</ele>
        <time>2012-11-01T10:56:26Z</time>
      </trkpt>
      <trkpt lat="43.52613" lon="6.83601">
        <ele>241</ele>
        <time>2012-11-01T10:56:27Z</time>
      </trkpt>
      <trkpt lat="43.52621" lon="6.83609">
        <ele>241</ele>
        <time>2012-11-01T10:56:28Z</time>
      </trkpt>
      <trkpt lat="43.52629" lon="6.83617">
        <ele>240</ele>
        <time>2012-11-01T10:56:29Z</time>
      </trkpt>
      <trkpt lat="43.52638" lon="6.83624">
        <ele>240</ele>
        <time>2012-11-01T10:56:30Z</time>
      </trkpt>
      <trkpt lat="43.52647" lon="6.83631">
        <ele>239</ele>
        <time>2012-11-01T10:56:31Z</time>
      </trkpt>
      <trkpt lat="43.52655" lon="6.8364">
        <ele>239</ele>
        <time>2012-11-01T10:56:32Z</time>
      </trkpt>
      <trkpt lat="43.52662" lon="6.83651">
        <ele>238</ele>
        <time>2012-11-01T10:56:33Z</time>
      </trkpt>
      <trkpt lat="43.52665" lon="6.83663">
        <ele>238</ele>
        <time>2012-11-01T10:56:34Z</time>
      </trkpt>
      <trkpt lat="43.52666" lon="6.83677">
        <ele>237</ele>
        <time>2012-11-01T10:56:35Z</time>
      </trkpt>
      <trkpt lat="43.52664" lon="6.83691">
        <ele>236</ele>
        <time>2012-11-01T10:56:36Z</time>
      </trkpt>
      <trkpt lat="43.5266" lon="6.83703">
        <ele>236</ele>
        <time>2012-11-01T10:56:37Z</time>
      </trkpt>
      <trkpt lat="43.52657" lon="6.83714">
        <ele>236</ele>
        <time>2012-11-01T10:56:38Z</time>
      </trkpt>
      <trkpt lat="43.52654" lon="6.83725">
        <ele>236</ele>
        <time>2012-11-01T10:56:39Z</time>
      </trkpt>
      <trkpt lat="43.52652" lon="6.83735">
        <ele>236</ele>
        <time>2012-11-01T10:56:40Z</time>
      </trkpt>
      <trkpt lat="43.52649" lon="6.83744">
        <ele>236</ele>
        <time>2012-11-01T10:56:41Z</time>
      </trkpt>
      <trkpt lat="43.52646" lon="6.83753">
        <ele>236</ele>
        <time>2012-11-01T10:56:42Z</time>
      </trkpt>
      <trkpt lat="43.52642" lon="6.83761">
        <ele>236</ele>
        <time>2012-11-01T10:56:43Z</time>
      </trkpt>
      <trkpt lat="43.52638" lon="6.83769">
        <ele>236</ele>
        <time>2012-11-01T10:56:44Z</time>
      </trkpt>
      <trkpt lat="43.52636" lon="6.83778">
        <ele>236</ele>
        <time>2012-11-01T10:56:45Z</time>
      </trkpt>
      <trkpt lat="43.52635" lon="6.83787">
        <ele>236</ele>
        <time>2012-11-01T10:56:46Z</time>
      </trkpt>
      <trkpt lat="43.52636" lon="6.83796">
        <ele>236</ele>
        <time>2012-11-01T10:56:47Z</time>
      </trkpt>
      <trkpt lat="43.52639" lon="6.83806">
        <ele>236</ele>
        <time>2012-11-01T10:56:48Z</time>
      </trkpt>
      <trkpt lat="43.52642" lon="6.83815">
        <ele>236</ele>
        <time>2012-11-01T10:56:49Z</time>
      </trkpt>
      <trkpt lat="43.52645" lon="6.83824">
        <ele>236</ele>
        <time>2012-11-01T10:56:50Z</time>
      </trkpt>
      <trkpt lat="43.52649" lon="6.83834">
        <ele>236</ele>
        <time>2012-11-01T10:56:51Z</time>
      </trkpt>
      <trkpt lat="43.52651" lon="6.83844">
        <ele>236</ele>
        <time>2012-11-01T10:56:52Z</time>
      </trkpt>
      <trkpt lat="43.52654" lon="6.83855">
        <ele>236</ele>
        <time>2012-11-01T10:56:53Z</time>
      </trkpt>
      <trkpt lat="43.52655" lon="6.83865">
        <ele>236</ele>
        <time>2012-11-01T10:56:54Z</time>
      </trkpt>
      <trkpt lat="43.52656" lon="6.83876">
        <ele>236</ele>
        <time>2012-11-01T10:56:55Z</time>
      </trkpt>
      <trkpt lat="43.52656" lon="6.83886">
        <ele>236</ele>
        <time>2012-11-01T10:56:56Z</time>
      </trkpt>
      <trkpt lat="43.52656" lon="6.83897">
        <ele>236</ele>
        <time>2012-11-01T10:56:57Z</time>
      </trkpt>
      <trkpt lat="43.52655" lon="6.83907">
        <ele>236</ele>
        <time>2012-11-01T10:56:58Z</time>
      </trkpt>
      <trkpt lat="43.52655" lon="6.83918">
        <ele>236</ele>
        <time>2012-11-01T10:56:59Z</time>
      </trkpt>
      <trkpt lat="43.52655" lon="6.83928">
        <ele>236</ele>
        <time>2012-11-01T10:57:00Z</time>
      </trkpt>
      <trkpt lat="43.52655" lon="6.83938">
        <ele>236</ele>
        <time>2012-11-01T10:57:01Z</time>
      </trkpt>
      <trkpt lat="43.52657" lon="6.83946">
        <ele>236</ele>
        <time>2012-11-01T10:57:02Z</time>
      </trkpt>
      <trkpt lat="43.52658" lon="6.83954">
        <ele>236</ele>
        <time>2012-11-01T10:57:03Z</time>
      </trkpt>
      <trkpt lat="43.52659" lon="6.83961">
        <ele>236</ele>
        <time>2012-11-01T10:57:04Z</time>
      </trkpt>
      <trkpt lat="43.52658" lon="6.83966">
        <ele>236</ele>
        <time>2012-11-01T10:57:05Z</time>
      </trkpt>
      <trkpt lat="43.52657" lon="6.83969">
        <ele>236</ele>
        <time>2012-11-01T10:57:06Z</time>
      </trkpt>
      <trkpt lat="43.52656" lon="6.83971">
        <ele>236</ele>
        <time>2012-11-01T10:57:07Z</time>
      </trkpt>
      <trkpt lat="43.52656" lon="6.8397">
        <ele>236</ele>
        <time>2012-11-01T10:57:13Z</time>
      </trkpt>
    </trkseg>
  </trk>
</gpx>